# Wetter Temperatur Luftdruck Luftfeuchtigkeit Sichtweite Windgeschwindigkeit Windrichtung Zeit
1 Clear 21 1013 91 10000 0.89 264 15:55 01.02.2023
2 Clear 21 1014 92 10000 0.45 264 13:42 01.02.2023
3 Clear 21 1014 92 10000 0.89 264 13:19 01.02.2023
4 Clouds 22 1015 92 10000 0 0 12:26 01.02.2023
5 Clouds 23 1015 89 10000 1.54 130 09:42 01.02.2023
6 Clouds 26 1011 77 10000 3.6 150 03:45 01.02.2023
7 Clouds 26 1015 80 10000 3.6 20 22:19 31.01.2023
8 Rain 23 1014 88 10000 4.63 60 20:22 31.01.2023
9 Rain 22 1013 95 10000 2.06 310 19:24 31.01.2023
10 Clouds 21 1012 92 10000 2.57 330 16:34 31.01.2023
11 Rain 21 1012 94 10000 0.45 1 15:36 31.01.2023
12 Rain 21 1012 93 10000 0 0 15:18 31.01.2023
13 Rain 21 1013 92 10000 1.54 350 12:33 31.01.2023
14 Rain 21 1013 90 10000 0.89 104 11:21 31.01.2023
15 Rain 21 1011 93 10000 1.79 100 09:54 31.01.2023
16 Rain 22 1012 89 10000 2.06 100 09:20 31.01.2023
17 Clouds 22 1013 87 10000 2.57 150 08:35 31.01.2023
18 Rain 23 1011 88 10000 5.14 140 05:46 31.01.2023
19 Rain 24 1010 85 10000 4.63 90 23:58 30.01.2023
20 Rain 23 1012 82 10000 5.14 50 22:54 30.01.2023
21 Rain 23 1012 84 10000 4.63 50 22:32 30.01.2023
22 Rain 22 1012 87 10000 6.69 60 21:23 30.01.2023
23 Rain 21 1013 91 10000 1.54 360 20:35 30.01.2023
24 Rain 22 1011 81 10000 8.23 40 17:54 30.01.2023
25 Rain 21 1010 85 10000 4.63 10 16:34 30.01.2023
26 Rain 20 1012 90 10000 2.06 20 14:28 30.01.2023
27 Rain 20 1013 91 10000 4.63 350 12:44 30.01.2023
28 Rain 20 1014 93 10000 4.63 10 11:28 30.01.2023
29 Rain 20 1013 90 10000 2.57 10 09:54 30.01.2023
30 Rain 20 1012 93 10000 1.34 141 08:57 30.01.2023
31 Rain 21 1013 91 10000 2.57 320 07:29 30.01.2023
32 Rain 22 1013 84 10000 5.66 20 01:42 30.01.2023
33 Rain 22 1014 80 10000 4.63 360 23:35 29.01.2023
34 Rain 22 1014 82 10000 4.63 10 22:37 29.01.2023
35 Rain 22 1017 81 10000 7.2 20 21:41 29.01.2023
36 Rain 21 1016 86 10000 4.12 350 20:41 29.01.2023
37 Rain 21 1016 85 10000 4.12 340 19:48 29.01.2023
38 Rain 21 1016 87 10000 4.12 340 19:27 29.01.2023
39 Rain 21 1016 87 10000 4.12 350 17:49 29.01.2023
40 Rain 21 1016 84 10000 3.6 10 16:21 29.01.2023
41 Rain 21 1016 84 10000 3.6 10 14:48 29.01.2023
42 Rain 21 1016 81 10000 5.14 350 13:30 29.01.2023
43 Rain 22 1017 81 10000 3.09 340 12:42 29.01.2023
44 Rain 22 1015 81 10000 3.09 340 12:22 29.01.2023
45 Rain 22 1015 82 10000 4.63 350 11:48 29.01.2023
46 Clouds 22 1015 81 10000 4.63 350 11:26 29.01.2023
47 Rain 21 1017 82 10000 4.12 10 09:37 29.01.2023
48 Rain 21 1017 87 10000 5.66 20 07:19 29.01.2023
49 Rain 23 1015 80 10000 4.47 20 00:59 29.01.2023
50 Rain 23 1017 79 10000 8.23 360 23:27 28.01.2023
51 Rain 22 1017 85 10000 3.6 350 20:38 28.01.2023
52 Rain 21 1017 89 10000 3.6 330 19:52 28.01.2023
53 Rain 21 1016 90 10000 3.09 340 18:27 28.01.2023
54 Clouds 20 1014 92 10000 0.89 179 16:59 28.01.2023
55 Clouds 20 1013 89 10000 4.92 330 16:20 28.01.2023
56 Clouds 20 1013 89 10000 4.92 330 16:20 28.01.2023
57 Clouds 20 1015 91 10000 5.14 330 15:49 28.01.2023
58 Clouds 20 1015 87 10000 4.63 330 14:26 28.01.2023
59 Rain 20 1014 86 10000 4.12 340 12:50 28.01.2023
60 Clouds 20 1017 88 10000 3.09 360 11:54 28.01.2023
61 Rain 21 1014 84 10000 1.54 40 10:34 28.01.2023
62 Clouds 22 1016 76 10000 4.12 40 06:52 28.01.2023
63 Clouds 25 1014 57 10000 7.2 40 01:36 28.01.2023
64 Clouds 25 1014 59 10000 8.23 40 00:23 28.01.2023
65 Clouds 23 1017 69 10000 6.69 30 20:57 27.01.2023
66 Clouds 20 1016 72 10000 4.12 360 18:25 27.01.2023
67 Clouds 20 1016 75 10000 3.6 320 17:54 27.01.2023
68 Clouds 20 1016 76 10000 3.6 320 17:18 27.01.2023
69 Clouds 20 1015 81 10000 3.09 350 16:34 27.01.2023
70 Clouds 20 1015 78 10000 3.09 330 14:53 27.01.2023
71 Clouds 20 1015 77 10000 3.09 330 14:24 27.01.2023
72 Clouds 20 1015 75 10000 2.57 330 12:48 27.01.2023
73 Clouds 21 1016 72 10000 3.6 340 08:41 27.01.2023
74 Clouds 23 1015 69 10000 5.66 20 04:55 27.01.2023
75 Clouds 25 1016 53 10000 7.15 350 22:54 26.01.2023
76 Clouds 24 1016 58 10000 6.69 360 21:39 26.01.2023
77 Clouds 23 1016 63 10000 5.14 360 20:35 26.01.2023
78 Clouds 22 1015 71 10000 5.14 360 18:28 26.01.2023
79 Clouds 21 1014 74 10000 5.66 360 17:42 26.01.2023
80 Clouds 21 1014 79 10000 3.09 360 16:27 26.01.2023
81 Clouds 21 1014 79 10000 3.09 360 15:53 26.01.2023
82 Clouds 21 1014 79 10000 3.09 360 15:30 26.01.2023
83 Clouds 21 1014 78 10000 4.12 350 14:49 26.01.2023
84 Clouds 21 1014 81 10000 3.6 350 12:48 26.01.2023
85 Clouds 21 1013 84 10000 2.57 10 11:26 26.01.2023
86 Rain 21 1015 86 6437 2.57 10 10:29 26.01.2023
87 Clouds 22 1015 81 10000 4.12 360 09:44 26.01.2023
88 Rain 23 1014 77 10000 10.29 20 08:25 26.01.2023
89 Rain 23 1014 77 10000 10.29 20 08:25 26.01.2023
90 Clouds 25 1011 71 10000 1.79 116 23:59 25.01.2023
91 Clouds 26 1013 66 10000 6.17 10 23:38 25.01.2023
92 Clouds 25 1014 74 10000 0.89 172 21:57 25.01.2023
93 Clouds 24 1016 77 10000 2.06 30 21:21 25.01.2023
94 Rain 22 1014 84 10000 1.54 160 18:57 25.01.2023
95 Rain 20 1013 85 10000 2.24 290 18:22 25.01.2023
96 Clouds 21 1013 82 10000 2.06 340 15:50 25.01.2023
97 Clouds 21 1012 83 10000 2.24 310 12:59 25.01.2023
98 Clouds 21 1013 83 10000 0 0 11:21 25.01.2023
99 Clouds 22 1014 81 10000 0 0 09:48 25.01.2023
100 Rain 23 1013 83 10000 2.57 290 07:45 25.01.2023
101 Clouds 27 1012 68 10000 4.47 150 01:36 25.01.2023
102 Clouds 27 1014 63 10000 4.63 150 00:23 25.01.2023
103 Clouds 26 1017 72 10000 3.6 140 21:34 24.01.2023
104 Clouds 25 1016 75 10000 1.54 240 20:19 24.01.2023
105 Clouds 25 1016 75 10000 1.54 240 20:19 24.01.2023
106 Clouds 21 1015 91 10000 0.45 89 18:44 24.01.2023
107 Clouds 21 1015 91 10000 0 0 17:31 24.01.2023
108 Clear 21 1014 90 10000 1.34 300 16:53 24.01.2023
109 Clouds 21 1014 89 10000 0 0 15:50 24.01.2023
110 Clouds 22 1015 88 10000 1.54 350 13:22 24.01.2023
111 Clouds 22 1016 87 10000 2.06 310 11:30 24.01.2023
112 Clouds 23 1016 80 10000 2.57 100 08:24 24.01.2023
113 Clouds 24 1015 80 10000 2.06 110 07:54 24.01.2023
114 Clouds 24 1015 80 10000 2.06 110 07:26 24.01.2023
115 Rain 26 1014 67 10000 4.63 210 02:38 24.01.2023
116 Clouds 27 1015 62 10000 4.63 200 00:35 24.01.2023
117 Clouds 27 1017 63 10000 3.09 190 22:28 23.01.2023
118 Clouds 24 1015 79 10000 0.45 72 19:55 23.01.2023
119 Clear 20 1015 86 10000 1.54 180 18:51 23.01.2023
120 Rain 20 1015 85 10000 1.54 330 16:39 23.01.2023
121 Clear 21 1014 88 10000 1.34 340 14:59 23.01.2023
122 Clear 21 1015 87 10000 2.57 320 13:45 23.01.2023
123 Clear 22 1015 86 10000 2.24 330 12:55 23.01.2023
124 Clouds 22 1016 83 10000 2.57 340 11:45 23.01.2023
125 Clouds 23 1016 83 10000 1.54 300 10:25 23.01.2023
126 Clouds 23 1016 79 10000 4.63 60 08:23 23.01.2023
127 Clouds 28 1017 60 10000 4.12 60 23:51 22.01.2023
128 Clouds 26 1018 69 10000 3.6 110 21:49 22.01.2023
129 Clear 25 1016 73 10000 0.89 21 20:58 22.01.2023
130 Clouds 22 1016 84 10000 0.45 154 19:54 22.01.2023
131 Clouds 21 1016 87 10000 0.45 133 19:20 22.01.2023
132 Clouds 21 1016 84 10000 1.54 320 18:23 22.01.2023
133 Clear 21 1015 84 10000 0.45 52 17:55 22.01.2023
134 Clouds 21 1015 87 10000 0.45 28 17:23 22.01.2023
135 Clear 21 1014 89 10000 1.34 340 14:59 22.01.2023
136 Clouds 21 1015 88 10000 1.54 340 14:20 22.01.2023
137 Clear 21 1014 90 10000 0.45 66 13:26 22.01.2023
138 Clouds 22 1015 85 10000 0.45 142 12:28 22.01.2023
139 Clouds 23 1016 81 10000 2.06 130 10:40 22.01.2023
140 Clouds 24 1015 79 10000 3.09 160 08:51 22.01.2023
141 Clouds 27 1012 66 10000 4.47 160 02:56 22.01.2023
142 Clouds 27 1016 64 10000 5.66 160 23:43 21.01.2023
143 Clouds 27 1015 68 10000 6.17 160 22:48 21.01.2023
144 Clouds 25 1014 73 10000 0.45 176 20:59 21.01.2023
145 Clouds 24 1014 77 10000 5.14 150 18:49 21.01.2023
146 Clouds 24 1013 79 10000 4.63 160 15:27 21.01.2023
147 Clouds 24 1013 77 10000 5.14 170 13:31 21.01.2023
148 Clouds 25 1013 76 10000 4.63 170 12:43 21.01.2023
149 Clouds 25 1014 75 10000 5.66 150 11:28 21.01.2023
150 Clouds 25 1015 75 10000 5.14 160 10:47 21.01.2023
151 Clouds 25 1014 75 10000 5.66 160 06:48 21.01.2023
152 Clouds 27 1015 58 10000 6.71 150 00:27 21.01.2023
153 Clouds 27 1014 63 10000 7.2 160 22:26 20.01.2023
154 Clouds 26 1015 67 10000 6.71 160 21:35 20.01.2023
155 Clouds 26 1015 72 10000 5.66 160 20:42 20.01.2023
156 Clouds 22 1014 84 10000 1.54 340 18:29 20.01.2023
157 Rain 22 1014 85 10000 0 0 15:45 20.01.2023
158 Clouds 22 1014 85 10000 0.45 171 14:33 20.01.2023
159 Clouds 22 1014 86 10000 1.54 10 12:24 20.01.2023
160 Clear 22 1013 89 10000 0.45 82 08:59 20.01.2023
161 Clouds 23 1014 83 10000 2.06 40 07:43 20.01.2023
162 Clouds 27 1013 71 10000 3.09 200 02:33 20.01.2023
163 Clouds 27 1016 60 10000 2.57 170 22:38 19.01.2023
164 Clouds 27 1017 71 10000 1.43 133 21:59 19.01.2023
165 Clouds 25 1016 75 10000 0.45 141 20:21 19.01.2023
166 Clouds 21 1014 86 10000 1.79 340 18:57 19.01.2023
167 Clear 22 1014 87 10000 1.34 330 15:22 19.01.2023
168 Clouds 22 1016 79 10000 1.54 340 10:44 19.01.2023
169 Clouds 23 1015 82 10000 1.34 10 08:59 19.01.2023
170 Clouds 28 1015 55 10000 4.63 170 23:19 18.01.2023
171 Clouds 26 1016 66 10000 1.54 210 20:38 18.01.2023
172 Clouds 25 1016 68 10000 1.54 210 20:18 18.01.2023
173 Clouds 23 1016 77 10000 1.54 350 19:36 18.01.2023
174 Clear 20 1015 81 10000 0 0 17:32 18.01.2023
175 Clouds 21 1015 83 10000 2.06 340 14:21 18.01.2023
176 Clear 22 1016 83 10000 1.54 340 12:53 18.01.2023
177 Clouds 22 1017 85 10000 1.54 350 10:29 18.01.2023
178 Clouds 23 1017 83 10000 0 0 07:36 18.01.2023
179 Clouds 27 1016 69 10000 4.02 210 01:25 18.01.2023
180 Clouds 27 1018 65 10000 3.09 80 22:30 17.01.2023
181 Clouds 24 1018 77 10000 1.54 320 20:25 17.01.2023
182 Clouds 22 1017 88 10000 0 0 19:18 17.01.2023
183 Clear 21 1017 90 10000 0 0 17:47 17.01.2023
184 Clouds 21 1016 88 10000 2.06 320 15:35 17.01.2023
185 Clouds 21 1017 88 10000 1.54 350 14:52 17.01.2023
186 Clouds 21 1016 91 10000 1.09 253 13:34 17.01.2023
187 Clouds 22 1018 86 10000 1.54 350 11:50 17.01.2023
188 Clouds 22 1018 84 10000 2.06 30 10:35 17.01.2023
189 Clouds 22 1018 83 10000 2.06 340 09:27 17.01.2023
190 Clouds 24 1018 79 10000 0 0 07:38 17.01.2023
191 Clouds 26 1016 72 10000 4.12 230 03:50 17.01.2023
192 Clouds 26 1016 73 10000 4.63 180 00:51 17.01.2023
193 Clouds 26 1020 71 10000 1.54 0 22:40 16.01.2023
194 Clouds 25 1020 75 10000 0 0 21:46 16.01.2023
195 Clear 23 1019 83 10000 0.95 39 19:56 16.01.2023
196 Clouds 22 1019 85 10000 0 0 19:25 16.01.2023
197 Clouds 21 1019 86 10000 1.54 320 18:48 16.01.2023
198 Clouds 21 1019 86 10000 1.54 320 18:19 16.01.2023
199 Clouds 22 1018 84 10000 1.54 20 17:20 16.01.2023
200 Rain 22 1019 88 10000 2.06 270 14:27 16.01.2023
201 Rain 22 1019 88 10000 1.54 250 13:36 16.01.2023
202 Rain 23 1019 86 10000 2.06 330 10:26 16.01.2023
203 Clouds 23 1019 85 10000 3.6 340 08:32 16.01.2023
204 Clouds 25 1020 71 10000 4.12 100 22:49 15.01.2023
205 Clouds 26 1020 66 10000 2.57 90 21:24 15.01.2023
206 Clouds 25 1019 71 10000 2.06 30 20:31 15.01.2023
207 Clouds 24 1019 77 10000 2.06 70 19:34 15.01.2023
208 Clouds 24 1019 77 10000 2.06 70 19:34 15.01.2023
209 Clouds 21 1018 79 10000 1.54 50 17:38 15.01.2023
210 Clouds 23 1017 77 10000 1.34 350 14:59 15.01.2023
211 Clouds 23 1018 75 10000 0.45 59 12:25 15.01.2023
212 Clouds 23 1018 76 10000 2.06 100 11:29 15.01.2023
213 Clouds 23 1019 77 10000 1.54 350 10:27 15.01.2023
214 Clouds 23 1019 78 10000 1.54 330 08:29 15.01.2023
215 Clouds 27 1018 54 10000 0.45 171 23:56 14.01.2023
216 Clouds 27 1021 54 10000 0 0 22:44 14.01.2023
217 Clouds 25 1020 63 10000 2.06 320 21:37 14.01.2023
218 Clouds 25 1020 65 10000 2.06 320 21:18 14.01.2023
219 Clouds 24 1019 68 10000 1.34 340 20:56 14.01.2023
220 Clouds 23 1020 72 10000 1.54 340 20:26 14.01.2023
221 Clouds 19 1019 87 10000 1.79 330 18:18 14.01.2023
222 Clear 19 1017 86 10000 2.57 340 15:41 14.01.2023
223 Clear 19 1017 86 10000 2.57 340 15:23 14.01.2023
224 Clear 19 1017 86 10000 2.57 320 14:19 14.01.2023
225 Clouds 20 1018 80 10000 2.06 340 12:50 14.01.2023
226 Clouds 21 1018 79 10000 1.54 350 10:50 14.01.2023
227 Clouds 21 1018 77 10000 1.54 0 08:41 14.01.2023
228 Clouds 26 1015 57 10000 4.63 160 02:36 14.01.2023
229 Clear 26 1020 58 10000 2.24 130 22:59 13.01.2023
230 Clouds 26 1020 57 10000 2.57 130 22:41 13.01.2023
231 Clear 25 1020 61 10000 1.34 60 21:58 13.01.2023
232 Clouds 24 1019 70 10000 0 0 20:35 13.01.2023
233 Clouds 20 1019 84 10000 1.54 320 19:27 13.01.2023
234 Clear 19 1018 85 10000 1.54 320 17:40 13.01.2023
235 Clear 20 1016 82 10000 2.05 70 14:58 13.01.2023
236 Clear 20 1017 81 10000 1.54 330 12:25 13.01.2023
237 Clear 21 1017 77 10000 1.54 350 10:41 13.01.2023
238 Clear 21 1017 76 10000 1.54 350 10:23 13.01.2023
239 Clear 21 1017 71 10000 1.54 350 09:44 13.01.2023
240 Clear 22 1017 69 10000 1.54 320 08:51 13.01.2023
241 Clear 22 1016 71 10000 1.54 120 06:56 13.01.2023
242 Clear 23 1016 68 10000 1.54 130 06:18 13.01.2023
243 Clouds 26 1014 55 10000 4.63 160 02:20 13.01.2023
244 Clouds 26 1018 54 10000 3.09 70 22:52 12.01.2023
245 Clouds 24 1019 60 10000 2.57 100 21:56 12.01.2023
246 Clouds 23 1018 63 10000 2.57 340 20:52 12.01.2023
247 Clouds 18 1017 76 10000 3.09 120 18:26 12.01.2023
248 Clear 19 1015 74 10000 1.34 20 16:59 12.01.2023
249 Clear 20 1015 72 10000 2.68 10 14:58 12.01.2023
250 Clouds 20 1016 69 10000 3.09 10 14:38 12.01.2023
251 Clouds 20 1016 70 10000 3.09 10 14:18 12.01.2023
252 Clouds 21 1018 64 10000 5.66 30 12:19 12.01.2023
253 Clouds 21 1018 66 10000 2.57 10 10:25 12.01.2023
254 Clouds 21 1017 70 10000 5.66 40 07:26 12.01.2023
255 Clouds 26 1017 58 10000 7.72 40 00:31 12.01.2023
256 Clouds 26 1019 51 10000 7.2 20 23:55 11.01.2023
257 Clouds 26 1018 56 10000 7.2 20 23:36 11.01.2023
258 Clouds 26 1018 56 10000 7.2 20 23:36 11.01.2023
259 Clouds 26 1018 56 10000 7.2 20 23:36 11.01.2023
260 Clouds 26 1018 56 10000 7.2 20 23:18 11.01.2023
261 Clouds 25 1019 65 10000 5.14 30 21:22 11.01.2023
262 Clouds 20 1018 84 10000 1.54 190 18:51 11.01.2023
263 Clear 20 1018 86 10000 2.06 310 17:37 11.01.2023
264 Clear 20 1018 84 10000 1.54 350 15:43 11.01.2023
265 Clouds 21 1017 84 10000 3.62 360 13:57 11.01.2023
266 Clear 21 1019 83 10000 1.54 330 12:33 11.01.2023
267 Clear 21 1020 80 10000 0 0 11:24 11.01.2023
268 Clouds 23 1020 65 10000 1.54 10 08:50 11.01.2023
269 Clouds 23 1019 69 10000 4.47 340 07:29 11.01.2023
270 Clear 23 1018 76 10000 3.09 330 06:23 11.01.2023
271 Clouds 28 1020 51 10000 4.12 10 23:44 10.01.2023
272 Clear 27 1021 50 10000 2.57 0 22:18 10.01.2023
273 Clear 26 1020 56 10000 2.57 350 21:18 10.01.2023
274 Clouds 22 1019 71 10000 1.54 350 19:53 10.01.2023
275 Clouds 21 1019 77 10000 2.06 320 18:50 10.01.2023
276 Clouds 20 1019 81 10000 2.06 320 18:27 10.01.2023
277 Clouds 21 1017 79 10000 1.78 356 16:59 10.01.2023
278 Clouds 20 1018 83 10000 2.57 300 15:33 10.01.2023
279 Clouds 20 1018 83 10000 2.57 300 15:33 10.01.2023
280 Clouds 20 1018 82 10000 2.57 20 14:35 10.01.2023
281 Clouds 21 1019 82 10000 2.57 40 12:47 10.01.2023
282 Clouds 22 1019 77 10000 3.09 340 09:43 10.01.2023
283 Clouds 22 1019 77 10000 3.09 340 09:43 10.01.2023
284 Clouds 22 1019 78 10000 2.57 280 08:37 10.01.2023
285 Clouds 22 1018 82 10000 0.45 234 07:55 10.01.2023
286 Clear 24 1016 75 10000 0.45 199 04:59 10.01.2023
287 Clouds 27 1020 52 10000 2.06 360 23:57 09.01.2023
288 Clouds 25 1021 66 10000 1.54 330 21:55 09.01.2023
289 Clouds 23 1020 73 10000 2.06 340 20:46 09.01.2023
290 Clouds 22 1019 79 10000 1.54 340 19:50 09.01.2023
291 Clouds 19 1019 88 10000 1.54 330 18:21 09.01.2023
292 Clouds 19 1018 90 10000 2.57 350 17:49 09.01.2023
293 Clouds 19 1018 89 10000 2.57 360 16:33 09.01.2023
294 Clouds 19 1018 89 10000 2.06 350 15:31 09.01.2023
295 Clouds 19 1018 89 10000 0.89 128 14:53 09.01.2023
296 Clouds 19 1018 89 10000 0.89 110 14:21 09.01.2023
297 Clouds 20 1019 87 10000 2.06 320 12:49 09.01.2023
298 Clouds 20 1019 86 10000 2.06 300 11:45 09.01.2023
299 Clouds 20 1019 86 10000 2.06 300 11:19 09.01.2023
300 Clear 22 1018 77 10000 4.47 30 06:53 09.01.2023
301 Clear 25 1016 72 10000 0.89 164 02:55 09.01.2023
302 Clouds 26 1019 66 10000 1.9 70 00:50 09.01.2023
303 Clouds 24 1017 71 10000 2.06 0 21:43 08.01.2023
304 Clouds 24 1018 72 10000 2.06 0 21:20 08.01.2023
305 Clouds 24 1019 71 10000 2.37 49 20:31 08.01.2023
306 Clouds 20 1018 88 10000 2.85 23 17:56 08.01.2023
307 Clouds 20 1017 87 10000 2.64 26 17:20 08.01.2023
308 Clouds 21 1017 86 10000 2.25 28 15:47 08.01.2023
309 Clouds 21 1017 87 10000 0.45 358 15:24 08.01.2023
310 Clouds 21 1017 84 10000 0.45 0 13:57 08.01.2023
311 Clouds 21 1018 86 10000 1.82 17 13:29 08.01.2023
312 Clouds 21 1018 86 10000 2.04 0 12:20 08.01.2023
313 Clouds 21 1018 86 10000 1.54 40 09:39 08.01.2023
314 Clouds 22 1020 85 10000 2.06 340 08:45 08.01.2023
315 Clouds 22 1017 84 10000 1.54 310 07:22 08.01.2023
316 Clouds 25 1021 68 10000 5.14 140 23:40 07.01.2023
317 Clouds 25 1021 71 10000 0 0 22:46 07.01.2023
318 Clouds 25 1021 70 10000 0.89 75 22:20 07.01.2023
319 Clouds 25 1021 72 10000 5.14 60 21:36 07.01.2023
320 Clouds 24 1020 77 10000 1.34 94 20:29 07.01.2023
321 Clouds 21 1020 87 10000 1.34 68 19:28 07.01.2023
322 Clouds 19 1020 91 10000 1.54 330 18:21 07.01.2023
323 Clouds 20 1019 91 10000 0.45 0 17:43 07.01.2023
324 Clouds 19 1019 91 10000 0.45 113 16:54 07.01.2023
325 Clouds 19 1019 93 10000 0.45 114 16:29 07.01.2023
326 Clouds 20 1019 92 10000 1.54 300 15:40 07.01.2023
327 Clouds 20 1019 92 10000 1.54 300 15:22 07.01.2023
328 Clouds 20 1020 90 10000 2.57 320 14:25 07.01.2023
329 Clouds 21 1020 92 10000 2.06 310 13:43 07.01.2023
330 Clouds 21 1020 91 10000 2.06 310 13:19 07.01.2023
331 Clouds 21 1021 91 10000 1.54 300 12:21 07.01.2023
332 Clouds 21 1021 88 10000 2.06 20 10:29 07.01.2023
333 Clouds 22 1021 86 10000 2.06 30 09:23 07.01.2023
334 Clouds 22 1021 86 10000 1.54 20 08:18 07.01.2023
335 Clouds 22 1020 85 10000 2.57 40 07:41 07.01.2023
336 Clouds 23 1020 83 10000 3.6 40 06:21 07.01.2023
337 Clouds 27 1020 64 10000 5.14 60 23:24 06.01.2023
338 Clouds 25 1021 72 10000 3.6 80 22:21 06.01.2023
339 Clouds 25 1020 73 10000 3.6 80 21:47 06.01.2023
340 Clouds 25 1020 76 10000 3.6 70 20:34 06.01.2023
341 Clouds 24 1019 81 10000 2.57 70 19:54 06.01.2023
342 Clouds 23 1020 87 10000 2.57 70 19:36 06.01.2023
343 Clouds 22 1020 87 10000 2.57 70 19:18 06.01.2023
344 Clouds 21 1018 91 10000 1.54 90 17:44 06.01.2023
345 Clouds 21 1018 94 10000 1.54 340 16:52 06.01.2023
346 Clouds 21 1018 94 10000 1.54 340 16:22 06.01.2023
347 Clouds 21 1018 93 10000 1.54 350 15:51 06.01.2023
348 Clouds 21 1018 93 10000 1.54 350 15:27 06.01.2023
349 Clouds 21 1017 91 10000 3.74 43 13:38 06.01.2023
350 Clouds 21 1019 93 10000 1.54 310 11:49 06.01.2023
351 Clear 21 1019 90 10000 1.54 350 10:33 06.01.2023
352 Clouds 22 1019 87 10000 0 0 08:34 06.01.2023
353 Clouds 25 1016 78 10000 4.63 150 03:44 06.01.2023
354 Clouds 26 1017 73 10000 4.12 110 22:56 05.01.2023
355 Clouds 26 1018 77 10000 3.09 80 21:56 05.01.2023
356 Clouds 24 1018 85 10000 1.54 360 20:20 05.01.2023
357 Clouds 21 1016 95 10000 0.45 52 17:29 05.01.2023
358 Clouds 21 1016 95 10000 0 0 16:30 05.01.2023
359 Clouds 21 1016 94 10000 0 0 15:48 05.01.2023
360 Clouds 21 1014 95 10000 0.89 78 14:53 05.01.2023
361 Clouds 21 1016 93 10000 1.54 350 14:53 05.01.2023
362 Rain 21 1014 95 10000 0.45 118 13:19 05.01.2023
363 Rain 21 1015 95 10000 0.89 8 12:33 05.01.2023
364 Rain 21 1015 95 10000 3.6 350 09:55 05.01.2023
365 Rain 21 1015 95 10000 3.6 350 09:32 05.01.2023
366 Clouds 21 1016 93 10000 2.06 20 07:21 05.01.2023
367 Clouds 21 1014 91 10000 2.06 10 06:36 05.01.2023
368 Rain 23 1015 88 4828 4.12 70 00:27 05.01.2023
369 Rain 23 1017 89 10000 5.14 60 22:18 04.01.2023
370 Rain 23 1017 90 8047 5.14 70 21:29 04.01.2023
371 Rain 22 1015 97 10000 0.45 92 19:57 04.01.2023
372 Rain 22 1015 97 10000 0.45 134 19:34 04.01.2023
373 Rain 21 1015 93 10000 1.54 340 18:37 04.01.2023
374 Rain 21 1013 96 10000 0.45 86 16:32 04.01.2023
375 Rain 21 1013 96 10000 0.45 86 16:32 04.01.2023
376 Rain 21 1013 96 10000 0.45 73 15:56 04.01.2023
377 Rain 21 1013 96 10000 6.31 50 14:47 04.01.2023
378 Rain 22 1014 94 10000 5.26 52 11:43 04.01.2023
379 Rain 22 1016 96 10000 2.57 340 11:21 04.01.2023
380 Rain 22 1016 94 10000 2.06 80 10:43 04.01.2023
381 Rain 22 1016 94 10000 2.06 80 10:22 04.01.2023
382 Clouds 22 1014 88 10000 2.06 340 08:52 04.01.2023
383 Clouds 23 1015 74 10000 4.12 20 05:35 04.01.2023
384 Clouds 27 1015 61 10000 4.63 360 00:32 04.01.2023
385 Clouds 26 1016 63 10000 4.63 360 23:35 03.01.2023
386 Clouds 26 1017 71 10000 4.63 340 22:44 03.01.2023
387 Clouds 24 1017 78 10000 6.17 340 20:53 03.01.2023
388 Clouds 21 1016 85 10000 4.63 350 19:23 03.01.2023
389 Clouds 20 1015 86 10000 1.54 190 17:36 03.01.2023
390 Rain 20 1015 90 10000 1.54 310 15:54 03.01.2023
391 Rain 21 1015 88 10000 1.79 290 13:53 03.01.2023
392 Clouds 21 1015 88 10000 1.79 290 13:29 03.01.2023
393 Clouds 21 1014 86 10000 1.79 290 12:57 03.01.2023
394 Clouds 21 1015 88 10000 2.06 290 12:29 03.01.2023
395 Clouds 22 1015 87 10000 0 0 10:30 03.01.2023
396 Clouds 24 1016 81 10000 2.06 200 06:21 03.01.2023
397 Clouds 26 1014 74 10000 3.58 150 03:57 03.01.2023
398 Clouds 26 1014 72 10000 3.6 150 03:39 03.01.2023
399 Clouds 26 1014 71 10000 4.02 150 23:56 02.01.2023
400 Clouds 25 1016 73 10000 4.63 60 22:41 02.01.2023
401 Clouds 25 1018 77 10000 3.6 80 21:52 02.01.2023
402 Clouds 24 1018 82 10000 3.09 50 20:38 02.01.2023
403 Clouds 23 1018 86 10000 2.06 50 19:27 02.01.2023
404 Clouds 22 1015 88 10000 0.89 121 16:56 02.01.2023
405 Clouds 22 1017 86 10000 2.06 60 14:46 02.01.2023
406 Clear 23 1015 84 10000 0.89 7 12:57 02.01.2023
407 Clouds 23 1018 85 10000 4.12 60 11:40 02.01.2023
408 Rain 23 1015 85 10000 2.06 50 09:48 02.01.2023
409 Clouds 23 1018 86 10000 1.34 68 07:30 02.01.2023
410 Clouds 26 1017 72 10000 0.45 345 00:39 02.01.2023
411 Clouds 24 1019 76 10000 2.06 350 21:55 01.01.2023
412 Clouds 24 1019 76 10000 2.06 350 21:22 01.01.2023
413 Clouds 23 1019 83 10000 0 0 20:42 01.01.2023
414 Clouds 21 1018 92 10000 2.06 310 19:35 01.01.2023
415 Clouds 20 1017 93 10000 2.06 310 17:40 01.01.2023
416 Clouds 20 1017 93 10000 2.06 310 17:20 01.01.2023
417 Clouds 20 1017 93 10000 0 0 16:20 01.01.2023
418 Smoke 20 1017 93 3219 2.06 350 14:36 01.01.2023
419 Smoke 20 1018 92 4828 3.09 340 13:20 01.01.2023
420 Smoke 21 1018 92 9656 2.06 300 12:24 01.01.2023
421 Clouds 21 1019 90 10000 2.06 350 11:35 01.01.2023
422 Clouds 22 1016 87 10000 0 0 09:39 01.01.2023
423 Clouds 22 1018 86 10000 1.54 70 08:44 01.01.2023
424 Clouds 22 1018 87 10000 1.54 70 08:18 01.01.2023
425 Clouds 23 1017 83 10000 0 0 06:50 01.01.2023
426 Clouds 27 1017 67 10000 3.58 160 23:58 31.12.2022
427 Clouds 27 1018 67 10000 3.6 160 23:38 31.12.2022
428 Clouds 26 1019 67 10000 3.09 180 22:29 31.12.2022
429 Clouds 25 1019 73 10000 0 0 21:24 31.12.2022
430 Clouds 24 1018 78 10000 0.45 224 20:31 31.12.2022
431 Clear 22 1016 83 10000 0.78 45 18:57 31.12.2022
432 Clouds 20 1017 87 10000 1.54 300 18:38 31.12.2022
433 Clouds 20 1017 87 10000 1.54 310 17:57 31.12.2022
434 Clouds 20 1017 87 10000 1.54 310 17:32 31.12.2022
435 Clouds 20 1017 87 10000 0.89 14 16:32 31.12.2022
436 Clear 21 1015 90 10000 0.45 0 15:37 31.12.2022
437 Clear 21 1016 88 10000 1.34 360 13:59 31.12.2022
438 Clouds 21 1017 87 10000 1.54 360 13:27 31.12.2022
439 Clouds 21 1017 85 10000 2.06 50 12:24 31.12.2022
440 Clouds 22 1017 84 10000 2.06 110 11:52 31.12.2022
441 Clouds 22 1017 82 10000 4.47 60 11:25 31.12.2022
442 Clouds 23 1016 79 10000 5.66 70 09:56 31.12.2022
443 Clouds 23 1016 79 10000 5.66 70 09:37 31.12.2022
444 Clouds 23 1015 77 10000 4.12 70 08:22 31.12.2022
445 Clouds 26 1015 63 10000 5.66 80 02:26 31.12.2022
446 Clouds 26 1015 61 10000 3.6 60 00:32 31.12.2022
447 Clouds 26 1016 62 10000 3.58 30 22:55 30.12.2022
448 Clouds 26 1018 60 10000 3.6 30 22:18 30.12.2022
449 Clouds 26 1018 67 10000 4.63 70 21:37 30.12.2022
450 Clouds 24 1018 73 10000 0.89 97 20:55 30.12.2022
451 Clouds 21 1017 89 10000 1.34 90 18:28 30.12.2022
452 Clouds 21 1016 88 10000 1.54 330 17:34 30.12.2022
453 Clouds 20 1016 89 10000 0 0 16:41 30.12.2022
454 Clear 22 1015 83 10000 0.45 128 14:54 30.12.2022
455 Clouds 21 1015 85 10000 1.54 30 12:52 30.12.2022
456 Clouds 23 1017 77 10000 0 0 08:23 30.12.2022
457 Clouds 25 1013 72 10000 2.57 210 03:50 30.12.2022
458 Clouds 26 1014 60 10000 3.6 150 02:26 30.12.2022
459 Clouds 26 1017 68 10000 4.12 160 23:41 29.12.2022
460 Clouds 26 1015 72 10000 0 0 21:46 29.12.2022
461 Clear 26 1015 75 10000 0.45 166 20:54 29.12.2022
462 Clouds 24 1016 77 10000 0.45 116 20:30 29.12.2022
463 Clouds 20 1015 91 10000 1.54 330 18:37 29.12.2022
464 Clouds 19 1015 88 10000 1.54 320 17:51 29.12.2022
465 Clouds 19 1015 89 10000 1.54 320 17:18 29.12.2022
466 Clouds 20 1015 90 10000 1.54 330 16:44 29.12.2022
467 Clouds 19 1015 91 10000 1.54 340 15:44 29.12.2022
468 Clouds 20 1015 92 10000 1.54 310 13:34 29.12.2022
469 Clouds 21 1015 90 10000 1.54 320 11:48 29.12.2022
470 Clouds 21 1016 88 10000 0 0 09:20 29.12.2022
471 Clouds 26 1015 68 10000 2.57 140 00:37 29.12.2022
472 Clouds 26 1016 68 10000 0 0 23:28 28.12.2022
473 Clouds 24 1018 79 10000 5.66 50 21:44 28.12.2022
474 Clouds 24 1018 80 10000 5.66 50 21:18 28.12.2022
475 Clouds 23 1018 79 10000 0.89 41 19:38 28.12.2022
476 Clouds 23 1017 77 10000 0 0 16:57 28.12.2022
477 Clouds 22 1017 79 10000 0.89 106 15:25 28.12.2022
478 Clouds 23 1016 78 10000 2.68 70 12:56 28.12.2022
479 Clouds 23 1017 77 10000 3.09 70 12:24 28.12.2022
480 Clouds 23 1017 78 10000 3.6 70 11:29 28.12.2022
481 Clouds 24 1018 74 10000 6.17 70 09:18 28.12.2022
482 Clouds 24 1018 74 10000 4.63 80 07:27 28.12.2022
483 Clouds 24 1017 78 10000 4.63 60 06:43 28.12.2022
484 Clouds 27 1018 63 10000 5.66 50 23:36 27.12.2022
485 Clouds 25 1020 76 10000 3.09 60 20:30 27.12.2022
486 Clouds 23 1019 82 10000 0.89 135 19:31 27.12.2022
487 Clouds 23 1019 82 10000 0.89 135 19:31 27.12.2022
488 Clouds 22 1016 83 10000 3.58 70 17:28 27.12.2022
489 Clouds 22 1016 82 10000 3.6 70 16:43 27.12.2022
490 Clouds 23 1016 81 10000 3.6 70 15:30 27.12.2022
491 Clear 23 1017 81 10000 3.09 70 12:35 27.12.2022
492 Clouds 23 1017 82 10000 5.66 60 11:28 27.12.2022
493 Clouds 23 1017 84 10000 2.57 40 09:46 27.12.2022
494 Clouds 23 1020 84 10000 2.57 40 09:23 27.12.2022
495 Clouds 24 1016 80 10000 3.6 40 06:50 27.12.2022
496 Clouds 25 1017 76 10000 3.6 220 04:30 27.12.2022
497 Clouds 26 1016 74 10000 3.6 160 22:26 26.12.2022
498 Clouds 26 1014 77 10000 1.34 360 20:55 26.12.2022
499 Clouds 25 1016 77 10000 1.54 360 20:34 26.12.2022
500 Rain 21 1016 91 10000 0 0 18:44 26.12.2022
501 Rain 21 1016 92 10000 0 0 17:44 26.12.2022
502 Clouds 21 1015 93 10000 2.06 320 16:20 26.12.2022
503 Clouds 21 1015 95 10000 0.45 140 13:46 26.12.2022
504 Clouds 22 1017 93 10000 0.45 144 11:56 26.12.2022
505 Clouds 24 1018 88 10000 0.45 185 07:28 26.12.2022
506 Clouds 27 1018 75 10000 3.6 200 23:48 25.12.2022
507 Clouds 27 1018 75 10000 3.6 200 23:22 25.12.2022
508 Clouds 27 1019 75 10000 3.09 220 22:26 25.12.2022
509 Clouds 26 1018 80 10000 0.45 220 21:35 25.12.2022
510 Rain 22 1017 94 10000 0.45 224 18:32 25.12.2022
511 Rain 22 1017 93 10000 0.45 221 17:51 25.12.2022
512 Rain 22 1017 93 10000 0 0 17:33 25.12.2022
513 Clouds 22 1016 93 10000 0.45 223 14:47 25.12.2022
514 Clouds 23 1017 91 10000 0 0 11:49 25.12.2022
515 Clouds 24 1014 86 10000 0 0 06:20 25.12.2022
516 Clouds 27 1014 75 10000 0.45 206 23:22 24.12.2022
517 Clouds 24 1015 83 10000 0.89 251 19:58 24.12.2022
518 Clouds 23 1014 86 10000 4.12 230 17:55 24.12.2022
519 Clouds 22 1012 88 10000 1.54 360 16:21 24.12.2022
520 Clouds 23 1014 85 10000 2.57 190 14:35 24.12.2022
521 Clouds 23 1012 84 10000 2.06 190 12:35 24.12.2022
522 Clouds 23 1014 85 10000 3.09 180 10:27 24.12.2022
523 Clouds 23 1014 84 10000 1.54 200 09:47 24.12.2022
524 Clouds 23 1014 84 10000 1.54 200 09:19 24.12.2022
525 Clouds 26 1012 73 10000 5.14 200 03:52 24.12.2022
526 Clouds 27 1014 70 10000 4.63 220 00:43 24.12.2022
527 Clouds 26 1014 72 10000 3.6 210 23:22 23.12.2022
528 Clouds 25 1015 76 10000 2.57 220 21:44 23.12.2022
529 Clouds 22 1014 87 10000 0.45 275 19:40 23.12.2022
530 Clouds 21 1014 89 10000 0 0 19:22 23.12.2022
531 Clouds 21 1014 89 10000 0 0 18:54 23.12.2022
532 Clouds 21 1014 89 10000 0 0 18:27 23.12.2022
533 Clouds 21 1013 88 10000 0.45 251 17:48 23.12.2022
534 Clouds 21 1013 88 10000 0.45 231 15:52 23.12.2022
535 Clouds 22 1013 86 10000 0.45 238 14:33 23.12.2022
536 Clouds 23 1015 81 10000 3.6 240 10:21 23.12.2022
537 Clouds 23 1014 81 10000 3.09 230 09:35 23.12.2022
538 Clouds 23 1014 77 10000 3.09 220 07:30 23.12.2022
539 Clouds 23 1013 78 10000 3.09 230 06:50 23.12.2022
540 Clouds 26 1013 69 10000 5.14 220 00:39 23.12.2022
541 Clouds 26 1014 72 10000 4.12 180 23:19 22.12.2022
542 Clouds 25 1014 75 10000 1.79 170 21:55 22.12.2022
543 Clouds 22 1015 87 10000 1.54 340 19:48 22.12.2022
544 Clouds 21 1014 89 10000 1.54 340 19:19 22.12.2022
545 Clear 21 1012 91 10000 0.45 259 17:59 22.12.2022
546 Clouds 20 1013 91 10000 0.45 259 16:52 22.12.2022
547 Clouds 20 1013 92 10000 0.45 259 15:38 22.12.2022
548 Clouds 20 1013 92 10000 0.45 259 15:18 22.12.2022
549 Clouds 21 1013 90 10000 0.45 259 14:27 22.12.2022
550 Rain 21 1014 89 10000 0 0 13:20 22.12.2022
551 Clouds 21 1014 87 10000 0 0 11:40 22.12.2022
552 Clouds 21 1014 88 10000 0.45 257 10:31 22.12.2022
553 Clouds 22 1014 87 10000 1.54 230 09:22 22.12.2022
554 Clouds 22 1014 87 10000 1.54 230 09:22 22.12.2022
555 Clouds 23 1013 85 10000 1.54 250 08:36 22.12.2022
556 Clouds 23 1013 82 10000 0 0 07:28 22.12.2022
557 Clouds 25 1011 73 10000 5.14 240 04:19 22.12.2022
558 Clouds 27 1012 67 10000 6.71 230 00:25 22.12.2022
559 Clouds 27 1013 68 10000 5.66 240 22:26 21.12.2022
560 Clouds 25 1013 74 10000 3.09 200 21:35 21.12.2022
561 Clear 25 1012 75 10000 0.45 265 20:56 21.12.2022
562 Clouds 24 1013 80 10000 0.45 206 20:30 21.12.2022
563 Clear 23 1011 80 10000 0.45 255 19:45 21.12.2022
564 Clouds 23 1011 82 10000 0.45 264 19:26 21.12.2022
565 Clouds 20 1012 90 10000 0 0 18:47 21.12.2022
566 Clouds 19 1012 92 10000 0 0 18:21 21.12.2022
567 Clouds 20 1010 88 10000 2.06 260 15:25 21.12.2022
568 Clouds 20 1011 87 10000 1.54 30 13:41 21.12.2022
569 Clouds 20 1010 84 10000 0.45 248 11:48 21.12.2022
570 Clouds 20 1010 83 10000 0.45 214 11:20 21.12.2022
571 Clouds 21 1010 84 10000 1.54 40 09:50 21.12.2022
572 Clouds 22 1009 80 10000 3.09 270 07:48 21.12.2022
573 Clouds 23 1008 79 10000 1.54 230 06:24 21.12.2022
574 Clouds 26 1006 55 10000 9.77 280 23:21 20.12.2022
575 Clouds 24 1006 69 10000 11.32 270 21:23 20.12.2022
576 Rain 23 1005 71 10000 6.69 270 20:26 20.12.2022
577 Rain 22 1005 76 10000 9.26 270 19:41 20.12.2022
578 Clouds 21 1004 79 10000 6.69 260 18:37 20.12.2022
579 Clouds 22 1004 78 10000 6.69 260 18:19 20.12.2022
580 Clouds 21 1003 81 10000 8.75 250 17:46 20.12.2022
581 Rain 22 1002 75 10000 9.26 250 16:37 20.12.2022
582 Clouds 21 1002 80 10000 4.12 280 15:36 20.12.2022
583 Rain 20 1002 82 8047 5.14 300 14:48 20.12.2022
584 Mist 20 1002 83 8047 5.14 300 14:28 20.12.2022
585 Clouds 21 1003 79 10000 10.74 259 12:58 20.12.2022
586 Clouds 20 1004 81 10000 3.6 290 12:28 20.12.2022
587 Clouds 20 1002 78 10000 5.14 290 11:33 20.12.2022
588 Rain 20 1003 74 10000 6.17 270 08:48 20.12.2022
589 Clouds 22 1001 68 10000 5.66 280 03:40 20.12.2022
590 Rain 21 1001 79 10000 8.23 280 22:42 19.12.2022
591 Clouds 23 1001 80 10000 11.83 240 21:45 19.12.2022
592 Rain 22 1003 75 10000 10.29 250 19:58 19.12.2022
593 Rain 21 1002 82 10000 6.71 270 19:39 19.12.2022
594 Rain 21 1001 84 10000 6.17 270 18:33 19.12.2022
595 Rain 22 999 81 10000 10.8 240 16:47 19.12.2022
596 Clouds 23 1003 80 10000 8.75 260 13:28 19.12.2022
597 Rain 23 1002 85 10000 5.36 260 11:56 19.12.2022
598 Rain 22 1003 87 10000 5.14 240 10:45 19.12.2022
599 Clouds 24 1005 83 10000 7.72 220 07:43 19.12.2022
600 Clouds 23 1006 87 10000 5.66 220 03:42 19.12.2022
601 Rain 21 1010 96 4828 2.06 120 22:35 18.12.2022
602 Rain 20 1010 98 10000 3.6 120 21:46 18.12.2022
603 Rain 20 1010 97 10000 3.6 120 21:22 18.12.2022
604 Mist 20 1011 98 3219 3.09 360 19:52 18.12.2022
605 Mist 20 1010 96 3219 3.58 60 19:34 18.12.2022
606 Rain 20 1008 94 5605 2.68 150 17:53 18.12.2022
607 Rain 21 1009 97 10000 0 0 16:32 18.12.2022
608 Rain 22 1008 95 10000 2.06 230 15:40 18.12.2022
609 Rain 22 1008 95 10000 2.06 230 15:40 18.12.2022
610 Rain 22 1008 97 10000 2.57 190 15:19 18.12.2022
611 Clouds 22 1009 91 10000 0 0 13:40 18.12.2022
612 Clouds 22 1010 89 10000 2.06 350 12:53 18.12.2022
613 Clouds 22 1010 89 10000 2.06 350 12:19 18.12.2022
614 Clouds 22 1012 88 10000 0.89 114 10:22 18.12.2022
615 Clouds 22 1012 86 10000 2.06 30 08:47 18.12.2022
616 Clouds 23 1012 83 10000 2.06 120 07:21 18.12.2022
617 Clouds 23 1012 81 10000 1.54 130 06:20 18.12.2022
618 Clouds 25 1010 75 10000 3.6 150 03:38 18.12.2022
619 Clouds 26 1014 69 10000 3.09 160 23:40 17.12.2022
620 Clouds 26 1015 69 10000 0 0 21:47 17.12.2022
621 Clear 21 1012 88 10000 1.76 37 18:54 17.12.2022
622 Clear 21 1012 88 10000 0 0 16:41 17.12.2022
623 Clouds 21 1012 90 10000 2.06 350 14:23 17.12.2022
624 Clouds 22 1014 87 10000 0 0 11:36 17.12.2022
625 Clouds 22 1014 86 10000 2.06 360 10:46 17.12.2022
626 Clouds 22 1013 85 10000 1.54 350 09:41 17.12.2022
627 Rain 23 1013 78 10000 2.06 350 07:26 17.12.2022
628 Thunderstorm 24 1012 76 10000 3.09 60 06:45 17.12.2022
629 Clouds 25 1013 69 10000 3.09 170 23:39 16.12.2022
630 Thunderstorm 23 1011 78 10000 2.06 230 20:56 16.12.2022
631 Clouds 21 1010 86 10000 0.45 354 19:36 16.12.2022
632 Clouds 20 1010 89 10000 2.06 30 15:43 16.12.2022
633 Rain 20 1011 92 10000 2.06 70 14:47 16.12.2022
634 Rain 20 1010 92 10000 1.79 20 13:44 16.12.2022
635 Rain 20 1013 96 10000 3.6 40 11:58 16.12.2022
636 Rain 23 1011 86 10000 2.06 150 09:53 16.12.2022
637 Clouds 24 1012 84 10000 2.06 150 09:24 16.12.2022
638 Clouds 23 1011 84 10000 2.06 280 07:55 16.12.2022
639 Clouds 24 1011 83 10000 2.06 280 07:31 16.12.2022
640 Clouds 27 1011 65 10000 4.12 180 23:24 15.12.2022
641 Clouds 27 1011 60 10000 3.09 180 22:20 15.12.2022
642 Haze 25 1011 70 10000 1.54 320 20:30 15.12.2022
643 Clouds 23 1010 80 10000 1.54 360 19:35 15.12.2022
644 Clouds 20 1010 86 10000 1.54 310 17:28 15.12.2022
645 Clouds 20 1009 87 10000 0.45 266 16:39 15.12.2022
646 Clear 21 1009 88 10000 1.34 350 14:57 15.12.2022
647 Clouds 21 1010 90 10000 1.54 330 13:18 15.12.2022
648 Clouds 21 1010 89 10000 2.06 320 12:25 15.12.2022
649 Clouds 22 1011 85 10000 1.54 10 09:28 15.12.2022
650 Clouds 22 1010 84 10000 2.06 330 08:46 15.12.2022
651 Clouds 24 1010 73 10000 5.14 60 05:47 15.12.2022
652 Clouds 26 1010 66 10000 5.66 150 02:38 15.12.2022
653 Clouds 26 1012 67 10000 5.66 80 21:24 14.12.2022
654 Clouds 25 1013 72 10000 5.14 60 20:51 14.12.2022
655 Clouds 24 1012 75 10000 4.47 80 19:59 14.12.2022
656 Clouds 23 1012 78 10000 5.14 60 17:52 14.12.2022
657 Clouds 23 1011 78 10000 4.12 90 16:56 14.12.2022
658 Clear 23 1011 79 10000 5.36 70 14:59 14.12.2022
659 Clouds 23 1012 79 10000 7.2 60 13:31 14.12.2022
660 Clouds 23 1013 75 10000 5.14 60 11:20 14.12.2022
661 Clouds 23 1013 75 10000 4.63 70 10:25 14.12.2022
662 Clouds 24 1013 79 10000 5.14 60 08:46 14.12.2022
663 Clouds 26 1015 68 10000 7.2 60 22:46 13.12.2022
664 Clouds 25 1015 74 10000 8.23 60 21:46 13.12.2022
665 Clouds 25 1016 75 10000 4.63 60 20:48 13.12.2022
666 Rain 23 1015 81 10000 5.66 70 19:39 13.12.2022
667 Clouds 23 1013 79 10000 5.14 50 16:42 13.12.2022
668 Clear 23 1012 77 10000 4.02 60 14:59 13.12.2022
669 Clouds 23 1013 77 10000 5.14 80 13:42 13.12.2022
670 Clouds 22 1013 91 10000 2.68 336 10:54 13.12.2022
671 Clouds 22 1016 86 10000 5.66 60 10:27 13.12.2022
672 Clouds 22 1016 86 10000 5.66 60 10:27 13.12.2022
673 Rain 23 1016 83 10000 7.72 60 08:31 13.12.2022
674 Rain 23 1016 83 10000 7.72 60 08:31 13.12.2022
675 Rain 25 1016 69 10000 7.72 50 22:37 12.12.2022
676 Rain 24 1015 78 10000 2.24 65 21:59 12.12.2022
677 Rain 24 1017 73 10000 7.72 60 20:30 12.12.2022
678 Clouds 23 1016 77 10000 5.66 60 18:25 12.12.2022
679 Clouds 23 1015 80 10000 6.69 40 15:41 12.12.2022
680 Clear 23 1016 82 10000 7.72 40 14:25 12.12.2022
681 Clouds 23 1018 79 10000 6.17 60 09:46 12.12.2022
682 Clouds 23 1018 79 10000 6.17 60 09:18 12.12.2022
683 Rain 24 1016 83 10000 6.69 50 04:51 12.12.2022
684 Clouds 27 1016 63 10000 7.72 80 01:51 12.12.2022
685 Clouds 27 1018 64 10000 6.69 70 22:18 11.12.2022
686 Clouds 25 1018 71 10000 6.69 60 20:37 11.12.2022
687 Clouds 24 1018 74 10000 5.66 70 19:39 11.12.2022
688 Clouds 24 1016 76 10000 7.72 80 18:40 11.12.2022
689 Clouds 23 1016 77 10000 6.69 80 17:53 11.12.2022
690 Clouds 23 1014 81 10000 2.68 79 16:53 11.12.2022
691 Clouds 23 1015 79 10000 3.6 30 16:29 11.12.2022
692 Clouds 23 1015 81 10000 4.63 80 15:45 11.12.2022
693 Rain 22 1014 87 10000 1.79 79 13:35 11.12.2022
694 Clouds 23 1016 83 10000 6.17 70 12:42 11.12.2022
695 Clouds 23 1017 79 10000 5.66 70 10:26 11.12.2022
696 Clouds 26 1015 63 10000 10.29 50 01:36 11.12.2022
697 Clouds 26 1016 63 10000 9.26 50 00:28 11.12.2022
698 Clouds 27 1017 63 10000 8.75 70 22:35 10.12.2022
699 Clouds 26 1016 66 10000 2.68 68 21:59 10.12.2022
700 Clouds 25 1017 72 10000 2.68 52 20:59 10.12.2022
701 Clouds 25 1018 71 10000 8.75 60 20:19 10.12.2022
702 Clouds 23 1017 73 10000 5.66 60 17:50 10.12.2022
703 Clouds 23 1017 69 10000 6.69 70 16:38 10.12.2022
704 Clouds 23 1018 68 10000 6.17 60 15:41 10.12.2022
705 Clouds 24 1018 67 10000 6.17 60 15:21 10.12.2022
706 Clouds 24 1018 72 10000 5.66 60 13:44 10.12.2022
707 Clouds 23 1018 74 10000 5.14 60 12:21 10.12.2022
708 Clouds 24 1020 75 10000 7.72 70 10:52 10.12.2022
709 Clouds 24 1020 74 10000 8.23 70 09:43 10.12.2022
710 Clouds 24 1020 71 10000 5.14 60 07:22 10.12.2022
711 Clouds 24 1017 68 10000 5.14 70 04:57 10.12.2022
712 Clouds 26 1019 67 10000 12.86 70 23:38 09.12.2022
713 Clouds 26 1020 62 10000 9.77 70 22:42 09.12.2022
714 Clouds 25 1020 69 10000 10.29 70 21:29 09.12.2022
715 Clouds 25 1019 67 10000 2.68 83 20:58 09.12.2022
716 Clouds 25 1020 59 10000 8.75 80 19:46 09.12.2022
717 Clouds 23 1017 77 10000 2.68 86 17:56 09.12.2022
718 Clouds 24 1019 69 10000 6.17 70 16:47 09.12.2022
719 Clouds 24 1019 67 10000 6.17 70 16:18 09.12.2022
720 Clouds 24 1020 62 10000 10.29 60 15:24 09.12.2022
721 Clouds 24 1021 67 10000 7.2 60 12:25 09.12.2022
722 Clouds 24 1021 76 10000 7.2 50 10:48 09.12.2022
723 Clouds 24 1021 72 10000 4.12 50 09:44 09.12.2022
724 Clouds 25 1019 76 10000 7.72 60 05:36 09.12.2022
725 Clouds 26 1018 66 10000 9.77 60 02:29 09.12.2022
726 Clouds 26 1020 66 10000 9.77 70 22:32 08.12.2022
727 Clouds 26 1017 67 10000 9.77 70 20:51 08.12.2022
728 Clouds 24 1019 73 10000 6.71 60 18:18 08.12.2022
729 Clouds 24 1015 78 10000 7.2 60 15:44 08.12.2022
730 Clouds 24 1018 80 10000 5.66 70 14:27 08.12.2022
731 Clouds 24 1018 81 10000 5.66 70 14:27 08.12.2022
732 Clouds 24 1019 82 10000 7.2 80 11:33 08.12.2022
733 Clouds 24 1017 85 10000 3.58 58 09:54 08.12.2022
734 Clouds 25 1019 78 10000 9.77 60 09:26 08.12.2022
735 Clouds 26 1015 74 10000 10.29 60 02:36 08.12.2022
736 Clouds 26 1017 76 10000 7.72 50 22:19 07.12.2022
737 Clouds 27 1017 69 10000 8.75 60 21:50 07.12.2022
738 Clouds 26 1017 71 10000 8.75 60 21:31 07.12.2022
739 Clouds 25 1016 73 10000 7.2 70 19:38 07.12.2022
740 Clouds 25 1016 77 10000 5.66 70 17:27 07.12.2022
741 Clouds 24 1015 81 10000 5.14 50 14:41 07.12.2022
742 Clouds 24 1017 84 10000 6.69 80 11:43 07.12.2022
743 Clouds 24 1015 86 10000 1.34 87 10:40 07.12.2022
744 Clouds 25 1017 81 10000 3.6 60 09:48 07.12.2022
745 Clouds 25 1016 79 10000 5.66 80 08:46 07.12.2022
746 Clouds 25 1016 79 10000 3.6 60 06:46 07.12.2022
747 Clouds 25 1013 79 10000 6.17 110 04:44 07.12.2022
748 Clouds 27 1013 70 10000 3.6 100 22:39 06.12.2022
749 Clouds 25 1012 79 10000 3.6 70 20:35 06.12.2022
750 Clouds 23 1011 85 10000 0 0 18:21 06.12.2022
751 Clouds 22 1012 92 10000 1.54 340 16:41 06.12.2022
752 Clouds 23 1011 89 10000 2.57 360 15:51 06.12.2022
753 Clouds 23 1011 89 10000 2.57 360 15:20 06.12.2022
754 Clouds 23 1011 89 10000 0 0 14:25 06.12.2022
755 Clouds 23 1012 88 10000 1.54 340 12:54 06.12.2022
756 Clouds 23 1012 88 10000 1.54 340 12:36 06.12.2022
757 Clouds 22 1013 89 10000 3.38 137 07:59 06.12.2022
758 Clouds 23 1012 89 10000 3.97 156 05:56 06.12.2022
759 Clouds 26 1011 71 10000 3.6 160 01:25 06.12.2022
760 Clouds 27 1013 69 10000 3.09 170 22:26 05.12.2022
761 Clouds 25 1013 76 10000 2.06 110 20:55 05.12.2022
762 Clouds 25 1013 76 10000 2.06 110 20:26 05.12.2022
763 Clouds 24 1014 82 10000 0 0 19:44 05.12.2022
764 Clouds 21 1012 90 10000 3.09 10 17:44 05.12.2022
765 Clouds 21 1012 90 10000 2.57 300 16:26 05.12.2022
766 Clouds 21 1012 92 10000 0 0 15:22 05.12.2022
767 Clouds 22 1013 85 10000 4.02 70 12:59 05.12.2022
768 Clouds 23 1014 83 10000 4.12 70 12:40 05.12.2022
769 Clouds 23 1014 85 10000 0.45 51 11:46 05.12.2022
770 Clouds 23 1014 84 10000 2.06 350 10:53 05.12.2022
771 Clouds 26 1013 71 10000 4.12 140 00:19 05.12.2022
772 Clouds 27 1015 68 10000 4.63 50 22:44 04.12.2022
773 Rain 26 1015 70 10000 4.63 50 22:20 04.12.2022
774 Rain 26 1016 74 10000 2.57 50 21:41 04.12.2022
775 Clouds 25 1016 77 10000 1.54 320 20:27 04.12.2022
776 Clouds 23 1015 87 10000 1.54 330 19:26 04.12.2022
777 Rain 22 1015 90 10000 2.06 330 18:40 04.12.2022
778 Rain 21 1014 90 10000 0.89 121 17:23 04.12.2022
779 Rain 21 1014 90 10000 2.06 340 16:37 04.12.2022
780 Rain 21 1014 90 10000 2.06 340 16:19 04.12.2022
781 Clouds 21 1014 89 10000 2.06 330 15:54 04.12.2022
782 Clouds 22 1014 83 10000 1.54 360 14:43 04.12.2022
783 Clouds 22 1015 84 10000 2.57 40 13:18 04.12.2022
784 Clouds 22 1015 84 10000 3.6 60 12:42 04.12.2022
785 Clouds 22 1016 83 10000 2.57 60 11:46 04.12.2022
786 Rain 23 1016 82 10000 4.12 60 09:20 04.12.2022
787 Clouds 24 1014 82 10000 4.12 50 06:34 04.12.2022
788 Clouds 28 1013 66 10000 7.72 50 00:44 04.12.2022
789 Clouds 28 1014 67 10000 5.66 70 23:29 03.12.2022
790 Clouds 26 1014 74 10000 4.02 80 21:55 03.12.2022
791 Clouds 26 1015 73 10000 4.12 80 21:19 03.12.2022
792 Rain 24 1014 86 10000 3.09 60 19:28 03.12.2022
793 Clouds 23 1014 89 10000 0.89 45 18:39 03.12.2022
794 Clouds 23 1013 89 10000 1.34 10 15:53 03.12.2022
795 Clouds 23 1014 91 10000 0.89 97 13:54 03.12.2022
796 Clouds 23 1014 89 10000 3.6 30 12:53 03.12.2022
797 Clouds 23 1015 89 10000 3.6 30 12:22 03.12.2022
798 Clouds 23 1015 90 10000 5.14 70 09:47 03.12.2022
799 Rain 23 1013 88 10000 3.6 60 06:27 03.12.2022
800 Rain 28 1012 65 10000 6.71 120 00:23 03.12.2022
801 Clouds 27 1013 68 10000 3.09 130 22:19 02.12.2022
802 Clouds 25 1014 76 10000 4.12 80 20:53 02.12.2022
803 Clouds 21 1014 90 10000 2.57 330 18:18 02.12.2022
804 Clouds 21 1012 86 10000 2.24 320 15:58 02.12.2022
805 Clouds 21 1013 85 10000 2.06 340 14:38 02.12.2022
806 Clouds 21 1013 84 10000 2.06 340 14:19 02.12.2022
807 Clouds 20 1015 85 10000 2.06 330 12:44 02.12.2022
808 Clouds 20 1015 85 10000 1.54 330 11:30 02.12.2022
809 Clouds 23 1013 75 10000 4.12 60 07:54 02.12.2022
810 Clouds 23 1014 77 10000 3.09 320 07:22 02.12.2022
811 Clouds 27 1014 59 10000 5.14 40 22:54 01.12.2022
812 Clouds 27 1014 63 10000 4.63 30 21:44 01.12.2022
813 Clouds 25 1014 71 10000 5.66 20 20:56 01.12.2022
814 Clouds 23 1014 82 10000 4.63 20 19:18 01.12.2022
815 Clouds 22 1013 89 10000 0 0 17:30 01.12.2022
816 Clouds 22 1013 91 10000 2.57 350 14:46 01.12.2022
817 Clouds 22 1014 86 10000 2.57 330 11:21 01.12.2022
818 Clouds 23 1014 87 10000 3.46 28 09:55 01.12.2022
819 Clouds 23 1015 86 10000 0 0 09:36 01.12.2022
820 Clouds 24 1013 82 10000 4.64 40 06:59 01.12.2022
821 Clouds 29 1014 67 10000 2.57 0 23:46 30.11.2022
822 Clouds 27 1015 70 10000 3.09 0 21:54 30.11.2022
823 Clouds 27 1015 72 10000 2.06 340 21:19 30.11.2022
824 Clouds 26 1014 77 10000 1.54 300 20:23 30.11.2022
825 Clouds 24 1014 85 10000 2.57 350 19:28 30.11.2022
826 Clouds 22 1014 92 10000 0.45 189 18:32 30.11.2022
827 Clouds 22 1013 92 10000 1.54 330 16:53 30.11.2022
828 Clouds 23 1013 91 10000 1.54 340 14:46 30.11.2022
829 Clouds 23 1013 91 10000 1.54 340 14:26 30.11.2022
830 Clouds 23 1014 90 10000 0 0 12:21 30.11.2022
831 Rain 23 1015 88 10000 0 0 09:38 30.11.2022
832 Rain 24 1015 86 10000 0 0 08:27 30.11.2022
833 Clouds 25 1014 83 10000 1.54 130 06:42 30.11.2022
834 Clouds 28 1014 69 10000 4.12 210 23:29 29.11.2022
835 Clouds 28 1014 69 10000 4.12 210 23:29 29.11.2022
836 Clouds 28 1016 68 10000 3.6 170 22:19 29.11.2022
837 Clouds 26 1015 75 10000 2.57 300 20:52 29.11.2022
838 Clouds 25 1014 79 10000 0 0 19:54 29.11.2022
839 Clear 22 1014 88 10000 0 0 17:55 29.11.2022
840 Clouds 21 1013 89 10000 0 0 16:47 29.11.2022
841 Clouds 21 1013 90 10000 0 0 15:28 29.11.2022
842 Clouds 22 1013 88 10000 0 0 14:47 29.11.2022
843 Clouds 22 1015 91 10000 1.54 320 12:38 29.11.2022
844 Clouds 22 1016 90 10000 2.06 350 11:31 29.11.2022
845 Clouds 22 1016 87 10000 1.54 360 10:27 29.11.2022
846 Clouds 22 1016 88 10000 2.06 210 09:26 29.11.2022
847 Clouds 22 1015 89 10000 0 0 06:47 29.11.2022
848 Rain 23 1016 90 10000 2.57 140 00:27 29.11.2022
849 Rain 23 1017 88 6437 2.57 150 23:23 28.11.2022
850 Clouds 24 1016 85 10000 2.68 140 21:56 28.11.2022
851 Rain 24 1016 89 10000 3.09 140 21:38 28.11.2022
852 Clouds 23 1016 89 10000 2.06 130 20:24 28.11.2022
853 Rain 23 1015 88 10000 1.54 100 19:24 28.11.2022
854 Clouds 23 1014 88 10000 2.06 110 18:28 28.11.2022
855 Rain 22 1014 88 10000 2.06 20 17:22 28.11.2022
856 Clouds 23 1014 87 10000 3.09 140 14:45 28.11.2022
857 Clouds 23 1013 87 10000 4.02 140 13:53 28.11.2022
858 Clouds 23 1015 86 10000 4.12 140 12:52 28.11.2022
859 Clouds 23 1015 82 10000 0.45 0 11:31 28.11.2022
860 Clouds 23 1014 80 10000 1.79 60 07:54 28.11.2022
861 Clouds 25 1012 72 10000 5.36 130 04:54 28.11.2022
862 Clouds 25 1012 72 10000 5.36 130 04:36 28.11.2022
863 Clouds 26 1012 68 10000 5.66 130 03:20 28.11.2022
864 Clouds 26 1016 66 10000 3.6 170 23:44 27.11.2022
865 Clouds 26 1014 69 10000 0.89 188 21:54 27.11.2022
866 Clouds 25 1016 71 10000 2.06 330 20:38 27.11.2022
867 Clouds 20 1013 84 10000 1.79 320 18:18 27.11.2022
868 Clouds 20 1013 81 10000 2.06 330 15:36 27.11.2022
869 Clear 20 1014 81 10000 1.54 320 13:34 27.11.2022
870 Clouds 21 1015 81 10000 1.79 360 10:57 27.11.2022
871 Clouds 22 1015 77 10000 1.79 340 08:57 27.11.2022
872 Clouds 24 1014 65 10000 3.6 40 04:47 27.11.2022
873 Clouds 25 1015 64 10000 4.12 40 22:34 26.11.2022
874 Clouds 23 1012 73 10000 1.79 330 20:56 26.11.2022
875 Clouds 21 1016 83 10000 1.54 310 19:30 26.11.2022
876 Clouds 20 1015 86 10000 1.54 300 17:57 26.11.2022
877 Clouds 20 1013 87 10000 2.68 320 15:53 26.11.2022
878 Rain 19 1015 90 10000 1.54 10 13:35 26.11.2022
879 Rain 21 1016 82 10000 1.54 0 11:45 26.11.2022
880 Clouds 22 1016 74 10000 3.58 30 10:22 26.11.2022
881 Clouds 22 1016 71 10000 3.6 30 09:31 26.11.2022
882 Clouds 22 1013 65 10000 3.6 30 06:30 26.11.2022
883 Clouds 25 1017 55 10000 6.71 20 21:46 25.11.2022
884 Clouds 25 1017 55 10000 6.71 20 21:24 25.11.2022
885 Clouds 23 1015 63 10000 7.6 40 19:57 25.11.2022
886 Clouds 21 1015 63 10000 4.63 20 16:49 25.11.2022
887 Clouds 22 1016 63 10000 5.14 40 14:22 25.11.2022
888 Rain 22 1015 68 10000 7.2 60 09:22 25.11.2022
889 Rain 22 1015 69 10000 3.09 0 08:41 25.11.2022
890 Clouds 22 1014 70 10000 6.71 30 06:54 25.11.2022
891 Clouds 22 1014 69 10000 6.71 30 06:22 25.11.2022
892 Clouds 24 1018 71 10000 7.72 40 23:54 24.11.2022
893 Clouds 23 1019 75 10000 6.17 50 22:50 24.11.2022
894 Clouds 23 1019 77 10000 12.5 33 21:58 24.11.2022
895 Rain 22 1017 85 10000 4.12 10 20:19 24.11.2022
896 Rain 21 1018 88 10000 3.6 20 18:30 24.11.2022
897 Rain 21 1016 88 10000 3.09 360 17:40 24.11.2022
898 Rain 21 1016 89 10000 3.09 360 17:20 24.11.2022
899 Clouds 22 1014 80 10000 3.6 10 14:37 24.11.2022
900 Clouds 22 1015 77 10000 3.09 10 13:48 24.11.2022
901 Clear 22 1015 76 10000 3.58 330 11:55 24.11.2022
902 Clouds 22 1017 74 10000 3.09 320 10:35 24.11.2022
903 Clouds 24 1014 69 10000 3.6 10 07:53 24.11.2022
904 Clouds 25 1015 72 10000 5.14 40 03:19 24.11.2022
905 Clouds 27 1017 61 10000 5.14 20 23:33 23.11.2022
906 Clouds 26 1018 66 10000 5.14 50 21:56 23.11.2022
907 Clouds 26 1018 65 10000 5.14 50 21:19 23.11.2022
908 Clear 25 1016 76 10000 0.89 114 19:58 23.11.2022
909 Clear 23 1016 82 10000 1.34 69 18:58 23.11.2022
910 Clouds 23 1017 79 10000 2.68 60 18:33 23.11.2022
911 Clouds 22 1016 80 10000 1.54 30 16:22 23.11.2022
912 Clouds 24 1018 76 10000 3.09 50 13:26 23.11.2022
913 Clear 23 1015 75 10000 4.47 70 12:58 23.11.2022
914 Clear 24 1018 74 10000 1.79 20 11:54 23.11.2022
915 Clear 24 1018 73 10000 4.92 60 10:59 23.11.2022
916 Clouds 24 1019 71 10000 5.14 60 10:40 23.11.2022
917 Clouds 24 1019 72 10000 3.6 10 09:41 23.11.2022
918 Clouds 24 1019 72 10000 3.6 10 09:22 23.11.2022
919 Clouds 24 1019 70 10000 5.14 50 08:36 23.11.2022
920 Clear 25 1017 72 10000 5.81 60 05:21 23.11.2022
921 Clouds 26 1015 69 10000 1.79 331 01:57 23.11.2022
922 Clouds 27 1019 64 10000 7.2 60 22:37 22.11.2022
923 Clouds 26 1019 65 10000 6.71 60 21:51 22.11.2022
924 Clouds 26 1019 68 10000 6.71 60 21:31 22.11.2022
925 Clouds 26 1019 67 10000 8.23 70 20:44 22.11.2022
926 Clouds 25 1019 72 10000 7.2 50 19:47 22.11.2022
927 Clouds 23 1018 80 10000 5.14 50 17:54 22.11.2022
928 Clouds 24 1018 76 10000 5.14 50 16:48 22.11.2022
929 Clouds 24 1017 73 10000 5.81 50 14:55 22.11.2022
930 Clouds 24 1018 75 10000 2.24 45 12:56 22.11.2022
931 Clouds 25 1019 68 10000 8.49 50 09:42 22.11.2022
932 Clouds 25 1019 71 10000 8.05 50 08:58 22.11.2022
933 Clouds 25 1018 69 10000 9.77 60 06:45 22.11.2022
934 Clear 27 1017 60 10000 9.39 70 00:59 22.11.2022
935 Clouds 27 1020 56 10000 7.72 60 23:23 21.11.2022
936 Clouds 28 1020 57 10000 10.8 60 22:26 21.11.2022
937 Clouds 27 1018 58 10000 9.77 60 21:33 21.11.2022
938 Clouds 26 1020 61 10000 8.23 70 20:34 21.11.2022
939 Clouds 25 1020 68 10000 7.72 70 19:39 21.11.2022
940 Clouds 24 1019 71 10000 7.72 60 18:52 21.11.2022
941 Clouds 24 1017 72 10000 8.49 60 17:32 21.11.2022
942 Clouds 24 1016 72 10000 8.75 60 16:43 21.11.2022
943 Clouds 24 1016 72 10000 8.75 60 16:19 21.11.2022
944 Clouds 24 1016 73 10000 7.72 60 15:23 21.11.2022
945 Clouds 23 1016 82 10000 1.79 90 13:54 21.11.2022
946 Clouds 24 1019 77 10000 5.14 70 13:18 21.11.2022
947 Clouds 24 1016 76 10000 4.12 50 09:43 21.11.2022
948 Clouds 25 1020 71 10000 7.2 80 07:52 21.11.2022
949 Clouds 25 1020 71 10000 7.2 80 07:52 21.11.2022
950 Clouds 28 1018 65 10000 8.75 70 00:50 21.11.2022
951 Clouds 27 1019 64 10000 8.75 60 21:47 20.11.2022
952 Clouds 27 1020 68 10000 6.71 50 20:47 20.11.2022
953 Clouds 25 1020 72 10000 2.68 96 19:21 20.11.2022
954 Clouds 24 1018 77 10000 3.09 0 17:24 20.11.2022
955 Rain 24 1018 79 10000 3.09 60 15:44 20.11.2022
956 Rain 23 1018 80 10000 3.09 60 15:21 20.11.2022
957 Rain 24 1018 79 10000 4.12 50 14:18 20.11.2022
958 Rain 25 1018 76 10000 4.12 80 13:32 20.11.2022
959 Clouds 24 1019 80 10000 4.12 70 11:46 20.11.2022
960 Clear 24 1018 77 10000 2.24 86 10:58 20.11.2022
961 Clouds 25 1016 75 10000 3.6 50 09:44 20.11.2022
962 Clouds 25 1016 75 10000 3.6 50 09:44 20.11.2022
963 Clouds 25 1019 74 10000 2.24 24 08:53 20.11.2022
964 Rain 25 1019 74 10000 1.79 97 08:20 20.11.2022
965 Clouds 25 1018 75 10000 3.6 40 07:26 20.11.2022
966 Clouds 28 1016 64 10000 4.63 40 01:28 20.11.2022
967 Clouds 28 1016 65 10000 6.71 40 00:48 20.11.2022
968 Clouds 28 1016 64 10000 6.71 40 00:29 20.11.2022
969 Clear 28 1016 67 10000 7.15 70 23:59 19.11.2022
970 Clouds 28 1017 65 10000 7.2 70 23:26 19.11.2022
971 Clouds 28 1018 67 10000 8.23 50 22:44 19.11.2022
972 Clouds 28 1018 67 10000 8.23 50 22:44 19.11.2022
973 Clouds 27 1018 71 10000 8.23 70 21:51 19.11.2022
974 Clouds 27 1018 73 10000 8.23 70 21:25 19.11.2022
975 Rain 27 1018 75 10000 7.2 60 20:41 19.11.2022
976 Clouds 25 1018 78 10000 2.68 326 19:48 19.11.2022
977 Clouds 24 1017 83 10000 2.24 0 18:19 19.11.2022
978 Rain 24 1017 84 10000 1.79 76 17:38 19.11.2022
979 Rain 24 1017 84 10000 2.68 68 17:18 19.11.2022
980 Clouds 24 1017 82 10000 2.06 20 14:47 19.11.2022
981 Clouds 24 1017 84 10000 2.57 30 13:21 19.11.2022
982 Clouds 24 1018 83 10000 3.6 50 11:52 19.11.2022
983 Rain 24 1017 84 10000 3.58 40 09:45 19.11.2022
984 Rain 24 1018 86 10000 6.69 60 07:52 19.11.2022
985 Clouds 26 1016 75 10000 5.66 40 04:44 19.11.2022
986 Clouds 28 1016 73 10000 6.69 70 00:46 19.11.2022
987 Rain 27 1017 77 10000 6.17 70 23:30 18.11.2022
988 Rain 27 1017 77 10000 6.17 70 23:30 18.11.2022
989 Rain 27 1018 71 10000 6.17 70 22:22 18.11.2022
990 Clouds 28 1018 70 10000 6.17 30 21:35 18.11.2022
991 Clouds 27 1017 74 10000 4.02 30 20:56 18.11.2022
992 Clouds 27 1018 73 10000 4.12 30 20:21 18.11.2022
993 Clouds 26 1017 80 10000 3.09 50 19:36 18.11.2022
994 Clouds 23 1016 91 10000 2.06 350 17:45 18.11.2022
995 Clouds 23 1016 88 10000 2.57 360 14:47 18.11.2022
996 Clouds 23 1017 85 10000 3.6 20 11:52 18.11.2022
997 Clouds 23 1017 85 10000 2.06 320 10:22 18.11.2022
998 Clouds 24 1017 84 10000 6.17 20 07:52 18.11.2022
999 Clouds 25 1016 80 10000 4.12 40 05:27 18.11.2022
1000 Clouds 27 1014 73 10000 4.63 220 02:25 18.11.2022
1001 Clouds 28 1016 70 10000 0.89 125 22:56 17.11.2022
1002 Clouds 27 1017 74 10000 2.57 30 20:48 17.11.2022
1003 Clouds 25 1017 80 10000 0.89 121 19:51 17.11.2022
1004 Clouds 25 1017 83 10000 0.89 140 19:20 17.11.2022
1005 Clouds 22 1016 88 10000 0.89 147 18:27 17.11.2022
1006 Clouds 22 1015 90 10000 1.34 350 16:56 17.11.2022
1007 Clear 23 1015 86 10000 1.54 330 15:42 17.11.2022
1008 Clouds 23 1016 82 10000 0.89 73 12:19 17.11.2022
1009 Clouds 23 1017 77 10000 4.63 60 10:28 17.11.2022
1010 Clouds 24 1016 67 10000 3.6 70 06:19 17.11.2022
1011 Clouds 28 1015 60 10000 7.2 70 00:50 17.11.2022
1012 Clouds 27 1016 62 10000 8.23 80 22:38 16.11.2022
1013 Clouds 27 1015 62 10000 4.63 40 21:49 16.11.2022
1014 Clouds 26 1015 64 10000 4.63 50 20:22 16.11.2022
1015 Clouds 22 1017 80 10000 1.79 62 18:48 16.11.2022
1016 Clouds 22 1015 79 10000 0.89 1 17:58 16.11.2022
1017 Clouds 21 1013 80 10000 2.06 330 14:41 16.11.2022
1018 Clouds 22 1014 75 10000 2.57 330 10:53 16.11.2022
1019 Clouds 23 1015 69 10000 4.12 30 06:48 16.11.2022
1020 Clouds 27 1014 58 10000 4.63 50 01:34 16.11.2022
1021 Clouds 26 1014 63 10000 0.89 134 22:54 15.11.2022
1022 Clouds 25 1016 66 10000 4.12 50 20:56 15.11.2022
1023 Clouds 24 1016 73 10000 2.06 360 19:42 15.11.2022
1024 Clouds 23 1016 76 10000 2.57 10 18:50 15.11.2022
1025 Clouds 22 1015 78 10000 3.6 30 17:32 15.11.2022
1026 Clouds 22 1015 79 10000 2.06 40 16:20 15.11.2022
1027 Clouds 23 1015 80 10000 1.34 82 15:21 15.11.2022
1028 Rain 23 1015 79 10000 3.6 50 13:39 15.11.2022
1029 Clouds 23 1016 78 10000 3.6 50 11:48 15.11.2022
1030 Rain 23 1016 79 10000 3.6 50 11:19 15.11.2022
1031 Rain 24 1014 78 10000 6.17 60 09:18 15.11.2022
1032 Clouds 28 1015 61 10000 6.71 20 00:39 15.11.2022
1033 Clouds 28 1015 62 10000 6.71 20 00:18 15.11.2022
1034 Clouds 27 1017 65 10000 5.14 70 21:35 14.11.2022
1035 Clouds 26 1017 68 10000 4.63 60 20:40 14.11.2022
1036 Clouds 23 1017 85 10000 1.54 320 18:52 14.11.2022
1037 Clear 23 1015 83 10000 1.34 79 15:54 14.11.2022
1038 Rain 24 1017 78 10000 5.81 40 12:55 14.11.2022
1039 Clouds 24 1017 75 10000 6.17 40 11:42 14.11.2022
1040 Clouds 24 1017 73 10000 4.12 50 09:29 14.11.2022
1041 Clear 24 1015 75 10000 0.89 94 07:54 14.11.2022
1042 Clear 25 1015 72 10000 5.36 50 06:40 14.11.2022
1043 Rain 28 1013 63 10000 2.57 20 00:18 14.11.2022
1044 Clouds 26 1015 74 10000 1.79 87 21:54 13.11.2022
1045 Clouds 26 1016 73 10000 4.63 60 21:36 13.11.2022
1046 Rain 24 1016 86 10000 2.06 340 19:44 13.11.2022
1047 Rain 22 1015 88 10000 2.57 230 18:23 13.11.2022
1048 Rain 22 1015 89 10000 0.89 102 17:22 13.11.2022
1049 Rain 23 1012 87 10000 0.89 133 14:58 13.11.2022
1050 Clouds 23 1014 84 10000 2.06 360 14:23 13.11.2022
1051 Rain 23 1015 82 10000 2.57 330 12:38 13.11.2022
1052 Rain 23 1015 83 10000 2.06 290 11:20 13.11.2022
1053 Clouds 23 1014 81 10000 2.68 10 08:55 13.11.2022
1054 Clouds 27 1014 62 10000 8.23 40 01:35 13.11.2022
1055 Rain 25 1015 75 10000 2.57 350 22:51 12.11.2022
1056 Rain 24 1015 81 10000 4.12 40 21:24 12.11.2022
1057 Rain 24 1016 80 10000 3.09 30 20:18 12.11.2022
1058 Clouds 23 1014 69 10000 3.6 30 17:57 12.11.2022
1059 Clouds 23 1014 68 10000 3.6 20 16:25 12.11.2022
1060 Clouds 23 1014 67 10000 3.09 10 15:23 12.11.2022
1061 Rain 23 1014 68 10000 4.12 10 12:28 12.11.2022
1062 Clouds 23 1016 67 10000 4.12 30 09:20 12.11.2022
1063 Clouds 24 1015 69 10000 5.81 30 05:55 12.11.2022
1064 Clouds 26 1018 56 10000 6.17 30 22:31 11.11.2022
1065 Clouds 25 1018 55 10000 3.6 20 20:46 11.11.2022
1066 Clouds 25 1018 56 10000 3.6 20 20:46 11.11.2022
1067 Clouds 25 1017 60 10000 3.6 20 19:44 11.11.2022
1068 Clouds 24 1017 64 10000 3.6 20 19:20 11.11.2022
1069 Clouds 23 1016 69 10000 3.09 10 17:56 11.11.2022
1070 Clouds 23 1016 69 10000 3.09 10 17:56 11.11.2022
1071 Clear 23 1016 69 10000 2.68 10 17:56 11.11.2022
1072 Clouds 23 1016 72 10000 2.06 320 16:27 11.11.2022
1073 Clear 23 1015 76 10000 0.89 234 14:20 11.11.2022
1074 Clouds 23 1017 74 10000 2.06 310 13:29 11.11.2022
1075 Clouds 24 1019 73 10000 3.09 10 09:48 11.11.2022
1076 Clouds 24 1019 71 10000 2.06 0 08:27 11.11.2022
1077 Clouds 25 1017 73 10000 3.6 350 05:44 11.11.2022
1078 Clouds 27 1016 67 10000 7.2 30 23:22 10.11.2022
1079 Clouds 26 1019 73 10000 2.57 300 22:35 10.11.2022
1080 Clouds 25 1020 79 10000 4.63 40 21:33 10.11.2022
1081 Rain 24 1020 83 10000 3.6 350 20:50 10.11.2022
1082 Clouds 24 1021 81 10000 3.6 350 20:21 10.11.2022
1083 Rain 23 1019 83 10000 1.54 320 19:42 10.11.2022
1084 Clouds 22 1018 84 10000 3.09 10 18:32 10.11.2022
1085 Clouds 22 1015 80 10000 2.24 30 16:26 10.11.2022
1086 Clouds 23 1014 80 10000 2.68 40 13:56 10.11.2022
1087 Clouds 24 1019 74 10000 4.12 60 11:38 10.11.2022
1088 Clouds 24 1019 72 10000 6.17 40 08:43 10.11.2022
1089 Clear 27 1016 65 10000 1.34 76 01:31 10.11.2022
1090 Clouds 27 1015 69 10000 7.15 80 23:34 09.11.2022
1091 Clouds 27 1018 70 10000 7.72 70 22:35 09.11.2022
1092 Clouds 26 1020 74 10000 5.66 70 20:48 09.11.2022
1093 Clouds 26 1020 75 10000 5.66 70 20:29 09.11.2022
1094 Clouds 25 1019 75 10000 6.69 50 19:41 09.11.2022
1095 Rain 24 1018 77 10000 4.12 50 18:51 09.11.2022
1096 Clouds 24 1014 77 10000 4.92 60 15:56 09.11.2022
1097 Clouds 24 1015 75 10000 3.58 60 14:47 09.11.2022
1098 Clouds 24 1015 76 10000 3.58 60 14:24 09.11.2022
1099 Clouds 24 1016 75 10000 3.6 60 13:18 09.11.2022
1100 Clouds 25 1016 73 10000 4.12 50 11:46 09.11.2022
1101 Clear 25 1018 71 10000 5.36 60 08:42 09.11.2022
1102 Clouds 25 1019 70 10000 7.72 70 07:46 09.11.2022
1103 Clouds 28 1016 63 10000 1.79 90 00:54 09.11.2022
1104 Rain 27 1019 67 10000 6.17 80 21:45 08.11.2022
1105 Rain 27 1019 68 10000 6.17 80 21:26 08.11.2022
1106 Clouds 27 1019 75 10000 6.17 70 20:41 08.11.2022
1107 Clouds 26 1020 74 10000 8.23 70 19:37 08.11.2022
1108 Clouds 25 1019 76 10000 6.17 70 18:31 08.11.2022
1109 Clouds 25 1019 80 10000 7.72 60 16:47 08.11.2022
1110 Clouds 24 1018 84 10000 10.07 73 14:56 08.11.2022
1111 Clouds 25 1016 80 10000 5.14 50 13:41 08.11.2022
1112 Clouds 24 1016 80 10000 5.14 50 13:22 08.11.2022
1113 Clouds 26 1016 72 10000 5.14 50 09:20 08.11.2022
1114 Clouds 26 1015 72 10000 4.12 70 07:25 08.11.2022
1115 Clouds 29 1018 66 10000 7.72 100 00:33 08.11.2022
1116 Clouds 28 1019 64 10000 8.23 60 22:24 07.11.2022
1117 Clouds 28 1020 67 10000 6.69 60 21:21 07.11.2022
1118 Clouds 27 1019 68 10000 7.72 70 20:33 07.11.2022
1119 Clouds 25 1018 78 10000 5.66 70 17:52 07.11.2022
1120 Clouds 25 1017 78 10000 5.66 70 16:39 07.11.2022
1121 Clouds 25 1017 79 10000 3.6 60 15:35 07.11.2022
1122 Clouds 25 1017 76 10000 4.63 60 14:46 07.11.2022
1123 Clouds 25 1018 76 10000 5.14 70 12:36 07.11.2022
1124 Clouds 25 1018 78 10000 4.12 70 11:30 07.11.2022
1125 Clouds 25 1018 78 10000 5.14 60 09:36 07.11.2022
1126 Clouds 26 1018 73 10000 5.66 60 07:41 07.11.2022
1127 Rain 27 1016 66 10000 7.2 50 04:18 07.11.2022
1128 Clouds 28 1016 69 10000 6.84 81 01:21 07.11.2022
1129 Clouds 29 1018 67 10000 6.17 50 22:21 06.11.2022
1130 Clouds 28 1014 67 10000 8.23 60 21:20 06.11.2022
1131 Clouds 27 1018 71 10000 6.71 60 20:31 06.11.2022
1132 Clouds 27 1017 70 10000 5.14 60 19:34 06.11.2022
1133 Clouds 25 1017 75 10000 4.12 70 18:39 06.11.2022
1134 Clouds 25 1017 75 10000 4.12 70 18:19 06.11.2022
1135 Clouds 24 1016 79 10000 3.6 70 17:20 06.11.2022
1136 Clouds 24 1017 80 10000 3.6 60 16:40 06.11.2022
1137 Clouds 24 1017 80 10000 2.06 70 15:43 06.11.2022
1138 Clouds 25 1018 77 10000 3.6 60 12:48 06.11.2022
1139 Clouds 25 1018 77 10000 2.68 60 11:58 06.11.2022
1140 Clouds 26 1019 74 10000 6.71 70 10:40 06.11.2022
1141 Clouds 26 1018 76 10000 7.2 60 07:45 06.11.2022
1142 Clouds 26 1018 76 10000 7.2 60 07:45 06.11.2022
1143 Clouds 29 1018 64 10000 6.17 60 00:49 06.11.2022
1144 Clouds 29 1019 69 10000 6.69 60 22:49 05.11.2022
1145 Clouds 26 1018 78 10000 4.63 70 19:20 05.11.2022
1146 Clouds 26 1018 81 10000 4.06 82 16:58 05.11.2022
1147 Clouds 26 1017 80 10000 5.37 83 15:28 05.11.2022
1148 Clouds 26 1017 79 10000 5.66 60 14:33 05.11.2022
1149 Clouds 25 1017 81 10000 2.57 80 12:34 05.11.2022
1150 Clouds 26 1020 84 10000 4.63 70 09:37 05.11.2022
1151 Clouds 26 1016 82 10000 4.63 70 07:25 05.11.2022
1152 Clouds 26 1013 82 10000 2.24 40 06:57 05.11.2022
1153 Clouds 29 1017 71 10000 6.17 60 00:46 05.11.2022
1154 Clouds 29 1019 72 10000 6.17 70 23:32 04.11.2022
1155 Clouds 28 1020 75 10000 6.69 50 21:40 04.11.2022
1156 Clouds 27 1018 80 10000 2.57 330 19:40 04.11.2022
1157 Clouds 24 1017 90 10000 2.06 10 17:44 04.11.2022
1158 Clouds 25 1017 86 10000 2.57 50 14:38 04.11.2022
1159 Clouds 25 1018 82 10000 2.57 60 13:19 04.11.2022
1160 Clouds 25 1018 84 10000 2.06 40 12:19 04.11.2022
1161 Clouds 26 1019 80 10000 3.09 50 09:31 04.11.2022
1162 Clouds 26 1018 79 10000 2.57 70 08:20 04.11.2022
1163 Clouds 26 1016 80 10000 1.79 76 06:40 04.11.2022
1164 Clouds 29 1018 65 10000 5.66 100 00:56 04.11.2022
1165 Clouds 28 1020 73 10000 3.6 80 21:42 03.11.2022
1166 Rain 27 1020 77 10000 2.57 90 20:45 03.11.2022
1167 Rain 26 1016 82 10000 2.57 90 19:41 03.11.2022
1168 Clouds 24 1018 86 10000 3.09 80 18:18 03.11.2022
1169 Rain 24 1015 84 10000 2.57 90 17:36 03.11.2022
1170 Rain 24 1017 83 10000 1.34 60 14:58 03.11.2022
1171 Clouds 24 1018 83 10000 2.06 330 13:26 03.11.2022
1172 Rain 24 1018 84 10000 2.06 30 12:34 03.11.2022
1173 Clouds 24 1016 84 10000 3.6 50 11:28 03.11.2022
1174 Clouds 26 1018 76 10000 4.63 60 07:45 03.11.2022
1175 Clouds 27 1018 74 10000 7.15 50 21:59 02.11.2022
1176 Clouds 27 1017 78 10000 5.14 70 20:54 02.11.2022
1177 Clouds 27 1017 77 10000 5.14 70 20:23 02.11.2022
1178 Clouds 24 1015 89 10000 0.89 100 17:58 02.11.2022
1179 Clouds 23 1015 88 10000 1.54 350 16:25 02.11.2022
1180 Clouds 24 1015 87 10000 0.45 99 15:25 02.11.2022
1181 Clouds 24 1016 86 10000 0 0 12:48 02.11.2022
1182 Clouds 24 1015 83 10000 5.81 70 11:58 02.11.2022
1183 Clouds 25 1016 78 10000 2.06 30 09:32 02.11.2022
1184 Clouds 25 1016 77 10000 5.14 50 07:38 02.11.2022
1185 Clouds 29 1013 62 10000 8.75 30 01:23 02.11.2022
1186 Clouds 29 1015 62 10000 7.72 40 22:20 01.11.2022
1187 Clouds 28 1016 63 10000 8.23 60 21:42 01.11.2022
1188 Clouds 27 1016 67 10000 5.66 100 20:27 01.11.2022
1189 Clouds 26 1015 70 10000 3.09 50 19:57 01.11.2022
1190 Clouds 26 1015 70 10000 3.09 50 19:39 01.11.2022
1191 Clouds 24 1014 79 10000 2.24 60 17:58 01.11.2022
1192 Clouds 24 1015 78 10000 1.34 73 16:23 01.11.2022
1193 Clouds 25 1015 76 10000 2.57 70 14:33 01.11.2022
1194 Clouds 25 1015 78 10000 4.12 60 12:31 01.11.2022
1195 Clouds 25 1016 78 10000 4.12 60 11:38 01.11.2022
1196 Clouds 25 1016 79 10000 4.12 60 11:20 01.11.2022
1197 Clouds 26 1016 77 10000 6.71 60 08:51 01.11.2022
1198 Clouds 26 1015 76 10000 5.14 80 07:48 01.11.2022
1199 Clouds 26 1015 76 10000 5.14 80 07:26 01.11.2022
1200 Clouds 26 1015 76 10000 6.71 70 06:45 01.11.2022
1201 Clear 27 1012 73 10000 1.79 75 03:57 01.11.2022
1202 Clouds 29 1016 66 10000 7.72 60 22:22 31.10.2022
1203 Clouds 29 1017 67 10000 5.66 70 21:26 31.10.2022
1204 Clouds 27 1016 74 10000 3.6 50 19:55 31.10.2022
1205 Clouds 24 1015 82 10000 1.79 80 18:28 31.10.2022
1206 Clouds 24 1015 82 10000 1.34 133 16:43 31.10.2022
1207 Clouds 25 1015 80 10000 3.09 20 13:49 31.10.2022
1208 Clouds 25 1017 78 10000 4.12 50 11:54 31.10.2022
1209 Clouds 25 1018 78 10000 4.63 40 09:18 31.10.2022
1210 Clouds 26 1017 72 10000 3.09 0 05:34 31.10.2022
1211 Clouds 29 1015 65 10000 7.2 40 02:30 31.10.2022
1212 Clouds 29 1016 64 10000 9.26 70 23:19 30.10.2022
1213 Clouds 28 1017 67 10000 5.66 30 21:44 30.10.2022
1214 Clouds 27 1015 70 10000 4.63 20 20:37 30.10.2022
1215 Clouds 24 1016 81 10000 1.79 127 18:40 30.10.2022
1216 Clouds 24 1015 82 10000 1.54 20 16:18 30.10.2022
1217 Clouds 24 1015 82 10000 2.68 80 13:53 30.10.2022
1218 Clouds 24 1016 80 10000 3.09 80 13:20 30.10.2022
1219 Clouds 25 1016 79 10000 3.6 50 11:47 30.10.2022
1220 Clouds 25 1014 78 10000 4.63 60 09:38 30.10.2022
1221 Clouds 25 1014 81 10000 4.63 60 08:39 30.10.2022
1222 Clear 27 1013 73 10000 1.34 118 03:58 30.10.2022
1223 Clouds 29 1016 63 10000 8.23 70 00:28 30.10.2022
1224 Clouds 29 1016 63 10000 6.71 70 23:45 29.10.2022
1225 Clouds 28 1016 70 10000 5.14 40 21:27 29.10.2022
1226 Clouds 23 1015 85 10000 3.6 80 18:21 29.10.2022
1227 Clouds 23 1014 87 10000 0.89 83 17:20 29.10.2022
1228 Clouds 24 1014 87 10000 2.57 40 15:38 29.10.2022
1229 Clouds 24 1014 88 10000 1.79 37 14:48 29.10.2022
1230 Clouds 24 1015 84 10000 3.09 30 12:35 29.10.2022
1231 Rain 25 1015 84 10000 3.6 50 11:32 29.10.2022
1232 Clouds 25 1012 82 10000 4.12 60 07:38 29.10.2022
1233 Clouds 25 1012 82 10000 4.12 60 07:38 29.10.2022
1234 Clear 25 1011 82 10000 2.68 30 05:56 29.10.2022
1235 Clouds 26 1012 78 10000 2.57 30 04:18 29.10.2022
1236 Clouds 28 1013 72 10000 5.66 30 23:42 28.10.2022
1237 Clouds 26 1013 80 10000 2.57 20 20:47 28.10.2022
1238 Clouds 24 1013 85 10000 3.09 40 19:26 28.10.2022
1239 Rain 23 1013 88 10000 0.45 207 18:31 28.10.2022
1240 Clouds 23 1012 89 10000 2.57 330 15:33 28.10.2022
1241 Rain 23 1013 89 10000 1.54 0 14:43 28.10.2022
1242 Clear 23 1013 89 10000 1.34 360 12:57 28.10.2022
1243 Rain 24 1014 83 10000 2.06 40 11:34 28.10.2022
1244 Clear 24 1013 85 10000 1.34 20 10:59 28.10.2022
1245 Clouds 24 1014 82 10000 1.54 30 09:48 28.10.2022
1246 Clouds 25 1014 79 10000 2.57 40 08:28 28.10.2022
1247 Clouds 28 1012 68 10000 6.17 40 03:43 28.10.2022
1248 Clouds 29 1015 66 10000 6.69 60 23:49 27.10.2022
1249 Clouds 28 1015 69 10000 5.66 40 22:41 27.10.2022
1250 Clouds 28 1015 70 10000 7.2 50 21:55 27.10.2022
1251 Clouds 26 1015 74 10000 6.17 50 20:28 27.10.2022
1252 Clouds 24 1014 80 10000 2.06 50 18:22 27.10.2022
1253 Clouds 24 1013 82 10000 2.57 60 14:30 27.10.2022
1254 Clouds 25 1018 81 10000 0 0 11:29 27.10.2022
1255 Clouds 26 1018 77 10000 4.12 40 07:29 27.10.2022
1256 Rain 28 1015 72 10000 5.14 40 00:22 27.10.2022
1257 Rain 27 1019 78 10000 6.69 60 23:44 26.10.2022
1258 Clouds 26 1020 81 10000 7.72 60 22:37 26.10.2022
1259 Rain 24 1020 92 10000 9.96 64 19:57 26.10.2022
1260 Rain 24 1018 88 10000 4.12 80 16:52 26.10.2022
1261 Clouds 24 1019 89 10000 2.06 340 14:52 26.10.2022
1262 Clouds 25 1020 86 10000 2.06 30 12:39 26.10.2022
1263 Clouds 25 1020 85 10000 5.14 80 11:26 26.10.2022
1264 Clouds 26 1019 77 10000 7.2 60 08:54 26.10.2022
1265 Clouds 26 1019 76 10000 7.2 60 08:36 26.10.2022
1266 Clouds 29 1019 67 10000 9.26 40 00:46 26.10.2022
1267 Clouds 30 1019 63 10000 9.26 40 00:23 26.10.2022
1268 Clouds 28 1019 72 10000 6.17 50 21:54 25.10.2022
1269 Clouds 28 1019 73 10000 6.17 50 21:24 25.10.2022
1270 Clouds 26 1018 76 10000 5.14 60 19:43 25.10.2022
1271 Clouds 25 1017 79 10000 4.12 50 17:52 25.10.2022
1272 Clear 25 1017 79 10000 4.47 60 14:56 25.10.2022
1273 Clear 25 1018 78 10000 5.14 70 11:38 25.10.2022
1274 Clouds 25 1015 84 10000 4.12 40 10:37 25.10.2022
1275 Clouds 25 1014 83 10000 5.14 70 09:53 25.10.2022
1276 Clouds 26 1014 79 10000 4.63 60 08:19 25.10.2022
1277 Rain 25 1017 83 10000 5.14 70 07:54 25.10.2022
1278 Clear 24 1017 87 10000 7.39 79 06:56 25.10.2022
1279 Clouds 29 1015 66 10000 7.2 70 03:46 25.10.2022
1280 Clouds 30 1017 60 10000 8.75 70 00:37 25.10.2022
1281 Clouds 29 1014 62 10000 8.23 50 23:47 24.10.2022
1282 Clouds 28 1014 65 10000 7.72 70 22:24 24.10.2022
1283 Clouds 28 1014 69 10000 4.12 60 21:33 24.10.2022
1284 Clouds 26 1013 75 10000 4.12 70 20:42 24.10.2022
1285 Clouds 24 1013 85 10000 3.09 90 18:52 24.10.2022
1286 Rain 24 1016 85 9656 6.17 60 17:45 24.10.2022
1287 Clouds 24 1016 82 10000 3.09 70 16:33 24.10.2022
1288 Clouds 25 1015 77 10000 4.47 70 14:22 24.10.2022
1289 Clouds 25 1015 76 10000 4.63 70 13:34 24.10.2022
1290 Clouds 25 1016 74 10000 4.63 70 11:41 24.10.2022
1291 Clear 26 1014 74 10000 1.34 76 07:57 24.10.2022
1292 Rain 29 1015 65 10000 5.66 90 00:50 24.10.2022
1293 Clouds 26 1017 79 10000 4.63 50 20:43 23.10.2022
1294 Clouds 24 1017 90 10000 7.73 64 19:42 23.10.2022
1295 Clouds 25 1015 79 10000 4.92 40 17:42 23.10.2022
1296 Clouds 25 1015 79 10000 4.92 40 17:42 23.10.2022
1297 Clouds 25 1015 79 10000 4.92 40 17:21 23.10.2022
1298 Clouds 25 1015 76 10000 3.09 70 15:19 23.10.2022
1299 Clear 26 1016 75 10000 6.71 60 12:58 23.10.2022
1300 Clear 26 1017 72 10000 4.47 60 10:58 23.10.2022
1301 Clouds 26 1015 73 10000 5.14 50 07:53 23.10.2022
1302 Clouds 29 1016 69 10000 4.63 90 23:37 22.10.2022
1303 Clouds 28 1017 75 10000 4.63 70 22:31 22.10.2022
1304 Clouds 27 1016 76 10000 4.12 80 21:41 22.10.2022
1305 Rain 27 1016 78 10000 3.09 70 20:36 22.10.2022
1306 Clouds 26 1015 82 10000 4.12 60 19:32 22.10.2022
1307 Rain 25 1015 86 10000 2.06 340 18:46 22.10.2022
1308 Rain 25 1015 91 9656 1.34 87 17:31 22.10.2022
1309 Rain 25 1015 90 10000 2.06 330 15:26 22.10.2022
1310 Clouds 25 1016 87 10000 1.54 360 14:36 22.10.2022
1311 Clouds 25 1016 86 10000 2.68 90 14:36 22.10.2022
1312 Rain 25 1016 84 10000 0.45 334 12:42 22.10.2022
1313 Clouds 26 1016 82 10000 2.68 360 09:50 22.10.2022
1314 Clouds 26 1016 80 10000 3.09 360 08:51 22.10.2022
1315 Clouds 27 1014 76 10000 2.68 130 06:30 22.10.2022
1316 Clouds 30 1016 69 10000 3.6 160 01:44 22.10.2022
1317 Rain 28 1016 73 10000 5.14 140 22:53 21.10.2022
1318 Clouds 27 1016 76 10000 5.14 130 21:34 21.10.2022
1319 Clouds 26 1014 82 10000 1.54 360 20:47 21.10.2022
1320 Clear 24 1012 85 10000 0 0 18:32 21.10.2022
1321 Clouds 23 1013 90 10000 2.06 340 14:47 21.10.2022
1322 Clouds 23 1013 92 10000 2.24 350 13:43 21.10.2022
1323 Clouds 23 1015 94 10000 2.68 320 11:55 21.10.2022
1324 Rain 23 1014 90 10000 1.54 0 10:26 21.10.2022
1325 Clouds 24 1013 83 10000 3.09 110 09:33 21.10.2022
1326 Clouds 25 1013 79 10000 3.6 110 08:26 21.10.2022
1327 Clouds 25 1011 77 10000 1.54 110 05:56 21.10.2022
1328 Clouds 28 1013 62 10000 2.57 190 23:53 20.10.2022
1329 Clouds 25 1012 76 10000 2.06 360 21:21 20.10.2022
1330 Clouds 22 1013 88 10000 2.24 360 19:44 20.10.2022
1331 Clouds 21 1012 89 10000 2.57 360 18:50 20.10.2022
1332 Clouds 21 1012 89 10000 3.6 330 17:44 20.10.2022
1333 Clouds 21 1012 89 10000 5.14 330 15:24 20.10.2022
1334 Rain 21 1014 95 10000 3.09 330 12:33 20.10.2022
1335 Rain 21 1014 94 10000 4.63 360 11:34 20.10.2022
1336 Rain 21 1013 96 10000 0.89 244 10:52 20.10.2022
1337 Rain 21 1014 95 10000 3.6 320 09:34 20.10.2022
1338 Rain 22 1013 95 10000 5.66 10 07:23 20.10.2022
1339 Rain 26 1012 76 10000 6.17 340 02:23 20.10.2022
1340 Clouds 28 1014 62 10000 5.14 160 23:41 19.10.2022
1341 Clouds 29 1014 60 10000 4.12 160 22:25 19.10.2022
1342 Clouds 28 1014 62 10000 2.06 330 21:27 19.10.2022
1343 Clouds 25 1014 71 10000 0.45 221 20:19 19.10.2022
1344 Clouds 22 1013 82 10000 0 0 17:52 19.10.2022
1345 Clear 22 1013 78 10000 1.54 330 16:24 19.10.2022
1346 Clear 22 1015 79 10000 0 0 14:27 19.10.2022
1347 Clouds 22 1016 83 10000 0 0 12:20 19.10.2022
1348 Clouds 25 1015 80 10000 3.09 340 08:52 19.10.2022
1349 Clouds 26 1014 76 10000 5.14 290 07:24 19.10.2022
1350 Clouds 29 1014 61 10000 5.14 220 01:33 19.10.2022
1351 Clouds 29 1016 48 10000 4.12 170 23:25 18.10.2022
1352 Clouds 27 1016 60 10000 1.54 350 21:49 18.10.2022
1353 Clouds 27 1016 60 10000 1.54 350 21:24 18.10.2022
1354 Clouds 25 1015 73 10000 2.57 350 20:27 18.10.2022
1355 Clear 22 1013 88 10000 0.63 14 18:58 18.10.2022
1356 Clear 22 1014 82 10000 1.79 340 16:56 18.10.2022
1357 Clouds 22 1015 80 10000 1.54 340 15:22 18.10.2022
1358 Clear 23 1016 81 10000 2.06 340 13:39 18.10.2022
1359 Clear 23 1016 83 10000 2.06 340 11:47 18.10.2022
1360 Clouds 24 1016 79 10000 1.54 350 10:29 18.10.2022
1361 Clouds 24 1016 77 10000 1.54 20 09:25 18.10.2022
1362 Clouds 27 1013 65 10000 5.66 30 05:54 18.10.2022
1363 Clouds 29 1017 59 10000 4.12 170 23:35 17.10.2022
1364 Clouds 27 1016 67 10000 4.12 60 21:31 17.10.2022
1365 Clouds 26 1016 72 10000 2.57 110 20:47 17.10.2022
1366 Clouds 26 1016 73 10000 2.57 110 20:27 17.10.2022
1367 Clouds 24 1016 81 10000 2.06 350 19:41 17.10.2022
1368 Clouds 23 1015 84 10000 0.45 24 17:40 17.10.2022
1369 Clouds 23 1015 83 10000 1.79 350 15:54 17.10.2022
1370 Clouds 23 1016 82 10000 1.54 350 14:36 17.10.2022
1371 Clouds 24 1016 77 10000 3.09 40 12:42 17.10.2022
1372 Clouds 26 1016 73 10000 2.57 30 07:34 17.10.2022
1373 Clouds 29 1017 64 10000 6.17 60 00:28 17.10.2022
1374 Clouds 28 1015 62 10000 4.63 60 22:26 16.10.2022
1375 Clouds 27 1017 65 10000 3.09 90 21:20 16.10.2022
1376 Clouds 25 1016 75 10000 1.54 80 19:50 16.10.2022
1377 Clouds 24 1014 76 10000 3.09 60 18:37 16.10.2022
1378 Clouds 25 1014 74 10000 2.57 50 17:43 16.10.2022
1379 Clear 24 1014 77 10000 1.34 300 15:59 16.10.2022
1380 Clouds 24 1015 77 10000 1.54 300 15:41 16.10.2022
1381 Clouds 24 1016 76 10000 2.57 40 12:25 16.10.2022
1382 Clouds 25 1017 71 10000 3.09 20 10:46 16.10.2022
1383 Clouds 25 1017 71 10000 3.09 20 10:25 16.10.2022
1384 Clouds 28 1014 63 10000 6.71 60 03:57 16.10.2022
1385 Clouds 29 1018 59 10000 5.66 50 23:41 15.10.2022
1386 Clouds 27 1018 69 10000 2.06 320 21:29 15.10.2022
1387 Clouds 26 1013 77 10000 2.68 330 20:57 15.10.2022
1388 Clouds 23 1015 88 10000 2.06 350 19:30 15.10.2022
1389 Clouds 23 1015 88 10000 2.68 330 15:59 15.10.2022
1390 Clouds 23 1016 88 10000 3.09 330 15:38 15.10.2022
1391 Clouds 24 1017 86 10000 2.06 310 12:33 15.10.2022
1392 Clouds 24 1018 83 10000 2.06 20 11:27 15.10.2022
1393 Rain 24 1012 85 10000 2.24 40 08:56 15.10.2022
1394 Clouds 28 1014 74 10000 5.66 230 03:53 15.10.2022
1395 Clouds 29 1017 66 10000 5.66 170 00:39 15.10.2022
1396 Clouds 29 1017 67 10000 1.54 0 22:25 14.10.2022
1397 Clouds 28 1018 70 10000 2.06 20 21:37 14.10.2022
1398 Clouds 28 1018 70 10000 2.06 20 21:37 14.10.2022
1399 Clouds 27 1016 73 10000 2.06 340 20:27 14.10.2022
1400 Clouds 23 1015 85 10000 2.06 350 17:21 14.10.2022
1401 Clear 24 1015 79 10000 2.24 350 14:56 14.10.2022
1402 Clouds 25 1016 77 10000 2.57 340 12:45 14.10.2022
1403 Clouds 25 1016 77 10000 0 0 10:36 14.10.2022
1404 Clouds 25 1010 80 10000 1.34 10 07:58 14.10.2022
1405 Clouds 27 1012 78 10000 4.02 130 06:18 14.10.2022
1406 Clouds 26 1011 79 10000 4.02 130 05:59 14.10.2022
1407 Clouds 27 1012 77 10000 4.12 130 05:41 14.10.2022
1408 Clouds 29 1015 70 10000 4.92 200 00:55 14.10.2022
1409 Clouds 29 1016 70 10000 0 0 22:37 13.10.2022
1410 Clouds 28 1015 75 10000 0.45 206 21:30 13.10.2022
1411 Clouds 26 1014 84 10000 0 0 20:19 13.10.2022
1412 Clouds 25 1014 91 10000 1.54 30 19:39 13.10.2022
1413 Clouds 24 1013 94 10000 0 0 18:44 13.10.2022
1414 Clouds 24 1013 93 10000 2.06 340 17:31 13.10.2022
1415 Clouds 24 1013 93 10000 2.06 340 17:31 13.10.2022
1416 Clouds 24 1012 92 10000 2.06 340 15:48 13.10.2022
1417 Clouds 24 1013 92 10000 0.45 86 14:29 13.10.2022
1418 Clouds 24 1010 89 10000 0.94 23 12:56 13.10.2022
1419 Clouds 25 1014 86 10000 0 0 11:39 13.10.2022
1420 Clouds 25 1013 86 10000 1.54 130 09:46 13.10.2022
1421 Clouds 26 1011 86 10000 3.09 120 08:32 13.10.2022
1422 Clouds 26 1012 84 10000 2.06 140 07:35 13.10.2022
1423 Clouds 28 1010 78 10000 4.02 200 01:56 13.10.2022
1424 Rain 29 1013 74 10000 4.02 200 00:59 13.10.2022
1425 Clouds 29 1015 70 10000 0.75 218 22:57 12.10.2022
1426 Clouds 28 1015 71 10000 2.57 180 22:36 12.10.2022
1427 Clouds 27 1014 76 10000 0 0 21:22 12.10.2022
1428 Clouds 26 1014 81 10000 0 0 20:52 12.10.2022
1429 Clouds 26 1014 83 10000 0 0 20:23 12.10.2022
1430 Clouds 24 1013 89 10000 0 0 18:26 12.10.2022
1431 Clouds 24 1013 89 10000 1.54 340 17:47 12.10.2022
1432 Clouds 25 1014 89 10000 0.45 180 15:45 12.10.2022
1433 Clouds 25 1012 89 10000 2.06 350 13:57 12.10.2022
1434 Clouds 25 1012 90 10000 2.06 350 13:22 12.10.2022
1435 Clouds 25 1013 90 10000 0.45 158 09:45 12.10.2022
1436 Clouds 25 1010 91 10000 1.34 30 07:59 12.10.2022
1437 Rain 25 1012 87 10000 1.54 30 07:39 12.10.2022
1438 Rain 26 1012 84 10000 2.06 180 06:43 12.10.2022
1439 Rain 29 1015 74 10000 4.02 180 00:59 12.10.2022
1440 Clouds 28 1016 73 10000 0 0 22:19 11.10.2022
1441 Clouds 26 1015 81 10000 2.06 0 20:40 11.10.2022
1442 Clouds 25 1014 87 10000 0 0 19:21 11.10.2022
1443 Clouds 25 1011 89 10000 0 0 16:50 11.10.2022
1444 Clouds 25 1014 87 10000 0 0 14:48 11.10.2022
1445 Clouds 24 1013 93 10000 0.66 148 12:57 11.10.2022
1446 Rain 25 1015 88 10000 2.57 160 10:29 11.10.2022
1447 Rain 26 1015 84 10000 1.54 110 09:36 11.10.2022
1448 Clouds 27 1013 77 10000 3.09 140 06:46 11.10.2022
1449 Rain 29 1011 67 10000 4.12 170 02:31 11.10.2022
1450 Clouds 29 1014 67 10000 4.63 190 00:31 11.10.2022
1451 Clouds 28 1014 70 10000 2.06 210 21:37 10.10.2022
1452 Clouds 25 1011 84 10000 0.85 193 19:56 10.10.2022
1453 Clouds 24 1012 83 10000 2.57 310 18:36 10.10.2022
1454 Clouds 24 1011 82 10000 0 0 17:21 10.10.2022
1455 Clouds 24 1011 81 10000 1.54 340 15:44 10.10.2022
1456 Clouds 23 1012 80 10000 1.34 10 12:54 10.10.2022
1457 Clouds 23 1012 81 10000 2.24 320 11:56 10.10.2022
1458 Clear 24 1012 79 10000 1.34 280 08:59 10.10.2022
1459 Clouds 28 1011 65 10000 3.6 210 05:43 10.10.2022
1460 Clouds 29 1010 63 10000 4.63 220 04:39 10.10.2022
1461 Clouds 29 1014 65 10000 4.63 190 00:31 10.10.2022
1462 Clouds 28 1014 62 10000 0.45 189 22:37 09.10.2022
1463 Clouds 28 1015 60 10000 0 0 22:18 09.10.2022
1464 Clouds 27 1013 69 10000 0.45 185 21:21 09.10.2022
1465 Clouds 26 1013 75 10000 0.45 120 20:20 09.10.2022
1466 Clouds 24 1012 83 10000 0 0 19:37 09.10.2022
1467 Clouds 24 1012 85 10000 1.54 340 18:43 09.10.2022
1468 Clouds 24 1012 83 10000 2.06 310 16:56 09.10.2022
1469 Clouds 24 1012 83 10000 2.06 310 16:33 09.10.2022
1470 Clouds 25 1012 80 10000 2.06 340 15:37 09.10.2022
1471 Clouds 25 1013 81 10000 1.54 360 14:31 09.10.2022
1472 Clouds 24 1013 82 10000 1.34 350 12:59 09.10.2022
1473 Clouds 25 1014 80 10000 1.54 350 12:22 09.10.2022
1474 Clouds 25 1014 80 10000 2.06 30 10:48 09.10.2022
1475 Clouds 26 1013 77 10000 1.39 52 08:29 09.10.2022
1476 Clouds 29 1012 66 10000 3.6 220 03:38 09.10.2022
1477 Clouds 29 1012 64 10000 4.12 220 02:49 09.10.2022
1478 Clouds 30 1014 59 10000 5.14 170 00:34 09.10.2022
1479 Clouds 29 1015 59 10000 1.73 65 22:53 08.10.2022
1480 Clouds 28 1015 63 10000 0 0 21:48 08.10.2022
1481 Clouds 26 1014 71 10000 1.54 320 20:26 08.10.2022
1482 Clouds 23 1013 80 10000 2.06 330 18:37 08.10.2022
1483 Clouds 22 1013 81 10000 0 0 16:18 08.10.2022
1484 Clouds 23 1013 82 10000 0 0 14:52 08.10.2022
1485 Clouds 23 1014 84 10000 3.09 340 13:20 08.10.2022
1486 Clouds 24 1014 78 10000 1.54 360 10:37 08.10.2022
1487 Clouds 24 1010 81 10000 2.24 20 09:55 08.10.2022
1488 Clouds 25 1013 77 10000 1.54 20 08:47 08.10.2022
1489 Clouds 28 1012 69 10000 2.57 70 03:52 08.10.2022
1490 Clouds 30 1014 61 10000 3.09 80 00:37 08.10.2022
1491 Clouds 29 1015 63 10000 3.09 200 23:21 07.10.2022
1492 Clouds 29 1015 61 10000 2.57 10 22:49 07.10.2022
1493 Clouds 27 1014 72 10000 4.12 30 20:59 07.10.2022
1494 Clouds 24 1013 80 10000 2.57 320 19:34 07.10.2022
1495 Clouds 23 1013 84 10000 2.06 320 17:47 07.10.2022
1496 Clouds 24 1013 84 10000 2.06 340 16:41 07.10.2022
1497 Clouds 23 1013 84 10000 1.34 330 14:59 07.10.2022
1498 Clouds 24 1014 81 10000 1.54 290 13:22 07.10.2022
1499 Clouds 25 1014 76 10000 3.09 60 09:56 07.10.2022
1500 Clouds 25 1014 74 10000 3.09 60 09:19 07.10.2022
1501 Clouds 26 1013 70 10000 5.14 50 07:51 07.10.2022
1502 Clouds 29 1013 64 10000 4.63 30 01:54 07.10.2022
1503 Clouds 29 1015 66 10000 5.14 60 22:51 06.10.2022
1504 Clouds 28 1014 68 10000 4.12 50 21:48 06.10.2022
1505 Clouds 27 1014 71 10000 4.12 50 21:25 06.10.2022
1506 Clouds 26 1014 73 10000 4.12 60 20:34 06.10.2022
1507 Clouds 23 1013 86 10000 2.57 320 18:39 06.10.2022
1508 Clouds 23 1013 86 10000 2.57 320 18:19 06.10.2022
1509 Clear 23 1013 86 10000 3.09 150 15:33 06.10.2022
1510 Clouds 24 1014 81 10000 3.6 60 12:22 06.10.2022
1511 Clouds 25 1012 77 10000 2.68 30 07:55 06.10.2022
1512 Clouds 28 1012 71 10000 4.12 250 03:38 06.10.2022
1513 Clouds 29 1014 66 10000 4.63 100 00:39 06.10.2022
1514 Clouds 28 1015 72 10000 3.6 40 21:52 05.10.2022
1515 Clouds 24 1014 83 10000 2.57 90 19:31 05.10.2022
1516 Clouds 23 1013 86 10000 1.54 250 17:36 05.10.2022
1517 Clouds 23 1013 84 10000 3.09 60 16:20 05.10.2022
1518 Clouds 24 1014 84 10000 3.09 60 14:48 05.10.2022
1519 Clouds 24 1014 84 10000 3.09 60 14:19 05.10.2022
1520 Clouds 24 1015 82 10000 2.06 80 12:25 05.10.2022
1521 Rain 25 1016 82 10000 4.12 60 09:51 05.10.2022
1522 Rain 25 1015 82 10000 4.63 40 07:51 05.10.2022
1523 Clouds 25 1013 81 10000 5.14 30 06:21 05.10.2022
1524 Clouds 27 1013 75 10000 7.2 60 04:27 05.10.2022
1525 Clouds 28 1013 70 10000 5.81 60 00:53 05.10.2022
1526 Clouds 29 1014 68 10000 6.17 60 00:27 05.10.2022
1527 Clouds 28 1015 70 10000 6.17 60 22:39 04.10.2022
1528 Clouds 26 1015 76 10000 2.57 40 20:39 04.10.2022
1529 Clouds 23 1014 87 10000 1.79 20 18:59 04.10.2022
1530 Clouds 23 1014 86 10000 2.06 20 18:38 04.10.2022
1531 Clouds 23 1014 86 10000 1.54 70 17:50 04.10.2022
1532 Clouds 24 1014 84 10000 2.06 310 16:36 04.10.2022
1533 Clouds 25 1016 78 10000 4.63 80 13:19 04.10.2022
1534 Clouds 25 1016 74 10000 5.14 40 09:46 04.10.2022
1535 Clouds 25 1015 72 10000 7.2 40 07:24 04.10.2022
1536 Clouds 29 1013 61 10000 6.71 60 02:27 04.10.2022
1537 Clouds 29 1015 65 10000 5.66 40 23:40 03.10.2022
1538 Clouds 28 1015 69 10000 4.12 30 21:53 03.10.2022
1539 Clouds 28 1015 70 10000 4.12 30 21:23 03.10.2022
1540 Clouds 24 1014 82 10000 3.09 70 19:52 03.10.2022
1541 Clouds 23 1012 88 10000 2.68 330 17:59 03.10.2022
1542 Clear 23 1013 89 10000 3.09 330 17:18 03.10.2022
1543 Clear 24 1013 84 10000 2.06 330 15:42 03.10.2022
1544 Clouds 24 1014 83 10000 5.14 80 13:45 03.10.2022
1545 Clouds 24 1014 83 10000 5.14 60 12:24 03.10.2022
1546 Clouds 25 1014 81 10000 4.12 70 10:39 03.10.2022
1547 Clouds 25 1014 79 10000 5.14 70 09:37 03.10.2022
1548 Clouds 26 1013 81 10000 5.14 70 05:44 03.10.2022
1549 Clouds 26 1012 84 10000 6.17 40 02:51 03.10.2022
1550 Rain 26 1014 86 10000 2.57 0 22:29 02.10.2022
1551 Rain 25 1013 86 10000 2.57 20 20:42 02.10.2022
1552 Clouds 24 1012 87 10000 1.79 330 18:42 02.10.2022
1553 Rain 23 1012 87 10000 2.06 330 17:38 02.10.2022
1554 Clouds 24 1011 87 10000 1.54 360 16:33 02.10.2022
1555 Clouds 23 1012 88 10000 1.54 10 15:41 02.10.2022
1556 Clear 25 1012 83 10000 1.54 340 13:51 02.10.2022
1557 Clear 24 1012 83 10000 1.54 340 13:21 02.10.2022
1558 Clouds 25 1013 82 10000 0 0 12:28 02.10.2022
1559 Clouds 25 1013 81 10000 1.54 10 11:37 02.10.2022
1560 Clouds 25 1013 81 10000 2.06 30 10:37 02.10.2022
1561 Clouds 25 1013 78 10000 2.06 30 09:27 02.10.2022
1562 Clouds 26 1012 76 10000 3.6 30 07:30 02.10.2022
1563 Clouds 30 1012 63 10000 6.71 70 02:54 02.10.2022
1564 Clouds 29 1013 63 10000 4.63 40 00:45 02.10.2022
1565 Clouds 30 1013 63 10000 4.63 40 00:20 02.10.2022
1566 Clouds 29 1014 63 10000 5.14 40 22:36 01.10.2022
1567 Clouds 27 1014 73 10000 3.09 80 20:21 01.10.2022
1568 Clouds 24 1013 82 10000 2.06 360 17:55 01.10.2022
1569 Clouds 24 1013 78 10000 2.06 350 16:30 01.10.2022
1570 Clouds 25 1014 77 10000 3.58 70 14:25 01.10.2022
1571 Clear 25 1014 77 10000 4.02 70 12:59 01.10.2022
1572 Clouds 25 1015 74 10000 4.12 70 12:30 01.10.2022
1573 Clouds 26 1015 73 10000 5.14 70 11:19 01.10.2022
1574 Clouds 26 1015 74 10000 3.6 40 10:31 01.10.2022
1575 Clouds 26 1015 74 10000 4.12 60 09:27 01.10.2022
1576 Clouds 26 1015 74 10000 4.02 60 08:57 01.10.2022
1577 Clear 29 1012 68 10000 0.89 130 03:59 01.10.2022
1578 Clouds 30 1013 62 10000 6.17 50 03:28 01.10.2022
1579 Clouds 30 1015 58 10000 4.63 60 23:47 30.09.2022
1580 Clouds 29 1017 62 10000 5.14 100 22:32 30.09.2022
1581 Clouds 29 1016 66 10000 5.14 90 21:22 30.09.2022
1582 Clouds 28 1016 72 10000 4.12 50 20:43 30.09.2022
1583 Clouds 25 1015 82 10000 1.79 68 19:32 30.09.2022
1584 Rain 24 1015 86 10000 2.57 320 17:28 30.09.2022
1585 Clouds 24 1016 85 10000 2.06 350 15:32 30.09.2022
1586 Clouds 25 1016 81 10000 2.06 310 13:29 30.09.2022
1587 Clouds 25 1014 78 10000 2.24 80 11:57 30.09.2022
1588 Clouds 26 1017 72 10000 5.14 80 10:23 30.09.2022
1589 Clouds 26 1016 71 10000 4.63 40 08:22 30.09.2022
1590 Clouds 29 1014 62 10000 7.2 40 04:55 30.09.2022
1591 Clouds 30 1014 62 10000 6.71 30 02:27 30.09.2022
1592 Clouds 29 1018 59 10000 6.17 60 22:24 29.09.2022
1593 Clouds 28 1018 60 10000 5.14 50 21:26 29.09.2022
1594 Clouds 27 1017 68 10000 5.66 60 20:31 29.09.2022
1595 Clouds 24 1016 76 10000 2.57 360 18:32 29.09.2022
1596 Clouds 25 1016 73 10000 3.58 60 16:56 29.09.2022
1597 Clouds 25 1016 72 10000 3.6 60 16:26 29.09.2022
1598 Clouds 25 1016 71 10000 5.66 60 15:35 29.09.2022
1599 Clouds 25 1016 71 10000 4.63 50 14:24 29.09.2022
1600 Clouds 26 1016 71 10000 5.14 60 09:21 29.09.2022
1601 Clouds 28 1015 59 10000 5.66 30 05:42 29.09.2022
1602 Clouds 30 1015 51 10000 5.14 70 02:44 29.09.2022
1603 Clouds 29 1018 56 10000 4.63 60 23:32 28.09.2022
1604 Clouds 29 1016 56 10000 5.66 80 22:25 28.09.2022
1605 Clouds 28 1017 60 10000 5.14 40 21:28 28.09.2022
1606 Clouds 27 1017 64 10000 6.17 60 20:18 28.09.2022
1607 Clouds 24 1015 76 10000 4.12 80 17:42 28.09.2022
1608 Clouds 25 1015 71 10000 3.6 50 14:50 28.09.2022
1609 Clouds 25 1016 72 10000 4.12 60 12:40 28.09.2022
1610 Clouds 25 1016 73 10000 4.63 70 10:24 28.09.2022
1611 Clouds 26 1015 70 10000 5.14 60 08:25 28.09.2022
1612 Clouds 27 1015 67 10000 5.66 60 06:42 28.09.2022
1613 Clouds 29 1014 60 10000 5.14 50 01:51 28.09.2022
1614 Clouds 30 1016 55 10000 6.69 70 01:30 28.09.2022
1615 Clouds 29 1014 60 10000 6.17 70 22:54 27.09.2022
1616 Clouds 28 1016 64 10000 5.66 70 21:24 27.09.2022
1617 Clouds 27 1016 69 10000 4.12 60 20:37 27.09.2022
1618 Clouds 26 1016 73 10000 3.09 80 19:47 27.09.2022
1619 Clouds 25 1016 76 10000 3.6 60 18:25 27.09.2022
1620 Clouds 24 1015 79 10000 2.06 350 17:42 27.09.2022
1621 Clouds 25 1016 75 10000 3.09 80 15:27 27.09.2022
1622 Clouds 25 1016 74 10000 3.09 80 14:33 27.09.2022
1623 Clouds 25 1016 76 10000 5.14 80 12:40 27.09.2022
1624 Clouds 26 1016 73 10000 4.47 50 10:53 27.09.2022
1625 Clouds 26 1016 71 10000 5.14 50 08:46 27.09.2022
1626 Clouds 28 1014 62 10000 6.17 50 05:49 27.09.2022
1627 Clouds 29 1016 62 10000 6.71 160 01:43 27.09.2022
1628 Clouds 29 1017 64 10000 6.71 140 00:32 27.09.2022
1629 Clouds 30 1016 58 10000 3.6 90 23:25 26.09.2022
1630 Clouds 28 1016 66 10000 4.12 130 21:44 26.09.2022
1631 Clouds 26 1016 75 10000 3.6 80 20:26 26.09.2022
1632 Clouds 24 1016 85 10000 2.57 90 19:21 26.09.2022
1633 Clouds 23 1016 87 10000 3.09 90 18:30 26.09.2022
1634 Clouds 23 1015 87 10000 3.09 90 15:49 26.09.2022
1635 Clouds 24 1016 86 10000 2.57 330 13:25 26.09.2022
1636 Clouds 24 1017 86 10000 3.09 120 11:28 26.09.2022
1637 Clouds 25 1017 87 10000 3.09 90 10:36 26.09.2022
1638 Clouds 25 1017 87 10000 3.09 90 10:18 26.09.2022
1639 Clouds 25 1017 86 10000 3.09 80 09:52 26.09.2022
1640 Clouds 25 1017 86 10000 3.09 80 09:22 26.09.2022
1641 Rain 27 1014 78 10000 3.6 150 05:50 26.09.2022
1642 Rain 28 1013 72 10000 5.66 60 02:35 26.09.2022
1643 Clouds 29 1016 69 10000 5.14 180 23:25 25.09.2022
1644 Clouds 28 1015 71 10000 3.6 80 21:48 25.09.2022
1645 Clouds 28 1015 71 10000 3.6 80 21:25 25.09.2022
1646 Clouds 27 1015 75 10000 4.63 70 20:36 25.09.2022
1647 Clouds 24 1014 88 10000 1.34 350 18:57 25.09.2022
1648 Clouds 24 1014 87 10000 1.54 350 18:26 25.09.2022
1649 Clouds 24 1014 87 10000 2.06 80 17:24 25.09.2022
1650 Rain 24 1014 85 10000 2.06 340 16:21 25.09.2022
1651 Rain 25 1014 84 10000 3.6 90 14:54 25.09.2022
1652 Rain 25 1015 83 10000 3.6 90 14:19 25.09.2022
1653 Clouds 25 1015 80 10000 4.12 80 11:34 25.09.2022
1654 Clouds 26 1015 79 10000 5.14 80 09:44 25.09.2022
1655 Clouds 27 1014 76 10000 3.6 90 07:43 25.09.2022
1656 Clouds 27 1011 73 10000 6.17 130 05:25 25.09.2022
1657 Clouds 29 1016 66 10000 5.66 120 23:37 24.09.2022
1658 Clouds 28 1015 71 10000 4.12 120 21:20 24.09.2022
1659 Clouds 27 1015 76 10000 1.54 10 20:32 24.09.2022
1660 Clouds 24 1014 87 10000 2.06 10 19:20 24.09.2022
1661 Clouds 24 1013 86 10000 2.57 80 16:56 24.09.2022
1662 Clouds 25 1013 87 10000 3.09 90 15:29 24.09.2022
1663 Clouds 24 1013 84 10000 4.12 90 14:37 24.09.2022
1664 Rain 25 1012 84 10000 4.12 90 13:22 24.09.2022
1665 Rain 26 1014 80 10000 4.63 80 12:23 24.09.2022
1666 Clouds 26 1013 82 10000 1.34 70 09:59 24.09.2022
1667 Clouds 26 1014 79 10000 4.12 90 08:58 24.09.2022
1668 Rain 27 1013 74 10000 3.6 80 07:41 24.09.2022
1669 Clouds 28 1010 70 10000 5.14 150 04:53 24.09.2022
1670 Clouds 28 1012 73 10000 5.14 150 04:19 24.09.2022
1671 Clouds 29 1014 69 10000 4.12 160 22:54 23.09.2022
1672 Clouds 27 1014 72 10000 4.63 80 21:33 23.09.2022
1673 Clouds 27 1012 75 10000 3.19 153 20:57 23.09.2022
1674 Clouds 26 1013 77 10000 1.54 60 20:37 23.09.2022
1675 Clouds 23 1013 92 10000 2.57 340 19:19 23.09.2022
1676 Clouds 24 1012 87 10000 1.54 280 15:31 23.09.2022
1677 Clear 24 1014 83 10000 0 0 12:39 23.09.2022
1678 Clouds 25 1013 79 10000 4.63 90 09:36 23.09.2022
1679 Clouds 27 1012 73 10000 6.71 70 06:51 23.09.2022
1680 Clouds 29 1011 66 10000 6.71 130 00:42 23.09.2022
1681 Clouds 29 1012 65 10000 3.6 100 23:23 22.09.2022
1682 Clouds 29 1014 64 10000 4.12 100 22:27 22.09.2022
1683 Clouds 28 1014 67 10000 3.09 100 21:19 22.09.2022
1684 Clouds 26 1012 76 10000 3.09 90 19:58 22.09.2022
1685 Clouds 23 1012 86 10000 1.54 360 17:38 22.09.2022
1686 Rain 25 1013 80 10000 2.06 90 13:20 22.09.2022
1687 Clouds 26 1013 75 10000 4.12 70 10:37 22.09.2022
1688 Clear 26 1012 76 10000 4.02 30 08:58 22.09.2022
1689 Clouds 27 1013 67 10000 3.6 30 07:27 22.09.2022
1690 Clouds 29 1011 64 10000 6.17 60 04:36 22.09.2022
1691 Clouds 30 1015 60 10000 6.71 60 23:32 21.09.2022
1692 Clouds 28 1016 70 10000 4.63 70 21:51 21.09.2022
1693 Rain 27 1015 73 10000 5.66 70 20:40 21.09.2022
1694 Clouds 25 1014 78 10000 4.63 90 17:51 21.09.2022
1695 Clouds 25 1013 79 10000 4.47 50 16:55 21.09.2022
1696 Clouds 25 1015 78 10000 3.09 10 14:46 21.09.2022
1697 Clouds 25 1015 79 10000 4.47 70 12:58 21.09.2022
1698 Rain 25 1015 78 10000 5.14 70 11:30 21.09.2022
1699 Rain 26 1016 77 10000 5.66 80 10:33 21.09.2022
1700 Clouds 26 1015 74 10000 5.66 60 09:24 21.09.2022
1701 Clouds 26 1011 77 10000 4.47 40 07:57 21.09.2022
1702 Clouds 30 1014 62 10000 6.17 60 02:49 21.09.2022
1703 Clouds 30 1014 60 10000 6.17 60 02:28 21.09.2022
1704 Clouds 30 1015 56 10000 7.2 50 00:44 21.09.2022
1705 Clouds 29 1015 61 10000 7.72 60 23:18 20.09.2022
1706 Clouds 28 1014 64 10000 6.71 50 20:52 20.09.2022
1707 Clouds 26 1014 73 10000 6.71 60 19:37 20.09.2022
1708 Clouds 25 1013 71 10000 4.63 30 16:28 20.09.2022
1709 Clouds 25 1014 70 10000 5.66 80 14:51 20.09.2022
1710 Clouds 25 1015 70 10000 3.6 90 13:48 20.09.2022
1711 Clouds 26 1014 69 10000 6.17 60 10:33 20.09.2022
1712 Clouds 26 1013 69 10000 6.17 60 08:28 20.09.2022
1713 Clouds 27 1013 65 10000 7.72 70 05:48 20.09.2022
1714 Clouds 27 1013 65 10000 6.17 60 04:27 20.09.2022
1715 Rain 28 1012 68 10000 5.81 60 22:59 19.09.2022
1716 Clouds 29 1014 59 10000 6.17 60 22:18 19.09.2022
1717 Clouds 27 1015 65 10000 5.14 80 20:51 19.09.2022
1718 Clouds 27 1015 67 10000 5.14 80 20:31 19.09.2022
1719 Clouds 25 1013 73 10000 4.12 40 17:46 19.09.2022
1720 Clouds 25 1014 74 10000 4.63 50 15:37 19.09.2022
1721 Clouds 25 1015 73 10000 4.12 70 13:33 19.09.2022
1722 Clouds 26 1015 72 10000 5.66 60 11:28 19.09.2022
1723 Clouds 26 1015 71 10000 7.2 60 08:51 19.09.2022
1724 Clouds 27 1015 71 10000 5.66 60 07:25 19.09.2022
1725 Rain 28 1015 73 10000 7.2 140 01:55 19.09.2022
1726 Clouds 29 1016 67 10000 7.72 80 23:22 18.09.2022
1727 Clouds 27 1016 76 10000 4.12 50 21:44 18.09.2022
1728 Clouds 26 1016 79 10000 5.14 100 20:25 18.09.2022
1729 Clouds 24 1014 85 10000 4.12 80 18:18 18.09.2022
1730 Rain 24 1014 85 10000 3.6 90 17:37 18.09.2022
1731 Clouds 25 1014 82 10000 2.57 110 15:44 18.09.2022
1732 Clouds 25 1015 81 10000 3.6 90 13:50 18.09.2022
1733 Clouds 26 1015 76 10000 4.12 90 12:35 18.09.2022
1734 Clouds 25 1015 78 10000 4.63 70 10:55 18.09.2022
1735 Clouds 29 1014 66 10000 4.12 40 03:42 18.09.2022
1736 Clouds 30 1016 58 10000 7.72 130 01:24 18.09.2022
1737 Clouds 29 1016 65 10000 3.09 60 00:23 18.09.2022
1738 Clouds 28 1016 69 10000 3.09 50 21:39 17.09.2022
1739 Clouds 24 1016 89 10000 2.06 340 19:42 17.09.2022
1740 Clouds 23 1014 88 10000 0.89 54 18:57 17.09.2022
1741 Clouds 24 1014 89 10000 1.34 360 15:58 17.09.2022
1742 Clouds 24 1015 85 10000 3.09 320 13:56 17.09.2022
1743 Clouds 25 1016 85 10000 0 0 10:56 17.09.2022
1744 Clouds 25 1016 87 10000 0.45 44 08:34 17.09.2022
1745 Rain 24 1014 91 10000 2.06 30 06:24 17.09.2022
1746 Clouds 29 1016 67 10000 4.02 180 23:59 16.09.2022
1747 Clouds 28 1016 70 10000 3.6 180 22:52 16.09.2022
1748 Clouds 27 1015 74 10000 1.34 340 20:59 16.09.2022
1749 Clouds 25 1015 83 10000 1.54 0 19:50 16.09.2022
1750 Clouds 24 1014 86 10000 2.06 360 16:30 16.09.2022
1751 Clear 24 1014 89 10000 1.25 64 14:58 16.09.2022
1752 Clouds 24 1015 83 10000 2.06 10 13:43 16.09.2022
1753 Clouds 25 1016 79 10000 2.57 80 10:50 16.09.2022
1754 Clouds 26 1015 76 10000 3.6 70 08:19 16.09.2022
1755 Clouds 27 1014 72 10000 4.63 50 06:48 16.09.2022
1756 Clouds 27 1014 72 10000 4.63 50 06:25 16.09.2022
1757 Rain 27 1014 72 10000 4.63 50 02:37 16.09.2022
1758 Clouds 29 1017 65 10000 4.12 170 22:43 15.09.2022
1759 Clouds 27 1016 73 10000 2.57 0 20:48 15.09.2022
1760 Clouds 24 1015 83 10000 1.54 320 19:46 15.09.2022
1761 Clouds 24 1014 85 10000 2.06 360 18:29 15.09.2022
1762 Clouds 23 1014 82 10000 1.54 340 17:31 15.09.2022
1763 Clouds 24 1014 82 10000 1.54 90 15:50 15.09.2022
1764 Clouds 24 1015 81 10000 2.06 310 13:19 15.09.2022
1765 Clouds 25 1016 76 10000 2.06 40 11:48 15.09.2022
1766 Clouds 25 1015 75 10000 1.54 10 09:46 15.09.2022
1767 Clouds 26 1015 68 10000 3.09 50 07:45 15.09.2022
1768 Clouds 29 1013 56 10000 6.17 70 03:48 15.09.2022
1769 Clouds 30 1016 58 10000 6.71 80 23:30 14.09.2022
1770 Clouds 27 1015 68 10000 6.17 70 20:47 14.09.2022
1771 Clouds 25 1014 75 10000 3.6 40 19:33 14.09.2022
1772 Clouds 24 1014 78 10000 4.63 70 18:26 14.09.2022
1773 Clouds 25 1014 77 10000 2.57 80 16:37 14.09.2022
1774 Clouds 25 1014 78 10000 3.09 40 15:27 14.09.2022
1775 Clouds 25 1015 77 10000 2.06 70 12:57 14.09.2022
1776 Clouds 25 1015 73 10000 3.09 70 10:40 14.09.2022
1777 Clouds 26 1015 69 10000 5.66 70 08:41 14.09.2022
1778 Clouds 27 1014 67 10000 6.71 70 06:50 14.09.2022
1779 Clouds 27 1014 67 10000 6.71 70 06:30 14.09.2022
1780 Clouds 27 1014 67 10000 6.71 70 06:30 14.09.2022
1781 Clouds 29 1014 62 10000 6.71 60 02:58 14.09.2022
1782 Rain 29 1016 62 10000 8.23 80 01:39 14.09.2022
1783 Rain 29 1016 61 10000 8.23 80 01:19 14.09.2022
1784 Clouds 28 1016 70 10000 6.17 60 23:55 13.09.2022
1785 Rain 29 1017 65 10000 6.69 40 23:37 13.09.2022
1786 Rain 29 1017 64 10000 6.69 40 23:19 13.09.2022
1787 Clouds 29 1017 64 10000 6.17 80 22:29 13.09.2022
1788 Clouds 28 1017 65 10000 4.63 60 21:39 13.09.2022
1789 Clouds 24 1015 81 10000 1.34 40 18:59 13.09.2022
1790 Clouds 25 1015 79 10000 3.6 70 16:42 13.09.2022
1791 Rain 25 1016 80 10000 5.14 70 15:31 13.09.2022
1792 Clouds 25 1018 74 10000 4.12 50 13:40 13.09.2022
1793 Clouds 25 1019 78 10000 5.66 80 10:30 13.09.2022
1794 Clouds 27 1017 71 10000 4.63 60 07:56 13.09.2022
1795 Clouds 30 1016 58 10000 6.71 40 02:22 13.09.2022
1796 Clouds 29 1018 66 10000 5.66 70 23:22 12.09.2022
1797 Clouds 28 1018 72 10000 5.14 60 22:40 12.09.2022
1798 Clouds 28 1018 73 10000 3.6 50 21:21 12.09.2022
1799 Clouds 24 1016 89 10000 2.24 360 19:58 12.09.2022
1800 Rain 23 1017 87 10000 3.09 100 18:22 12.09.2022
1801 Clouds 24 1016 84 10000 3.09 70 15:50 12.09.2022
1802 Clouds 25 1017 80 10000 3.09 80 12:30 12.09.2022
1803 Clouds 25 1017 79 10000 5.66 70 10:30 12.09.2022
1804 Clouds 26 1016 73 10000 2.57 40 07:33 12.09.2022
1805 Clouds 29 1014 65 10000 6.17 310 04:35 12.09.2022
1806 Clouds 30 1016 63 10000 2.06 0 01:53 12.09.2022
1807 Clouds 29 1016 66 10000 3.09 150 22:46 11.09.2022
1808 Clouds 28 1017 68 10000 2.57 0 21:25 11.09.2022
1809 Clouds 26 1016 75 10000 1.54 30 20:43 11.09.2022
1810 Clouds 24 1015 85 10000 2.57 80 19:27 11.09.2022
1811 Clouds 23 1013 88 10000 1.79 340 18:58 11.09.2022
1812 Clouds 23 1013 87 10000 1.54 80 17:26 11.09.2022
1813 Clouds 24 1013 85 10000 2.06 320 15:46 11.09.2022
1814 Clouds 24 1014 85 10000 2.06 90 13:19 11.09.2022
1815 Clouds 25 1014 81 10000 1.54 60 10:51 11.09.2022
1816 Clouds 26 1012 76 10000 3.09 70 07:49 11.09.2022
1817 Clouds 27 1011 71 10000 5.66 30 05:19 11.09.2022
1818 Clouds 29 1012 63 10000 4.12 100 23:50 10.09.2022
1819 Clouds 28 1013 68 10000 4.12 80 22:21 10.09.2022
1820 Rain 25 1012 83 10000 3.6 60 20:24 10.09.2022
1821 Rain 24 1012 86 10000 3.09 60 19:43 10.09.2022
1822 Clouds 24 1012 87 10000 3.09 60 19:24 10.09.2022
1823 Rain 24 1011 86 10000 3.09 80 17:19 10.09.2022
1824 Clouds 25 1011 83 10000 3.6 90 15:35 10.09.2022
1825 Rain 25 1012 83 10000 4.12 60 13:36 10.09.2022
1826 Clouds 25 1012 82 10000 3.6 30 12:29 10.09.2022
1827 Clouds 26 1013 79 10000 3.6 70 10:28 10.09.2022
1828 Clouds 26 1011 78 10000 5.14 60 08:41 10.09.2022
1829 Clouds 26 1011 79 10000 5.14 60 08:20 10.09.2022
1830 Rain 27 1011 75 10000 6.17 30 03:43 10.09.2022
1831 Rain 27 1012 80 10000 7.6 60 23:36 09.09.2022
1832 Rain 26 1013 83 10000 7.72 60 22:31 09.09.2022
1833 Clouds 25 1013 85 10000 2.57 20 20:49 09.09.2022
1834 Rain 23 1012 90 10000 2.57 10 19:52 09.09.2022
1835 Rain 23 1011 94 10000 2.24 40 19:22 09.09.2022
1836 Rain 23 1012 93 10000 2.06 310 16:52 09.09.2022
1837 Rain 23 1013 93 10000 0.89 37 14:42 09.09.2022
1838 Clouds 24 1013 86 10000 2.06 50 13:18 09.09.2022
1839 Rain 25 1014 79 10000 6.17 60 10:37 09.09.2022
1840 Clouds 26 1013 69 10000 4.63 60 07:24 09.09.2022
1841 Clouds 26 1013 69 10000 4.63 60 07:24 09.09.2022
1842 Clouds 26 1013 69 10000 4.63 60 07:24 09.09.2022
1843 Clouds 30 1013 57 10000 6.71 50 03:30 09.09.2022
1844 Clouds 28 1017 67 10000 6.17 20 22:19 08.09.2022
1845 Rain 28 1015 67 10000 6.17 50 21:47 08.09.2022
1846 Clouds 26 1015 72 10000 5.66 40 20:46 08.09.2022
1847 Clouds 26 1015 74 10000 5.14 50 20:24 08.09.2022
1848 Clouds 24 1014 82 10000 4.12 60 18:34 08.09.2022
1849 Clouds 25 1014 75 10000 6.17 60 16:47 08.09.2022
1850 Clouds 25 1015 71 10000 4.12 60 14:42 08.09.2022
1851 Clouds 25 1015 71 10000 5.14 70 13:27 08.09.2022
1852 Clouds 25 1016 73 10000 4.63 80 12:33 08.09.2022
1853 Clouds 26 1015 74 10000 5.14 60 10:58 08.09.2022
1854 Clouds 26 1015 74 10000 5.14 60 10:58 08.09.2022
1855 Clear 26 1016 74 10000 4.63 60 08:59 08.09.2022
1856 Clouds 27 1015 66 10000 6.71 70 06:43 08.09.2022
1857 Clouds 30 1015 60 10000 9.77 60 02:37 08.09.2022
1858 Clouds 30 1015 60 10000 9.77 60 02:19 08.09.2022
1859 Haze 30 1015 59 10000 6.71 40 01:38 08.09.2022
1860 Clouds 29 1015 65 10000 7.6 50 22:55 07.09.2022
1861 Clouds 28 1016 68 10000 6.71 40 21:43 07.09.2022
1862 Clouds 27 1016 71 10000 5.36 80 20:56 07.09.2022
1863 Clouds 26 1015 75 10000 7.15 60 19:53 07.09.2022
1864 Clouds 26 1014 77 10000 6.17 50 18:37 07.09.2022
1865 Clouds 26 1015 76 10000 5.66 70 14:45 07.09.2022
1866 Clouds 26 1015 78 10000 7.2 80 10:49 07.09.2022
1867 Clouds 27 1016 72 10000 5.66 60 09:39 07.09.2022
1868 Clouds 27 1015 71 10000 7.72 60 07:35 07.09.2022
1869 Clouds 29 1014 64 10000 8.75 60 03:33 07.09.2022
1870 Clouds 30 1014 63 10000 8.23 80 23:38 06.09.2022
1871 Clouds 28 1016 70 10000 6.71 70 21:42 06.09.2022
1872 Clouds 28 1016 70 10000 6.71 70 21:21 06.09.2022
1873 Clouds 26 1014 77 10000 4.12 50 18:49 06.09.2022
1874 Clouds 26 1014 77 10000 4.12 50 18:22 06.09.2022
1875 Clouds 25 1014 81 10000 6.17 60 17:22 06.09.2022
1876 Clouds 25 1014 79 10000 5.14 80 16:37 06.09.2022
1877 Clouds 25 1014 79 10000 6.17 70 15:22 06.09.2022
1878 Clouds 26 1015 81 10000 2.57 30 13:45 06.09.2022
1879 Clouds 26 1015 81 10000 2.57 30 13:23 06.09.2022
1880 Clouds 26 1015 82 10000 2.68 40 11:57 06.09.2022
1881 Clouds 26 1016 81 10000 4.12 50 10:41 06.09.2022
1882 Clouds 26 1015 77 10000 6.69 50 08:50 06.09.2022
1883 Clouds 26 1014 78 10000 6.17 30 07:37 06.09.2022
1884 Clouds 29 1013 66 10000 5.66 60 02:43 06.09.2022
1885 Clouds 29 1016 60 10000 7.2 60 23:22 05.09.2022
1886 Clouds 28 1016 63 10000 6.17 60 21:52 05.09.2022
1887 Clouds 27 1016 68 10000 5.14 60 20:32 05.09.2022
1888 Clouds 25 1016 76 10000 4.12 80 19:18 05.09.2022
1889 Clouds 24 1015 79 10000 4.12 40 18:44 05.09.2022
1890 Clouds 24 1015 78 10000 4.12 40 18:21 05.09.2022
1891 Clouds 25 1015 76 10000 3.6 80 16:27 05.09.2022
1892 Clouds 25 1015 75 10000 6.17 50 15:46 05.09.2022
1893 Clouds 25 1016 74 10000 4.63 60 13:25 05.09.2022
1894 Clouds 25 1016 74 10000 5.66 60 12:26 05.09.2022
1895 Clouds 25 1016 74 10000 4.63 60 09:19 05.09.2022
1896 Clouds 27 1015 66 10000 5.14 40 06:40 05.09.2022
1897 Clouds 30 1015 65 10000 7.72 90 01:56 05.09.2022
1898 Clouds 29 1017 69 10000 7.2 70 22:44 04.09.2022
1899 Clouds 29 1017 71 10000 7.2 70 22:25 04.09.2022
1900 Clouds 27 1016 81 10000 3.6 60 20:43 04.09.2022
1901 Clouds 25 1016 91 10000 1.79 70 19:20 04.09.2022
1902 Rain 24 1015 93 9656 3.6 80 17:43 04.09.2022
1903 Rain 24 1015 92 10000 1.79 85 16:28 04.09.2022
1904 Clouds 25 1016 84 10000 1.54 20 14:27 04.09.2022
1905 Clouds 25 1016 82 10000 2.68 30 12:57 04.09.2022
1906 Clouds 25 1017 79 10000 5.14 70 11:37 04.09.2022
1907 Clouds 26 1014 75 10000 5.14 50 09:39 04.09.2022
1908 Clouds 27 1015 74 10000 6.17 50 06:40 04.09.2022
1909 Clouds 28 1014 72 10000 4.63 50 03:30 04.09.2022
1910 Rain 28 1017 74 10000 4.63 90 23:33 03.09.2022
1911 Rain 26 1017 86 4828 3.6 50 22:18 03.09.2022
1912 Clouds 26 1017 84 10000 3.6 60 21:22 03.09.2022
1913 Clouds 26 1017 84 10000 3.6 60 21:22 03.09.2022
1914 Clouds 24 1016 94 10000 2.57 30 18:49 03.09.2022
1915 Clouds 24 1015 94 10000 1.54 340 17:22 03.09.2022
1916 Clouds 24 1015 94 10000 1.54 340 17:22 03.09.2022
1917 Clouds 24 1014 91 10000 1.34 30 15:54 03.09.2022
1918 Rain 24 1015 94 10000 1.54 30 14:42 03.09.2022
1919 Rain 24 1014 88 10000 2.57 50 13:50 03.09.2022
1920 Clouds 25 1016 79 10000 6.69 50 11:34 03.09.2022
1921 Clouds 26 1015 73 10000 5.66 50 09:37 03.09.2022
1922 Clouds 26 1014 76 10000 5.66 50 07:54 03.09.2022
1923 Clouds 28 1012 68 10000 4.12 50 04:55 03.09.2022
1924 Clouds 30 1013 57 10000 5.66 40 02:49 03.09.2022
1925 Clouds 29 1015 59 10000 6.17 40 23:46 02.09.2022
1926 Clouds 27 1015 72 10000 6.17 60 22:23 02.09.2022
1927 Clouds 24 1015 86 10000 1.54 0 20:42 02.09.2022
1928 Clouds 24 1015 87 10000 1.54 0 20:18 02.09.2022
1929 Rain 23 1015 94 10000 2.06 10 18:51 02.09.2022
1930 Rain 23 1014 92 10000 2.06 10 18:25 02.09.2022
1931 Rain 23 1014 89 10000 2.06 360 17:25 02.09.2022
1932 Clouds 23 1014 86 10000 2.57 30 16:31 02.09.2022
1933 Clouds 25 1015 79 10000 5.14 60 13:42 02.09.2022
1934 Clouds 26 1014 74 10000 4.47 30 10:57 02.09.2022
1935 Clouds 26 1015 70 10000 6.69 70 09:45 02.09.2022
1936 Clouds 26 1014 70 10000 5.14 70 08:46 02.09.2022
1937 Clouds 27 1014 63 10000 6.17 60 06:46 02.09.2022
1938 Clouds 27 1014 61 10000 6.17 60 06:21 02.09.2022
1939 Clouds 30 1016 50 10000 6.17 50 00:20 02.09.2022
1940 Rain 27 1016 62 10000 5.81 60 21:56 01.09.2022
1941 Rain 27 1016 60 10000 6.17 60 21:37 01.09.2022
1942 Rain 27 1016 61 10000 6.17 60 21:18 01.09.2022
1943 Rain 24 1016 73 10000 4.12 60 19:32 01.09.2022
1944 Clouds 24 1015 76 10000 4.12 40 18:18 01.09.2022
1945 Clouds 24 1015 76 10000 3.09 60 16:51 01.09.2022
1946 Clouds 24 1016 74 10000 4.12 70 14:51 01.09.2022
1947 Clouds 25 1016 72 10000 3.6 80 13:21 01.09.2022
1948 Clouds 25 1017 72 10000 3.09 80 12:42 01.09.2022
1949 Clouds 25 1017 70 10000 3.6 70 11:50 01.09.2022
1950 Clouds 25 1017 70 10000 3.6 70 11:19 01.09.2022
1951 Clouds 25 1016 70 10000 6.17 80 09:20 01.09.2022
1952 Clouds 27 1016 62 10000 7.72 70 06:31 01.09.2022
1953 Clouds 30 1015 57 10000 7.2 50 02:33 01.09.2022
1954 Clouds 30 1016 54 10000 7.72 50 01:29 01.09.2022
1955 Clouds 29 1017 61 10000 5.14 60 22:22 31.08.2022
1956 Clouds 26 1016 74 10000 2.06 320 20:27 31.08.2022
1957 Clouds 23 1016 87 10000 1.54 360 18:19 31.08.2022
1958 Rain 23 1016 88 10000 2.57 360 16:32 31.08.2022
1959 Rain 23 1015 84 10000 2.24 340 14:58 31.08.2022
1960 Clouds 24 1016 79 10000 2.57 320 12:30 31.08.2022
1961 Clouds 25 1017 76 10000 2.57 80 11:38 31.08.2022
1962 Clouds 25 1016 75 10000 2.57 30 09:25 31.08.2022
1963 Clouds 28 1016 64 10000 5.66 60 06:35 31.08.2022
1964 Clouds 30 1014 56 10000 4.63 70 01:25 31.08.2022
1965 Clouds 28 1016 68 10000 5.14 60 21:49 30.08.2022
1966 Clouds 28 1015 70 10000 5.14 70 20:59 30.08.2022
1967 Clouds 24 1014 84 10000 3.09 20 18:52 30.08.2022
1968 Clouds 24 1014 82 10000 2.57 80 15:43 30.08.2022
1969 Clouds 25 1014 81 10000 2.57 80 13:25 30.08.2022
1970 Clouds 25 1015 78 10000 4.63 50 11:22 30.08.2022
1971 Clouds 25 1014 80 10000 4.02 60 10:57 30.08.2022
1972 Clouds 26 1014 74 10000 4.12 70 07:50 30.08.2022
1973 Clouds 29 1012 66 10000 6.17 50 02:55 30.08.2022
1974 Clouds 29 1014 62 10000 6.17 80 23:22 29.08.2022
1975 Clouds 28 1015 64 10000 4.63 30 22:28 29.08.2022
1976 Clouds 28 1015 66 10000 5.14 80 21:26 29.08.2022
1977 Clouds 25 1014 78 10000 2.57 80 19:54 29.08.2022
1978 Clouds 24 1014 79 10000 3.09 60 17:54 29.08.2022
1979 Clouds 24 1014 77 10000 3.09 60 17:25 29.08.2022
1980 Clouds 24 1014 79 10000 3.09 90 16:40 29.08.2022
1981 Clouds 25 1014 76 10000 5.66 70 14:47 29.08.2022
1982 Clouds 25 1015 74 10000 4.63 70 13:21 29.08.2022
1983 Clouds 25 1015 75 10000 3.6 80 11:20 29.08.2022
1984 Clouds 25 1014 74 10000 4.63 70 09:48 29.08.2022
1985 Clouds 25 1014 73 10000 2.57 100 08:29 29.08.2022
1986 Clouds 28 1012 60 10000 6.69 70 04:57 29.08.2022
1987 Clouds 29 1015 57 10000 6.17 80 00:20 29.08.2022
1988 Clouds 28 1015 62 10000 5.14 70 22:37 28.08.2022
1989 Clouds 27 1015 65 10000 6.71 60 21:43 28.08.2022
1990 Clouds 26 1016 73 10000 5.14 70 20:54 28.08.2022
1991 Clouds 24 1016 78 10000 3.09 30 19:23 28.08.2022
1992 Rain 23 1016 84 10000 3.09 30 18:20 28.08.2022
1993 Clouds 24 1015 80 10000 5.14 80 16:57 28.08.2022
1994 Clouds 24 1016 78 10000 4.12 90 15:55 28.08.2022
1995 Clouds 24 1016 81 10000 4.12 70 14:21 28.08.2022
1996 Rain 25 1017 75 10000 5.66 60 12:32 28.08.2022
1997 Clouds 25 1017 72 10000 6.71 40 10:42 28.08.2022
1998 Clouds 26 1017 68 10000 5.66 50 09:41 28.08.2022
1999 Clouds 26 1017 71 10000 6.17 50 08:36 28.08.2022
2000 Clouds 26 1016 68 10000 4.63 20 07:41 28.08.2022
2001 Clouds 30 1015 53 10000 8.75 40 01:31 28.08.2022
2002 Clouds 30 1017 55 10000 8.23 50 00:22 28.08.2022
2003 Clouds 29 1017 63 10000 7.72 80 22:32 27.08.2022
2004 Clouds 28 1016 63 10000 8.75 60 21:24 27.08.2022
2005 Clouds 26 1016 72 10000 6.17 60 19:39 27.08.2022
2006 Clouds 25 1015 72 10000 5.66 60 16:42 27.08.2022
2007 Clouds 25 1016 74 10000 6.69 60 15:39 27.08.2022
2008 Clouds 26 1017 77 10000 7.72 70 14:35 27.08.2022
2009 Clouds 26 1017 78 10000 6.17 70 12:22 27.08.2022
2010 Clouds 26 1017 76 10000 6.17 80 10:33 27.08.2022
2011 Clouds 26 1015 76 10000 5.14 80 09:40 27.08.2022
2012 Clouds 27 1014 73 10000 7.2 50 06:55 27.08.2022
2013 Clouds 30 1015 62 10000 7.2 80 02:31 27.08.2022
2014 Clouds 30 1015 60 10000 6.71 40 23:51 26.08.2022
2015 Clear 28 1016 70 10000 0.89 161 21:59 26.08.2022
2016 Clouds 27 1016 74 10000 3.6 80 20:23 26.08.2022
2017 Clouds 24 1015 84 10000 2.06 90 18:59 26.08.2022
2018 Clouds 25 1015 81 10000 3.6 90 16:42 26.08.2022
2019 Clouds 25 1015 80 10000 4.12 90 15:26 26.08.2022
2020 Clouds 25 1016 78 10000 4.12 60 13:26 26.08.2022
2021 Clouds 25 1016 76 10000 3.6 70 12:34 26.08.2022
2022 Clouds 26 1016 76 10000 4.63 60 11:22 26.08.2022
2023 Clouds 26 1016 75 10000 4.12 80 09:53 26.08.2022
2024 Clouds 27 1013 75 10000 3.09 90 04:56 26.08.2022
2025 Clouds 29 1015 65 10000 4.92 170 00:55 26.08.2022
2026 Clouds 29 1016 65 10000 4.63 140 22:45 25.08.2022
2027 Clouds 27 1015 74 10000 3.09 60 20:59 25.08.2022
2028 Clouds 25 1015 82 10000 2.06 310 19:47 25.08.2022
2029 Clouds 23 1014 83 10000 1.54 0 18:36 25.08.2022
2030 Clear 23 1014 83 10000 2.06 360 17:32 25.08.2022
2031 Clear 23 1015 87 10000 1.54 20 16:45 25.08.2022
2032 Clear 24 1015 84 10000 1.54 30 15:37 25.08.2022
2033 Clouds 24 1015 83 10000 2.06 120 13:59 25.08.2022
2034 Clouds 26 1016 77 10000 4.12 50 11:25 25.08.2022
2035 Clouds 26 1017 76 10000 2.57 80 10:44 25.08.2022
2036 Clouds 26 1015 78 10000 4.12 30 07:35 25.08.2022
2037 Clouds 28 1014 72 10000 6.69 150 03:44 25.08.2022
2038 Clouds 29 1015 66 10000 5.66 150 23:37 24.08.2022
2039 Clouds 29 1015 67 10000 4.12 100 22:56 24.08.2022
2040 Clouds 28 1015 69 10000 4.63 120 21:55 24.08.2022
2041 Clouds 28 1015 70 10000 4.63 120 21:28 24.08.2022
2042 Clouds 25 1014 81 10000 2.06 340 19:56 24.08.2022
2043 Clear 24 1013 89 10000 1.34 320 16:58 24.08.2022
2044 Clear 24 1013 88 10000 2.52 72 15:54 24.08.2022
2045 Clear 24 1014 88 10000 2.06 0 15:18 24.08.2022
2046 Clouds 24 1015 87 10000 0 0 12:51 24.08.2022
2047 Clouds 25 1015 86 10000 2.06 20 11:18 24.08.2022
2048 Clouds 26 1014 81 10000 2.57 130 08:45 24.08.2022
2049 Clouds 27 1014 77 10000 3.6 170 06:23 24.08.2022
2050 Clouds 28 1014 70 10000 4.12 170 00:53 24.08.2022
2051 Rain 26 1015 88 10000 2.57 360 22:38 23.08.2022
2052 Rain 25 1014 91 10000 3.09 210 21:55 23.08.2022
2053 Rain 24 1014 96 10000 2.06 250 20:43 23.08.2022
2054 Rain 23 1013 95 4023 4.12 260 18:58 23.08.2022
2055 Rain 23 1013 95 4023 3.6 260 17:56 23.08.2022
2056 Rain 23 1013 92 10000 2.06 340 17:21 23.08.2022
2057 Clouds 23 1014 90 10000 1.54 20 15:54 23.08.2022
2058 Clouds 24 1015 88 10000 3.6 30 13:54 23.08.2022
2059 Clouds 24 1016 84 10000 4.02 30 12:46 23.08.2022
2060 Clear 24 1014 89 10000 0.89 107 10:57 23.08.2022
2061 Clouds 25 1016 83 10000 3.09 50 10:32 23.08.2022
2062 Rain 25 1015 82 10000 5.14 110 08:55 23.08.2022
2063 Clouds 26 1015 74 10000 4.63 80 08:22 23.08.2022
2064 Clouds 26 1014 72 10000 3.6 30 07:52 23.08.2022
2065 Clouds 26 1014 71 10000 3.6 30 07:22 23.08.2022
2066 Clouds 27 1014 70 10000 5.14 50 06:22 23.08.2022
2067 Clouds 29 1015 60 10000 5.66 40 01:43 23.08.2022
2068 Clouds 29 1016 56 10000 7.72 40 00:26 23.08.2022
2069 Clouds 29 1016 60 10000 7.2 50 23:30 22.08.2022
2070 Clouds 29 1017 61 10000 6.17 40 22:19 22.08.2022
2071 Clouds 25 1016 71 10000 5.66 70 19:51 22.08.2022
2072 Clouds 25 1016 74 10000 5.66 70 19:30 22.08.2022
2073 Clouds 24 1015 78 10000 6.69 60 18:36 22.08.2022
2074 Clouds 25 1015 76 10000 4.63 70 15:45 22.08.2022
2075 Clouds 25 1016 74 10000 3.6 80 14:46 22.08.2022
2076 Clouds 26 1017 71 10000 6.69 70 11:20 22.08.2022
2077 Clouds 26 1017 71 10000 6.17 70 09:20 22.08.2022
2078 Clouds 28 1015 62 10000 7.2 40 04:45 22.08.2022
2079 Clouds 29 1017 57 10000 7.72 60 00:54 22.08.2022
2080 Clouds 30 1018 56 10000 7.72 60 00:35 22.08.2022
2081 Clouds 29 1018 60 10000 7.72 50 22:56 21.08.2022
2082 Clouds 28 1018 63 10000 6.17 40 21:45 21.08.2022
2083 Clear 27 1016 69 10000 0.89 106 20:58 21.08.2022
2084 Clouds 25 1017 74 10000 6.69 60 19:28 21.08.2022
2085 Clouds 24 1017 76 10000 8.23 60 18:28 21.08.2022
2086 Clouds 25 1016 74 10000 5.14 50 16:29 21.08.2022
2087 Clouds 25 1016 77 10000 4.63 60 15:46 21.08.2022
2088 Clouds 24 1017 78 10000 2.57 50 14:35 21.08.2022
2089 Clouds 25 1017 76 10000 4.12 60 13:43 21.08.2022
2090 Clouds 25 1018 74 10000 4.12 70 12:37 21.08.2022
2091 Clouds 26 1017 74 10000 5.66 60 09:32 21.08.2022
2092 Clouds 26 1017 70 10000 6.17 60 08:56 21.08.2022
2093 Clouds 26 1017 70 10000 6.17 60 08:38 21.08.2022
2094 Clouds 27 1017 70 10000 6.71 50 07:28 21.08.2022
2095 Clouds 29 1015 61 10000 6.17 50 04:18 21.08.2022
2096 Clouds 30 1017 57 10000 8.23 70 00:31 21.08.2022
2097 Clouds 29 1017 63 10000 5.81 90 22:59 20.08.2022
2098 Clouds 28 1017 64 10000 4.63 80 21:43 20.08.2022
2099 Clouds 27 1017 69 10000 5.66 70 20:44 20.08.2022
2100 Clouds 25 1017 75 10000 4.63 70 19:41 20.08.2022
2101 Clouds 25 1017 75 10000 5.14 70 18:33 20.08.2022
2102 Clouds 25 1017 77 10000 4.63 50 17:52 20.08.2022
2103 Clouds 25 1017 76 10000 4.63 50 17:18 20.08.2022
2104 Clouds 25 1017 76 10000 5.66 70 15:37 20.08.2022
2105 Clouds 26 1018 77 10000 4.12 60 13:27 20.08.2022
2106 Clouds 26 1018 74 10000 6.17 60 11:52 20.08.2022
2107 Clouds 26 1017 74 10000 5.66 70 09:43 20.08.2022
2108 Clouds 26 1017 75 10000 5.66 50 08:34 20.08.2022
2109 Clouds 27 1015 72 10000 6.71 60 05:55 20.08.2022
2110 Clouds 30 1016 58 10000 8.23 60 01:46 20.08.2022
2111 Clouds 30 1016 57 10000 8.75 80 00:35 20.08.2022
2112 Clouds 30 1015 60 10000 7.72 70 23:19 19.08.2022
2113 Clouds 29 1017 63 10000 6.17 120 22:33 19.08.2022
2114 Clouds 27 1016 71 10000 4.63 90 20:20 19.08.2022
2115 Clouds 25 1015 80 10000 4.12 70 17:35 19.08.2022
2116 Clouds 25 1015 79 10000 5.14 50 15:19 19.08.2022
2117 Clouds 26 1016 78 10000 5.66 60 13:21 19.08.2022
2118 Clouds 26 1016 79 10000 5.66 60 10:53 19.08.2022
2119 Clouds 26 1016 80 10000 5.66 60 10:21 19.08.2022
2120 Clouds 28 1014 73 10000 8.23 80 06:27 19.08.2022
2121 Clouds 30 1016 66 10000 5.66 90 00:57 19.08.2022
2122 Clouds 30 1016 65 10000 5.66 90 00:28 19.08.2022
2123 Clouds 30 1016 61 10000 6.17 90 23:38 18.08.2022
2124 Clouds 29 1017 65 10000 4.12 90 22:49 18.08.2022
2125 Clouds 28 1016 70 10000 4.92 70 21:55 18.08.2022
2126 Clouds 29 1016 70 10000 5.14 70 21:26 18.08.2022
2127 Clouds 26 1015 81 10000 3.09 80 19:56 18.08.2022
2128 Clouds 26 1015 81 10000 3.09 80 19:26 18.08.2022
2129 Clouds 25 1014 84 10000 4.12 80 17:50 18.08.2022
2130 Clouds 25 1014 84 10000 3.6 80 16:55 18.08.2022
2131 Clouds 25 1014 83 10000 3.09 70 14:42 18.08.2022
2132 Clouds 25 1014 82 10000 4.92 70 14:19 18.08.2022
2133 Clouds 25 1015 81 10000 3.09 30 12:55 18.08.2022
2134 Clouds 25 1015 81 10000 4.63 70 11:31 18.08.2022
2135 Clouds 26 1014 79 10000 5.14 70 09:43 18.08.2022
2136 Clouds 26 1014 75 10000 3.6 70 08:37 18.08.2022
2137 Clouds 27 1013 74 10000 5.36 40 07:18 18.08.2022
2138 Clouds 30 1012 66 10000 5.66 60 03:23 18.08.2022
2139 Clouds 29 1015 67 10000 4.63 60 23:18 17.08.2022
2140 Clouds 28 1015 70 10000 3.6 100 21:28 17.08.2022
2141 Clear 26 1013 81 10000 1.34 330 19:59 17.08.2022
2142 Clear 24 1013 89 10000 1.34 320 18:58 17.08.2022
2143 Clear 23 1014 89 10000 1.54 10 17:28 17.08.2022
2144 Clear 24 1013 88 10000 1.54 340 16:21 17.08.2022
2145 Clouds 24 1013 88 10000 2.06 340 15:18 17.08.2022
2146 Clouds 25 1015 83 10000 3.6 120 12:52 17.08.2022
2147 Clouds 25 1015 82 10000 2.57 110 11:36 17.08.2022
2148 Clouds 26 1014 81 10000 3.09 90 09:30 17.08.2022
2149 Clouds 26 1013 77 10000 2.06 180 07:36 17.08.2022
2150 Clouds 29 1014 68 10000 4.63 30 02:21 17.08.2022
2151 Clouds 29 1016 62 10000 4.12 170 23:45 16.08.2022
2152 Clouds 28 1016 68 10000 2.06 0 21:52 16.08.2022
2153 Clouds 26 1015 78 10000 0 0 20:26 16.08.2022
2154 Clouds 23 1014 87 10000 2.06 340 19:40 16.08.2022
2155 Clouds 23 1014 87 10000 2.57 320 18:18 16.08.2022
2156 Clouds 23 1014 85 10000 2.57 340 17:28 16.08.2022
2157 Clouds 23 1014 86 10000 2.57 360 15:46 16.08.2022
2158 Rain 23 1014 83 10000 3.09 160 14:55 16.08.2022
2159 Rain 23 1014 83 10000 3.09 160 14:36 16.08.2022
2160 Clouds 24 1016 80 10000 1.54 70 12:40 16.08.2022
2161 Clouds 25 1016 75 10000 2.57 90 10:29 16.08.2022
2162 Clouds 25 1016 75 10000 2.57 70 09:29 16.08.2022
2163 Clouds 25 1015 72 10000 4.12 70 08:26 16.08.2022
2164 Clouds 26 1015 70 10000 5.66 40 07:20 16.08.2022
2165 Clouds 30 1017 60 10000 6.17 40 01:20 16.08.2022
2166 Clouds 29 1018 59 10000 4.63 90 22:26 15.08.2022
2167 Clouds 28 1017 65 10000 3.6 90 21:51 15.08.2022
2168 Clouds 27 1017 67 10000 3.6 40 20:35 15.08.2022
2169 Clouds 26 1015 73 10000 0.45 138 19:59 15.08.2022
2170 Clouds 24 1016 80 10000 1.54 260 18:20 15.08.2022
2171 Clouds 24 1015 77 10000 2.57 40 16:26 15.08.2022
2172 Clouds 24 1016 77 10000 3.09 40 15:55 15.08.2022
2173 Clouds 25 1017 74 10000 3.6 100 13:54 15.08.2022
2174 Clouds 26 1018 70 10000 5.66 60 11:25 15.08.2022
2175 Clouds 26 1016 71 10000 4.12 60 09:42 15.08.2022
2176 Clouds 26 1016 69 10000 6.71 70 07:44 15.08.2022
2177 Clouds 29 1015 59 10000 6.71 70 04:34 15.08.2022
2178 Clouds 29 1017 58 10000 7.2 50 00:33 15.08.2022
2179 Rain 28 1017 64 10000 7.72 60 22:30 14.08.2022
2180 Clouds 28 1017 60 10000 6.71 50 21:37 14.08.2022
2181 Clouds 26 1016 71 10000 4.63 60 19:47 14.08.2022
2182 Clouds 24 1016 75 10000 5.66 60 18:53 14.08.2022
2183 Clouds 24 1016 76 10000 5.66 60 18:18 14.08.2022
2184 Clouds 24 1016 74 10000 4.63 60 16:50 14.08.2022
2185 Clouds 25 1016 74 10000 4.63 60 15:48 14.08.2022
2186 Clouds 25 1016 74 10000 4.92 60 14:19 14.08.2022
2187 Clouds 25 1016 72 10000 5.14 60 13:49 14.08.2022
2188 Clouds 25 1016 72 10000 5.14 60 13:18 14.08.2022
2189 Clouds 26 1017 71 10000 5.66 60 11:50 14.08.2022
2190 Clouds 26 1017 71 10000 5.66 60 10:27 14.08.2022
2191 Clouds 26 1016 73 10000 5.66 60 08:45 14.08.2022
2192 Clouds 27 1015 68 10000 7.2 60 06:21 14.08.2022
2193 Clouds 29 1015 61 10000 5.66 50 02:46 14.08.2022
2194 Clouds 29 1016 62 10000 6.71 50 23:36 13.08.2022
2195 Clouds 29 1015 61 10000 7.72 50 22:28 13.08.2022
2196 Clouds 27 1016 72 10000 4.63 70 20:58 13.08.2022
2197 Clouds 26 1016 71 10000 3.6 70 20:19 13.08.2022
2198 Clouds 24 1016 77 10000 2.57 90 19:20 13.08.2022
2199 Clouds 24 1015 79 10000 3.09 70 17:36 13.08.2022
2200 Clouds 24 1016 78 10000 3.09 0 15:18 13.08.2022
2201 Clouds 24 1016 78 10000 4.12 80 14:24 13.08.2022
2202 Clouds 25 1016 75 10000 3.6 80 13:37 13.08.2022
2203 Clouds 25 1017 74 10000 3.6 70 11:49 13.08.2022
2204 Clouds 25 1016 73 10000 5.66 50 09:43 13.08.2022
2205 Clouds 26 1015 71 10000 8.23 70 07:50 13.08.2022
2206 Clouds 29 1016 58 10000 5.66 50 02:33 13.08.2022
2207 Clouds 29 1017 60 10000 8.23 80 23:45 12.08.2022
2208 Clouds 28 1017 64 10000 7.2 70 21:40 12.08.2022
2209 Clouds 25 1017 71 10000 3.6 70 19:51 12.08.2022
2210 Clouds 25 1017 72 10000 3.6 70 19:26 12.08.2022
2211 Clouds 24 1017 76 10000 3.09 80 18:34 12.08.2022
2212 Clouds 24 1017 75 10000 3.09 90 16:28 12.08.2022
2213 Clouds 25 1017 76 10000 4.12 70 15:23 12.08.2022
2214 Clouds 25 1018 75 10000 3.6 80 13:56 12.08.2022
2215 Clouds 25 1019 74 10000 4.12 50 12:51 12.08.2022
2216 Clouds 25 1018 74 10000 6.17 60 09:28 12.08.2022
2217 Clouds 26 1017 72 10000 7.72 70 07:47 12.08.2022
2218 Clouds 27 1017 68 10000 6.69 70 06:25 12.08.2022
2219 Clouds 29 1018 63 10000 8.23 70 01:22 12.08.2022
2220 Clouds 29 1017 65 10000 7.72 60 00:20 12.08.2022
2221 Clouds 29 1017 67 10000 6.71 50 23:29 11.08.2022
2222 Clouds 28 1020 70 10000 7.2 70 21:57 11.08.2022
2223 Clouds 27 1019 70 10000 7.2 60 21:34 11.08.2022
2224 Clouds 27 1019 72 10000 7.2 70 20:31 11.08.2022
2225 Clouds 26 1016 75 10000 8.05 70 19:41 11.08.2022
2226 Clouds 26 1016 76 10000 8.05 70 19:21 11.08.2022
2227 Clouds 25 1018 77 10000 6.71 60 17:23 11.08.2022
2228 Clouds 25 1016 77 10000 9.26 70 15:51 11.08.2022
2229 Clouds 25 1016 77 10000 7.2 60 14:46 11.08.2022
2230 Clouds 26 1016 76 10000 8.94 80 11:59 11.08.2022
2231 Clouds 26 1018 74 10000 6.69 60 09:22 11.08.2022
2232 Clouds 27 1016 72 10000 7.72 70 06:58 11.08.2022
2233 Clouds 29 1016 65 10000 7.2 40 03:23 11.08.2022
2234 Clouds 30 1017 60 10000 7.15 50 00:19 11.08.2022
2235 Clouds 28 1018 68 10000 8.23 60 21:56 10.08.2022
2236 Clouds 28 1018 69 10000 8.23 60 21:19 10.08.2022
2237 Clouds 27 1015 74 10000 8.75 60 20:36 10.08.2022
2238 Clouds 26 1018 76 10000 10.29 70 18:53 10.08.2022
2239 Clouds 26 1016 76 10000 10.29 70 18:53 10.08.2022
2240 Clouds 26 1016 74 10000 5.66 70 17:28 10.08.2022
2241 Clouds 26 1017 77 10000 5.14 80 14:57 10.08.2022
2242 Clouds 25 1017 77 10000 5.14 70 13:34 10.08.2022
2243 Clouds 26 1018 74 10000 8.75 70 10:51 10.08.2022
2244 Clouds 26 1017 75 10000 7.2 60 08:42 10.08.2022
2245 Clouds 26 1015 74 10000 5.14 60 07:36 10.08.2022
2246 Clouds 27 1015 68 10000 9.26 70 05:46 10.08.2022
2247 Clouds 29 1016 71 10000 10.8 60 02:22 10.08.2022
2248 Clouds 29 1017 69 10000 8.23 60 23:33 09.08.2022
2249 Clouds 28 1017 69 10000 8.23 60 22:47 09.08.2022
2250 Clouds 28 1017 73 10000 7.72 70 21:33 09.08.2022
2251 Clouds 26 1017 78 10000 6.69 70 19:33 09.08.2022
2252 Clouds 25 1016 79 10000 5.66 70 17:53 09.08.2022
2253 Clouds 25 1016 78 10000 5.66 70 17:26 09.08.2022
2254 Clouds 25 1016 77 10000 5.81 70 16:30 09.08.2022
2255 Clouds 25 1016 75 10000 6.17 70 15:26 09.08.2022
2256 Clouds 25 1017 78 10000 5.66 70 12:20 09.08.2022
2257 Clouds 26 1016 75 10000 6.71 70 08:54 09.08.2022
2258 Clouds 26 1015 75 10000 6.71 70 07:59 09.08.2022
2259 Clouds 26 1015 76 10000 6.69 70 06:55 09.08.2022
2260 Clear 29 1013 63 10000 6.71 70 01:57 09.08.2022
2261 Clouds 29 1017 62 10000 7.72 60 23:26 08.08.2022
2262 Clouds 29 1017 61 10000 5.66 70 22:45 08.08.2022
2263 Clouds 28 1017 64 10000 6.17 80 21:47 08.08.2022
2264 Clouds 27 1016 66 10000 5.14 60 20:43 08.08.2022
2265 Clouds 25 1016 72 10000 4.63 50 19:39 08.08.2022
2266 Clouds 24 1016 75 10000 4.47 60 18:18 08.08.2022
2267 Clouds 24 1015 75 10000 4.12 60 15:54 08.08.2022
2268 Clouds 24 1015 75 10000 4.12 60 15:36 08.08.2022
2269 Clouds 25 1016 77 10000 5.66 60 12:30 08.08.2022
2270 Clouds 26 1017 75 10000 6.17 60 10:33 08.08.2022
2271 Clouds 26 1015 72 10000 8.75 70 07:59 08.08.2022
2272 Clouds 29 1014 62 10000 5.66 60 03:45 08.08.2022
2273 Clouds 29 1015 59 10000 5.66 110 23:28 07.08.2022
2274 Clouds 28 1016 69 10000 6.69 50 21:41 07.08.2022
2275 Clouds 27 1015 75 10000 4.63 100 20:55 07.08.2022
2276 Clouds 26 1016 75 10000 5.66 60 20:18 07.08.2022
2277 Clouds 26 1015 77 10000 4.63 60 19:51 07.08.2022
2278 Clouds 25 1015 79 10000 3.6 50 18:49 07.08.2022
2279 Clouds 25 1014 80 10000 4.12 60 17:22 07.08.2022
2280 Clouds 25 1014 78 10000 5.66 60 16:51 07.08.2022
2281 Clouds 25 1014 80 10000 5.14 70 15:26 07.08.2022
2282 Clouds 25 1015 78 10000 6.17 70 13:47 07.08.2022
2283 Clouds 25 1015 78 10000 6.71 60 12:38 07.08.2022
2284 Clouds 26 1015 78 10000 4.12 70 10:42 07.08.2022
2285 Clouds 26 1015 78 10000 3.09 50 09:35 07.08.2022
2286 Clouds 29 1012 66 10000 5.14 180 04:33 07.08.2022
2287 Clouds 30 1014 63 10000 6.71 150 01:58 07.08.2022
2288 Clouds 29 1016 68 10000 5.66 80 22:30 06.08.2022
2289 Clouds 28 1016 74 10000 3.09 90 21:43 06.08.2022
2290 Clouds 26 1014 80 10000 2.06 350 19:42 06.08.2022
2291 Clouds 24 1014 86 10000 2.06 330 18:33 06.08.2022
2292 Clouds 24 1013 86 10000 1.54 330 17:44 06.08.2022
2293 Clouds 24 1013 85 10000 3.09 330 15:21 06.08.2022
2294 Clouds 24 1013 84 10000 3.09 60 13:50 06.08.2022
2295 Clouds 25 1015 83 10000 1.54 20 12:21 06.08.2022
2296 Clouds 25 1015 81 10000 1.54 20 10:37 06.08.2022
2297 Clouds 25 1014 80 10000 3.09 20 09:23 06.08.2022
2298 Clouds 28 1012 69 10000 4.63 180 03:56 06.08.2022
2299 Clouds 29 1015 67 10000 5.66 140 00:27 06.08.2022
2300 Clouds 27 1015 77 10000 2.57 170 22:34 05.08.2022
2301 Clouds 26 1014 77 10000 2.57 290 20:30 05.08.2022
2302 Clouds 23 1014 89 10000 1.54 360 18:53 05.08.2022
2303 Clouds 23 1014 89 10000 1.54 360 18:35 05.08.2022
2304 Clouds 23 1013 90 10000 4.12 20 16:51 05.08.2022
2305 Clear 23 1013 89 10000 2.57 70 15:23 05.08.2022
2306 Rain 23 1013 88 10000 2.06 60 14:34 05.08.2022
2307 Clouds 23 1014 86 10000 3.6 60 13:26 05.08.2022
2308 Rain 24 1014 84 10000 2.57 60 12:45 05.08.2022
2309 Clouds 24 1014 82 10000 3.6 50 10:59 05.08.2022
2310 Clouds 25 1014 77 10000 4.12 50 08:45 05.08.2022
2311 Clouds 26 1013 76 10000 3.6 60 07:28 05.08.2022
2312 Clouds 28 1015 64 10000 7.2 140 01:52 05.08.2022
2313 Clouds 27 1015 63 10000 3.6 100 22:40 04.08.2022
2314 Clouds 27 1015 69 10000 3.09 0 21:27 04.08.2022
2315 Clouds 26 1014 75 10000 3.09 60 20:45 04.08.2022
2316 Clouds 24 1013 84 10000 0 0 19:58 04.08.2022
2317 Clouds 23 1013 87 10000 2.06 340 18:52 04.08.2022
2318 Clouds 23 1013 87 10000 2.06 340 18:32 04.08.2022
2319 Clear 23 1013 85 10000 3.6 60 14:45 04.08.2022
2320 Clouds 23 1013 84 10000 0 0 13:22 04.08.2022
2321 Clouds 24 1014 81 10000 2.57 40 11:37 04.08.2022
2322 Clouds 24 1012 80 10000 6.71 70 07:56 04.08.2022
2323 Clouds 25 1013 77 10000 6.71 70 07:31 04.08.2022
2324 Clouds 29 1013 60 10000 7.72 60 02:42 04.08.2022
2325 Clouds 28 1014 63 10000 6.17 30 23:52 03.08.2022
2326 Clouds 28 1014 62 10000 6.17 30 23:33 03.08.2022
2327 Clouds 27 1014 67 10000 5.66 70 21:26 03.08.2022
2328 Clouds 25 1014 73 10000 2.57 60 20:19 03.08.2022
2329 Clouds 23 1014 86 10000 2.06 340 18:40 03.08.2022
2330 Clouds 23 1014 85 10000 1.54 10 16:27 03.08.2022
2331 Clear 23 1013 88 10000 2.68 10 15:53 03.08.2022
2332 Clouds 24 1015 77 10000 3.6 70 13:32 03.08.2022
2333 Clouds 25 1016 73 10000 5.14 60 09:55 03.08.2022
2334 Clouds 26 1014 68 10000 8.75 40 06:46 03.08.2022
2335 Clouds 28 1014 64 10000 7.2 30 04:22 03.08.2022
2336 Clouds 29 1015 54 10000 6.17 40 02:35 03.08.2022
2337 Clouds 28 1016 63 10000 5.66 60 23:54 02.08.2022
2338 Clouds 27 1016 67 10000 5.14 50 21:59 02.08.2022
2339 Clouds 27 1017 67 10000 5.14 50 21:40 02.08.2022
2340 Clouds 25 1017 74 10000 5.66 70 20:20 02.08.2022
2341 Clouds 24 1015 75 10000 5.66 60 16:49 02.08.2022
2342 Rain 24 1015 76 10000 5.14 70 13:40 02.08.2022
2343 Rain 24 1014 79 10000 2.57 30 10:34 02.08.2022
2344 Clouds 25 1017 68 10000 7.2 50 08:29 02.08.2022
2345 Clouds 25 1016 67 10000 7.72 50 07:50 02.08.2022
2346 Clouds 28 1015 62 10000 7.72 60 04:56 02.08.2022
2347 Clouds 28 1015 59 10000 8.75 70 02:20 02.08.2022
2348 Clouds 28 1018 60 10000 9.26 70 23:23 01.08.2022
2349 Clouds 27 1018 66 10000 7.72 60 21:37 01.08.2022
2350 Clouds 24 1018 75 10000 6.69 50 19:45 01.08.2022
2351 Rain 24 1017 77 10000 6.69 50 18:53 01.08.2022
2352 Clouds 24 1017 79 10000 1.54 20 16:55 01.08.2022
2353 Clouds 24 1017 79 10000 1.54 20 16:33 01.08.2022
2354 Rain 23 1017 85 10000 3.6 60 15:34 01.08.2022
2355 Clouds 23 1017 87 10000 4.12 50 14:44 01.08.2022
2356 Rain 23 1017 83 9656 5.14 70 13:29 01.08.2022
2357 Clouds 25 1019 72 10000 10.29 60 10:48 01.08.2022
2358 Clouds 25 1017 69 10000 7.72 50 08:53 01.08.2022
2359 Clouds 27 1017 67 10000 9.26 60 06:51 01.08.2022
2360 Clouds 28 1017 63 10000 7.72 30 04:31 01.08.2022
2361 Clouds 28 1017 56 10000 7.15 50 00:58 01.08.2022
2362 Clouds 28 1019 59 10000 8.75 60 22:44 31.07.2022
2363 Clouds 28 1019 60 10000 8.75 60 22:18 31.07.2022
2364 Clouds 26 1019 71 10000 6.69 70 20:21 31.07.2022
2365 Clouds 25 1019 74 10000 6.17 60 18:38 31.07.2022
2366 Clouds 25 1018 75 10000 5.66 60 16:22 31.07.2022
2367 Clouds 25 1018 76 10000 6.17 60 14:33 31.07.2022
2368 Clouds 25 1019 74 10000 7.72 80 12:55 31.07.2022
2369 Clouds 26 1019 78 10000 6.17 50 10:53 31.07.2022
2370 Clouds 26 1016 76 10000 5.66 60 08:29 31.07.2022
2371 Clouds 28 1017 70 10000 7.72 80 04:46 31.07.2022
2372 Clouds 29 1017 66 10000 5.66 60 00:56 31.07.2022
2373 Clouds 28 1018 66 10000 6.71 60 22:20 30.07.2022
2374 Clouds 28 1018 69 10000 7.2 70 21:50 30.07.2022
2375 Clouds 27 1018 73 10000 6.71 60 21:20 30.07.2022
2376 Clouds 27 1017 74 10000 6.71 70 20:24 30.07.2022
2377 Clouds 26 1017 79 10000 5.14 60 19:27 30.07.2022
2378 Clouds 25 1016 81 10000 4.12 50 17:48 30.07.2022
2379 Clouds 25 1016 79 10000 4.63 60 16:21 30.07.2022
2380 Clear 25 1016 79 10000 5.14 70 15:27 30.07.2022
2381 Clouds 25 1017 79 10000 5.66 80 13:21 30.07.2022
2382 Clouds 25 1018 80 10000 3.6 60 12:21 30.07.2022
2383 Clouds 25 1018 79 10000 5.66 60 10:44 30.07.2022
2384 Clouds 25 1017 79 10000 2.68 50 09:59 30.07.2022
2385 Clouds 25 1017 75 10000 4.63 60 08:44 30.07.2022
2386 Rain 28 1016 67 10000 4.12 50 05:29 30.07.2022
2387 Clouds 29 1016 63 10000 6.17 150 02:31 30.07.2022
2388 Clouds 28 1018 62 10000 2.57 0 22:54 29.07.2022
2389 Clouds 27 1017 64 10000 4.12 70 21:30 29.07.2022
2390 Clouds 27 1017 66 10000 2.06 60 20:50 29.07.2022
2391 Clouds 25 1016 74 10000 2.57 100 19:29 29.07.2022
2392 Clouds 23 1016 83 10000 2.57 0 16:43 29.07.2022
2393 Clouds 24 1017 77 10000 2.57 80 13:46 29.07.2022
2394 Clouds 24 1017 74 10000 3.09 90 11:34 29.07.2022
2395 Clouds 25 1016 72 10000 5.66 60 08:51 29.07.2022
2396 Clouds 25 1016 71 10000 5.66 60 08:21 29.07.2022
2397 Clouds 28 1016 61 10000 7.2 140 03:55 29.07.2022
2398 Clouds 28 1015 57 10000 5.14 90 23:30 28.07.2022
2399 Clouds 27 1017 63 10000 5.14 80 21:31 28.07.2022
2400 Clouds 27 1016 67 10000 3.09 110 20:50 28.07.2022
2401 Clouds 26 1016 71 10000 3.09 70 19:58 28.07.2022
2402 Clouds 25 1016 74 10000 3.09 70 19:26 28.07.2022
2403 Clouds 23 1015 79 10000 3.09 80 17:45 28.07.2022
2404 Clouds 23 1015 80 10000 2.06 30 17:20 28.07.2022
2405 Clear 23 1015 80 10000 0 0 16:40 28.07.2022
2406 Clouds 24 1016 77 10000 2.06 70 13:56 28.07.2022
2407 Clouds 24 1017 76 10000 2.57 40 12:33 28.07.2022
2408 Clouds 26 1015 69 10000 6.71 60 07:33 28.07.2022
2409 Clouds 27 1015 64 10000 6.69 50 05:37 28.07.2022
2410 Clouds 28 1015 64 10000 6.69 50 05:18 28.07.2022
2411 Clouds 29 1017 58 10000 7.72 80 23:19 27.07.2022
2412 Clouds 28 1018 62 10000 6.71 70 21:30 27.07.2022
2413 Clouds 26 1017 70 10000 5.14 60 19:46 27.07.2022
2414 Clouds 24 1016 76 10000 3.09 80 18:49 27.07.2022
2415 Clouds 24 1016 74 10000 5.66 80 16:31 27.07.2022
2416 Clouds 24 1016 74 10000 6.71 60 15:41 27.07.2022
2417 Clouds 24 1016 74 10000 5.66 60 14:41 27.07.2022
2418 Clouds 25 1017 73 10000 5.14 60 13:29 27.07.2022
2419 Clouds 25 1017 72 10000 4.63 50 09:27 27.07.2022
2420 Clouds 25 1015 71 10000 8.23 80 07:40 27.07.2022
2421 Clouds 28 1014 69 10000 9.26 50 02:52 27.07.2022
2422 Clouds 27 1018 71 10000 7.2 70 22:47 26.07.2022
2423 Clouds 26 1017 77 10000 6.71 40 21:25 26.07.2022
2424 Clouds 26 1017 72 10000 5.14 60 20:47 26.07.2022
2425 Clouds 24 1017 79 10000 3.09 70 18:46 26.07.2022
2426 Clouds 24 1017 79 10000 3.09 70 18:20 26.07.2022
2427 Clouds 25 1017 77 10000 5.14 70 16:46 26.07.2022
2428 Clouds 24 1017 77 10000 5.66 80 15:42 26.07.2022
2429 Clouds 25 1018 77 10000 6.17 70 13:47 26.07.2022
2430 Clouds 25 1019 74 10000 5.14 70 11:40 26.07.2022
2431 Clouds 25 1018 75 10000 7.2 80 09:32 26.07.2022
2432 Rain 26 1017 75 10000 9.77 70 07:31 26.07.2022
2433 Clouds 29 1018 59 10000 7.2 40 01:21 26.07.2022
2434 Clouds 29 1016 58 10000 5.66 60 23:33 25.07.2022
2435 Clouds 28 1019 63 10000 7.2 60 22:27 25.07.2022
2436 Clouds 27 1019 66 10000 6.69 50 21:43 25.07.2022
2437 Clouds 26 1019 72 10000 5.66 50 20:42 25.07.2022
2438 Rain 24 1018 79 10000 3.09 0 19:50 25.07.2022
2439 Rain 23 1018 84 10000 3.09 20 18:21 25.07.2022
2440 Clouds 23 1017 81 10000 4.63 50 17:31 25.07.2022
2441 Clouds 24 1017 77 10000 4.12 80 15:30 25.07.2022
2442 Clouds 24 1018 75 10000 5.14 80 12:29 25.07.2022
2443 Clouds 25 1018 73 10000 5.14 60 10:32 25.07.2022
2444 Clouds 26 1015 65 10000 8.23 80 06:32 25.07.2022
2445 Clouds 28 1016 58 10000 6.71 60 23:55 24.07.2022
2446 Clouds 28 1016 61 10000 6.71 60 23:18 24.07.2022
2447 Clouds 28 1016 60 10000 7.2 60 22:34 24.07.2022
2448 Clouds 27 1018 65 10000 7.2 70 21:25 24.07.2022
2449 Clouds 27 1018 64 10000 6.17 50 20:51 24.07.2022
2450 Clouds 26 1018 65 10000 6.17 50 20:27 24.07.2022
2451 Clouds 24 1017 75 10000 4.92 40 18:56 24.07.2022
2452 Clouds 24 1017 77 10000 4.63 80 16:32 24.07.2022
2453 Clouds 24 1017 75 10000 5.66 60 15:50 24.07.2022
2454 Clouds 24 1017 74 10000 3.6 60 14:38 24.07.2022
2455 Clouds 24 1018 74 10000 5.66 60 12:55 24.07.2022
2456 Clouds 25 1019 72 10000 4.63 60 11:40 24.07.2022
2457 Clouds 25 1019 72 10000 4.63 60 11:18 24.07.2022
2458 Rain 25 1017 75 10000 5.66 80 08:49 24.07.2022
2459 Clouds 25 1017 71 10000 8.23 80 07:52 24.07.2022
2460 Clouds 27 1016 68 10000 6.69 70 06:18 24.07.2022
2461 Clouds 29 1017 59 10000 8.23 70 01:50 24.07.2022
2462 Clouds 28 1018 64 10000 7.2 60 22:25 23.07.2022
2463 Clouds 26 1018 69 10000 6.17 60 20:31 23.07.2022
2464 Clouds 24 1017 75 10000 4.63 90 18:51 23.07.2022
2465 Clouds 24 1017 77 10000 4.63 50 17:41 23.07.2022
2466 Clouds 24 1017 75 10000 5.81 60 17:23 23.07.2022
2467 Rain 24 1017 75 10000 5.14 60 15:32 23.07.2022
2468 Rain 24 1014 79 10000 8.49 60 14:59 23.07.2022
2469 Clouds 24 1015 75 10000 8.75 60 14:30 23.07.2022
2470 Clouds 24 1018 76 10000 4.63 80 13:39 23.07.2022
2471 Clouds 25 1019 75 10000 6.17 80 11:18 23.07.2022
2472 Clouds 25 1018 75 10000 5.66 50 10:22 23.07.2022
2473 Clouds 25 1017 72 10000 6.71 50 08:50 23.07.2022
2474 Clouds 28 1016 65 10000 7.2 70 03:40 23.07.2022
2475 Clouds 29 1017 63 10000 6.17 60 01:33 23.07.2022
2476 Clouds 28 1017 68 10000 5.14 60 22:56 22.07.2022
2477 Clouds 26 1018 75 10000 5.66 60 20:57 22.07.2022
2478 Clouds 25 1018 74 10000 4.12 60 19:46 22.07.2022
2479 Clear 24 1016 81 10000 1.34 21 18:28 22.07.2022
2480 Clouds 24 1017 78 10000 5.66 80 17:28 22.07.2022
2481 Clouds 24 1017 76 10000 4.47 70 14:55 22.07.2022
2482 Clouds 25 1018 75 10000 6.71 60 11:36 22.07.2022
2483 Clouds 25 1017 75 10000 5.14 80 09:26 22.07.2022
2484 Clouds 25 1017 74 10000 6.71 80 08:37 22.07.2022
2485 Clear 26 1015 74 10000 7.6 80 06:59 22.07.2022
2486 Clouds 28 1016 66 10000 10.29 70 02:25 22.07.2022
2487 Clouds 27 1018 66 10000 7.2 80 22:43 21.07.2022
2488 Clouds 26 1018 72 10000 7.2 70 21:33 21.07.2022
2489 Rain 23 1017 87 10000 4.12 100 19:27 21.07.2022
2490 Clouds 24 1016 83 10000 5.66 70 17:41 21.07.2022
2491 Clouds 24 1017 82 10000 5.66 70 17:19 21.07.2022
2492 Clouds 24 1015 80 10000 5.14 90 14:55 21.07.2022
2493 Clouds 24 1016 79 10000 5.14 90 14:31 21.07.2022
2494 Haze 24 1017 79 10000 6.71 60 12:28 21.07.2022
2495 Clouds 25 1015 77 10000 6.17 60 11:19 21.07.2022
2496 Clouds 25 1018 74 10000 6.17 70 09:33 21.07.2022
2497 Clouds 25 1017 71 10000 6.17 60 08:50 21.07.2022
2498 Clouds 26 1016 69 10000 6.71 70 07:42 21.07.2022
2499 Clouds 27 1016 65 10000 7.72 60 04:46 21.07.2022
2500 Rain 28 1017 66 10000 8.23 60 00:35 21.07.2022
2501 Rain 26 1015 70 10000 6.17 50 22:21 20.07.2022
2502 Clouds 26 1017 70 10000 6.71 50 20:54 20.07.2022
2503 Clouds 24 1017 74 10000 5.14 70 19:50 20.07.2022
2504 Clouds 24 1017 75 10000 5.14 70 19:24 20.07.2022
2505 Clouds 24 1016 75 10000 4.12 50 18:33 20.07.2022
2506 Clear 24 1015 77 10000 5.36 60 17:55 20.07.2022
2507 Clouds 24 1016 76 10000 5.14 60 16:42 20.07.2022
2508 Clouds 24 1016 78 10000 5.14 80 15:31 20.07.2022
2509 Clouds 24 1015 77 10000 4.47 40 13:57 20.07.2022
2510 Rain 25 1018 77 10000 6.17 50 11:32 20.07.2022
2511 Clouds 25 1016 74 10000 6.17 60 08:46 20.07.2022
2512 Clouds 27 1016 69 10000 6.17 60 03:25 20.07.2022
2513 Clouds 29 1017 59 10000 9.26 40 00:48 20.07.2022
2514 Clouds 28 1017 59 10000 8.75 60 23:41 19.07.2022
2515 Clouds 28 1018 62 10000 7.2 50 22:31 19.07.2022
2516 Clouds 27 1018 64 10000 6.69 60 21:23 19.07.2022
2517 Clouds 26 1018 68 10000 5.66 70 20:27 19.07.2022
2518 Clouds 24 1017 73 10000 5.14 60 18:43 19.07.2022
2519 Clear 24 1016 77 10000 3.58 60 17:57 19.07.2022
2520 Clouds 24 1017 74 10000 6.17 40 16:31 19.07.2022
2521 Clouds 24 1018 75 10000 4.63 70 14:36 19.07.2022
2522 Clouds 25 1018 72 10000 6.71 50 11:38 19.07.2022
2523 Clouds 25 1018 72 10000 6.17 60 10:31 19.07.2022
2524 Clouds 25 1017 74 10000 5.66 60 08:48 19.07.2022
2525 Clouds 25 1017 73 10000 5.66 60 08:22 19.07.2022
2526 Clouds 26 1017 71 10000 5.66 70 07:18 19.07.2022
2527 Rain 26 1016 72 10000 9.26 70 05:26 19.07.2022
2528 Clouds 27 1016 71 10000 8.23 60 04:46 19.07.2022
2529 Rain 27 1018 75 10000 9.26 50 00:34 19.07.2022
2530 Rain 27 1018 78 10000 7.72 30 23:22 18.07.2022
2531 Haze 25 1018 85 6437 5.66 60 22:56 18.07.2022
2532 Clouds 26 1018 79 10000 5.66 60 21:53 18.07.2022
2533 Rain 25 1018 83 10000 7.2 60 20:50 18.07.2022
2534 Clouds 25 1018 84 10000 5.66 50 19:25 18.07.2022
2535 Clouds 24 1018 85 10000 5.66 50 17:22 18.07.2022
2536 Clouds 25 1018 76 10000 6.71 60 15:46 18.07.2022
2537 Clouds 26 1018 74 10000 7.2 50 14:24 18.07.2022
2538 Clouds 25 1018 75 10000 6.71 70 12:38 18.07.2022
2539 Clouds 26 1019 73 10000 7.2 60 10:37 18.07.2022
2540 Clouds 26 1017 76 10000 6.71 50 08:51 18.07.2022
2541 Clouds 26 1015 80 10000 0.45 127 06:58 18.07.2022
2542 Mist 28 1016 79 10000 9.26 60 00:36 18.07.2022
2543 Clouds 27 1017 69 10000 11.32 60 22:34 17.07.2022
2544 Clouds 28 1017 72 10000 6.69 60 21:47 17.07.2022
2545 Clouds 26 1016 78 10000 4.63 80 20:55 17.07.2022
2546 Clouds 26 1017 75 10000 5.81 50 20:36 17.07.2022
2547 Clouds 25 1017 77 10000 6.17 50 19:28 17.07.2022
2548 Clouds 25 1015 77 10000 6.69 80 18:26 17.07.2022
2549 Clouds 25 1016 78 10000 6.17 70 17:38 17.07.2022
2550 Clouds 25 1016 80 10000 6.17 80 16:50 17.07.2022
2551 Clouds 25 1016 80 10000 6.17 80 16:25 17.07.2022
2552 Clouds 25 1016 84 10000 7.2 60 14:32 17.07.2022
2553 Clouds 25 1016 82 10000 7.2 60 13:28 17.07.2022
2554 Clouds 25 1017 87 10000 7.2 80 10:59 17.07.2022
2555 Clouds 26 1015 82 10000 7.72 70 08:44 17.07.2022
2556 Clouds 27 1016 75 10000 9.77 60 03:40 17.07.2022
2557 Mist 28 1016 75 10000 6.71 50 01:47 17.07.2022
2558 Clouds 28 1017 70 10000 7.72 80 23:19 16.07.2022
2559 Clouds 27 1016 67 10000 6.17 60 21:21 16.07.2022
2560 Clouds 26 1018 73 10000 5.14 70 19:25 16.07.2022
2561 Clouds 25 1015 79 10000 2.68 60 17:56 16.07.2022
2562 Clouds 25 1015 76 10000 5.14 70 16:27 16.07.2022
2563 Clouds 25 1017 79 10000 8.75 70 13:47 16.07.2022
2564 Clouds 25 1018 76 10000 7.72 60 10:40 16.07.2022
2565 Clouds 25 1015 77 10000 7.72 70 09:30 16.07.2022
2566 Clouds 26 1017 74 10000 7.72 80 08:42 16.07.2022
2567 Clouds 26 1015 73 10000 7.2 70 07:51 16.07.2022
2568 Clouds 28 1017 67 10000 7.72 70 03:40 16.07.2022
2569 Clouds 28 1017 68 10000 5.36 40 01:59 16.07.2022
2570 Rain 26 1018 74 10000 8.23 70 23:21 15.07.2022
2571 Rain 25 1019 79 10000 6.17 50 22:38 15.07.2022
2572 Rain 26 1019 78 10000 5.14 50 21:18 15.07.2022
2573 Clouds 25 1018 78 10000 6.17 40 19:51 15.07.2022
2574 Clouds 24 1017 80 10000 4.63 60 18:32 15.07.2022
2575 Clouds 24 1017 80 10000 4.12 70 17:33 15.07.2022
2576 Clouds 25 1018 78 10000 4.63 70 14:45 15.07.2022
2577 Clouds 25 1018 76 10000 6.17 80 12:48 15.07.2022
2578 Rain 25 1018 78 10000 6.17 60 10:53 15.07.2022
2579 Clouds 25 1018 80 10000 6.17 40 08:42 15.07.2022
2580 Clouds 26 1015 77 10000 9.5 60 05:55 15.07.2022
2581 Clouds 28 1019 72 10000 7.2 70 00:52 15.07.2022
2582 Clouds 27 1019 75 10000 6.17 50 23:35 14.07.2022
2583 Rain 26 1019 82 10000 6.17 70 22:42 14.07.2022
2584 Rain 26 1018 83 10000 5.14 60 21:42 14.07.2022
2585 Rain 25 1018 84 10000 5.14 60 21:24 14.07.2022
2586 Rain 25 1016 85 10000 7.2 50 20:43 14.07.2022
2587 Rain 25 1016 85 10000 7.2 50 20:43 14.07.2022
2588 Rain 25 1016 85 10000 7.2 50 20:19 14.07.2022
2589 Rain 24 1017 85 10000 5.14 70 18:38 14.07.2022
2590 Rain 25 1016 82 10000 6.71 60 16:21 14.07.2022
2591 Clouds 25 1017 82 10000 6.17 70 15:26 14.07.2022
2592 Clouds 25 1018 80 10000 6.71 60 13:52 14.07.2022
2593 Clouds 25 1018 81 10000 7.2 70 12:39 14.07.2022
2594 Clouds 25 1018 79 10000 8.23 90 11:28 14.07.2022
2595 Clouds 25 1017 80 10000 6.71 70 10:59 14.07.2022
2596 Clouds 25 1018 78 10000 5.66 50 09:29 14.07.2022
2597 Clouds 27 1016 77 10000 6.71 60 05:18 14.07.2022
2598 Rain 27 1017 78 10000 9.26 70 01:22 14.07.2022
2599 Rain 27 1018 76 10000 10.29 70 00:52 14.07.2022
2600 Rain 27 1018 73 10000 6.71 60 22:32 13.07.2022
2601 Rain 27 1018 74 10000 5.66 80 21:51 13.07.2022
2602 Clouds 25 1018 77 10000 6.17 70 20:44 13.07.2022
2603 Clouds 24 1017 81 10000 5.14 60 18:48 13.07.2022
2604 Clouds 24 1017 79 10000 5.14 60 17:34 13.07.2022
2605 Clouds 24 1017 83 10000 6.17 60 16:19 13.07.2022
2606 Clouds 24 1017 83 10000 6.17 70 14:54 13.07.2022
2607 Rain 24 1016 90 10000 0.89 25 11:56 13.07.2022
2608 Clouds 24 1018 86 10000 7.2 70 10:45 13.07.2022
2609 Rain 24 1017 86 10000 7.72 70 09:56 13.07.2022
2610 Clouds 24 1017 86 10000 7.2 70 09:20 13.07.2022
2611 Rain 26 1016 77 10000 7.2 30 05:29 13.07.2022
2612 Rain 27 1017 72 10000 8.75 70 01:22 13.07.2022
2613 Clouds 28 1018 65 10000 5.66 40 23:35 12.07.2022
2614 Clouds 27 1018 70 10000 4.12 40 21:53 12.07.2022
2615 Clouds 25 1014 76 10000 5.66 70 20:58 12.07.2022
2616 Clouds 25 1016 75 10000 5.66 70 20:37 12.07.2022
2617 Clouds 23 1016 81 10000 2.68 70 18:56 12.07.2022
2618 Clouds 23 1016 78 10000 6.17 80 17:38 12.07.2022
2619 Clouds 24 1016 76 10000 5.14 80 15:42 12.07.2022
2620 Clouds 24 1016 79 10000 5.14 90 13:55 12.07.2022
2621 Rain 24 1018 77 10000 5.14 70 12:19 12.07.2022
2622 Rain 24 1018 74 10000 6.71 40 10:51 12.07.2022
2623 Rain 25 1015 74 10000 6.71 50 09:22 12.07.2022
2624 Clouds 25 1017 72 10000 6.17 70 08:18 12.07.2022
2625 Clouds 25 1015 73 10000 8.49 70 05:57 12.07.2022
2626 Clouds 26 1016 71 10000 8.75 70 05:39 12.07.2022
2627 Clouds 28 1017 65 10000 7.72 60 01:56 12.07.2022
2628 Clouds 26 1018 72 10000 8.05 100 22:59 11.07.2022
2629 Clouds 26 1019 71 10000 6.69 70 21:45 11.07.2022
2630 Mist 25 1018 76 10000 6.17 50 20:33 11.07.2022
2631 Clouds 24 1018 80 10000 6.17 70 19:33 11.07.2022
2632 Clouds 24 1018 78 10000 5.66 60 18:32 11.07.2022
2633 Clouds 24 1017 77 10000 3.6 80 17:36 11.07.2022
2634 Clouds 24 1017 77 10000 5.66 60 15:46 11.07.2022
2635 Clouds 24 1018 74 10000 7.2 60 13:39 11.07.2022
2636 Clouds 25 1019 73 10000 8.75 70 11:39 11.07.2022
2637 Clouds 25 1019 73 10000 8.23 60 10:18 11.07.2022
2638 Clouds 25 1019 74 10000 7.72 60 09:41 11.07.2022
2639 Clouds 25 1019 73 10000 8.23 70 08:33 11.07.2022
2640 Clouds 27 1018 68 10000 7.2 60 04:34 11.07.2022
2641 Clouds 28 1019 66 10000 8.75 60 00:20 11.07.2022
2642 Clouds 28 1020 64 10000 7.72 70 22:56 10.07.2022
2643 Clouds 27 1020 65 10000 8.23 60 21:41 10.07.2022
2644 Clouds 26 1019 71 10000 5.66 60 20:47 10.07.2022
2645 Clouds 25 1019 75 10000 5.66 80 19:50 10.07.2022
2646 Haze 24 1019 79 10000 6.69 70 18:48 10.07.2022
2647 Clouds 24 1018 79 10000 5.66 70 17:37 10.07.2022
2648 Clouds 24 1018 79 10000 5.66 70 16:45 10.07.2022
2649 Clouds 24 1018 76 10000 5.14 70 15:25 10.07.2022
2650 Clouds 24 1018 77 10000 6.17 70 14:21 10.07.2022
2651 Clouds 25 1020 78 10000 5.66 70 12:27 10.07.2022
2652 Clouds 25 1019 80 10000 5.81 70 09:58 10.07.2022
2653 Clouds 25 1019 77 10000 6.71 90 08:44 10.07.2022
2654 Clouds 26 1018 73 10000 9.26 80 07:30 10.07.2022
2655 Clouds 28 1018 68 10000 8.75 70 01:33 10.07.2022
2656 Clouds 27 1019 73 10000 7.72 60 22:43 09.07.2022
2657 Clouds 27 1019 73 10000 7.72 60 22:24 09.07.2022
2658 Rain 25 1019 78 10000 5.66 70 20:46 09.07.2022
2659 Clouds 24 1017 82 10000 5.66 70 18:37 09.07.2022
2660 Rain 24 1017 84 10000 4.63 60 17:45 09.07.2022
2661 Clouds 24 1017 84 10000 5.66 60 16:44 09.07.2022
2662 Rain 24 1017 88 10000 4.12 70 15:40 09.07.2022
2663 Rain 24 1017 87 10000 5.66 80 14:28 09.07.2022
2664 Clouds 24 1017 88 10000 5.66 70 13:49 09.07.2022
2665 Rain 24 1018 84 10000 5.66 80 12:45 09.07.2022
2666 Clouds 24 1018 83 10000 4.63 50 11:22 09.07.2022
2667 Clouds 24 1018 84 10000 5.66 60 10:22 09.07.2022
2668 Clouds 25 1015 79 10000 8.23 60 07:45 09.07.2022
2669 Rain 25 1015 83 10000 5.81 70 04:58 09.07.2022
2670 Clouds 26 1017 78 10000 6.17 50 02:33 09.07.2022
2671 Clouds 26 1017 73 10000 7.2 60 22:54 08.07.2022
2672 Clouds 25 1017 77 10000 6.17 90 21:43 08.07.2022
2673 Rain 25 1017 79 10000 7.2 70 20:40 08.07.2022
2674 Rain 24 1017 83 10000 6.17 70 19:52 08.07.2022
2675 Rain 23 1016 85 10000 4.63 40 18:24 08.07.2022
2676 Rain 23 1015 83 10000 5.14 60 16:40 08.07.2022
2677 Clouds 24 1016 79 10000 3.09 50 14:51 08.07.2022
2678 Clouds 24 1017 77 10000 4.12 60 13:29 08.07.2022
2679 Clouds 24 1017 75 10000 5.14 60 11:42 08.07.2022
2680 Clouds 25 1015 76 10000 5.66 50 10:28 08.07.2022
2681 Rain 24 1016 84 10000 7.2 80 08:27 08.07.2022
2682 Clouds 25 1015 77 10000 8.75 40 06:49 08.07.2022
2683 Clouds 28 1015 66 10000 7.72 40 01:23 08.07.2022
2684 Rain 27 1014 73 10000 5.81 50 22:57 07.07.2022
2685 Rain 27 1015 70 10000 6.17 50 22:27 07.07.2022
2686 Rain 24 1017 87 10000 5.66 70 20:22 07.07.2022
2687 Rain 22 1014 90 10000 0 0 18:20 07.07.2022
2688 Clouds 23 1015 85 10000 4.12 80 16:46 07.07.2022
2689 Clouds 23 1015 86 10000 2.06 70 14:32 07.07.2022
2690 Clouds 23 1015 87 10000 3.58 40 12:53 07.07.2022
2691 Clouds 23 1016 85 10000 3.6 40 12:23 07.07.2022
2692 Rain 23 1017 88 10000 4.12 40 11:35 07.07.2022
2693 Clouds 24 1017 83 10000 4.12 30 10:47 07.07.2022
2694 Rain 24 1017 83 10000 4.12 30 10:29 07.07.2022
2695 Rain 24 1016 82 10000 6.71 60 09:52 07.07.2022
2696 Clouds 26 1016 72 10000 7.2 50 06:32 07.07.2022
2697 Clouds 27 1017 64 10000 7.15 60 00:31 07.07.2022
2698 Clouds 27 1017 66 10000 7.15 60 23:36 06.07.2022
2699 Clouds 27 1017 64 10000 7.15 60 23:18 06.07.2022
2700 Clouds 27 1018 63 10000 7.2 60 22:52 06.07.2022
2701 Clouds 27 1018 64 10000 7.2 60 22:33 06.07.2022
2702 Clouds 27 1018 64 10000 7.2 60 22:33 06.07.2022
2703 Clouds 26 1015 67 10000 5.14 60 20:30 06.07.2022
2704 Clouds 25 1018 70 10000 4.63 60 19:32 06.07.2022
2705 Clouds 24 1018 79 10000 5.66 60 17:21 06.07.2022
2706 Clouds 24 1017 77 10000 5.36 50 15:58 06.07.2022
2707 Clouds 24 1019 74 10000 5.81 70 12:57 06.07.2022
2708 Clouds 24 1019 72 10000 6.71 40 12:21 06.07.2022
2709 Clouds 25 1019 73 10000 7.2 50 10:55 06.07.2022
2710 Clouds 25 1018 74 10000 6.17 50 09:27 06.07.2022
2711 Clouds 25 1018 74 10000 6.17 50 09:27 06.07.2022
2712 Clouds 25 1018 71 10000 9.26 50 07:44 06.07.2022
2713 Clouds 25 1018 71 10000 9.26 50 07:44 06.07.2022
2714 Clouds 26 1017 71 10000 7.72 60 06:44 06.07.2022
2715 Rain 26 1019 78 10000 7.72 80 00:24 06.07.2022
2716 Rain 25 1019 83 10000 7.2 50 22:43 05.07.2022
2717 Rain 24 1019 85 10000 5.66 60 20:49 05.07.2022
2718 Rain 23 1019 86 10000 5.66 60 20:21 05.07.2022
2719 Rain 23 1019 86 10000 4.63 50 19:37 05.07.2022
2720 Rain 23 1017 86 10000 5.14 70 17:50 05.07.2022
2721 Rain 23 1017 84 10000 5.14 70 17:19 05.07.2022
2722 Rain 23 1018 83 10000 6.17 80 16:25 05.07.2022
2723 Clouds 24 1018 80 10000 6.17 40 14:54 05.07.2022
2724 Clouds 24 1018 76 10000 6.69 60 13:34 05.07.2022
2725 Clouds 25 1016 74 10000 7.2 50 12:22 05.07.2022
2726 Clouds 25 1019 72 10000 6.71 50 10:45 05.07.2022
2727 Clouds 25 1018 74 10000 6.69 70 09:52 05.07.2022
2728 Clouds 25 1018 72 10000 5.66 70 08:21 05.07.2022
2729 Rain 26 1017 71 10000 10.29 70 06:48 05.07.2022
2730 Clouds 26 1015 67 10000 9.77 70 04:35 05.07.2022
2731 Clouds 26 1018 71 10000 9.26 70 01:25 05.07.2022
2732 Haze 27 1019 74 10000 9.26 70 23:37 04.07.2022
2733 Rain 26 1019 78 10000 7.15 70 22:55 04.07.2022
2734 Clouds 24 1019 84 10000 5.81 60 21:56 04.07.2022
2735 Rain 24 1018 84 10000 5.36 60 20:56 04.07.2022
2736 Rain 24 1019 84 10000 5.66 60 20:35 04.07.2022
2737 Clouds 24 1018 85 10000 6.71 70 19:56 04.07.2022
2738 Clouds 24 1019 82 10000 6.71 70 19:37 04.07.2022
2739 Rain 24 1018 81 10000 7.72 60 18:34 04.07.2022
2740 Clouds 24 1017 82 10000 4.63 60 16:42 04.07.2022
2741 Clouds 24 1018 80 10000 8.75 80 15:34 04.07.2022
2742 Clouds 24 1015 78 10000 5.66 60 13:41 04.07.2022
2743 Clouds 24 1018 78 10000 7.72 80 12:38 04.07.2022
2744 Clouds 24 1018 79 10000 10.29 80 10:39 04.07.2022
2745 Clouds 24 1018 79 10000 10.29 80 10:18 04.07.2022
2746 Clouds 25 1017 76 10000 7.2 50 08:31 04.07.2022
2747 Clouds 26 1016 72 10000 8.75 50 05:36 04.07.2022
2748 Rain 27 1018 70 10000 6.69 60 00:43 04.07.2022
2749 Haze 26 1018 76 10000 7.2 60 23:27 03.07.2022
2750 Clouds 25 1017 75 10000 6.71 50 21:58 03.07.2022
2751 Clouds 25 1018 77 10000 4.63 40 20:41 03.07.2022
2752 Clouds 24 1018 80 10000 4.63 70 19:42 03.07.2022
2753 Clouds 24 1019 79 10000 4.63 70 19:23 03.07.2022
2754 Rain 23 1017 81 10000 4.63 50 17:45 03.07.2022
2755 Rain 23 1017 84 10000 3.6 70 16:54 03.07.2022
2756 Rain 23 1017 89 10000 4.63 50 15:24 03.07.2022
2757 Rain 23 1017 91 6437 4.47 60 14:32 03.07.2022
2758 Rain 24 1018 84 10000 6.17 70 13:48 03.07.2022
2759 Clouds 25 1018 76 10000 7.72 60 12:35 03.07.2022
2760 Clouds 25 1018 74 10000 7.2 70 11:29 03.07.2022
2761 Clouds 25 1018 72 10000 7.2 80 10:39 03.07.2022
2762 Clouds 25 1017 75 10000 8.05 70 09:55 03.07.2022
2763 Clouds 26 1017 71 10000 6.17 60 07:35 03.07.2022
2764 Clouds 28 1016 63 10000 8.75 60 04:22 03.07.2022
2765 Clouds 28 1017 59 10000 9.26 70 00:22 03.07.2022
2766 Clouds 27 1018 64 10000 8.23 60 22:34 02.07.2022
2767 Clouds 27 1016 64 10000 5.66 80 21:28 02.07.2022
2768 Clouds 26 1018 68 10000 7.2 70 19:52 02.07.2022
2769 Clouds 26 1018 68 10000 7.2 70 19:20 02.07.2022
2770 Clouds 25 1018 73 10000 7.2 70 17:42 02.07.2022
2771 Clouds 25 1017 76 10000 7.15 70 16:53 02.07.2022
2772 Clouds 25 1017 74 10000 5.66 70 14:52 02.07.2022
2773 Clouds 25 1019 73 10000 9.26 60 12:22 02.07.2022
2774 Clouds 25 1019 74 10000 5.66 80 11:27 02.07.2022
2775 Clouds 25 1019 74 10000 7.2 50 10:43 02.07.2022
2776 Clouds 25 1018 73 10000 7.72 80 09:25 02.07.2022
2777 Clouds 26 1018 73 10000 7.15 70 08:20 02.07.2022
2778 Clouds 26 1018 73 10000 7.2 70 07:48 02.07.2022
2779 Clouds 28 1018 67 10000 7.72 60 02:50 02.07.2022
2780 Clouds 28 1018 70 10000 9.39 60 23:59 01.07.2022
2781 Clouds 28 1019 70 10000 9.77 70 22:41 01.07.2022
2782 Clouds 27 1019 72 10000 7.72 50 21:48 01.07.2022
2783 Clouds 27 1019 72 10000 7.72 50 21:28 01.07.2022
2784 Rain 27 1019 74 10000 8.75 80 20:43 01.07.2022
2785 Rain 25 1019 81 10000 5.66 60 19:47 01.07.2022
2786 Clouds 24 1016 88 10000 1.79 0 17:53 01.07.2022
2787 Clouds 25 1018 82 10000 8.23 80 16:22 01.07.2022
2788 Clouds 25 1017 79 10000 5.14 70 13:55 01.07.2022
2789 Clouds 25 1017 79 10000 7.2 60 12:41 01.07.2022
2790 Clouds 25 1019 77 10000 7.6 70 10:20 01.07.2022
2791 Clouds 25 1019 77 10000 7.6 70 10:20 01.07.2022
2792 Clouds 25 1019 76 10000 7.72 70 09:43 01.07.2022
2793 Clouds 27 1018 72 10000 9.26 70 04:49 01.07.2022
2794 Clouds 28 1019 63 10000 9.26 60 00:26 01.07.2022
2795 Clouds 27 1017 71 10000 6.69 70 22:59 30.06.2022
2796 Clouds 28 1019 65 10000 7.2 60 22:41 30.06.2022
2797 Clouds 28 1019 65 10000 7.2 60 22:22 30.06.2022
2798 Clouds 27 1019 68 10000 6.17 60 21:41 30.06.2022
2799 Clouds 26 1019 72 10000 6.17 70 20:30 30.06.2022
2800 Clouds 25 1018 75 10000 6.17 60 19:54 30.06.2022
2801 Clouds 25 1018 78 10000 6.17 60 19:24 30.06.2022
2802 Clouds 24 1018 81 10000 4.12 50 18:42 30.06.2022
2803 Clouds 24 1017 82 10000 5.14 80 17:44 30.06.2022
2804 Rain 24 1017 83 10000 3.6 80 16:55 30.06.2022
2805 Clouds 24 1017 82 10000 4.63 70 15:39 30.06.2022
2806 Clouds 24 1018 82 10000 5.66 70 13:34 30.06.2022
2807 Clouds 24 1015 80 10000 4.12 60 12:35 30.06.2022
2808 Clouds 24 1016 80 10000 5.14 70 11:37 30.06.2022
2809 Rain 23 1017 85 10000 1.34 109 09:55 30.06.2022
2810 Rain 24 1015 80 10000 7.15 40 09:34 30.06.2022
2811 Rain 25 1015 75 10000 7.2 40 08:18 30.06.2022
2812 Clouds 25 1017 72 10000 7.2 50 07:18 30.06.2022
2813 Rain 26 1018 69 10000 7.2 60 01:42 30.06.2022
2814 Clouds 27 1019 64 10000 7.72 60 23:34 29.06.2022
2815 Clouds 27 1019 65 10000 9.77 70 22:40 29.06.2022
2816 Clouds 27 1019 66 10000 7.2 70 21:39 29.06.2022
2817 Clouds 26 1019 70 10000 6.69 40 20:34 29.06.2022
2818 Clouds 25 1018 74 10000 5.14 50 19:39 29.06.2022
2819 Rain 23 1017 78 10000 5.14 80 17:45 29.06.2022
2820 Clouds 24 1017 73 10000 5.66 70 16:43 29.06.2022
2821 Clouds 24 1017 75 10000 4.63 100 15:26 29.06.2022
2822 Clouds 24 1018 74 10000 5.14 60 12:47 29.06.2022
2823 Clouds 24 1016 74 10000 6.71 70 11:32 29.06.2022
2824 Clouds 25 1015 69 10000 6.17 60 09:33 29.06.2022
2825 Clouds 25 1015 70 10000 8.23 70 08:26 29.06.2022
2826 Clouds 27 1014 63 10000 7.2 70 05:19 29.06.2022
2827 Clouds 28 1017 61 10000 10.29 50 01:48 29.06.2022
2828 Clouds 28 1017 61 10000 7.2 60 00:37 29.06.2022
2829 Clouds 27 1017 68 10000 6.17 70 22:56 28.06.2022
2830 Clouds 27 1018 63 10000 9.26 60 22:34 28.06.2022
2831 Clouds 27 1018 64 10000 6.69 50 21:55 28.06.2022
2832 Clouds 27 1018 66 10000 6.69 50 21:33 28.06.2022
2833 Clouds 26 1018 70 10000 5.66 90 20:50 28.06.2022
2834 Clouds 24 1017 76 10000 5.14 60 19:34 28.06.2022
2835 Rain 23 1017 79 10000 6.17 80 18:53 28.06.2022
2836 Clouds 23 1017 78 10000 4.12 60 17:42 28.06.2022
2837 Clouds 23 1017 76 10000 3.6 70 16:21 28.06.2022
2838 Clouds 23 1017 75 10000 5.66 60 15:42 28.06.2022
2839 Clouds 24 1017 75 10000 5.66 50 14:21 28.06.2022
2840 Clouds 24 1017 75 10000 3.6 40 13:54 28.06.2022
2841 Clouds 24 1017 75 10000 2.68 30 12:57 28.06.2022
2842 Clouds 25 1018 71 10000 5.14 80 11:18 28.06.2022
2843 Clouds 25 1018 70 10000 4.63 70 09:30 28.06.2022
2844 Clouds 25 1016 74 10000 6.17 70 08:44 28.06.2022
2845 Clouds 25 1016 71 10000 6.69 60 07:42 28.06.2022
2846 Clouds 25 1016 72 10000 6.69 60 07:19 28.06.2022
2847 Clouds 28 1016 61 10000 8.23 60 01:32 28.06.2022
2848 Clouds 28 1015 60 10000 6.71 60 23:41 27.06.2022
2849 Clouds 28 1016 59 10000 8.75 80 22:52 27.06.2022
2850 Clouds 27 1016 65 10000 6.17 70 21:38 27.06.2022
2851 Clouds 26 1016 68 10000 4.63 70 20:53 27.06.2022
2852 Clouds 24 1016 75 10000 4.63 80 19:36 27.06.2022
2853 Clouds 22 1016 82 10000 3.6 90 18:26 27.06.2022
2854 Clouds 22 1015 80 10000 2.06 90 16:27 27.06.2022
2855 Clouds 23 1016 79 10000 2.57 90 15:23 27.06.2022
2856 Clouds 23 1016 77 10000 2.57 80 13:37 27.06.2022
2857 Clouds 24 1016 77 10000 3.6 90 12:56 27.06.2022
2858 Clouds 24 1017 74 10000 4.12 100 10:34 27.06.2022
2859 Clouds 25 1017 72 10000 3.6 40 09:20 27.06.2022
2860 Clouds 25 1016 70 10000 5.66 50 08:29 27.06.2022
2861 Clouds 26 1015 65 10000 5.66 60 06:38 27.06.2022
2862 Clouds 28 1015 56 10000 6.69 110 03:24 27.06.2022
2863 Clouds 28 1016 54 10000 5.66 70 00:56 27.06.2022
2864 Clouds 27 1016 59 10000 5.66 50 22:18 26.06.2022
2865 Clouds 26 1016 63 10000 5.66 80 20:44 26.06.2022
2866 Clouds 24 1016 72 10000 3.09 80 19:40 26.06.2022
2867 Clouds 22 1015 79 10000 2.57 80 18:31 26.06.2022
2868 Clouds 23 1014 75 10000 3.09 30 16:45 26.06.2022
2869 Clouds 23 1015 79 10000 1.54 40 14:42 26.06.2022
2870 Clouds 23 1014 78 10000 3.09 70 13:38 26.06.2022
2871 Clouds 23 1014 78 10000 3.09 70 13:18 26.06.2022
2872 Clouds 24 1016 74 10000 4.63 70 11:26 26.06.2022
2873 Clouds 24 1016 75 10000 6.71 80 10:26 26.06.2022
2874 Clouds 25 1016 71 10000 5.14 60 09:22 26.06.2022
2875 Clouds 25 1015 71 10000 7.2 70 07:41 26.06.2022
2876 Clear 28 1014 61 10000 4.63 30 01:53 26.06.2022
2877 Clouds 28 1015 62 10000 6.17 40 00:20 26.06.2022
2878 Clouds 28 1015 60 10000 6.71 30 23:41 25.06.2022
2879 Clouds 28 1015 64 10000 5.14 50 22:57 25.06.2022
2880 Clouds 27 1016 65 10000 6.17 70 22:27 25.06.2022
2881 Clouds 27 1015 62 10000 5.14 70 21:40 25.06.2022
2882 Clouds 27 1015 64 10000 5.14 70 21:18 25.06.2022
2883 Clouds 26 1015 68 10000 3.6 60 20:25 25.06.2022
2884 Clouds 23 1014 80 10000 3.09 60 19:19 25.06.2022
2885 Clouds 22 1014 81 10000 2.06 20 17:28 25.06.2022
2886 Clouds 22 1014 81 10000 2.57 90 16:44 25.06.2022
2887 Clouds 22 1013 81 10000 2.57 70 14:59 25.06.2022
2888 Clear 23 1014 81 10000 2.24 20 12:57 25.06.2022
2889 Clouds 23 1015 79 10000 4.12 50 12:37 25.06.2022
2890 Rain 23 1015 79 10000 6.17 40 10:30 25.06.2022
2891 Clouds 24 1014 75 10000 4.63 60 08:56 25.06.2022
2892 Clouds 25 1015 71 10000 4.63 60 08:29 25.06.2022
2893 Clouds 26 1014 69 10000 4.47 30 06:53 25.06.2022
2894 Clouds 28 1014 58 10000 5.66 50 03:26 25.06.2022
2895 Clouds 27 1015 63 10000 5.66 30 00:21 25.06.2022
2896 Clouds 26 1017 73 10000 2.57 0 22:31 24.06.2022
2897 Rain 23 1016 84 4828 3.09 40 21:29 24.06.2022
2898 Rain 23 1016 86 10000 6.69 10 20:25 24.06.2022
2899 Clouds 23 1015 85 10000 9.26 40 19:43 24.06.2022
2900 Rain 23 1015 82 10000 3.6 60 19:18 24.06.2022
2901 Rain 23 1015 85 10000 3.6 60 18:46 24.06.2022
2902 Clouds 23 1015 83 10000 4.12 60 18:28 24.06.2022
2903 Clouds 23 1015 80 10000 2.57 350 16:48 24.06.2022
2904 Clear 23 1015 80 10000 4.63 50 14:58 24.06.2022
2905 Clouds 24 1015 78 10000 4.63 50 14:24 24.06.2022
2906 Clouds 23 1016 77 10000 4.63 60 13:46 24.06.2022
2907 Clouds 24 1016 75 10000 3.6 70 11:42 24.06.2022
2908 Clouds 25 1017 72 10000 4.63 60 10:39 24.06.2022
2909 Clouds 25 1016 72 10000 4.63 70 09:42 24.06.2022
2910 Clouds 25 1015 71 10000 4.63 60 08:54 24.06.2022
2911 Clouds 25 1015 70 10000 4.63 60 08:19 24.06.2022
2912 Clouds 26 1014 65 10000 5.66 40 06:44 24.06.2022
2913 Clouds 26 1014 64 10000 5.66 40 06:25 24.06.2022
2914 Clouds 27 1014 63 10000 6.17 30 04:50 24.06.2022
2915 Clouds 27 1015 61 10000 6.17 40 23:32 23.06.2022
2916 Clouds 27 1015 63 10000 6.17 60 22:43 23.06.2022
2917 Clouds 25 1016 72 10000 6.17 70 20:59 23.06.2022
2918 Clouds 25 1016 69 10000 6.17 70 20:36 23.06.2022
2919 Clouds 24 1016 73 10000 5.14 70 19:48 23.06.2022
2920 Rain 24 1016 76 10000 6.69 60 18:26 23.06.2022
2921 Clouds 23 1015 77 10000 5.14 70 17:34 23.06.2022
2922 Clouds 23 1015 78 10000 3.6 70 16:26 23.06.2022
2923 Rain 23 1015 80 10000 4.63 70 15:26 23.06.2022
2924 Clouds 23 1016 77 10000 6.17 70 14:18 23.06.2022
2925 Clouds 24 1017 75 10000 4.63 80 11:33 23.06.2022
2926 Clouds 24 1018 75 10000 5.14 70 10:40 23.06.2022
2927 Clouds 24 1016 73 10000 7.15 60 09:19 23.06.2022
2928 Clouds 27 1016 65 10000 7.2 60 03:51 23.06.2022
2929 Clouds 28 1017 58 10000 8.75 30 00:27 23.06.2022
2930 Clouds 28 1017 60 10000 5.14 50 23:43 22.06.2022
2931 Clouds 28 1018 63 10000 5.66 50 22:50 22.06.2022
2932 Clouds 27 1018 66 10000 5.14 60 21:27 22.06.2022
2933 Clouds 26 1018 70 10000 3.6 70 20:45 22.06.2022
2934 Clouds 25 1017 74 10000 4.12 70 19:58 22.06.2022
2935 Clouds 24 1017 79 10000 3.09 70 18:50 22.06.2022
2936 Clouds 24 1016 80 10000 3.6 60 17:29 22.06.2022
2937 Clouds 24 1016 79 10000 5.66 90 16:33 22.06.2022
2938 Rain 24 1017 80 10000 3.09 90 15:27 22.06.2022
2939 Clear 24 1017 80 10000 3.6 30 14:21 22.06.2022
2940 Clouds 24 1017 79 10000 3.6 60 13:42 22.06.2022
2941 Clouds 24 1017 80 10000 4.02 80 13:23 22.06.2022
2942 Clouds 24 1018 80 10000 5.66 80 11:50 22.06.2022
2943 Clouds 24 1018 80 10000 5.66 80 11:50 22.06.2022
2944 Clouds 24 1018 80 10000 5.66 80 11:50 22.06.2022
2945 Clouds 24 1015 83 10000 5.14 60 10:57 22.06.2022
2946 Clouds 24 1017 82 10000 5.14 60 10:19 22.06.2022
2947 Rain 24 1016 80 10000 6.17 70 08:37 22.06.2022
2948 Clouds 27 1015 69 10000 7.2 30 05:38 22.06.2022
2949 Clouds 28 1016 65 10000 6.17 60 01:39 22.06.2022
2950 Clouds 28 1016 65 10000 6.69 50 00:29 22.06.2022
2951 Clouds 28 1017 63 10000 5.66 70 22:19 21.06.2022
2952 Clouds 25 1017 72 10000 4.63 70 19:56 21.06.2022
2953 Clouds 24 1017 78 10000 2.57 30 18:36 21.06.2022
2954 Clear 24 1017 78 10000 2.06 40 17:39 21.06.2022
2955 Clouds 24 1016 79 10000 4.12 70 14:22 21.06.2022
2956 Clouds 24 1018 75 10000 4.63 60 11:49 21.06.2022
2957 Clouds 25 1017 75 10000 4.12 60 10:18 21.06.2022
2958 Clouds 25 1016 76 10000 5.14 50 08:48 21.06.2022
2959 Rain 25 1016 78 10000 3.6 100 07:23 21.06.2022
2960 Clouds 29 1016 63 10000 5.66 70 01:43 21.06.2022
2961 Clouds 29 1017 58 10000 7.72 60 23:25 20.06.2022
2962 Clouds 27 1016 66 10000 5.81 60 21:55 20.06.2022
2963 Rain 26 1017 70 10000 5.14 50 20:53 20.06.2022
2964 Clouds 24 1016 77 10000 4.12 70 19:40 20.06.2022
2965 Clouds 24 1016 78 10000 3.6 70 18:48 20.06.2022
2966 Clouds 24 1016 78 10000 3.6 70 18:20 20.06.2022
2967 Clouds 24 1016 77 10000 4.63 80 17:35 20.06.2022
2968 Clouds 23 1015 78 10000 4.92 70 15:57 20.06.2022
2969 Clouds 24 1016 75 10000 5.14 80 12:56 20.06.2022
2970 Clouds 25 1017 72 10000 6.17 80 11:18 20.06.2022
2971 Clouds 25 1016 72 10000 6.17 60 09:41 20.06.2022
2972 Clouds 25 1015 72 10000 5.66 60 08:44 20.06.2022
2973 Clouds 26 1015 66 10000 7.2 60 06:37 20.06.2022
2974 Clouds 28 1015 64 10000 7.2 60 02:56 20.06.2022
2975 Clouds 28 1016 62 10000 6.69 60 00:32 20.06.2022
2976 Clouds 28 1016 62 10000 6.69 60 23:18 19.06.2022
2977 Clouds 27 1016 63 10000 4.92 80 21:59 19.06.2022
2978 Clouds 27 1016 62 10000 5.14 80 21:40 19.06.2022
2979 Clouds 27 1016 64 10000 5.14 80 20:44 19.06.2022
2980 Clouds 25 1016 69 10000 4.12 70 19:48 19.06.2022
2981 Clouds 25 1016 72 10000 4.12 70 19:20 19.06.2022
2982 Clouds 24 1015 74 10000 5.14 60 18:30 19.06.2022
2983 Clouds 24 1015 77 10000 5.66 60 17:22 19.06.2022
2984 Clouds 24 1015 75 10000 4.63 60 16:36 19.06.2022
2985 Clouds 24 1016 75 10000 5.66 70 15:43 19.06.2022
2986 Clouds 24 1016 76 10000 5.14 60 15:24 19.06.2022
2987 Clouds 24 1015 75 10000 4.63 70 14:20 19.06.2022
2988 Clouds 24 1015 74 10000 6.17 80 13:37 19.06.2022
2989 Clear 25 1017 73 10000 5.14 80 11:40 19.06.2022
2990 Clouds 25 1016 71 10000 5.14 60 10:47 19.06.2022
2991 Clouds 25 1015 72 10000 6.17 60 08:54 19.06.2022
2992 Clouds 25 1015 72 10000 6.17 60 08:22 19.06.2022
2993 Clouds 25 1013 75 10000 6.09 75 05:59 19.06.2022
2994 Clouds 27 1014 69 10000 5.66 60 02:59 19.06.2022
2995 Clouds 28 1015 61 10000 8.23 60 00:26 19.06.2022
2996 Clouds 28 1015 61 10000 7.72 80 23:36 18.06.2022
2997 Clouds 28 1015 63 10000 9.39 60 22:55 18.06.2022
2998 Clouds 27 1016 66 10000 8.23 80 21:52 18.06.2022
2999 Clouds 26 1015 69 10000 6.17 70 20:49 18.06.2022
3000 Clouds 26 1015 69 10000 6.17 70 20:49 18.06.2022
3001 Clouds 25 1016 73 10000 5.14 90 19:40 18.06.2022
3002 Clouds 24 1016 77 10000 5.14 70 18:54 18.06.2022
3003 Clear 24 1015 75 10000 5.66 60 17:43 18.06.2022
3004 Clear 24 1015 75 10000 5.66 60 17:22 18.06.2022
3005 Clouds 24 1015 75 10000 3.6 50 15:37 18.06.2022
3006 Clouds 23 1016 79 10000 4.12 90 14:48 18.06.2022
3007 Clouds 24 1016 78 10000 3.6 100 13:42 18.06.2022
3008 Clear 24 1016 81 10000 3.58 60 11:58 18.06.2022
3009 Clear 24 1016 82 10000 4.47 80 10:56 18.06.2022
3010 Clear 24 1016 82 10000 4.47 80 10:56 18.06.2022
3011 Clouds 25 1016 77 10000 5.14 50 09:28 18.06.2022
3012 Clouds 25 1016 76 10000 4.63 50 08:32 18.06.2022
3013 Clouds 25 1016 74 10000 9.26 70 07:20 18.06.2022
3014 Clouds 28 1015 61 10000 10.29 80 03:47 18.06.2022
3015 Clouds 28 1016 62 10000 8.23 70 01:26 18.06.2022
3016 Clouds 29 1017 60 10000 7.72 80 00:49 18.06.2022
3017 Clouds 28 1016 61 10000 7.15 60 23:59 17.06.2022
3018 Clouds 28 1017 62 10000 7.2 60 23:24 17.06.2022
3019 Clouds 27 1017 65 10000 6.71 60 21:27 17.06.2022
3020 Clouds 26 1017 70 10000 5.66 70 20:24 17.06.2022
3021 Clouds 24 1017 77 10000 4.63 80 18:52 17.06.2022
3022 Clouds 24 1016 79 10000 5.66 60 17:46 17.06.2022
3023 Clouds 24 1016 79 10000 4.63 60 16:43 17.06.2022
3024 Clouds 24 1016 79 10000 4.63 60 16:18 17.06.2022
3025 Clouds 23 1016 81 10000 5.14 60 15:34 17.06.2022
3026 Clouds 23 1016 83 10000 2.57 30 14:20 17.06.2022
3027 Clouds 23 1017 82 10000 3.6 50 13:46 17.06.2022
3028 Clouds 23 1017 81 10000 3.6 50 13:24 17.06.2022
3029 Clouds 23 1017 82 10000 2.68 60 11:58 17.06.2022
3030 Clouds 24 1018 79 10000 3.09 60 11:36 17.06.2022
3031 Clouds 24 1015 76 10000 5.66 70 10:52 17.06.2022
3032 Clouds 25 1016 77 10000 5.14 70 08:30 17.06.2022
3033 Clouds 25 1016 75 10000 7.2 70 07:48 17.06.2022
3034 Clouds 26 1015 72 10000 8.75 60 06:22 17.06.2022
3035 Clouds 28 1016 67 10000 6.71 60 03:19 17.06.2022
3036 Clouds 27 1017 69 10000 5.66 70 00:43 17.06.2022
3037 Rain 26 1017 77 10000 5.66 60 22:45 16.06.2022
3038 Clouds 27 1018 75 10000 5.66 60 22:26 16.06.2022
3039 Rain 25 1017 82 10000 6.17 80 21:19 16.06.2022
3040 Clouds 25 1017 79 10000 4.92 60 20:50 16.06.2022
3041 Clouds 24 1016 84 10000 4.92 60 19:58 16.06.2022
3042 Clouds 23 1016 82 10000 7.35 64 18:44 16.06.2022
3043 Clouds 23 1016 82 10000 3.6 60 17:44 16.06.2022
3044 Clouds 23 1016 82 10000 3.6 60 17:20 16.06.2022
3045 Clouds 23 1016 80 10000 5.14 40 15:44 16.06.2022
3046 Clouds 23 1016 82 10000 5.14 40 15:20 16.06.2022
3047 Clouds 23 1017 84 10000 3.6 40 13:49 16.06.2022
3048 Clouds 24 1017 83 10000 4.47 50 12:38 16.06.2022
3049 Clouds 23 1017 85 10000 4.63 50 11:55 16.06.2022
3050 Clouds 24 1017 84 10000 4.63 50 11:19 16.06.2022
3051 Clouds 24 1017 82 10000 5.66 70 10:34 16.06.2022
3052 Clouds 24 1017 86 10000 5.14 60 09:26 16.06.2022
3053 Clouds 24 1016 83 10000 4.63 50 08:46 16.06.2022
3054 Clouds 25 1017 79 10000 6.71 70 07:29 16.06.2022
3055 Clouds 26 1016 77 10000 4.63 20 05:43 16.06.2022
3056 Rain 26 1016 78 10000 5.14 90 03:23 16.06.2022
3057 Clouds 28 1017 64 10000 7.72 10 01:51 16.06.2022
3058 Clouds 28 1017 65 10000 7.72 10 01:22 16.06.2022
3059 Clouds 28 1017 69 10000 8.49 70 23:56 15.06.2022
3060 Clouds 28 1017 69 10000 8.49 70 23:56 15.06.2022
3061 Clouds 28 1018 68 10000 5.66 30 22:47 15.06.2022
3062 Rain 26 1018 77 10000 5.14 50 21:29 15.06.2022
3063 Clouds 25 1018 79 10000 2.68 80 20:57 15.06.2022
3064 Rain 26 1018 76 10000 3.09 80 20:35 15.06.2022
3065 Rain 24 1018 84 10000 1.54 0 19:49 15.06.2022
3066 Clouds 23 1017 85 10000 2.06 50 18:30 15.06.2022
3067 Clouds 23 1017 85 10000 1.54 50 17:42 15.06.2022
3068 Clouds 23 1017 85 10000 0 0 16:20 15.06.2022
3069 Clouds 24 1018 80 10000 2.57 360 14:33 15.06.2022
3070 Clouds 24 1017 78 10000 2.06 320 13:20 15.06.2022
3071 Clouds 24 1018 77 10000 3.09 10 12:33 15.06.2022
3072 Rain 24 1018 75 10000 4.12 50 10:53 15.06.2022
3073 Clouds 24 1018 74 10000 4.12 50 10:20 15.06.2022
3074 Clouds 24 1017 75 10000 4.92 50 08:57 15.06.2022
3075 Clouds 25 1017 70 10000 5.66 50 07:21 15.06.2022
3076 Clouds 26 1017 66 10000 7.72 30 05:24 15.06.2022
3077 Clouds 28 1018 62 10000 7.72 70 02:31 15.06.2022
3078 Clouds 28 1019 65 10000 7.72 70 01:33 15.06.2022
3079 Rain 26 1019 76 10000 9.77 70 23:55 14.06.2022
3080 Rain 26 1019 74 10000 9.77 70 23:37 14.06.2022
3081 Rain 25 1019 76 10000 7.2 50 22:33 14.06.2022
3082 Clouds 25 1019 75 10000 8.23 70 21:42 14.06.2022
3083 Clouds 26 1020 66 10000 6.71 70 20:57 14.06.2022
3084 Clouds 25 1019 68 10000 6.71 70 20:34 14.06.2022
3085 Clouds 25 1018 70 10000 6.17 60 19:25 14.06.2022
3086 Clouds 24 1019 72 10000 4.63 60 18:25 14.06.2022
3087 Clouds 24 1018 73 10000 5.66 70 16:49 14.06.2022
3088 Clouds 24 1019 73 10000 5.14 70 15:50 14.06.2022
3089 Clouds 24 1019 74 10000 5.14 70 15:31 14.06.2022
3090 Clouds 24 1018 75 10000 8.23 60 14:46 14.06.2022
3091 Clouds 24 1019 75 10000 8.23 60 13:46 14.06.2022
3092 Clouds 24 1019 73 10000 6.17 70 12:48 14.06.2022
3093 Clouds 24 1019 74 10000 7.72 70 11:46 14.06.2022
3094 Clouds 25 1019 73 10000 7.2 60 10:49 14.06.2022
3095 Clouds 25 1019 74 10000 7.2 60 10:25 14.06.2022
3096 Clouds 25 1019 74 10000 7.2 60 10:25 14.06.2022
3097 Clouds 25 1018 76 10000 7.72 50 08:49 14.06.2022
3098 Clouds 25 1018 75 10000 6.71 50 07:50 14.06.2022
3099 Clouds 26 1017 74 10000 10.28 70 05:56 14.06.2022
3100 Clouds 27 1017 65 10000 9.26 50 03:20 14.06.2022
3101 Clouds 28 1018 66 10000 10.29 70 01:31 14.06.2022
3102 Clouds 28 1019 62 10000 8.75 70 23:48 13.06.2022
3103 Clouds 27 1019 66 10000 8.23 70 22:26 13.06.2022
3104 Clouds 26 1019 69 10000 6.71 60 21:54 13.06.2022
3105 Clouds 26 1019 67 10000 6.69 50 20:42 13.06.2022
3106 Clouds 26 1019 72 10000 5.14 50 19:35 13.06.2022
3107 Clouds 24 1018 77 10000 5.66 80 18:31 13.06.2022
3108 Clouds 24 1018 78 10000 4.63 70 17:48 13.06.2022
3109 Clouds 24 1018 76 10000 4.63 60 16:53 13.06.2022
3110 Clouds 24 1017 78 10000 4.12 50 15:40 13.06.2022
3111 Clouds 24 1018 79 10000 4.63 70 14:47 13.06.2022
3112 Clouds 24 1017 79 10000 4.63 70 14:47 13.06.2022
3113 Clouds 24 1017 84 10000 5.14 60 13:55 13.06.2022
3114 Clouds 24 1017 85 10000 0.89 72 12:59 13.06.2022
3115 Clouds 25 1019 81 10000 6.71 60 11:37 13.06.2022
3116 Clouds 25 1019 79 10000 8.23 60 10:27 13.06.2022
3117 Clouds 25 1019 77 10000 7.72 50 09:42 13.06.2022
3118 Clouds 25 1018 75 10000 9.26 70 08:24 13.06.2022
3119 Clouds 26 1017 71 10000 8.75 70 06:34 13.06.2022
3120 Clouds 28 1017 69 10000 8.75 70 03:45 13.06.2022
3121 Clouds 29 1018 63 10000 7.72 80 01:38 13.06.2022
3122 Clouds 28 1018 64 10000 9.77 50 00:48 13.06.2022
3123 Clouds 28 1020 64 10000 8.23 60 23:31 12.06.2022
3124 Clouds 27 1019 66 10000 7.2 60 22:23 12.06.2022
3125 Clouds 27 1019 65 10000 6.69 60 21:39 12.06.2022
3126 Clouds 26 1018 67 10000 6.17 60 20:39 12.06.2022
3127 Clouds 25 1018 73 10000 6.17 70 19:38 12.06.2022
3128 Clouds 24 1018 77 10000 6.17 80 18:43 12.06.2022
3129 Clouds 24 1017 78 10000 6.17 60 16:42 12.06.2022
3130 Clouds 24 1017 77 10000 5.14 50 15:30 12.06.2022
3131 Clouds 24 1018 79 10000 5.14 80 14:32 12.06.2022
3132 Clouds 24 1017 79 10000 7.2 80 13:55 12.06.2022
3133 Clouds 24 1017 80 10000 7.72 80 12:58 12.06.2022
3134 Clouds 25 1019 75 10000 6.69 70 11:47 12.06.2022
3135 Clouds 25 1018 75 10000 6.69 80 10:45 12.06.2022
3136 Clouds 25 1018 74 10000 6.71 60 09:25 12.06.2022
3137 Clouds 25 1017 72 10000 6.17 60 08:48 12.06.2022
3138 Clouds 26 1016 69 10000 7.72 50 07:39 12.06.2022
3139 Clear 27 1016 66 10000 8.75 50 05:38 12.06.2022
3140 Clouds 28 1016 62 10000 9.77 70 03:38 12.06.2022
3141 Clouds 29 1016 58 10000 7.2 30 01:43 12.06.2022
3142 Clear 28 1015 62 10000 9.88 67 00:58 12.06.2022
3143 Clouds 29 1017 58 10000 9.26 70 00:25 12.06.2022
3144 Clouds 28 1017 60 10000 6.69 40 23:48 11.06.2022
3145 Clouds 28 1017 60 10000 6.71 40 23:48 11.06.2022
3146 Clouds 28 1018 62 10000 6.71 50 22:39 11.06.2022
3147 Clouds 28 1018 63 10000 6.71 50 22:18 11.06.2022
3148 Rain 26 1017 67 10000 6.17 70 20:50 11.06.2022
3149 Rain 26 1017 68 10000 6.17 70 20:21 11.06.2022
3150 Clouds 24 1017 74 10000 5.66 80 19:26 11.06.2022
3151 Clouds 24 1016 76 10000 6.17 70 18:34 11.06.2022
3152 Clouds 24 1016 77 10000 4.63 70 17:51 11.06.2022
3153 Clouds 24 1016 76 10000 5.66 70 17:28 11.06.2022
3154 Clouds 24 1016 77 10000 4.63 60 16:57 11.06.2022
3155 Clouds 24 1016 77 10000 4.63 60 16:30 11.06.2022
3156 Clouds 24 1016 76 10000 5.66 60 15:43 11.06.2022
3157 Clouds 24 1016 76 10000 5.66 60 15:43 11.06.2022
3158 Clear 24 1016 80 10000 4.63 70 13:53 11.06.2022
3159 Clouds 24 1017 77 10000 4.47 60 12:57 11.06.2022
3160 Clouds 24 1017 74 10000 5.14 70 10:55 11.06.2022
3161 Clouds 24 1017 74 10000 5.14 70 10:19 11.06.2022
3162 Clouds 25 1018 71 10000 5.14 40 09:19 11.06.2022
3163 Clouds 25 1016 71 10000 5.14 60 07:43 11.06.2022
3164 Clouds 26 1015 68 10000 7.2 40 06:30 11.06.2022
3165 Clouds 27 1015 64 10000 6.17 50 04:49 11.06.2022
3166 Clouds 28 1016 61 10000 6.71 50 01:53 11.06.2022
3167 Clouds 28 1016 61 10000 6.69 50 01:33 11.06.2022
3168 Clouds 28 1015 68 10000 7.2 60 00:20 11.06.2022
3169 Clouds 28 1017 59 10000 5.14 70 22:32 10.06.2022
3170 Clouds 27 1016 59 10000 6.17 50 21:52 10.06.2022
3171 Clouds 26 1016 62 10000 5.66 50 20:42 10.06.2022
3172 Clouds 26 1016 63 10000 5.66 50 20:22 10.06.2022
3173 Clouds 24 1016 69 10000 3.6 50 19:38 10.06.2022
3174 Clouds 24 1016 70 10000 3.6 50 19:18 10.06.2022
3175 Clouds 24 1016 70 10000 3.6 50 19:18 10.06.2022
3176 Clouds 24 1016 70 10000 3.6 50 19:18 10.06.2022
3177 Clouds 23 1015 72 10000 4.12 60 18:18 10.06.2022
3178 Clouds 23 1015 73 10000 3.6 50 17:35 10.06.2022
3179 Clouds 23 1015 75 10000 3.09 50 16:51 10.06.2022
3180 Clouds 23 1015 73 10000 5.66 70 15:45 10.06.2022
3181 Clouds 24 1016 72 10000 5.66 70 14:57 10.06.2022
3182 Clouds 24 1016 73 10000 4.63 70 13:36 10.06.2022
3183 Clouds 24 1017 75 10000 4.12 90 12:21 10.06.2022
3184 Clouds 24 1017 74 10000 5.14 70 11:30 10.06.2022
3185 Clouds 24 1017 74 10000 6.17 70 10:36 10.06.2022
3186 Clouds 24 1016 73 10000 5.66 70 09:37 10.06.2022
3187 Clouds 24 1016 76 10000 7.15 70 07:58 10.06.2022
3188 Clouds 26 1015 69 10000 5.66 70 06:50 10.06.2022
3189 Clouds 26 1015 69 10000 5.66 70 06:31 10.06.2022
3190 Clouds 27 1014 65 10000 6.17 60 05:34 10.06.2022
3191 Clouds 28 1015 59 10000 6.69 60 02:50 10.06.2022
3192 Clouds 29 1015 57 10000 6.69 40 01:37 10.06.2022
3193 Clear 27 1017 60 10000 4.02 190 23:58 09.06.2022
3194 Clouds 28 1017 58 10000 5.14 50 22:47 09.06.2022
3195 Clouds 27 1017 59 10000 3.6 120 21:46 09.06.2022
3196 Clouds 27 1017 61 10000 3.6 120 21:28 09.06.2022
3197 Clouds 26 1017 62 10000 2.57 80 20:40 09.06.2022
3198 Clouds 24 1016 70 10000 2.06 320 19:51 09.06.2022
3199 Clouds 22 1016 82 10000 2.57 350 18:41 09.06.2022
3200 Clouds 22 1016 81 10000 2.57 340 17:55 09.06.2022
3201 Clouds 22 1016 81 10000 3.09 80 16:28 09.06.2022
3202 Clouds 22 1015 80 10000 2.57 340 15:40 09.06.2022
3203 Clouds 23 1016 77 10000 3.6 70 14:33 09.06.2022
3204 Clouds 23 1016 74 10000 3.6 110 13:44 09.06.2022
3205 Clouds 23 1016 73 10000 3.6 110 13:20 09.06.2022
3206 Clouds 24 1017 74 10000 4.63 70 11:43 09.06.2022
3207 Clouds 24 1017 73 10000 4.12 80 10:34 09.06.2022
3208 Clouds 25 1017 71 10000 5.66 70 09:38 09.06.2022
3209 Clouds 25 1017 71 10000 5.66 70 09:20 09.06.2022
3210 Clouds 25 1015 70 10000 4.12 40 07:29 09.06.2022
3211 Clouds 28 1015 61 10000 5.66 70 04:30 09.06.2022
3212 Clouds 28 1017 58 10000 6.17 70 00:35 09.06.2022
3213 Clouds 28 1017 55 10000 5.14 60 23:18 08.06.2022
3214 Clouds 28 1016 57 10000 6.17 70 22:43 08.06.2022
3215 Clouds 28 1016 57 10000 6.17 70 22:23 08.06.2022
3216 Clouds 27 1016 60 10000 6.17 60 21:33 08.06.2022
3217 Clouds 26 1017 66 10000 5.14 70 20:25 08.06.2022
3218 Clouds 25 1016 71 10000 4.12 50 19:42 08.06.2022
3219 Clouds 23 1016 77 10000 4.12 90 18:48 08.06.2022
3220 Clouds 24 1016 78 10000 4.12 60 17:41 08.06.2022
3221 Clouds 23 1016 79 10000 3.6 80 15:54 08.06.2022
3222 Clouds 23 1016 78 10000 4.63 80 14:44 08.06.2022
3223 Clouds 23 1017 79 10000 2.57 80 12:55 08.06.2022
3224 Clouds 23 1017 77 10000 2.57 30 12:55 08.06.2022
3225 Clouds 23 1017 77 10000 2.57 30 12:55 08.06.2022
3226 Clouds 23 1017 79 10000 2.57 80 12:55 08.06.2022
3227 Clouds 23 1017 79 10000 2.57 80 12:55 08.06.2022
3228 Clouds 24 1017 76 10000 3.6 80 11:36 08.06.2022
3229 Clouds 24 1018 74 10000 5.14 70 10:51 08.06.2022
3230 Clouds 24 1017 73 10000 5.14 50 09:28 08.06.2022
3231 Clouds 25 1017 71 10000 5.66 70 08:54 08.06.2022
3232 Clouds 26 1016 70 10000 6.17 60 07:21 08.06.2022
3233 Clouds 27 1016 62 10000 6.17 70 04:47 08.06.2022
3234 Clouds 28 1016 62 10000 6.17 80 01:25 08.06.2022
3235 Clouds 28 1017 60 10000 6.69 30 23:32 07.06.2022
3236 Clouds 28 1017 62 10000 5.66 50 22:54 07.06.2022
3237 Clouds 28 1017 63 10000 5.66 50 22:34 07.06.2022
3238 Clouds 27 1017 66 10000 4.63 70 21:39 07.06.2022
3239 Clouds 26 1017 69 10000 4.63 70 21:20 07.06.2022
3240 Clouds 26 1017 68 10000 2.57 90 20:40 07.06.2022
3241 Clouds 25 1017 71 10000 3.09 0 19:51 07.06.2022
3242 Clouds 24 1016 77 10000 3.09 80 18:25 07.06.2022
3243 Clouds 24 1016 77 10000 4.12 90 17:31 07.06.2022
3244 Clouds 24 1016 78 10000 3.6 90 16:44 07.06.2022
3245 Clouds 24 1015 80 10000 3.6 90 15:58 07.06.2022
3246 Clouds 24 1016 77 10000 3.6 90 15:30 07.06.2022
3247 Clouds 24 1016 77 10000 3.6 60 14:56 07.06.2022
3248 Clouds 24 1016 77 10000 3.6 60 14:38 07.06.2022
3249 Clear 24 1016 76 10000 4.12 60 13:33 07.06.2022
3250 Clouds 24 1016 77 10000 2.57 90 12:54 07.06.2022
3251 Clouds 24 1017 75 10000 3.6 50 11:51 07.06.2022
3252 Clouds 24 1017 74 10000 4.12 60 10:48 07.06.2022
3253 Clouds 25 1016 74 10000 5.81 70 08:53 07.06.2022
3254 Clouds 26 1016 71 10000 6.17 60 07:47 07.06.2022
3255 Clouds 26 1015 69 10000 6.69 50 06:39 07.06.2022
3256 Clouds 28 1014 67 10000 6.69 50 04:39 07.06.2022
3257 Clouds 29 1016 63 10000 6.69 60 01:27 07.06.2022
3258 Clouds 28 1017 66 10000 4.63 50 23:53 06.06.2022
3259 Clouds 28 1017 65 10000 4.12 210 22:54 06.06.2022
3260 Clouds 28 1017 65 10000 4.12 210 22:29 06.06.2022
3261 Clouds 26 1017 71 10000 4.12 40 20:47 06.06.2022
3262 Clouds 24 1016 82 10000 1.54 310 19:28 06.06.2022
3263 Clouds 22 1016 86 10000 1.54 350 18:49 06.06.2022
3264 Clouds 22 1016 88 10000 1.54 350 18:21 06.06.2022
3265 Clouds 22 1016 87 10000 2.57 350 17:24 06.06.2022
3266 Clouds 22 1016 85 10000 0 0 16:18 06.06.2022
3267 Clouds 22 1016 83 10000 2.06 100 15:23 06.06.2022
3268 Clouds 23 1016 83 10000 2.57 80 14:29 06.06.2022
3269 Clouds 23 1016 82 10000 2.57 340 13:21 06.06.2022
3270 Clouds 23 1017 80 10000 2.57 90 12:35 06.06.2022
3271 Clouds 24 1017 78 10000 3.09 50 11:50 06.06.2022
3272 Clouds 24 1017 79 10000 3.6 70 10:21 06.06.2022
3273 Clouds 24 1016 78 10000 4.63 60 09:23 06.06.2022
3274 Clouds 24 1016 77 10000 4.12 80 08:31 06.06.2022
3275 Clouds 25 1015 75 10000 4.63 70 07:24 06.06.2022
3276 Clouds 27 1014 68 10000 4.12 70 04:42 06.06.2022
3277 Clouds 28 1015 64 10000 4.63 100 02:27 06.06.2022
3278 Clouds 28 1016 60 10000 4.12 60 00:57 06.06.2022
3279 Clouds 28 1016 62 10000 4.12 60 00:57 06.06.2022
3280 Clouds 28 1016 59 10000 4.12 60 00:35 06.06.2022
3281 Rain 28 1017 59 10000 4.12 40 23:25 05.06.2022
3282 Clouds 27 1017 60 10000 4.12 50 22:33 05.06.2022
3283 Clouds 25 1016 66 10000 2.06 70 20:34 05.06.2022
3284 Clouds 23 1016 73 10000 2.57 50 19:26 05.06.2022
3285 Clouds 22 1015 77 10000 2.06 50 18:20 05.06.2022
3286 Clouds 21 1015 80 10000 3.6 50 17:39 05.06.2022
3287 Clouds 21 1015 80 10000 3.6 50 17:21 05.06.2022
3288 Clouds 21 1015 81 10000 3.09 60 16:47 05.06.2022
3289 Clouds 22 1015 80 10000 3.09 70 15:41 05.06.2022
3290 Clouds 22 1016 75 10000 1.54 0 14:21 05.06.2022
3291 Clouds 22 1017 77 10000 3.09 60 12:23 05.06.2022
3292 Clouds 23 1017 75 10000 2.06 70 10:51 05.06.2022
3293 Clouds 23 1017 75 10000 1.54 10 10:24 05.06.2022
3294 Clouds 23 1016 74 10000 4.12 50 09:44 05.06.2022
3295 Clouds 24 1016 71 10000 4.63 50 08:25 05.06.2022
3296 Clouds 26 1015 62 10000 4.63 50 06:47 05.06.2022
3297 Clouds 27 1015 58 10000 4.63 70 05:20 05.06.2022
3298 Clouds 28 1015 53 10000 3.6 60 02:57 05.06.2022
3299 Clouds 28 1015 51 10000 5.14 130 01:24 05.06.2022
3300 Clouds 28 1016 51 10000 5.14 130 01:24 05.06.2022
3301 Clouds 27 1016 55 10000 3.6 40 23:36 04.06.2022
3302 Clouds 26 1016 59 10000 4.12 60 21:30 04.06.2022
3303 Clouds 24 1016 72 10000 3.6 110 19:36 04.06.2022
3304 Clouds 22 1015 77 10000 4.12 90 17:21 04.06.2022
3305 Clouds 22 1015 79 10000 2.06 100 16:20 04.06.2022
3306 Clouds 22 1015 78 10000 2.06 80 15:45 04.06.2022
3307 Clouds 23 1016 77 10000 3.09 60 14:18 04.06.2022
3308 Clouds 23 1017 73 10000 3.09 70 11:43 04.06.2022
3309 Clouds 24 1017 73 10000 4.12 60 10:55 04.06.2022
3310 Clouds 23 1016 76 10000 4.47 50 09:59 04.06.2022
3311 Clouds 24 1017 72 10000 4.63 50 09:38 04.06.2022
3312 Clouds 24 1016 73 10000 6.71 40 08:39 04.06.2022
3313 Clear 25 1015 71 10000 5.81 50 07:00 04.06.2022
3314 Clouds 27 1015 63 10000 5.66 50 04:29 04.06.2022
3315 Clouds 27 1017 62 10000 5.66 50 00:24 04.06.2022
3316 Clouds 28 1016 62 10000 6.17 50 23:19 03.06.2022
3317 Clouds 27 1016 65 10000 3.6 50 21:54 03.06.2022
3318 Clouds 25 1016 69 10000 3.6 60 20:40 03.06.2022
3319 Clouds 24 1016 75 10000 3.09 60 19:49 03.06.2022
3320 Clouds 21 1014 87 10000 3.72 54 16:59 03.06.2022
3321 Clouds 22 1015 84 10000 1.79 350 15:57 03.06.2022
3322 Clouds 23 1015 78 10000 3.09 70 14:47 03.06.2022
3323 Rain 23 1016 79 10000 3.09 80 12:26 03.06.2022
3324 Clouds 24 1016 77 10000 4.47 40 09:58 03.06.2022
3325 Clouds 24 1017 73 10000 4.63 40 09:29 03.06.2022
3326 Clouds 25 1016 75 10000 5.66 60 07:50 03.06.2022
3327 Clouds 25 1015 77 10000 5.66 60 07:19 03.06.2022
3328 Clouds 25 1015 74 10000 4.63 30 06:29 03.06.2022
3329 Clouds 26 1015 67 10000 5.66 60 04:35 03.06.2022
3330 Clouds 27 1016 71 10000 6.69 50 00:21 03.06.2022
3331 Clouds 27 1017 70 10000 4.63 50 22:34 02.06.2022
3332 Clouds 25 1016 80 10000 4.63 60 20:57 02.06.2022
3333 Rain 24 1016 84 10000 2.24 360 19:58 02.06.2022
3334 Clouds 24 1016 79 10000 4.12 70 19:39 02.06.2022
3335 Clouds 23 1016 79 10000 3.6 60 18:51 02.06.2022
3336 Clear 23 1015 79 10000 3.6 60 16:30 02.06.2022
3337 Clouds 23 1015 77 10000 3.6 60 15:47 02.06.2022
3338 Clouds 23 1016 77 10000 4.12 70 13:31 02.06.2022
3339 Clouds 24 1016 76 10000 6.69 70 12:49 02.06.2022
3340 Clouds 24 1017 77 10000 6.17 60 10:48 02.06.2022
3341 Clouds 24 1017 75 10000 6.71 60 09:30 02.06.2022
3342 Clouds 24 1016 75 10000 6.17 60 08:45 02.06.2022
3343 Clouds 24 1016 75 10000 6.17 60 08:23 02.06.2022
3344 Clouds 26 1015 68 10000 6.17 60 06:21 02.06.2022
3345 Clouds 28 1015 60 10000 6.17 70 03:50 02.06.2022
3346 Clouds 28 1015 62 10000 6.71 60 00:55 02.06.2022
3347 Clouds 27 1016 69 10000 5.14 80 22:58 01.06.2022
3348 Clouds 27 1017 66 10000 6.69 50 22:18 01.06.2022
3349 Clouds 26 1017 70 10000 4.12 80 21:24 01.06.2022
3350 Clouds 25 1016 75 10000 5.14 60 20:38 01.06.2022
3351 Clouds 24 1016 81 10000 3.09 50 19:52 01.06.2022
3352 Clouds 23 1016 89 10000 2.06 20 18:37 01.06.2022
3353 Clouds 23 1014 90 10000 4.16 85 16:58 01.06.2022
3354 Clouds 23 1014 86 10000 2.57 40 15:43 01.06.2022
3355 Clouds 23 1014 84 10000 2.57 50 14:49 01.06.2022
3356 Clouds 23 1015 81 10000 4.12 50 13:23 01.06.2022
3357 Clouds 24 1016 80 10000 5.66 70 10:48 01.06.2022
3358 Clouds 24 1016 77 10000 6.71 50 09:29 01.06.2022
3359 Clouds 24 1015 77 10000 5.66 60 08:18 01.06.2022
3360 Clouds 25 1015 74 10000 7.72 50 07:20 01.06.2022
3361 Clouds 27 1014 63 10000 7.2 70 03:55 01.06.2022
3362 Clouds 28 1015 64 10000 6.71 40 23:47 31.05.2022
3363 Clouds 28 1015 63 10000 3.09 90 22:41 31.05.2022
3364 Clouds 27 1015 66 10000 5.14 70 22:22 31.05.2022
3365 Clouds 27 1015 67 10000 3.6 80 21:23 31.05.2022
3366 Clouds 26 1015 72 10000 4.63 70 20:43 31.05.2022
3367 Clouds 24 1015 77 10000 4.63 50 19:31 31.05.2022
3368 Clouds 23 1014 80 10000 3.6 80 18:26 31.05.2022
3369 Rain 23 1014 81 10000 5.14 80 17:37 31.05.2022
3370 Clouds 23 1014 81 10000 4.12 80 15:45 31.05.2022
3371 Clouds 23 1014 81 10000 5.14 80 15:22 31.05.2022
3372 Clouds 23 1016 79 10000 3.09 70 12:41 31.05.2022
3373 Clouds 23 1016 79 10000 3.09 70 12:18 31.05.2022
3374 Clouds 24 1016 78 10000 3.6 60 10:22 31.05.2022
3375 Clouds 25 1014 72 10000 7.2 70 07:43 31.05.2022
3376 Clouds 26 1013 66 10000 7.72 60 05:38 31.05.2022
3377 Clouds 28 1014 61 10000 7.2 30 03:41 31.05.2022
3378 Clouds 27 1016 60 10000 6.17 60 23:45 30.05.2022
3379 Clouds 28 1015 61 10000 6.17 60 23:23 30.05.2022
3380 Clouds 27 1016 63 10000 5.66 60 22:33 30.05.2022
3381 Clouds 26 1016 67 10000 5.14 60 21:40 30.05.2022
3382 Clouds 25 1016 73 10000 5.14 70 20:43 30.05.2022
3383 Clouds 23 1016 81 10000 4.63 60 19:40 30.05.2022
3384 Clouds 22 1014 87 10000 2.57 330 17:48 30.05.2022
3385 Clouds 21 1014 87 10000 2.57 330 17:20 30.05.2022
3386 Clouds 21 1014 87 10000 0 0 15:51 30.05.2022
3387 Clouds 22 1015 85 10000 1.54 50 13:21 30.05.2022
3388 Clear 23 1016 81 10000 3.09 30 11:30 30.05.2022
3389 Clouds 24 1015 81 10000 4.63 80 09:41 30.05.2022
3390 Clouds 24 1014 82 10000 2.06 350 07:29 30.05.2022
3391 Rain 24 1014 83 10000 3.09 320 05:54 30.05.2022
3392 Clouds 26 1015 77 10000 3.09 90 03:22 30.05.2022
3393 Clouds 26 1015 78 10000 4.12 160 23:57 29.05.2022
3394 Rain 25 1016 78 10000 3.09 130 22:40 29.05.2022
3395 Clouds 25 1016 82 10000 0 0 21:44 29.05.2022
3396 Clouds 23 1016 89 10000 2.06 350 20:18 29.05.2022
3397 Clouds 22 1016 92 10000 1.54 120 19:28 29.05.2022
3398 Rain 22 1015 91 10000 3.09 30 17:56 29.05.2022
3399 Clouds 23 1014 91 10000 2.26 74 15:59 29.05.2022
3400 Clouds 23 1015 90 10000 0 0 15:40 29.05.2022
3401 Clouds 23 1016 87 10000 1.54 20 14:44 29.05.2022
3402 Clouds 24 1017 83 10000 4.12 80 12:21 29.05.2022
3403 Clouds 24 1017 81 10000 3.6 80 10:56 29.05.2022
3404 Clouds 24 1016 78 10000 5.14 60 09:54 29.05.2022
3405 Clouds 25 1015 75 10000 6.17 50 07:42 29.05.2022
3406 Clouds 26 1015 72 10000 6.17 60 04:51 29.05.2022
3407 Clouds 26 1015 73 10000 6.17 60 04:31 29.05.2022
3408 Clouds 27 1016 69 10000 5.66 60 00:48 29.05.2022
3409 Clouds 28 1017 67 10000 7.2 80 23:42 28.05.2022
3410 Clouds 27 1017 66 10000 6.17 80 22:56 28.05.2022
3411 Clouds 26 1017 70 10000 4.63 70 21:45 28.05.2022
3412 Clouds 25 1017 79 10000 4.12 70 20:40 28.05.2022
3413 Clouds 23 1017 82 10000 3.09 60 19:19 28.05.2022
3414 Clouds 23 1016 84 10000 2.57 110 18:19 28.05.2022
3415 Clouds 23 1016 85 10000 3.09 70 16:57 28.05.2022
3416 Clouds 23 1016 82 10000 3.09 110 15:45 28.05.2022
3417 Clouds 23 1016 82 10000 3.09 110 15:19 28.05.2022
3418 Clouds 23 1017 82 10000 3.09 50 13:26 28.05.2022
3419 Rain 23 1017 83 10000 4.63 80 12:41 28.05.2022
3420 Clouds 23 1017 81 10000 4.63 70 11:28 28.05.2022
3421 Clouds 23 1017 80 10000 5.14 80 10:32 28.05.2022
3422 Clouds 23 1017 79 10000 4.12 60 09:39 28.05.2022
3423 Clouds 23 1015 81 10000 4.12 80 07:53 28.05.2022
3424 Clouds 24 1015 77 10000 6.69 70 06:32 28.05.2022
3425 Clouds 26 1015 64 10000 4.63 20 04:21 28.05.2022
3426 Clouds 27 1015 58 10000 4.63 70 00:50 28.05.2022
3427 Clouds 27 1016 55 10000 4.63 60 23:53 27.05.2022
3428 Clouds 27 1016 49 10000 4.63 70 22:24 27.05.2022
3429 Clear 26 1015 56 10000 4.64 90 20:59 27.05.2022
3430 Clouds 26 1016 58 10000 4.63 50 20:40 27.05.2022
3431 Clouds 25 1015 62 10000 5.14 70 19:56 27.05.2022
3432 Clouds 24 1016 63 10000 5.14 70 19:34 27.05.2022
3433 Clouds 23 1014 69 10000 4.63 80 18:37 27.05.2022
3434 Clouds 23 1014 74 10000 3.6 80 16:42 27.05.2022
3435 Clouds 23 1013 73 10000 4.12 80 15:46 27.05.2022
3436 Clear 23 1014 73 10000 4.12 50 14:45 27.05.2022
3437 Clear 23 1014 73 10000 4.12 80 13:35 27.05.2022
3438 Clouds 23 1015 71 10000 5.14 60 11:43 27.05.2022
3439 Clouds 23 1015 70 10000 5.14 60 11:25 27.05.2022
3440 Clouds 23 1015 70 10000 6.17 70 10:35 27.05.2022
3441 Clouds 24 1015 68 10000 5.14 60 09:42 27.05.2022
3442 Clouds 24 1016 65 10000 3.6 70 08:24 27.05.2022
3443 Clouds 26 1015 59 10000 6.17 50 06:45 27.05.2022
3444 Clouds 28 1013 47 10000 5.66 50 02:53 27.05.2022
3445 Clouds 28 1015 50 10000 5.66 60 00:53 27.05.2022
3446 Clouds 27 1015 51 10000 5.66 60 22:47 26.05.2022
3447 Clouds 26 1015 54 10000 5.14 60 21:43 26.05.2022
3448 Clouds 25 1014 63 10000 4.92 50 20:59 26.05.2022
3449 Clouds 24 1015 64 10000 4.63 70 19:27 26.05.2022
3450 Clouds 23 1014 63 10000 5.14 70 18:21 26.05.2022
3451 Clouds 23 1013 66 10000 4.63 90 16:56 26.05.2022
3452 Clouds 22 1014 65 10000 4.12 80 15:46 26.05.2022
3453 Clouds 23 1014 66 10000 5.14 70 14:48 26.05.2022
3454 Clouds 23 1015 69 10000 5.66 90 13:23 26.05.2022
3455 Clouds 23 1016 69 10000 4.63 70 11:36 26.05.2022
3456 Clouds 23 1015 69 10000 5.14 70 10:24 26.05.2022
3457 Clouds 24 1016 68 10000 5.14 90 09:35 26.05.2022
3458 Clouds 24 1015 66 10000 5.66 60 08:37 26.05.2022
3459 Clouds 26 1014 53 10000 8.23 40 05:22 26.05.2022
3460 Clouds 27 1015 58 10000 6.71 60 00:57 26.05.2022
3461 Clouds 27 1016 57 10000 6.71 60 23:40 25.05.2022
3462 Clouds 27 1016 61 10000 5.66 50 22:22 25.05.2022
3463 Clouds 26 1016 63 10000 5.14 70 21:33 25.05.2022
3464 Clouds 25 1016 67 10000 5.14 80 20:37 25.05.2022
3465 Clouds 23 1015 76 10000 4.12 70 19:29 25.05.2022
3466 Clouds 22 1015 83 10000 2.57 80 17:43 25.05.2022
3467 Clouds 22 1014 83 10000 3.6 80 16:38 25.05.2022
3468 Clouds 22 1015 82 10000 3.6 80 15:54 25.05.2022
3469 Clouds 22 1015 83 10000 3.09 80 14:54 25.05.2022
3470 Clouds 22 1015 83 10000 3.09 80 14:33 25.05.2022
3471 Clouds 22 1016 81 10000 3.09 80 13:54 25.05.2022
3472 Clouds 22 1014 86 10000 5.71 62 12:39 25.05.2022
3473 Clouds 23 1016 71 10000 4.63 60 10:49 25.05.2022
3474 Clouds 23 1016 70 10000 4.63 60 10:18 25.05.2022
3475 Clouds 24 1015 73 10000 4.02 50 08:37 25.05.2022
3476 Clouds 24 1013 72 10000 5.76 62 07:23 25.05.2022
3477 Clouds 27 1014 60 10000 6.17 30 04:22 25.05.2022
3478 Clouds 28 1017 57 10000 6.17 50 00:19 25.05.2022
3479 Clouds 27 1017 59 10000 5.66 70 23:43 24.05.2022
3480 Clouds 27 1018 59 10000 4.12 50 22:32 24.05.2022
3481 Clouds 27 1018 61 10000 5.14 60 21:40 24.05.2022
3482 Clouds 26 1018 62 10000 5.14 60 21:21 24.05.2022
3483 Clouds 24 1017 73 10000 4.12 80 19:48 24.05.2022
3484 Clouds 23 1017 79 10000 3.09 80 18:56 24.05.2022
3485 Clouds 22 1016 81 10000 4.63 80 16:53 24.05.2022
3486 Clouds 22 1016 81 10000 4.63 80 16:23 24.05.2022
3487 Clouds 23 1017 80 10000 3.6 90 14:58 24.05.2022
3488 Clouds 23 1017 80 10000 3.6 90 14:21 24.05.2022
3489 Clouds 23 1018 77 10000 3.09 100 12:50 24.05.2022
3490 Clouds 24 1018 77 10000 5.14 70 11:33 24.05.2022
3491 Clouds 24 1018 77 10000 5.14 80 09:45 24.05.2022
3492 Clouds 24 1018 78 10000 5.14 60 08:50 24.05.2022
3493 Clouds 25 1017 72 10000 5.66 70 06:57 24.05.2022
3494 Clouds 26 1017 70 10000 5.14 60 04:20 24.05.2022
3495 Clouds 27 1016 68 10000 4.12 70 01:55 24.05.2022
3496 Clouds 28 1018 61 10000 6.69 70 01:36 24.05.2022
3497 Clouds 28 1019 57 10000 4.12 50 23:31 23.05.2022
3498 Clouds 27 1019 64 10000 3.6 80 21:56 23.05.2022
3499 Clouds 27 1020 61 10000 6.17 50 21:29 23.05.2022
3500 Clouds 25 1020 68 10000 4.12 70 20:35 23.05.2022
3501 Clouds 24 1019 73 10000 5.14 60 19:33 23.05.2022
3502 Clear 23 1016 76 10000 4.02 60 18:59 23.05.2022
3503 Clouds 23 1017 75 10000 4.12 60 18:31 23.05.2022
3504 Clouds 23 1017 76 10000 4.63 70 17:24 23.05.2022
3505 Clouds 23 1018 72 10000 4.12 50 15:31 23.05.2022
3506 Clouds 24 1020 73 10000 4.63 80 13:22 23.05.2022
3507 Clouds 24 1018 75 10000 5.36 70 11:33 23.05.2022
3508 Clouds 24 1018 75 10000 5.66 70 10:31 23.05.2022
3509 Clouds 24 1020 75 10000 6.69 80 09:39 23.05.2022
3510 Clouds 24 1019 75 10000 5.14 70 08:32 23.05.2022
3511 Clouds 25 1018 71 10000 6.69 70 06:46 23.05.2022
3512 Clouds 26 1018 67 10000 7.2 50 05:39 23.05.2022
3513 Clouds 27 1018 65 10000 7.72 60 02:34 23.05.2022
3514 Clouds 27 1018 65 10000 6.17 60 01:42 23.05.2022
3515 Clouds 27 1019 65 10000 7.2 60 00:38 23.05.2022
3516 Clouds 27 1017 63 10000 5.14 70 22:42 22.05.2022
3517 Clouds 26 1019 68 10000 5.14 70 21:55 22.05.2022
3518 Clouds 26 1019 68 10000 5.14 70 21:36 22.05.2022
3519 Clouds 26 1020 69 10000 5.66 60 20:32 22.05.2022
3520 Clouds 25 1019 73 10000 4.63 60 19:57 22.05.2022
3521 Clouds 24 1018 77 10000 4.02 60 18:56 22.05.2022
3522 Clouds 24 1018 76 10000 4.12 60 18:25 22.05.2022
3523 Clouds 23 1018 77 10000 4.12 80 17:37 22.05.2022
3524 Clouds 23 1018 78 10000 4.12 70 16:39 22.05.2022
3525 Clouds 23 1018 77 10000 6.17 60 14:53 22.05.2022
3526 Clouds 23 1017 79 10000 4.63 90 13:54 22.05.2022
3527 Clouds 24 1019 73 10000 6.69 70 12:52 22.05.2022
3528 Clouds 24 1017 73 10000 6.71 70 12:52 22.05.2022
3529 Clouds 25 1020 71 10000 4.63 50 11:52 22.05.2022
3530 Clouds 25 1020 70 10000 7.2 70 10:24 22.05.2022
3531 Clouds 25 1019 72 10000 4.63 60 09:18 22.05.2022
3532 Clouds 26 1017 69 10000 7.2 70 07:22 22.05.2022
3533 Clouds 26 1017 68 10000 7.2 60 06:24 22.05.2022
3534 Clouds 29 1016 60 10000 6.69 50 02:33 22.05.2022
3535 Clouds 28 1016 64 10000 6.17 150 00:44 22.05.2022
3536 Clouds 28 1018 69 10000 6.71 150 23:55 21.05.2022
3537 Clouds 28 1018 70 10000 6.71 150 23:21 21.05.2022
3538 Clouds 27 1019 75 10000 3.6 180 21:45 21.05.2022
3539 Clouds 27 1019 79 10000 3.6 180 21:25 21.05.2022
3540 Clouds 26 1017 83 10000 0 0 20:25 21.05.2022
3541 Clouds 24 1018 90 10000 0 0 19:37 21.05.2022
3542 Clouds 24 1016 91 10000 0 0 17:57 21.05.2022
3543 Clouds 23 1014 92 10000 3.11 64 16:53 21.05.2022
3544 Clouds 23 1016 95 10000 2.06 360 14:38 21.05.2022
3545 Clouds 23 1015 93 10000 1.54 350 13:53 21.05.2022
3546 Clouds 23 1017 93 10000 2.57 340 12:57 21.05.2022
3547 Clouds 24 1016 93 10000 2.57 340 12:37 21.05.2022
3548 Rain 24 1017 92 10000 3.09 340 10:44 21.05.2022
3549 Clouds 24 1017 92 10000 4.12 330 09:48 21.05.2022
3550 Clouds 24 1015 94 10000 0.97 121 08:58 21.05.2022
3551 Clouds 25 1016 88 10000 2.06 170 08:33 21.05.2022
3552 Clouds 27 1014 82 10000 3.58 170 04:33 21.05.2022
3553 Clouds 27 1016 80 10000 3.6 190 00:38 21.05.2022
3554 Clouds 26 1017 82 10000 4.12 280 22:59 20.05.2022
3555 Clouds 26 1018 86 10000 4.12 280 22:24 20.05.2022
3556 Rain 25 1017 90 10000 2.06 20 21:47 20.05.2022
3557 Rain 24 1017 96 10000 2.57 360 20:57 20.05.2022
3558 Rain 23 1017 97 10000 2.57 360 20:25 20.05.2022
3559 Rain 23 1017 94 10000 0 0 19:26 20.05.2022
3560 Rain 23 1017 94 9656 1.54 360 18:46 20.05.2022
3561 Clouds 24 1015 87 10000 1.54 20 17:24 20.05.2022
3562 Clouds 25 1016 83 10000 0 0 16:19 20.05.2022
3563 Clouds 25 1016 82 10000 2.57 210 15:47 20.05.2022
3564 Clouds 25 1016 82 10000 2.57 190 14:30 20.05.2022
3565 Clear 25 1016 81 10000 3.6 190 13:55 20.05.2022
3566 Clouds 26 1017 79 10000 2.06 180 11:34 20.05.2022
3567 Clouds 26 1017 78 10000 2.06 120 10:19 20.05.2022
3568 Clouds 26 1016 78 10000 2.57 150 08:45 20.05.2022
3569 Clouds 26 1016 76 10000 3.6 160 07:18 20.05.2022
3570 Clouds 26 1016 76 10000 4.12 150 06:32 20.05.2022
3571 Clouds 28 1016 72 10000 5.66 220 04:42 20.05.2022
3572 Clouds 28 1017 69 10000 5.66 220 00:48 20.05.2022
3573 Clouds 27 1017 74 10000 4.12 190 22:47 19.05.2022
3574 Clouds 27 1017 73 10000 4.12 190 22:19 19.05.2022
3575 Clouds 27 1017 76 10000 5.14 200 21:42 19.05.2022
3576 Clouds 27 1017 76 10000 5.14 200 21:22 19.05.2022
3577 Clouds 26 1016 79 10000 5.66 210 20:32 19.05.2022
3578 Rain 25 1015 85 10000 3.6 200 19:40 19.05.2022
3579 Clouds 25 1015 85 10000 4.12 200 18:19 19.05.2022
3580 Clouds 24 1014 82 10000 6.17 190 16:32 19.05.2022
3581 Clouds 24 1014 82 10000 3.6 190 14:52 19.05.2022
3582 Clouds 24 1014 82 10000 3.6 190 14:23 19.05.2022
3583 Clouds 24 1015 84 10000 5.14 200 12:35 19.05.2022
3584 Rain 23 1016 85 10000 6.17 180 11:25 19.05.2022
3585 Rain 21 1017 85 10000 4.12 110 09:19 19.05.2022
3586 Rain 22 1018 88 9656 4.63 280 07:48 19.05.2022
3587 Clouds 25 1016 78 10000 4.12 180 04:50 19.05.2022
3588 Rain 26 1016 76 10000 5.66 160 01:58 19.05.2022
3589 Clouds 26 1016 76 10000 5.81 170 23:55 18.05.2022
3590 Clouds 26 1016 76 10000 5.66 170 22:46 18.05.2022
3591 Clouds 25 1015 79 10000 5.66 170 21:47 18.05.2022
3592 Clouds 25 1015 80 10000 5.66 170 21:26 18.05.2022
3593 Clouds 25 1016 80 10000 4.63 170 20:24 18.05.2022
3594 Clouds 25 1015 81 10000 4.63 160 19:39 18.05.2022
3595 Clouds 24 1014 82 10000 5.14 150 18:21 18.05.2022
3596 Clouds 24 1014 83 10000 6.17 160 17:41 18.05.2022
3597 Clouds 24 1014 83 10000 6.17 160 17:23 18.05.2022
3598 Rain 24 1015 81 10000 5.14 160 16:23 18.05.2022
3599 Rain 24 1015 80 8047 4.47 180 15:39 18.05.2022
3600 Clouds 24 1015 80 10000 5.66 160 14:34 18.05.2022
3601 Clouds 24 1016 83 10000 4.63 160 13:22 18.05.2022
3602 Clouds 24 1016 83 10000 5.14 160 12:40 18.05.2022
3603 Clouds 24 1017 82 10000 4.12 160 11:34 18.05.2022
3604 Clouds 24 1017 81 10000 4.12 160 10:52 18.05.2022
3605 Rain 25 1017 76 10000 3.6 200 08:53 18.05.2022
3606 Clouds 25 1016 73 10000 4.12 160 07:29 18.05.2022
3607 Clouds 27 1015 68 10000 3.6 160 05:21 18.05.2022
3608 Clouds 27 1017 65 10000 4.12 150 00:52 18.05.2022
3609 Clouds 28 1017 63 10000 4.12 150 00:20 18.05.2022
3610 Clouds 26 1017 67 10000 4.63 110 21:36 17.05.2022
3611 Clouds 26 1017 70 10000 3.6 130 21:18 17.05.2022
3612 Clouds 23 1017 78 10000 1.54 20 19:49 17.05.2022
3613 Clouds 22 1017 82 10000 1.54 20 19:26 17.05.2022
3614 Clouds 20 1016 91 10000 2.57 360 17:49 17.05.2022
3615 Clouds 20 1015 90 10000 1.12 155 16:58 17.05.2022
3616 Clouds 21 1016 89 10000 1.54 310 16:29 17.05.2022
3617 Clouds 21 1017 88 10000 0 0 15:18 17.05.2022
3618 Clear 21 1017 88 10000 1.54 40 14:29 17.05.2022
3619 Clouds 21 1017 91 10000 1.54 350 13:31 17.05.2022
3620 Clouds 22 1018 87 10000 2.57 330 10:51 17.05.2022
3621 Clouds 23 1015 86 10000 3.09 80 08:55 17.05.2022
3622 Rain 23 1017 85 10000 2.57 0 07:59 17.05.2022
3623 Rain 24 1016 79 10000 2.57 0 06:36 17.05.2022
3624 Clouds 26 1017 67 10000 4.12 90 02:27 17.05.2022
3625 Rain 25 1018 74 10000 4.63 100 00:28 17.05.2022
3626 Rain 24 1017 80 10000 5.14 90 22:41 16.05.2022
3627 Rain 24 1018 81 10000 3.6 170 21:33 16.05.2022
3628 Clouds 23 1018 83 10000 3.09 0 20:44 16.05.2022
3629 Clouds 23 1018 84 10000 3.09 70 19:22 16.05.2022
3630 Clouds 21 1016 87 10000 1.34 30 17:58 16.05.2022
3631 Clouds 23 1017 84 10000 4.12 80 15:42 16.05.2022
3632 Clouds 23 1018 79 10000 2.57 70 13:48 16.05.2022
3633 Clouds 23 1018 79 10000 3.6 80 12:46 16.05.2022
3634 Clouds 23 1018 76 10000 4.12 90 10:52 16.05.2022
3635 Clouds 23 1017 78 10000 4.12 80 08:55 16.05.2022
3636 Clouds 24 1016 77 10000 5.14 90 06:33 16.05.2022
3637 Clouds 24 1016 77 10000 5.14 90 06:33 16.05.2022
3638 Clouds 26 1017 67 10000 5.66 110 02:33 16.05.2022
3639 Clouds 27 1017 62 10000 4.63 80 22:52 15.05.2022
3640 Clouds 27 1018 56 10000 4.63 80 22:28 15.05.2022
3641 Clouds 26 1018 64 10000 5.14 100 21:38 15.05.2022
3642 Clouds 25 1018 70 10000 2.24 80 20:53 15.05.2022
3643 Clouds 23 1016 79 10000 2.68 70 18:53 15.05.2022
3644 Clouds 23 1016 78 10000 4.63 90 17:45 15.05.2022
3645 Clouds 23 1016 80 10000 5.14 80 15:26 15.05.2022
3646 Clouds 23 1016 79 10000 5.14 80 13:47 15.05.2022
3647 Clouds 23 1017 78 10000 3.6 70 12:21 15.05.2022
3648 Clouds 23 1018 79 10000 3.6 90 11:27 15.05.2022
3649 Clouds 23 1017 80 10000 4.92 60 09:57 15.05.2022
3650 Clouds 24 1016 70 10000 7.2 70 07:25 15.05.2022
3651 Clouds 25 1015 66 10000 6.17 40 06:56 15.05.2022
3652 Clouds 27 1016 57 10000 6.17 60 03:40 15.05.2022
3653 Clouds 27 1017 57 10000 6.69 60 00:42 15.05.2022
3654 Clouds 28 1018 54 10000 7.2 60 23:38 14.05.2022
3655 Clouds 27 1018 52 10000 6.71 80 22:39 14.05.2022
3656 Clouds 26 1018 62 10000 8.05 60 21:26 14.05.2022
3657 Clouds 25 1018 69 10000 8.23 60 20:28 14.05.2022
3658 Clouds 23 1017 77 10000 4.63 60 19:21 14.05.2022
3659 Clouds 23 1016 79 10000 4.47 60 18:59 14.05.2022
3660 Rain 22 1016 82 10000 5.14 80 17:53 14.05.2022
3661 Rain 22 1016 82 10000 5.14 70 16:23 14.05.2022
3662 Clouds 23 1017 80 10000 4.12 70 14:40 14.05.2022
3663 Clouds 23 1017 80 10000 4.12 70 14:22 14.05.2022
3664 Clouds 23 1018 78 10000 5.14 70 11:48 14.05.2022
3665 Clouds 23 1016 74 10000 5.14 70 10:45 14.05.2022
3666 Clouds 24 1016 73 10000 5.14 70 10:19 14.05.2022
3667 Clouds 23 1017 74 10000 5.66 70 09:25 14.05.2022
3668 Clouds 24 1016 75 10000 4.63 60 07:34 14.05.2022
3669 Clouds 26 1015 63 10000 6.71 50 04:43 14.05.2022
3670 Clouds 27 1019 62 10000 6.17 50 00:43 14.05.2022
3671 Clouds 27 1018 63 10000 5.14 60 23:28 13.05.2022
3672 Clouds 27 1018 60 10000 6.71 60 22:55 13.05.2022
3673 Clouds 27 1019 61 10000 6.69 60 22:21 13.05.2022
3674 Clouds 26 1017 66 10000 4.92 90 20:59 13.05.2022
3675 Clouds 25 1018 66 10000 5.14 90 20:38 13.05.2022
3676 Clouds 25 1018 66 10000 5.14 90 20:20 13.05.2022
3677 Rain 23 1017 76 10000 5.14 80 19:18 13.05.2022
3678 Rain 22 1017 78 10000 5.14 70 17:42 13.05.2022
3679 Rain 22 1017 78 10000 5.14 70 17:22 13.05.2022
3680 Clouds 23 1016 74 10000 5.14 80 15:46 13.05.2022
3681 Clouds 24 1017 72 10000 5.14 80 14:39 13.05.2022
3682 Clouds 24 1018 72 10000 5.66 70 12:53 13.05.2022
3683 Clouds 24 1019 74 10000 5.66 80 11:54 13.05.2022
3684 Clouds 24 1018 75 10000 6.17 80 09:55 13.05.2022
3685 Clouds 24 1018 73 10000 6.17 80 09:26 13.05.2022
3686 Clouds 24 1017 71 10000 9.26 90 07:51 13.05.2022
3687 Clouds 25 1016 72 10000 8.75 50 06:50 13.05.2022
3688 Clouds 25 1015 73 10000 6.69 80 04:54 13.05.2022
3689 Clouds 28 1017 59 10000 9.77 50 00:57 13.05.2022
3690 Clouds 27 1018 60 10000 6.71 80 22:49 12.05.2022
3691 Clouds 27 1018 62 10000 6.69 80 22:30 12.05.2022
3692 Clouds 25 1018 69 10000 5.66 60 20:49 12.05.2022
3693 Clouds 24 1017 71 10000 5.14 70 19:26 12.05.2022
3694 Clouds 23 1017 75 10000 5.66 60 18:25 12.05.2022
3695 Clouds 23 1016 76 10000 4.12 80 16:39 12.05.2022
3696 Clear 23 1017 76 10000 4.12 100 14:52 12.05.2022
3697 Clouds 23 1017 75 10000 6.17 80 13:48 12.05.2022
3698 Clouds 24 1019 73 10000 4.63 50 11:31 12.05.2022
3699 Clouds 24 1018 73 10000 5.14 80 10:32 12.05.2022
3700 Clouds 24 1017 74 10000 6.71 70 08:52 12.05.2022
3701 Clouds 24 1017 74 10000 6.71 70 08:52 12.05.2022
3702 Clouds 24 1017 74 10000 6.71 70 08:52 12.05.2022
3703 Clouds 24 1017 74 10000 6.71 70 08:52 12.05.2022
3704 Clouds 24 1017 74 10000 6.71 70 08:52 12.05.2022
3705 Clouds 24 1016 76 10000 8.05 70 07:58 12.05.2022
3706 Clouds 24 1016 73 10000 7.2 90 06:58 12.05.2022
3707 Clouds 27 1015 59 10000 8.23 70 03:46 12.05.2022
3708 Clouds 27 1016 63 10000 7.72 40 00:50 12.05.2022
3709 Clouds 27 1016 66 10000 5.36 100 22:59 11.05.2022
3710 Clouds 26 1017 64 10000 6.69 90 22:18 11.05.2022
3711 Clouds 26 1017 68 10000 6.17 70 21:24 11.05.2022
3712 Clouds 26 1017 68 10000 6.17 70 21:24 11.05.2022
3713 Clouds 23 1017 77 10000 4.63 80 19:57 11.05.2022
3714 Clouds 23 1016 80 10000 5.14 60 17:27 11.05.2022
3715 Clouds 22 1016 81 10000 4.12 50 16:19 11.05.2022
3716 Clouds 23 1017 78 10000 3.09 60 14:45 11.05.2022
3717 Clouds 23 1015 77 10000 3.09 60 14:24 11.05.2022
3718 Clouds 23 1017 74 10000 4.63 70 12:23 11.05.2022
3719 Rain 23 1018 74 10000 4.63 90 11:47 11.05.2022
3720 Clouds 24 1018 73 10000 5.66 50 09:29 11.05.2022
3721 Clouds 25 1015 67 10000 7.72 60 06:27 11.05.2022
3722 Clouds 27 1016 65 10000 7.2 70 01:29 11.05.2022
3723 Clouds 26 1017 62 10000 7.72 50 22:56 10.05.2022
3724 Clouds 26 1017 60 10000 7.72 50 22:21 10.05.2022
3725 Clouds 26 1018 61 10000 7.2 40 21:21 10.05.2022
3726 Clouds 25 1018 72 10000 5.14 70 20:21 10.05.2022
3727 Clouds 23 1016 78 10000 5.14 80 18:36 10.05.2022
3728 Clouds 23 1016 79 10000 5.14 80 17:37 10.05.2022
3729 Clouds 23 1015 83 10000 3.58 40 15:56 10.05.2022
3730 Rain 22 1017 87 10000 7.2 80 12:51 10.05.2022
3731 Haze 22 1017 87 10000 5.66 90 11:53 10.05.2022
3732 Rain 22 1017 87 10000 7.2 80 11:28 10.05.2022
3733 Rain 22 1017 87 10000 6.71 70 10:55 10.05.2022
3734 Clouds 23 1017 86 10000 6.71 50 09:28 10.05.2022
3735 Clouds 24 1016 80 10000 6.71 70 07:51 10.05.2022
3736 Clouds 26 1015 68 10000 7.72 60 05:43 10.05.2022
3737 Clouds 27 1016 60 10000 6.69 50 01:37 10.05.2022
3738 Clouds 27 1018 57 10000 7.2 60 23:42 09.05.2022
3739 Clouds 27 1018 58 10000 7.2 60 23:42 09.05.2022
3740 Clouds 27 1018 58 10000 5.66 80 22:30 09.05.2022
3741 Clouds 26 1018 64 10000 6.17 90 21:25 09.05.2022
3742 Clouds 24 1018 75 10000 5.14 50 19:52 09.05.2022
3743 Clouds 23 1016 82 10000 5.36 60 17:59 09.05.2022
3744 Clouds 23 1017 77 10000 4.63 50 16:55 09.05.2022
3745 Clouds 23 1016 77 10000 5.14 80 15:54 09.05.2022
3746 Clouds 24 1018 72 10000 5.14 60 15:34 09.05.2022
3747 Clouds 23 1017 75 10000 5.14 80 14:33 09.05.2022
3748 Clouds 23 1018 75 10000 5.14 50 13:51 09.05.2022
3749 Clouds 23 1019 74 10000 6.17 70 12:30 09.05.2022
3750 Rain 24 1019 74 10000 7.2 60 11:43 09.05.2022
3751 Clouds 24 1019 75 10000 6.17 70 10:45 09.05.2022
3752 Clouds 24 1018 74 10000 6.71 60 09:39 09.05.2022
3753 Clouds 24 1017 76 10000 6.69 80 07:56 09.05.2022
3754 Clouds 26 1017 68 10000 6.17 60 04:33 09.05.2022
3755 Clouds 26 1017 68 10000 6.17 60 04:33 09.05.2022
3756 Clouds 26 1017 68 10000 6.17 60 04:33 09.05.2022
3757 Clouds 27 1019 67 10000 7.2 60 00:21 09.05.2022
3758 Clouds 27 1019 68 10000 6.69 90 22:57 08.05.2022
3759 Clouds 26 1019 68 10000 4.63 100 22:22 08.05.2022
3760 Clouds 25 1019 72 10000 7.72 60 20:37 08.05.2022
3761 Clouds 24 1019 76 10000 5.66 60 19:53 08.05.2022
3762 Clouds 23 1018 78 10000 5.14 70 18:59 08.05.2022
3763 Clouds 23 1018 78 10000 5.14 70 18:24 08.05.2022
3764 Clouds 23 1018 75 10000 4.63 70 16:59 08.05.2022
3765 Clouds 23 1018 75 10000 5.14 80 15:41 08.05.2022
3766 Clouds 23 1018 74 10000 4.63 50 15:20 08.05.2022
3767 Clouds 23 1018 74 10000 4.63 50 15:20 08.05.2022
3768 Clouds 23 1019 76 10000 6.17 60 12:39 08.05.2022
3769 Clouds 24 1021 73 10000 6.71 50 10:32 08.05.2022
3770 Clouds 23 1019 76 10000 7.6 60 09:59 08.05.2022
3771 Clouds 24 1021 72 10000 7.72 60 09:31 08.05.2022
3772 Rain 24 1016 71 10000 7.2 70 07:31 08.05.2022
3773 Clouds 27 1019 66 10000 8.23 60 03:55 08.05.2022
3774 Clouds 27 1019 64 10000 8.23 70 02:51 08.05.2022
3775 Rain 26 1021 65 10000 7.2 60 00:28 08.05.2022
3776 Clouds 26 1021 66 10000 7.2 80 23:51 07.05.2022
3777 Clouds 26 1017 67 10000 7.2 60 22:48 07.05.2022
3778 Clouds 24 1022 73 10000 5.66 80 21:59 07.05.2022
3779 Clouds 24 1022 70 10000 5.14 50 21:34 07.05.2022
3780 Clouds 24 1022 74 10000 5.14 70 20:34 07.05.2022
3781 Rain 24 1021 75 10000 5.36 90 19:57 07.05.2022
3782 Clouds 23 1019 74 10000 10.29 70 17:43 07.05.2022
3783 Rain 23 1019 78 10000 7.2 80 15:47 07.05.2022
3784 Clouds 23 1019 79 10000 6.69 70 13:58 07.05.2022
3785 Clouds 24 1017 77 10000 7.2 70 10:46 07.05.2022
3786 Clouds 23 1019 76 10000 6.69 70 09:19 07.05.2022
3787 Clouds 24 1019 72 10000 7.72 60 07:51 07.05.2022
3788 Clouds 24 1019 71 10000 7.2 50 06:43 07.05.2022
3789 Clouds 25 1019 70 10000 9.77 80 04:56 07.05.2022
3790 Clouds 25 1019 71 10000 8.23 60 01:24 07.05.2022
3791 Clouds 26 1017 69 10000 8.75 60 23:37 06.05.2022
3792 Rain 24 1017 75 10000 7.72 70 22:27 06.05.2022
3793 Rain 24 1017 74 10000 7.72 60 21:43 06.05.2022
3794 Clouds 24 1017 75 10000 7.72 40 20:33 06.05.2022
3795 Rain 23 1019 82 10000 5.66 80 19:29 06.05.2022
3796 Rain 23 1019 82 10000 5.66 80 19:29 06.05.2022
3797 Rain 23 1018 81 10000 6.17 70 18:57 06.05.2022
3798 Clouds 23 1018 76 10000 5.14 50 17:38 06.05.2022
3799 Clouds 23 1018 79 10000 6.17 60 16:23 06.05.2022
3800 Clouds 23 1017 79 10000 5.66 60 15:39 06.05.2022
3801 Clouds 23 1018 79 10000 7.72 70 14:33 06.05.2022
3802 Clouds 23 1019 79 10000 8.05 70 12:53 06.05.2022
3803 Clouds 24 1020 76 10000 8.23 70 12:31 06.05.2022
3804 Clouds 24 1020 76 10000 7.72 80 11:38 06.05.2022
3805 Clouds 24 1019 78 10000 6.69 60 09:49 06.05.2022
3806 Clouds 23 1019 78 10000 6.69 60 09:19 06.05.2022
3807 Rain 23 1018 87 10000 5.66 60 07:57 06.05.2022
3808 Clouds 24 1017 75 10000 7.72 50 06:29 06.05.2022
3809 Clouds 26 1017 72 10000 6.69 60 04:32 06.05.2022
3810 Clouds 26 1018 69 10000 7.72 60 02:40 06.05.2022
3811 Clouds 27 1019 66 10000 9.26 70 23:34 05.05.2022
3812 Clouds 25 1019 72 10000 7.72 60 21:52 05.05.2022
3813 Clouds 23 1018 79 10000 6.71 70 20:48 05.05.2022
3814 Clouds 23 1018 80 10000 5.66 90 19:42 05.05.2022
3815 Rain 22 1017 80 10000 5.14 50 16:51 05.05.2022
3816 Rain 23 1017 78 10000 5.14 30 15:48 05.05.2022
3817 Clouds 23 1018 79 10000 4.63 30 14:34 05.05.2022
3818 Clouds 23 1019 79 10000 5.14 60 13:18 05.05.2022
3819 Clouds 23 1021 79 10000 5.14 60 11:48 05.05.2022
3820 Clouds 24 1021 77 10000 4.12 70 10:28 05.05.2022
3821 Clouds 24 1020 74 10000 5.66 50 09:32 05.05.2022
3822 Clouds 24 1018 71 10000 7.2 60 06:49 05.05.2022
3823 Clouds 27 1018 64 10000 8.75 60 02:30 05.05.2022
3824 Clouds 27 1018 67 10000 9.26 60 01:47 05.05.2022
3825 Clouds 27 1018 67 10000 9.26 60 01:19 05.05.2022
3826 Clouds 26 1019 69 10000 6.69 50 23:27 04.05.2022
3827 Clouds 25 1019 73 10000 7.2 70 22:23 04.05.2022
3828 Clouds 25 1019 77 10000 6.17 40 21:46 04.05.2022
3829 Clouds 24 1019 78 10000 6.17 40 21:22 04.05.2022
3830 Rain 23 1019 83 10000 6.69 80 20:20 04.05.2022
3831 Rain 23 1019 84 10000 3.09 60 19:44 04.05.2022
3832 Clouds 22 1018 82 10000 6.69 60 18:44 04.05.2022
3833 Clouds 22 1018 83 10000 6.69 60 18:20 04.05.2022
3834 Clouds 21 1018 89 10000 7.2 50 17:22 04.05.2022
3835 Clouds 22 1018 86 10000 6.69 80 15:34 04.05.2022
3836 Rain 22 1018 85 10000 5.66 90 14:45 04.05.2022
3837 Rain 22 1019 85 10000 5.66 90 14:19 04.05.2022
3838 Rain 21 1017 87 10000 4.63 60 12:50 04.05.2022
3839 Clouds 24 1021 76 10000 6.17 50 11:59 04.05.2022
3840 Clouds 23 1020 78 10000 6.17 80 10:27 04.05.2022
3841 Clouds 23 1019 78 10000 6.69 80 09:21 04.05.2022
3842 Clouds 23 1018 79 10000 4.47 40 07:59 04.05.2022
3843 Clouds 25 1017 74 10000 8.23 40 05:34 04.05.2022
3844 Clouds 26 1018 65 10000 9.77 70 02:37 04.05.2022
3845 Clouds 25 1020 75 10000 6.69 60 23:20 03.05.2022
3846 Rain 23 1020 82 10000 4.63 80 21:53 03.05.2022
3847 Rain 23 1020 85 10000 4.63 80 21:31 03.05.2022
3848 Rain 23 1019 84 10000 6.17 90 20:52 03.05.2022
3849 Clouds 23 1019 86 10000 4.63 50 19:33 03.05.2022
3850 Rain 22 1018 87 10000 4.12 50 18:47 03.05.2022
3851 Rain 22 1018 88 10000 3.09 60 17:22 03.05.2022
3852 Rain 22 1017 84 10000 5.14 60 15:57 03.05.2022
3853 Rain 23 1017 77 10000 6.17 50 14:24 03.05.2022
3854 Clouds 23 1018 77 10000 8.75 60 12:42 03.05.2022
3855 Clouds 23 1020 77 10000 6.69 50 11:39 03.05.2022
3856 Clouds 23 1020 77 10000 7.2 60 10:44 03.05.2022
3857 Clouds 23 1019 80 10000 7.72 70 08:19 03.05.2022
3858 Rain 24 1016 75 10000 7.72 50 06:45 03.05.2022
3859 Clouds 26 1018 75 10000 7.72 60 02:39 03.05.2022
3860 Clouds 25 1019 77 10000 7.72 60 23:19 02.05.2022
3861 Clouds 25 1019 77 10000 7.72 60 22:28 02.05.2022
3862 Rain 24 1019 81 10000 7.2 70 21:37 02.05.2022
3863 Rain 23 1018 85 10000 5.66 60 19:26 02.05.2022
3864 Rain 22 1018 84 10000 4.12 70 18:26 02.05.2022
3865 Clouds 22 1017 87 10000 4.63 70 17:39 02.05.2022
3866 Rain 23 1017 84 10000 3.09 30 16:42 02.05.2022
3867 Clouds 22 1017 88 10000 6.69 50 15:41 02.05.2022
3868 Rain 22 1017 88 10000 6.17 60 14:45 02.05.2022
3869 Rain 22 1018 88 10000 5.14 40 13:42 02.05.2022
3870 Rain 23 1019 86 10000 6.69 60 11:41 02.05.2022
3871 Clouds 24 1016 74 10000 5.66 70 09:42 02.05.2022
3872 Clouds 24 1019 75 10000 5.66 40 08:20 02.05.2022
3873 Clouds 25 1014 69 10000 6.71 90 06:31 02.05.2022
3874 Clouds 26 1018 66 10000 10.29 50 00:46 02.05.2022
3875 Clouds 27 1018 64 10000 10.29 50 00:21 02.05.2022
3876 Clouds 25 1018 70 10000 8.23 70 22:54 01.05.2022
3877 Rain 25 1018 73 10000 7.2 60 21:42 01.05.2022
3878 Clouds 23 1018 78 10000 7.2 70 20:30 01.05.2022
3879 Rain 22 1017 82 10000 7.72 60 19:21 01.05.2022
3880 Rain 22 1018 83 10000 7.2 60 18:52 01.05.2022
3881 Rain 22 1017 81 10000 6.17 70 17:49 01.05.2022
3882 Rain 22 1016 81 10000 8.75 70 16:29 01.05.2022
3883 Rain 23 1016 80 10000 7.2 60 15:46 01.05.2022
3884 Clouds 23 1016 77 10000 7.2 60 14:45 01.05.2022
3885 Clouds 23 1018 83 10000 6.17 60 12:24 01.05.2022
3886 Rain 23 1018 80 10000 6.17 60 10:22 01.05.2022
3887 Rain 23 1015 80 10000 6.69 50 08:49 01.05.2022
3888 Clouds 25 1017 71 10000 7.6 50 06:31 01.05.2022
3889 Clouds 26 1016 72 10000 7.2 60 01:56 01.05.2022
3890 Clouds 25 1015 70 10000 7.72 60 22:18 30.04.2022
3891 Rain 24 1018 73 10000 6.17 60 21:32 30.04.2022
3892 Clouds 24 1018 73 10000 6.17 60 19:53 30.04.2022
3893 Rain 23 1016 78 10000 6.17 70 18:53 30.04.2022
3894 Clouds 23 1016 75 10000 8.75 50 17:26 30.04.2022
3895 Clouds 23 1017 75 10000 6.69 80 15:51 30.04.2022
3896 Clouds 23 1015 79 10000 6.69 80 14:58 30.04.2022
3897 Rain 23 1017 76 10000 6.69 70 13:41 30.04.2022
3898 Clouds 23 1017 75 10000 6.69 90 11:41 30.04.2022
3899 Clouds 23 1017 77 10000 6.69 70 10:56 30.04.2022
3900 Clouds 23 1016 78 10000 6.71 50 09:54 30.04.2022
3901 Rain 24 1015 75 10000 7.2 70 07:36 30.04.2022
3902 Rain 26 1013 67 10000 9.26 70 03:53 30.04.2022
3903 Clouds 27 1013 64 10000 5.66 70 23:55 29.04.2022
3904 Rain 26 1014 67 10000 7.72 50 22:37 29.04.2022
3905 Clouds 26 1015 66 10000 6.69 60 21:55 29.04.2022
3906 Clouds 26 1015 67 10000 6.69 60 21:21 29.04.2022
3907 Clouds 24 1014 75 10000 4.63 70 19:55 29.04.2022
3908 Clouds 23 1015 76 10000 4.12 70 19:26 29.04.2022
3909 Clouds 23 1014 77 10000 4.12 60 17:34 29.04.2022
3910 Clouds 23 1014 76 10000 5.14 60 16:30 29.04.2022
3911 Clouds 23 1014 75 10000 4.63 60 14:34 29.04.2022
3912 Clouds 23 1015 74 10000 4.63 60 13:27 29.04.2022
3913 Clouds 23 1015 74 10000 4.12 50 12:33 29.04.2022
3914 Clouds 24 1016 74 10000 5.66 80 09:52 29.04.2022
3915 Clouds 24 1013 75 10000 6.71 70 07:52 29.04.2022
3916 Clouds 24 1013 77 10000 6.69 70 07:24 29.04.2022
3917 Clouds 26 1012 67 10000 6.69 80 05:57 29.04.2022
3918 Clouds 28 1014 60 10000 6.17 80 00:51 29.04.2022
3919 Clouds 28 1014 61 10000 8.23 60 23:49 28.04.2022
3920 Clouds 27 1016 62 10000 5.66 90 22:45 28.04.2022
3921 Clouds 27 1014 65 10000 4.12 80 21:55 28.04.2022
3922 Clouds 27 1015 64 10000 4.12 80 21:29 28.04.2022
3923 Clouds 25 1015 71 10000 5.66 60 20:37 28.04.2022
3924 Clouds 24 1014 75 10000 5.14 70 19:46 28.04.2022
3925 Clouds 24 1014 76 10000 5.14 70 19:23 28.04.2022
3926 Clouds 22 1014 82 10000 5.14 50 18:38 28.04.2022
3927 Clouds 22 1014 83 10000 3.09 80 17:32 28.04.2022
3928 Clouds 22 1014 82 10000 3.6 90 16:49 28.04.2022
3929 Clouds 22 1014 82 10000 3.6 90 16:19 28.04.2022
3930 Clouds 23 1013 80 10000 3.09 90 15:41 28.04.2022
3931 Clouds 22 1014 82 10000 2.57 80 14:38 28.04.2022
3932 Clouds 23 1015 80 10000 3.09 80 13:19 28.04.2022
3933 Clouds 23 1016 80 10000 4.12 80 12:28 28.04.2022
3934 Clouds 23 1016 79 10000 3.6 80 10:47 28.04.2022
3935 Clouds 23 1016 79 10000 3.6 80 10:26 28.04.2022
3936 Clouds 23 1015 82 10000 3.09 70 08:59 28.04.2022
3937 Clouds 24 1015 72 10000 4.63 80 07:37 28.04.2022
3938 Clouds 25 1013 71 10000 6.17 50 06:33 28.04.2022
3939 Clouds 25 1014 71 10000 6.17 60 05:39 28.04.2022
3940 Clouds 25 1014 70 10000 5.14 70 04:40 28.04.2022
3941 Clouds 26 1016 69 10000 5.66 70 00:36 28.04.2022
3942 Clouds 26 1015 72 10000 7.2 60 22:45 27.04.2022
3943 Clouds 25 1016 79 10000 4.63 80 21:56 27.04.2022
3944 Clouds 25 1016 77 10000 7.2 70 21:26 27.04.2022
3945 Drizzle 24 1016 80 10000 4.12 40 20:38 27.04.2022
3946 Rain 23 1016 85 10000 0.45 11 19:38 27.04.2022
3947 Rain 23 1015 83 10000 0.45 72 19:18 27.04.2022
3948 Rain 22 1015 85 10000 4.12 80 18:25 27.04.2022
3949 Clouds 22 1015 85 10000 2.24 30 17:24 27.04.2022
3950 Clouds 22 1015 85 10000 2.06 20 15:22 27.04.2022
3951 Clouds 22 1016 82 10000 4.12 60 12:27 27.04.2022
3952 Clouds 22 1017 82 10000 5.14 60 11:21 27.04.2022
3953 Clouds 23 1017 76 10000 5.14 70 09:45 27.04.2022
3954 Clouds 23 1015 73 10000 3.6 60 07:19 27.04.2022
3955 Clouds 25 1014 67 10000 6.17 40 05:37 27.04.2022
3956 Clouds 27 1016 61 10000 5.14 50 01:35 27.04.2022
3957 Clouds 27 1017 61 10000 9.26 60 00:38 27.04.2022
3958 Clouds 27 1017 61 10000 9.26 60 00:38 27.04.2022
3959 Clouds 26 1017 69 10000 7.2 50 23:40 26.04.2022
3960 Clouds 26 1017 68 10000 7.2 50 23:22 26.04.2022
3961 Clouds 25 1018 70 10000 8.23 60 22:41 26.04.2022
3962 Clouds 24 1018 74 10000 6.17 80 21:37 26.04.2022
3963 Rain 23 1018 78 10000 7.2 70 20:52 26.04.2022
3964 Clouds 23 1018 79 10000 5.14 70 20:30 26.04.2022
3965 Clouds 22 1018 84 10000 3.6 70 19:32 26.04.2022
3966 Rain 21 1017 89 10000 2.06 70 18:45 26.04.2022
3967 Rain 21 1016 88 8047 7.2 70 17:59 26.04.2022
3968 Rain 21 1016 89 8047 6.17 80 16:58 26.04.2022
3969 Clouds 22 1017 82 10000 4.63 90 14:27 26.04.2022
3970 Clouds 23 1018 79 10000 5.66 80 13:33 26.04.2022
3971 Clouds 23 1018 78 10000 5.14 80 11:55 26.04.2022
3972 Clouds 23 1019 74 10000 6.17 60 10:37 26.04.2022
3973 Clouds 24 1019 72 10000 5.14 70 09:25 26.04.2022
3974 Clouds 24 1016 72 10000 7.2 70 07:22 26.04.2022
3975 Clouds 26 1016 65 10000 8.23 60 04:23 26.04.2022
3976 Clouds 26 1018 64 10000 8.75 60 01:25 26.04.2022
3977 Clouds 27 1018 65 10000 7.72 70 00:26 26.04.2022
3978 Clouds 26 1019 66 10000 7.72 60 22:33 25.04.2022
3979 Clouds 26 1019 66 10000 6.71 70 21:40 25.04.2022
3980 Clouds 24 1019 71 10000 7.2 60 20:39 25.04.2022
3981 Clouds 23 1017 75 10000 6.69 90 18:55 25.04.2022
3982 Clouds 23 1016 76 10000 5.14 70 17:52 25.04.2022
3983 Clouds 23 1018 75 10000 5.14 70 16:52 25.04.2022
3984 Clouds 23 1017 75 10000 6.17 60 15:24 25.04.2022
3985 Clouds 23 1017 73 10000 5.66 70 14:34 25.04.2022
3986 Clouds 23 1018 73 10000 6.17 60 13:30 25.04.2022
3987 Clouds 23 1017 73 10000 6.69 90 11:37 25.04.2022
3988 Clouds 24 1020 73 10000 6.17 60 10:20 25.04.2022
3989 Clouds 24 1019 71 10000 5.66 60 08:33 25.04.2022
3990 Clouds 24 1017 69 10000 8.23 60 06:37 25.04.2022
3991 Clouds 26 1015 64 10000 9.26 50 03:44 25.04.2022
3992 Clouds 27 1018 59 10000 6.69 50 00:33 25.04.2022
3993 Clouds 26 1018 61 10000 8.75 60 23:51 24.04.2022
3994 Clouds 25 1017 68 10000 7.72 70 22:41 24.04.2022
3995 Clear 25 1014 69 10000 5.81 50 21:58 24.04.2022
3996 Clouds 25 1019 68 10000 6.69 80 21:24 24.04.2022
3997 Clouds 24 1019 72 10000 6.17 70 20:48 24.04.2022
3998 Clouds 24 1019 73 10000 6.17 70 20:21 24.04.2022
3999 Clouds 23 1017 81 10000 9.4 70 18:59 24.04.2022
4000 Clouds 23 1018 80 10000 6.17 70 18:20 24.04.2022
4001 Clouds 23 1017 78 10000 7.2 80 17:27 24.04.2022
4002 Clouds 23 1016 82 10000 8.39 71 16:58 24.04.2022
4003 Clouds 23 1017 79 10000 8.23 50 16:30 24.04.2022
4004 Clouds 23 1017 79 10000 5.14 60 15:53 24.04.2022
4005 Clouds 23 1017 78 10000 4.12 80 14:55 24.04.2022
4006 Clouds 23 1018 80 10000 4.63 90 13:45 24.04.2022
4007 Clouds 23 1018 81 10000 4.63 90 13:23 24.04.2022
4008 Rain 23 1019 84 10000 6.17 50 11:53 24.04.2022
4009 Clouds 22 1019 88 10000 7.2 60 10:59 24.04.2022
4010 Rain 23 1019 81 10000 7.2 50 09:47 24.04.2022
4011 Clouds 23 1019 80 10000 6.17 70 08:23 24.04.2022
4012 Clouds 25 1018 71 10000 7.72 60 05:46 24.04.2022
4013 Rain 25 1018 72 10000 7.2 60 02:49 24.04.2022
4014 Rain 26 1018 68 10000 8.23 60 00:47 24.04.2022
4015 Clouds 25 1019 73 10000 7.2 60 23:55 23.04.2022
4016 Clouds 25 1019 72 10000 7.2 60 23:25 23.04.2022
4017 Rain 25 1020 72 10000 6.69 70 22:40 23.04.2022
4018 Rain 24 1019 75 10000 5.14 70 21:48 23.04.2022
4019 Rain 24 1019 74 10000 5.14 70 21:29 23.04.2022
4020 Clouds 23 1018 79 10000 5.66 80 19:56 23.04.2022
4021 Clouds 23 1019 79 10000 5.66 70 19:20 23.04.2022
4022 Clouds 22 1019 83 10000 3.58 60 18:54 23.04.2022
4023 Clouds 22 1019 84 10000 3.6 60 18:32 23.04.2022
4024 Clouds 22 1019 85 10000 3.6 20 17:47 23.04.2022
4025 Clouds 22 1018 81 10000 5.14 60 16:46 23.04.2022
4026 Clouds 23 1018 78 10000 4.63 70 15:51 23.04.2022
4027 Clouds 24 1019 73 10000 4.63 60 13:31 23.04.2022
4028 Clouds 24 1020 76 10000 7.2 70 11:30 23.04.2022
4029 Clouds 24 1020 76 10000 6.71 60 10:32 23.04.2022
4030 Clouds 24 1019 76 10000 5.66 60 08:18 23.04.2022
4031 Clouds 25 1017 72 10000 5.66 70 03:57 23.04.2022
4032 Clouds 27 1018 65 10000 7.72 60 02:36 23.04.2022
4033 Clouds 27 1020 62 10000 7.72 70 23:34 22.04.2022
4034 Clouds 27 1020 66 10000 7.72 50 22:43 22.04.2022
4035 Clouds 25 1019 74 10000 3.6 80 21:56 22.04.2022
4036 Clouds 25 1019 74 10000 3.6 80 21:56 22.04.2022
4037 Clouds 25 1019 74 10000 3.6 80 21:56 22.04.2022
4038 Clouds 25 1019 74 10000 3.6 80 21:56 22.04.2022
4039 Clouds 25 1019 74 10000 3.6 80 21:56 22.04.2022
4040 Clouds 25 1020 71 10000 5.14 70 21:38 22.04.2022
4041 Clouds 24 1019 77 10000 4.12 40 20:30 22.04.2022
4042 Clouds 23 1019 78 10000 4.63 90 19:24 22.04.2022
4043 Clouds 23 1018 81 10000 4.63 80 18:56 22.04.2022
4044 Clouds 23 1019 79 10000 4.63 80 18:24 22.04.2022
4045 Clouds 23 1017 80 10000 3.6 80 16:53 22.04.2022
4046 Clouds 23 1017 79 10000 5.14 70 15:58 22.04.2022
4047 Clouds 23 1018 77 10000 6.17 90 15:23 22.04.2022
4048 Clouds 23 1017 77 10000 3.6 70 14:37 22.04.2022
4049 Clouds 23 1019 77 10000 6.17 60 13:41 22.04.2022
4050 Haze 23 1019 76 10000 4.63 60 12:35 22.04.2022
4051 Clouds 23 1019 76 10000 5.66 70 11:23 22.04.2022
4052 Clouds 23 1019 80 10000 5.66 70 10:56 22.04.2022
4053 Clouds 23 1019 75 10000 5.66 70 10:32 22.04.2022
4054 Clouds 23 1019 73 10000 7.2 50 09:54 22.04.2022
4055 Clouds 23 1017 76 10000 9.25 73 08:56 22.04.2022
4056 Clouds 23 1018 74 10000 6.69 50 08:29 22.04.2022
4057 Clouds 24 1015 71 10000 8.23 50 05:31 22.04.2022
4058 Clouds 26 1018 66 10000 6.17 70 00:53 22.04.2022
4059 Clouds 26 1016 65 10000 7.72 40 23:29 21.04.2022
4060 Clouds 26 1019 68 10000 6.71 50 22:29 21.04.2022
4061 Clouds 23 1019 79 10000 5.14 70 21:22 21.04.2022
4062 Clouds 23 1018 81 10000 5.66 60 20:27 21.04.2022
4063 Clouds 22 1018 84 10000 4.12 70 18:49 21.04.2022
4064 Clouds 21 1018 85 10000 4.12 70 18:19 21.04.2022
4065 Clouds 21 1018 86 10000 2.57 90 16:53 21.04.2022
4066 Clouds 22 1018 82 10000 3.6 110 15:23 21.04.2022
4067 Clouds 22 1019 83 10000 4.12 60 14:51 21.04.2022
4068 Rain 21 1019 87 10000 4.12 50 13:52 21.04.2022
4069 Rain 21 1020 87 10000 4.12 50 13:19 21.04.2022
4070 Clouds 22 1020 80 10000 4.63 80 11:25 21.04.2022
4071 Clouds 22 1019 79 10000 6.69 60 08:59 21.04.2022
4072 Clouds 23 1020 76 10000 6.17 60 07:55 21.04.2022
4073 Clouds 23 1018 77 10000 7.72 60 06:21 21.04.2022
4074 Rain 26 1018 66 10000 9.26 60 03:35 21.04.2022
4075 Clouds 27 1018 60 10000 8.23 60 02:48 21.04.2022
4076 Clouds 27 1018 61 10000 8.23 60 02:48 21.04.2022
4077 Clouds 27 1018 62 10000 8.23 60 01:50 21.04.2022
4078 Clouds 27 1019 63 10000 6.69 60 23:51 20.04.2022
4079 Clouds 26 1020 65 10000 7.15 50 23:23 20.04.2022
4080 Clouds 26 1020 68 10000 7.2 50 22:51 20.04.2022
4081 Clouds 26 1019 69 10000 7.2 50 22:32 20.04.2022
4082 Rain 25 1020 75 10000 4.63 60 21:33 20.04.2022
4083 Rain 24 1019 74 10000 5.14 60 20:41 20.04.2022
4084 Clouds 23 1019 75 10000 4.63 60 19:53 20.04.2022
4085 Clouds 23 1018 76 10000 4.63 60 19:22 20.04.2022
4086 Clouds 22 1018 78 10000 6.17 50 18:23 20.04.2022
4087 Clouds 22 1017 81 10000 8.01 61 16:56 20.04.2022
4088 Clouds 22 1019 77 10000 3.6 60 16:37 20.04.2022
4089 Clouds 22 1020 78 10000 7.2 60 14:21 20.04.2022
4090 Clouds 23 1021 76 10000 7.2 40 11:52 20.04.2022
4091 Clouds 23 1020 75 10000 7.2 40 11:24 20.04.2022
4092 Clouds 23 1022 71 10000 6.17 40 10:22 20.04.2022
4093 Clouds 23 1021 71 10000 5.66 50 09:25 20.04.2022
4094 Clouds 23 1021 70 10000 5.14 50 08:22 20.04.2022
4095 Rain 23 1020 69 10000 7.72 60 07:37 20.04.2022
4096 Clouds 25 1017 65 10000 8.75 60 03:49 20.04.2022
4097 Rain 26 1020 67 10000 8.23 60 00:23 20.04.2022
4098 Rain 25 1020 71 10000 7.2 70 23:56 19.04.2022
4099 Clouds 25 1018 68 10000 7.72 80 22:27 19.04.2022
4100 Clouds 25 1018 69 10000 4.63 60 21:57 19.04.2022
4101 Clouds 25 1018 67 10000 4.63 60 21:24 19.04.2022
4102 Clouds 24 1018 72 10000 8.75 60 20:46 19.04.2022
4103 Clouds 24 1018 73 10000 8.75 60 20:26 19.04.2022
4104 Clouds 23 1019 79 10000 6.69 60 19:19 19.04.2022
4105 Clouds 23 1019 79 10000 6.69 60 19:19 19.04.2022
4106 Clouds 22 1019 80 10000 3.6 60 17:50 19.04.2022
4107 Clouds 22 1018 81 10000 4.63 70 16:43 19.04.2022
4108 Clouds 22 1018 81 10000 4.63 70 16:23 19.04.2022
4109 Clouds 22 1019 79 10000 6.17 60 14:50 19.04.2022
4110 Clouds 22 1020 77 10000 5.66 60 13:54 19.04.2022
4111 Clouds 23 1020 76 10000 5.14 70 12:50 19.04.2022
4112 Clouds 23 1020 76 10000 5.14 70 12:20 19.04.2022
4113 Clouds 23 1021 74 10000 4.12 50 10:46 19.04.2022
4114 Clouds 23 1021 73 10000 5.14 60 09:22 19.04.2022
4115 Clear 24 1018 72 10000 7.6 40 05:56 19.04.2022
4116 Clouds 26 1018 63 10000 9.77 40 03:37 19.04.2022
4117 Clouds 26 1016 58 10000 7.72 50 00:55 19.04.2022
4118 Clouds 26 1018 55 10000 7.2 50 23:31 18.04.2022
4119 Clouds 25 1021 56 10000 6.69 50 21:30 18.04.2022
4120 Clouds 24 1019 65 10000 6.69 50 20:55 18.04.2022
4121 Clouds 24 1020 64 10000 6.69 50 20:32 18.04.2022
4122 Clouds 22 1019 67 10000 7.72 40 19:51 18.04.2022
4123 Clouds 21 1018 72 10000 3.09 30 18:57 18.04.2022
4124 Clouds 21 1017 75 10000 8.49 49 17:57 18.04.2022
4125 Clouds 22 1017 72 10000 3.09 50 17:34 18.04.2022
4126 Clouds 21 1016 75 10000 9.23 42 16:55 18.04.2022
4127 Clouds 22 1019 68 10000 4.12 40 16:31 18.04.2022
4128 Clouds 22 1019 70 10000 7.2 40 14:51 18.04.2022
4129 Clouds 22 1018 72 10000 3.09 20 13:36 18.04.2022
4130 Clouds 22 1019 76 10000 4.12 70 12:30 18.04.2022
4131 Clouds 22 1020 78 10000 4.12 40 11:34 18.04.2022
4132 Clouds 22 1019 78 10000 2.06 50 10:31 18.04.2022
4133 Clouds 22 1020 80 10000 7.2 60 09:31 18.04.2022
4134 Rain 22 1019 80 10000 6.17 40 07:42 18.04.2022
4135 Clouds 24 1017 76 10000 7.2 60 05:41 18.04.2022
4136 Clouds 26 1018 71 10000 10.29 70 00:47 18.04.2022
4137 Clouds 26 1019 64 10000 6.69 70 22:41 17.04.2022
4138 Clouds 25 1019 69 10000 6.69 70 21:46 17.04.2022
4139 Clouds 25 1019 69 10000 6.69 70 21:24 17.04.2022
4140 Clouds 24 1019 75 10000 5.66 60 20:36 17.04.2022
4141 Clouds 24 1019 74 10000 5.66 60 20:35 17.04.2022
4142 Clouds 23 1018 77 10000 6.17 40 19:28 17.04.2022
4143 Clouds 22 1017 79 10000 5.14 40 17:45 17.04.2022
4144 Clouds 22 1016 83 10000 3.09 20 15:39 17.04.2022
4145 Clouds 22 1015 80 10000 3.58 40 14:54 17.04.2022
4146 Clear 22 1016 79 10000 3.6 40 13:48 17.04.2022
4147 Clouds 23 1017 81 10000 3.6 10 12:58 17.04.2022
4148 Clouds 23 1018 81 10000 3.6 10 12:27 17.04.2022
4149 Clouds 23 1017 77 10000 5.14 60 10:46 17.04.2022
4150 Clouds 23 1017 77 10000 5.14 60 10:28 17.04.2022
4151 Clouds 23 1017 77 10000 5.14 60 10:28 17.04.2022
4152 Clouds 23 1017 77 10000 7.72 80 09:29 17.04.2022
4153 Rain 23 1014 77 10000 7.6 60 08:42 17.04.2022
4154 Clouds 23 1016 77 10000 7.72 60 07:26 17.04.2022
4155 Rain 24 1015 82 10000 7.2 60 03:53 17.04.2022
4156 Rain 24 1017 78 10000 8.23 50 00:55 17.04.2022
4157 Rain 25 1017 77 10000 7.72 60 23:50 16.04.2022
4158 Rain 24 1017 83 10000 6.17 70 22:29 16.04.2022
4159 Rain 24 1017 85 10000 6.17 70 21:31 16.04.2022
4160 Clouds 23 1016 85 10000 3.6 50 20:18 16.04.2022
4161 Clouds 22 1014 90 10000 1.79 137 18:55 16.04.2022
4162 Rain 22 1015 88 10000 2.57 20 17:40 16.04.2022
4163 Rain 22 1015 87 10000 2.06 40 16:34 16.04.2022
4164 Rain 22 1015 87 10000 2.57 40 15:43 16.04.2022
4165 Rain 22 1014 86 9656 4.12 80 14:55 16.04.2022
4166 Rain 23 1015 78 10000 4.63 80 13:58 16.04.2022
4167 Rain 23 1014 78 10000 3.09 50 13:28 16.04.2022
4168 Clouds 23 1016 78 10000 6.17 50 12:20 16.04.2022
4169 Clouds 23 1016 75 10000 5.14 50 10:49 16.04.2022
4170 Clouds 23 1016 74 10000 8.23 60 09:44 16.04.2022
4171 Clouds 23 1014 78 10000 0.89 6 08:57 16.04.2022
4172 Clouds 23 1015 73 10000 5.66 70 07:35 16.04.2022
4173 Clouds 23 1013 77 10000 0.45 39 06:58 16.04.2022
4174 Clouds 26 1014 65 10000 9.26 60 02:33 16.04.2022
4175 Clouds 27 1014 56 10000 7.6 70 00:23 16.04.2022
4176 Clouds 26 1012 60 10000 8.05 60 22:57 15.04.2022
4177 Clouds 26 1015 58 10000 8.23 60 22:31 15.04.2022
4178 Clouds 26 1014 60 10000 5.66 70 21:47 15.04.2022
4179 Clouds 24 1015 65 10000 4.12 70 20:56 15.04.2022
4180 Clouds 23 1014 74 10000 0.45 348 19:59 15.04.2022
4181 Clouds 23 1016 74 10000 3.6 80 19:39 15.04.2022
4182 Clouds 22 1015 71 10000 5.66 80 18:46 15.04.2022
4183 Clouds 23 1015 71 10000 5.66 80 18:46 15.04.2022
4184 Clouds 22 1015 72 10000 5.66 80 18:24 15.04.2022
4185 Clouds 22 1014 72 10000 4.12 40 17:30 15.04.2022
4186 Clouds 22 1015 72 10000 6.17 60 16:26 15.04.2022
4187 Clouds 22 1014 74 10000 4.02 70 15:59 15.04.2022
4188 Clouds 23 1016 72 10000 5.66 60 14:30 15.04.2022
4189 Clouds 23 1015 74 10000 7.2 50 13:23 15.04.2022
4190 Clear 23 1015 73 10000 5.14 60 12:40 15.04.2022
4191 Clouds 23 1012 74 10000 7.6 50 11:54 15.04.2022
4192 Clouds 23 1017 73 10000 5.14 50 10:49 15.04.2022
4193 Clouds 23 1017 74 10000 5.14 50 10:22 15.04.2022
4194 Clouds 24 1017 69 10000 4.63 50 09:24 15.04.2022
4195 Clouds 24 1008 71 10000 5.81 60 08:57 15.04.2022
4196 Clouds 24 1014 67 10000 7.15 50 06:55 15.04.2022
4197 Clouds 25 1014 68 10000 5.81 60 05:56 15.04.2022
4198 Clouds 28 1015 59 10000 9.26 60 01:33 15.04.2022
4199 Clouds 27 1017 59 10000 8.23 70 23:30 14.04.2022
4200 Clouds 26 1017 63 10000 7.72 60 22:46 14.04.2022
4201 Clouds 26 1017 63 10000 7.72 60 22:27 14.04.2022
4202 Clouds 26 1017 65 10000 5.66 40 21:53 14.04.2022
4203 Rain 24 1015 76 10000 6.47 76 19:57 14.04.2022
4204 Rain 23 1016 79 10000 4.12 70 19:22 14.04.2022
4205 Clouds 22 1015 79 10000 3.6 80 17:56 14.04.2022
4206 Clouds 23 1015 79 10000 2.06 40 17:27 14.04.2022
4207 Clouds 22 1015 78 10000 3.09 80 16:32 14.04.2022
4208 Clouds 23 1016 76 10000 2.57 40 14:20 14.04.2022
4209 Clouds 23 1016 74 10000 4.63 60 13:26 14.04.2022
4210 Clouds 23 1017 74 10000 6.17 60 12:38 14.04.2022
4211 Clouds 23 1018 72 10000 6.17 60 12:19 14.04.2022
4212 Clouds 23 1017 74 10000 6.17 80 11:21 14.04.2022
4213 Clouds 23 1018 74 10000 5.66 60 10:36 14.04.2022
4214 Clouds 24 1018 72 10000 5.14 80 09:52 14.04.2022
4215 Clouds 24 1017 72 10000 5.66 100 08:39 14.04.2022
4216 Clouds 25 1015 70 10000 7.2 50 06:24 14.04.2022
4217 Clouds 27 1016 61 10000 8.23 70 01:49 14.04.2022
4218 Clouds 27 1019 59 10000 6.17 90 22:41 13.04.2022
4219 Clouds 26 1017 64 10000 4.63 70 21:44 13.04.2022
4220 Clouds 24 1017 71 10000 5.14 80 20:47 13.04.2022
4221 Clouds 24 1017 73 10000 3.6 50 19:54 13.04.2022
4222 Clouds 23 1016 78 10000 2.06 60 18:43 13.04.2022
4223 Clouds 22 1016 78 10000 3.09 40 17:52 13.04.2022
4224 Clouds 22 1016 78 10000 3.09 40 17:23 13.04.2022
4225 Clouds 22 1015 77 10000 3.6 30 16:18 13.04.2022
4226 Clouds 23 1016 74 10000 3.6 60 15:31 13.04.2022
4227 Clouds 23 1017 77 10000 3.6 60 14:43 13.04.2022
4228 Clouds 23 1018 77 10000 2.68 70 13:57 13.04.2022
4229 Clouds 23 1017 78 10000 3.6 80 12:58 13.04.2022
4230 Clouds 23 1015 76 10000 5.14 60 12:19 13.04.2022
4231 Clouds 24 1018 76 10000 4.63 60 10:41 13.04.2022
4232 Clouds 23 1016 77 10000 5.14 60 08:49 13.04.2022
4233 Clouds 24 1017 75 10000 5.14 60 08:24 13.04.2022
4234 Clouds 25 1013 69 10000 6.71 60 06:50 13.04.2022
4235 Clouds 25 1013 69 10000 6.71 60 06:24 13.04.2022
4236 Clouds 28 1014 57 10000 7.2 70 02:27 13.04.2022
4237 Clouds 28 1017 61 10000 7.72 60 00:20 13.04.2022
4238 Clouds 27 1019 69 10000 7.2 50 22:36 12.04.2022
4239 Clear 25 1016 78 10000 6.98 64 21:56 12.04.2022
4240 Clouds 25 1018 77 10000 3.6 70 20:48 12.04.2022
4241 Clouds 24 1018 78 10000 3.6 70 20:22 12.04.2022
4242 Clouds 23 1017 79 10000 4.12 100 19:40 12.04.2022
4243 Clear 23 1015 83 10000 4.18 55 18:56 12.04.2022
4244 Clouds 23 1017 81 10000 3.6 80 17:39 12.04.2022
4245 Clouds 23 1017 81 10000 3.09 60 16:47 12.04.2022
4246 Clouds 23 1017 80 10000 3.6 70 15:35 12.04.2022
4247 Clear 23 1016 85 10000 5.12 71 14:53 12.04.2022
4248 Clouds 24 1018 79 10000 5.14 80 13:50 12.04.2022
4249 Clouds 24 1018 80 10000 5.14 80 13:25 12.04.2022
4250 Clouds 24 1019 83 10000 3.6 50 12:18 12.04.2022
4251 Clouds 24 1019 81 10000 3.09 50 11:36 12.04.2022
4252 Clouds 23 999 80 10000 4.12 50 09:52 12.04.2022
4253 Clouds 23 1018 79 10000 6.17 60 08:49 12.04.2022
4254 Clouds 24 1017 77 10000 6.17 60 07:20 12.04.2022
4255 Clouds 25 1002 73 10000 10.29 80 05:41 12.04.2022
4256 Clouds 27 1001 62 10000 5.14 50 02:37 12.04.2022
4257 Clouds 27 1018 60 10000 6.17 50 23:24 11.04.2022
4258 Clouds 27 1007 65 10000 6.71 60 22:32 11.04.2022
4259 Clouds 25 1004 70 10000 5.14 60 21:23 11.04.2022
4260 Clouds 25 999 72 10000 5.14 50 20:35 11.04.2022
4261 Clouds 24 998 77 10000 4.92 70 19:59 11.04.2022
4262 Clouds 23 1006 78 10000 5.14 70 19:27 11.04.2022
4263 Clouds 23 1002 79 10000 4.63 60 18:54 11.04.2022
4264 Clouds 22 997 82 10000 2.24 40 17:58 11.04.2022
4265 Clouds 23 1017 79 10000 2.57 40 17:38 11.04.2022
4266 Clouds 23 1003 80 10000 3.6 40 16:33 11.04.2022
4267 Clouds 23 1003 79 10000 5.14 50 14:49 11.04.2022
4268 Clouds 23 998 79 10000 3.6 40 13:34 11.04.2022
4269 Clouds 24 1018 78 10000 4.12 60 12:38 11.04.2022
4270 Clouds 24 1018 77 10000 4.12 60 12:19 11.04.2022
4271 Clouds 23 1005 78 10000 5.66 70 10:36 11.04.2022
4272 Clouds 24 1018 76 10000 4.63 80 09:41 11.04.2022
4273 Clouds 24 1017 74 10000 6.71 70 07:54 11.04.2022
4274 Clouds 26 1002 67 10000 8.23 60 04:18 11.04.2022
4275 Clouds 27 1007 61 10000 8.75 60 23:27 10.04.2022
4276 Clouds 27 1005 62 10000 6.17 90 22:26 10.04.2022
4277 Clouds 26 1005 65 10000 6.71 60 21:43 10.04.2022
4278 Clouds 25 1004 72 10000 4.63 40 20:50 10.04.2022
4279 Clouds 24 1004 75 10000 3.6 50 19:53 10.04.2022
4280 Clouds 24 1017 75 10000 3.6 50 19:30 10.04.2022
4281 Clouds 23 1017 76 10000 3.09 60 18:46 10.04.2022
4282 Clouds 23 1001 80 10000 4.12 90 17:58 10.04.2022
4283 Clouds 23 1016 77 10000 4.12 90 17:58 10.04.2022
4284 Clouds 23 1016 77 10000 4.12 90 17:58 10.04.2022
4285 Clouds 23 997 81 10000 2.68 30 17:58 10.04.2022
4286 Clouds 23 997 81 10000 2.68 30 17:58 10.04.2022
4287 Clouds 23 1016 77 10000 4.12 90 17:39 10.04.2022
4288 Clouds 22 1003 81 10000 3.09 70 16:47 10.04.2022
4289 Clouds 23 1003 80 10000 3.6 50 15:37 10.04.2022
4290 Clouds 23 1004 81 10000 1.54 100 14:34 10.04.2022
4291 Clouds 22 1005 82 10000 3.6 60 12:41 10.04.2022
4292 Clouds 23 1019 80 10000 3.6 60 12:21 10.04.2022
4293 Clouds 23 1019 79 10000 2.06 90 11:29 10.04.2022
4294 Clouds 23 1019 80 10000 2.68 40 10:56 10.04.2022
4295 Rain 23 1019 84 10000 5.58 80 10:00 10.04.2022
4296 Clouds 23 1018 77 10000 3.58 50 09:38 10.04.2022
4297 Clouds 23 1018 79 10000 3.6 50 08:23 10.04.2022
4298 Clouds 24 1013 75 10000 6.69 90 07:35 10.04.2022
4299 Clouds 25 1016 74 10000 5.14 80 05:50 10.04.2022
4300 Clouds 27 1017 65 10000 9.26 70 02:34 10.04.2022
4301 Clouds 28 1018 59 10000 7.2 80 00:29 10.04.2022
4302 Clouds 28 1019 57 10000 7.72 80 23:49 09.04.2022
4303 Clouds 27 1019 65 10000 9.77 70 22:48 09.04.2022
4304 Clouds 26 1019 68 10000 6.17 70 21:35 09.04.2022
4305 Clouds 24 1000 77 10000 4.63 60 20:49 09.04.2022
4306 Clouds 23 1000 78 10000 4.63 60 20:26 09.04.2022
4307 Clouds 23 1005 78 10000 6.17 80 19:42 09.04.2022
4308 Rain 22 994 82 10000 4.92 60 18:59 09.04.2022
4309 Clouds 22 1002 78 10000 5.14 60 18:20 09.04.2022
4310 Clouds 22 1004 78 10000 4.63 60 17:39 09.04.2022
4311 Clouds 22 1003 78 10000 5.66 60 16:52 09.04.2022
4312 Clouds 22 995 80 10000 3.09 0 15:55 09.04.2022
4313 Clouds 22 1003 78 10000 3.09 70 15:30 09.04.2022
4314 Clouds 23 1019 78 10000 3.09 60 14:44 09.04.2022
4315 Clouds 22 999 79 10000 3.09 60 14:22 09.04.2022
4316 Clouds 23 1019 76 10000 5.66 70 13:18 09.04.2022
4317 Clouds 23 1020 77 10000 5.66 70 12:41 09.04.2022
4318 Rain 23 1020 77 10000 5.14 70 11:22 09.04.2022
4319 Clouds 23 1020 76 10000 5.14 60 10:21 09.04.2022
4320 Clouds 23 1013 74 10000 5.14 60 09:37 09.04.2022
4321 Clouds 23 1013 73 10000 7.2 60 08:51 09.04.2022
4322 Clouds 23 1003 74 10000 7.2 80 06:48 09.04.2022
4323 Clouds 25 999 68 10000 7.72 80 01:32 09.04.2022
4324 Clouds 26 1019 66 10000 5.66 60 23:30 08.04.2022
4325 Clouds 24 1019 74 10000 7.14 84 21:58 08.04.2022
4326 Clouds 24 1019 71 10000 6.17 70 20:48 08.04.2022
4327 Clouds 24 1019 72 10000 6.17 70 20:23 08.04.2022
4328 Clouds 23 1016 77 10000 3.09 70 19:18 08.04.2022
4329 Rain 23 1017 78 10000 4.12 80 18:28 08.04.2022
4330 Clouds 23 1017 71 10000 6.17 60 17:45 08.04.2022
4331 Clouds 23 1017 75 10000 6.17 60 17:22 08.04.2022
4332 Clouds 23 1017 76 10000 3.6 60 16:38 08.04.2022
4333 Clouds 23 1017 75 10000 4.12 60 15:56 08.04.2022
4334 Clouds 23 1017 77 10000 4.12 60 15:25 08.04.2022
4335 Clouds 23 1014 73 10000 4.47 60 14:26 08.04.2022
4336 Clouds 23 1014 71 10000 4.63 60 13:44 08.04.2022
4337 Clouds 23 1014 71 10000 4.63 60 13:25 08.04.2022
4338 Clouds 23 1018 69 10000 7.2 80 11:53 08.04.2022
4339 Clouds 24 1013 66 10000 6.69 50 10:32 08.04.2022
4340 Clouds 24 1013 66 10000 6.17 60 09:26 08.04.2022
4341 Clouds 24 1012 67 10000 7.2 70 08:30 08.04.2022
4342 Clouds 25 1016 66 10000 8.23 60 06:47 08.04.2022
4343 Clouds 26 1015 62 10000 8.75 50 04:34 08.04.2022
4344 Clouds 27 1017 55 10000 11.32 60 00:42 08.04.2022
4345 Clouds 27 1017 54 10000 11.32 60 00:18 08.04.2022
4346 Clear 26 1017 60 10000 8.49 90 22:58 07.04.2022
4347 Clouds 26 1017 57 10000 8.75 90 22:37 07.04.2022
4348 Clouds 26 1017 58 10000 8.75 90 22:19 07.04.2022
4349 Clouds 26 1017 59 10000 8.75 60 21:49 07.04.2022
4350 Clear 25 1009 64 10000 7.6 60 20:58 07.04.2022
4351 Clouds 24 1013 65 10000 7.72 60 20:30 07.04.2022
4352 Clouds 23 1016 72 10000 5.14 80 17:57 07.04.2022
4353 Clouds 23 1016 73 10000 4.12 60 17:24 07.04.2022
4354 Clouds 23 1013 73 10000 5.14 60 16:43 07.04.2022
4355 Clouds 23 1013 73 10000 5.14 60 16:18 07.04.2022
4356 Clouds 23 1016 73 10000 5.14 60 14:31 07.04.2022
4357 Clouds 23 1014 73 10000 5.66 70 13:41 07.04.2022
4358 Clouds 23 1014 74 10000 3.6 30 12:40 07.04.2022
4359 Clear 23 1017 73 10000 8.75 70 10:58 07.04.2022
4360 Clouds 23 1017 74 10000 6.17 60 09:36 07.04.2022
4361 Clouds 23 1015 76 10000 5.14 50 08:35 07.04.2022
4362 Clouds 24 1014 78 10000 3.6 50 06:29 07.04.2022
4363 Clouds 26 1014 63 10000 6.17 40 02:43 07.04.2022
4364 Clouds 26 1014 64 10000 8.23 40 01:52 07.04.2022
4365 Clouds 26 1017 66 10000 7.77 65 23:56 06.04.2022
4366 Clouds 25 1015 66 10000 6.17 50 22:46 06.04.2022
4367 Clouds 25 1017 66 10000 6.17 50 22:24 06.04.2022
4368 Clouds 25 1015 71 10000 4.12 50 21:31 06.04.2022
4369 Clouds 23 1015 79 10000 3.6 310 20:27 06.04.2022
4370 Rain 23 1014 82 10000 0.45 0 19:53 06.04.2022
4371 Clouds 21 1014 86 10000 3.09 330 18:50 06.04.2022
4372 Clouds 21 1014 88 10000 3.09 310 17:52 06.04.2022
4373 Clouds 21 1013 87 10000 3.09 310 17:28 06.04.2022
4374 Clouds 21 1015 87 10000 1.54 340 16:35 06.04.2022
4375 Clouds 22 1016 84 10000 0 0 15:47 06.04.2022
4376 Clouds 22 1016 84 10000 2.06 330 14:20 06.04.2022
4377 Clouds 22 1017 82 10000 2.57 10 12:58 06.04.2022
4378 Clouds 22 1017 87 10000 3.84 28 11:54 06.04.2022
4379 Clouds 23 1015 76 10000 4.63 60 10:43 06.04.2022
4380 Clouds 23 1015 76 10000 4.63 60 10:19 06.04.2022
4381 Clouds 23 1014 74 10000 3.6 80 09:26 06.04.2022
4382 Clouds 23 1016 76 10000 1.54 0 08:26 06.04.2022
4383 Clouds 24 1013 70 10000 7.15 50 07:37 06.04.2022
4384 Clouds 26 1015 64 10000 6.69 60 02:19 06.04.2022
4385 Clouds 27 1017 64 10000 6.69 70 23:50 05.04.2022
4386 Clouds 27 1017 65 10000 5.66 90 22:20 05.04.2022
4387 Clouds 24 1018 72 10000 5.66 60 21:18 05.04.2022
4388 Clouds 24 1018 74 10000 5.66 60 21:18 05.04.2022
4389 Clouds 24 1018 72 10000 5.66 60 21:18 05.04.2022
4390 Clouds 24 1018 72 10000 5.66 60 21:18 05.04.2022
4391 Clouds 24 1018 76 10000 3.6 80 20:25 05.04.2022
4392 Clouds 22 1016 82 10000 6.17 70 18:56 05.04.2022
4393 Clouds 22 1016 80 10000 5.66 80 17:31 05.04.2022
4394 Clouds 23 1017 79 10000 5.14 80 16:47 05.04.2022
4395 Clouds 22 1017 84 10000 0 0 15:52 05.04.2022
4396 Clouds 22 1017 84 10000 0 0 15:33 05.04.2022
4397 Clouds 22 1017 84 10000 0 0 15:33 05.04.2022
4398 Clouds 22 1018 81 10000 1.54 40 14:18 05.04.2022
4399 Clouds 22 1011 81 10000 1.34 20 12:55 05.04.2022
4400 Clouds 22 1020 81 10000 5.14 70 11:49 05.04.2022
4401 Clouds 23 1020 80 10000 5.14 70 11:31 05.04.2022
4402 Clouds 23 1016 73 10000 4.63 90 09:42 05.04.2022
4403 Clouds 23 1019 74 10000 3.6 80 08:52 05.04.2022
4404 Clouds 24 1018 68 10000 7.72 70 05:28 05.04.2022
4405 Clouds 26 1020 60 10000 10.29 70 00:39 05.04.2022
4406 Clouds 26 1021 59 10000 7.72 80 22:41 04.04.2022
4407 Clouds 25 1021 67 10000 6.45 90 21:57 04.04.2022
4408 Clouds 25 1020 63 10000 9.77 80 21:21 04.04.2022
4409 Clouds 24 1020 66 10000 7.2 70 20:48 04.04.2022
4410 Clouds 23 1018 72 10000 5.66 70 19:39 04.04.2022
4411 Clouds 23 1017 76 10000 9.6 76 18:59 04.04.2022
4412 Clouds 23 1015 72 10000 4.47 70 17:54 04.04.2022
4413 Clouds 23 1017 72 10000 6.17 70 16:36 04.04.2022
4414 Clouds 23 1016 71 10000 7.2 60 15:34 04.04.2022
4415 Clouds 23 1015 74 10000 5.81 60 14:58 04.04.2022
4416 Clouds 23 1017 71 10000 6.17 60 14:40 04.04.2022
4417 Clouds 23 1019 71 10000 6.17 70 13:21 04.04.2022
4418 Clouds 24 1017 68 10000 7.2 80 11:48 04.04.2022
4419 Clouds 24 1017 70 10000 7.2 80 11:27 04.04.2022
4420 Clouds 24 1019 74 10000 8.23 60 07:46 04.04.2022
4421 Clouds 25 1017 71 10000 9.77 60 03:52 04.04.2022
4422 Clouds 26 1019 65 10000 9.26 50 00:25 04.04.2022
4423 Clouds 26 1018 58 10000 8.23 50 22:33 03.04.2022
4424 Clouds 25 1018 59 10000 8.23 60 21:38 03.04.2022
4425 Clouds 25 1019 66 10000 7.2 90 20:41 03.04.2022
4426 Clouds 23 1017 68 10000 6.17 60 19:45 03.04.2022
4427 Clouds 23 1017 71 10000 5.14 60 18:31 03.04.2022
4428 Clouds 23 1019 73 10000 8.23 60 17:46 03.04.2022
4429 Clouds 23 1019 73 10000 6.17 60 16:50 03.04.2022
4430 Clouds 23 1017 71 10000 6.17 60 16:31 03.04.2022
4431 Clouds 23 1017 72 10000 5.66 60 14:38 03.04.2022
4432 Clouds 23 1020 73 10000 5.66 60 13:46 03.04.2022
4433 Clouds 24 1020 73 10000 7.2 50 12:38 03.04.2022
4434 Clouds 23 1017 76 10000 7.6 60 10:58 03.04.2022
4435 Clouds 23 1020 74 10000 8.23 70 09:36 03.04.2022
4436 Clouds 23 1019 77 10000 8.23 70 07:37 03.04.2022
4437 Rain 26 1018 67 10000 7.72 30 04:19 03.04.2022
4438 Clouds 27 1017 61 10000 9.77 70 00:41 03.04.2022
4439 Clouds 26 1019 63 10000 7.6 50 22:57 02.04.2022
4440 Clouds 26 1014 65 10000 8.49 60 21:57 02.04.2022
4441 Clouds 26 1017 63 10000 8.75 60 21:36 02.04.2022
4442 Clouds 25 1016 65 10000 10.29 70 20:52 02.04.2022
4443 Clouds 24 1016 70 10000 9.77 60 19:32 02.04.2022
4444 Clouds 23 1018 72 10000 7.6 70 18:21 02.04.2022
4445 Clouds 23 1018 73 10000 7.72 70 17:52 02.04.2022
4446 Clouds 23 1018 76 10000 6.17 70 16:23 02.04.2022
4447 Clouds 23 1017 75 10000 7.2 60 15:21 02.04.2022
4448 Clouds 23 1015 76 10000 8.23 60 14:47 02.04.2022
4449 Clouds 23 1016 75 10000 7.2 60 13:35 02.04.2022
4450 Rain 23 1019 75 10000 7.6 60 12:37 02.04.2022
4451 Clouds 23 1019 77 10000 7.72 60 11:23 02.04.2022
4452 Clouds 23 1018 72 10000 5.14 70 08:50 02.04.2022
4453 Clouds 24 1017 74 10000 4.63 40 06:50 02.04.2022
4454 Rain 24 1015 78 10000 8.23 70 03:45 02.04.2022
4455 Clouds 25 1018 77 10000 4.92 30 23:56 01.04.2022
4456 Clouds 26 1019 67 10000 5.14 30 23:22 01.04.2022
4457 Clouds 25 1018 71 10000 7.2 60 21:34 01.04.2022
4458 Clouds 24 1018 73 10000 5.66 40 20:51 01.04.2022
4459 Clouds 24 1017 76 10000 5.66 40 20:25 01.04.2022
4460 Clouds 23 1018 74 10000 5.14 40 19:32 01.04.2022
4461 Clouds 23 1017 76 10000 6.17 70 18:45 01.04.2022
4462 Clouds 22 1017 76 10000 7.2 60 17:46 01.04.2022
4463 Clouds 22 1017 77 10000 5.14 60 16:52 01.04.2022
4464 Clouds 23 1018 76 10000 3.09 40 15:39 01.04.2022
4465 Clouds 23 1018 76 10000 6.17 40 14:20 01.04.2022
4466 Clouds 23 1019 76 10000 5.66 40 13:33 01.04.2022
4467 Clouds 23 1019 79 10000 4.63 50 12:32 01.04.2022
4468 Rain 23 1020 80 10000 4.12 20 11:37 01.04.2022
4469 Clouds 23 1020 81 10000 5.14 30 10:19 01.04.2022
4470 Clouds 23 1018 81 10000 3.6 40 08:47 01.04.2022
4471 Clouds 23 1015 89 10000 2.68 76 06:54 01.04.2022
4472 Rain 25 1016 81 10000 4.12 10 04:49 01.04.2022
4473 Clouds 25 1016 80 10000 4.12 10 04:30 01.04.2022
4474 Rain 26 1014 71 10000 6.71 40 01:56 01.04.2022
4475 Clouds 26 1018 71 10000 8.49 70 22:58 31.03.2022
4476 Clouds 26 1019 70 10000 7.2 70 21:50 31.03.2022
4477 Clouds 25 1020 71 10000 7.2 70 21:31 31.03.2022
4478 Clouds 25 1018 76 10000 4.12 80 20:29 31.03.2022
4479 Clouds 23 1018 83 10000 0.89 31 19:48 31.03.2022
4480 Clouds 22 1018 84 10000 2.06 30 18:43 31.03.2022
4481 Rain 22 1017 86 10000 0.89 3 17:49 31.03.2022
4482 Clear 22 1017 87 10000 1.54 30 16:37 31.03.2022
4483 Mist 22 1017 89 6437 0.89 79 15:37 31.03.2022
4484 Mist 23 1018 89 6437 2.68 40 15:19 31.03.2022
4485 Rain 23 1018 87 10000 3.09 40 14:34 31.03.2022
4486 Rain 24 1020 82 10000 6.17 60 11:34 31.03.2022
4487 Rain 24 1019 81 10000 4.63 60 10:41 31.03.2022
4488 Clouds 24 1019 78 10000 5.66 80 09:44 31.03.2022
4489 Clear 24 1016 81 10000 0.45 133 07:53 31.03.2022
4490 Clouds 27 1016 68 10000 6.69 60 04:42 31.03.2022
4491 Clouds 27 1019 60 10000 7.2 90 23:34 30.03.2022
4492 Clouds 26 1020 64 10000 5.66 80 22:23 30.03.2022
4493 Clouds 26 1019 68 10000 2.06 0 21:33 30.03.2022
4494 Clouds 25 1018 74 10000 2.06 340 20:44 30.03.2022
4495 Rain 23 1017 79 3219 4.12 70 19:57 30.03.2022
4496 Clouds 22 1017 84 10000 2.06 330 18:50 30.03.2022
4497 Clouds 22 1016 85 10000 2.06 340 17:52 30.03.2022
4498 Clouds 22 1016 85 10000 2.06 340 17:52 30.03.2022
4499 Clouds 22 1016 86 10000 2.06 340 17:32 30.03.2022
4500 Clouds 22 1016 85 10000 2.57 340 16:42 30.03.2022
4501 Clouds 22 1016 84 10000 2.57 340 16:19 30.03.2022
4502 Clear 23 1017 83 10000 2.06 360 14:47 30.03.2022
4503 Clouds 23 1018 80 10000 2.57 60 13:26 30.03.2022
4504 Clouds 23 1018 81 10000 2.06 360 12:32 30.03.2022
4505 Clouds 23 1018 80 10000 1.54 30 10:48 30.03.2022
4506 Clouds 23 1017 81 10000 2.68 60 09:58 30.03.2022
4507 Clouds 23 1017 80 10000 2.06 130 08:28 30.03.2022
4508 Clouds 24 1016 77 10000 4.02 140 07:29 30.03.2022
4509 Clouds 26 1015 68 10000 5.14 120 05:40 30.03.2022
4510 Clouds 27 1017 63 10000 6.71 90 02:40 30.03.2022
4511 Clouds 26 1017 66 10000 5.66 50 22:43 29.03.2022
4512 Clouds 25 1017 73 10000 5.14 50 21:52 29.03.2022
4513 Clouds 25 1017 73 10000 5.14 50 21:34 29.03.2022
4514 Clouds 23 1017 83 10000 1.54 350 20:26 29.03.2022
4515 Clouds 22 1017 86 10000 2.06 340 19:34 29.03.2022
4516 Clouds 21 1016 86 10000 2.06 130 18:53 29.03.2022
4517 Clouds 21 1016 90 10000 0 0 17:52 29.03.2022
4518 Clouds 21 1016 91 10000 0 0 17:18 29.03.2022
4519 Clouds 21 1015 88 10000 2.57 20 16:52 29.03.2022
4520 Clouds 21 1015 89 10000 1.54 20 15:29 29.03.2022
4521 Clouds 21 1016 88 10000 2.06 350 14:43 29.03.2022
4522 Clouds 21 1016 88 10000 2.06 350 14:43 29.03.2022
4523 Clouds 22 1016 85 10000 2.06 360 13:34 29.03.2022
4524 Clouds 22 1016 82 10000 1.54 310 12:22 29.03.2022
4525 Clouds 23 1016 82 10000 2.24 90 10:59 29.03.2022
4526 Clouds 22 1015 82 10000 0.45 133 09:58 29.03.2022
4527 Clouds 23 1015 74 10000 3.09 40 08:43 29.03.2022
4528 Clouds 24 1014 68 10000 4.63 40 06:48 29.03.2022
4529 Clouds 26 1014 63 10000 4.12 160 02:27 29.03.2022
4530 Rain 26 1016 62 10000 4.63 60 23:26 28.03.2022
4531 Rain 26 1016 62 10000 4.63 60 23:26 28.03.2022
4532 Rain 26 1016 62 10000 4.63 60 23:26 28.03.2022
4533 Clouds 26 1016 67 10000 1.79 110 22:56 28.03.2022
4534 Clouds 25 1017 67 10000 2.06 110 22:31 28.03.2022
4535 Clouds 25 1017 72 10000 2.06 30 21:38 28.03.2022
4536 Clouds 23 1016 81 10000 2.57 10 20:32 28.03.2022
4537 Clouds 21 1015 89 10000 2.06 350 19:47 28.03.2022
4538 Clouds 20 1015 90 10000 2.06 350 19:29 28.03.2022
4539 Clouds 20 1013 90 10000 2.06 350 18:40 28.03.2022
4540 Clear 20 1013 91 10000 2.06 330 17:40 28.03.2022
4541 Clouds 20 1012 92 10000 2.06 320 16:38 28.03.2022
4542 Clouds 20 1014 90 10000 1.54 350 14:50 28.03.2022
4543 Clouds 20 1014 90 10000 1.54 350 14:22 28.03.2022
4544 Rain 21 1015 88 10000 0 0 12:41 28.03.2022
4545 Rain 21 1015 87 10000 3.09 330 11:38 28.03.2022
4546 Clouds 21 1015 87 10000 2.06 350 09:43 28.03.2022
4547 Clouds 21 1015 86 10000 2.06 350 09:19 28.03.2022
4548 Clouds 22 1014 85 10000 1.54 360 08:23 28.03.2022
4549 Rain 22 1014 82 10000 3.09 50 07:40 28.03.2022
4550 Rain 25 1012 70 10000 4.63 200 04:27 28.03.2022
4551 Rain 25 1017 70 10000 3.09 340 23:43 27.03.2022
4552 Rain 24 1015 76 10000 3.6 320 22:25 27.03.2022
4553 Clouds 23 1015 77 10000 2.06 0 21:42 27.03.2022
4554 Rain 22 1014 84 10000 5.11 72 20:58 27.03.2022
4555 Clouds 22 1015 79 10000 5.66 50 19:49 27.03.2022
4556 Clouds 21 1015 81 10000 2.57 350 19:26 27.03.2022
4557 Clouds 20 1014 84 10000 2.06 360 18:28 27.03.2022
4558 Clouds 20 1014 84 10000 2.57 0 17:40 27.03.2022
4559 Clouds 20 1014 83 10000 2.57 0 17:20 27.03.2022
4560 Clear 22 1014 75 10000 0 0 15:28 27.03.2022
4561 Clear 22 1014 77 10000 2.68 60 13:56 27.03.2022
4562 Clear 22 1016 74 10000 2.06 30 12:38 27.03.2022
4563 Clouds 23 1017 73 10000 2.57 30 11:20 27.03.2022
4564 Clear 23 1013 74 10000 4.92 40 08:53 27.03.2022
4565 Clear 24 1014 73 10000 0.45 1 05:56 27.03.2022
4566 Clouds 26 1014 62 10000 1.34 147 00:57 27.03.2022
4567 Clouds 26 1018 54 10000 6.17 50 23:46 26.03.2022
4568 Clouds 27 1018 55 10000 7.2 50 22:38 26.03.2022
4569 Clouds 26 1019 57 10000 6.17 30 21:38 26.03.2022
4570 Clouds 26 1019 57 10000 6.17 30 21:38 26.03.2022
4571 Clouds 25 1018 61 10000 4.92 20 20:57 26.03.2022
4572 Clouds 24 1019 68 10000 3.09 340 19:21 26.03.2022
4573 Clouds 21 1017 76 10000 2.24 20 17:54 26.03.2022
4574 Clouds 21 1018 76 10000 2.57 20 17:54 26.03.2022
4575 Clouds 21 1018 76 10000 2.57 20 17:33 26.03.2022
4576 Clouds 21 1018 76 10000 2.57 20 17:33 26.03.2022
4577 Clouds 22 1017 75 10000 2.06 10 16:27 26.03.2022
4578 Rain 21 1017 78 10000 4.47 40 14:57 26.03.2022
4579 Rain 21 1018 78 10000 2.68 20 13:53 26.03.2022
4580 Rain 22 1019 76 10000 9.26 30 12:59 26.03.2022
4581 Rain 22 1020 76 10000 9.26 30 11:41 26.03.2022
4582 Rain 22 1020 76 10000 9.26 30 11:41 26.03.2022
4583 Rain 22 1020 79 10000 9.26 40 10:22 26.03.2022
4584 Rain 23 1020 78 10000 2.06 30 08:34 26.03.2022
4585 Clouds 23 1017 75 10000 4.47 30 05:54 26.03.2022
4586 Clouds 25 1017 71 10000 6.17 20 04:23 26.03.2022
4587 Rain 25 1018 76 10000 5.66 20 00:22 26.03.2022
4588 Rain 23 1019 84 10000 5.14 20 21:41 25.03.2022
4589 Rain 22 1019 89 6437 0 0 20:46 25.03.2022
4590 Rain 21 1019 92 10000 2.06 360 19:36 25.03.2022
4591 Rain 22 1019 90 10000 0.89 347 18:47 25.03.2022
4592 Rain 22 1018 87 10000 1.54 360 17:37 25.03.2022
4593 Rain 22 1017 87 10000 2.06 60 16:50 25.03.2022
4594 Rain 22 1017 87 10000 2.06 60 16:18 25.03.2022
4595 Rain 23 1017 80 10000 3.09 10 14:22 25.03.2022
4596 Clouds 23 1020 79 10000 2.06 30 12:33 25.03.2022
4597 Clouds 24 1018 75 10000 4.47 70 09:55 25.03.2022
4598 Clouds 24 1019 72 10000 4.63 70 09:27 25.03.2022
4599 Clear 24 1018 73 10000 4.02 90 07:53 25.03.2022
4600 Clouds 24 1018 72 10000 4.12 90 07:26 25.03.2022
4601 Clouds 25 1018 66 10000 3.09 0 05:23 25.03.2022
4602 Clouds 27 1018 56 10000 9.26 70 00:33 25.03.2022
4603 Clouds 26 1018 64 10000 7.72 70 22:30 24.03.2022
4604 Clouds 25 1019 71 10000 8.23 60 21:35 24.03.2022
4605 Rain 23 1018 80 10000 6.17 60 19:50 24.03.2022
4606 Rain 22 1017 85 10000 5.66 60 18:58 24.03.2022
4607 Clouds 23 1017 82 10000 4.12 60 17:45 24.03.2022
4608 Rain 22 1017 83 10000 4.12 50 16:54 24.03.2022
4609 Rain 22 1017 90 8047 2.57 90 15:19 24.03.2022
4610 Rain 22 1017 88 10000 5.66 70 14:42 24.03.2022
4611 Rain 23 1016 90 10000 1.79 111 13:54 24.03.2022
4612 Rain 23 1018 87 9656 4.63 20 12:39 24.03.2022
4613 Rain 23 1018 86 10000 2.57 50 11:33 24.03.2022
4614 Rain 23 1020 81 10000 7.15 40 09:48 24.03.2022
4615 Rain 23 1019 77 10000 7.2 40 08:40 24.03.2022
4616 Rain 23 1019 77 10000 7.2 40 08:40 24.03.2022
4617 Clouds 24 1017 75 10000 8.23 60 06:19 24.03.2022
4618 Clouds 27 1017 64 10000 7.2 80 01:43 24.03.2022
4619 Clouds 26 1019 65 10000 8.75 60 22:29 23.03.2022
4620 Clouds 26 1018 68 10000 8.23 60 21:25 23.03.2022
4621 Clouds 25 1019 71 10000 7.2 70 20:47 23.03.2022
4622 Clouds 25 1018 75 10000 6.17 60 19:43 23.03.2022
4623 Clouds 25 1018 75 10000 6.17 60 19:43 23.03.2022
4624 Rain 24 1017 75 10000 7.2 60 18:22 23.03.2022
4625 Rain 23 1017 78 10000 7.2 60 17:36 23.03.2022
4626 Clouds 24 1016 76 10000 8.23 50 16:18 23.03.2022
4627 Clouds 24 1017 77 10000 8.23 60 14:50 23.03.2022
4628 Clouds 24 1017 77 10000 6.17 50 13:51 23.03.2022
4629 Clouds 24 1016 77 10000 5.66 60 11:51 23.03.2022
4630 Clouds 24 1019 74 10000 5.36 60 09:21 23.03.2022
4631 Clouds 23 1018 75 10000 8.75 60 06:29 23.03.2022
4632 Clouds 24 1015 81 10000 1.79 78 03:57 23.03.2022
4633 Clouds 27 1019 59 10000 7.2 40 00:29 23.03.2022
4634 Clouds 27 1019 59 10000 7.2 40 00:29 23.03.2022
4635 Clouds 25 1019 70 10000 5.66 60 22:25 22.03.2022
4636 Clouds 25 1019 71 10000 5.14 50 21:29 22.03.2022
4637 Clouds 24 1018 76 10000 5.14 70 20:34 22.03.2022
4638 Clouds 24 1018 78 10000 5.14 60 19:31 22.03.2022
4639 Clouds 22 1016 87 10000 1.79 30 18:54 22.03.2022
4640 Clouds 22 1016 84 10000 2.57 30 17:44 22.03.2022
4641 Clouds 22 1016 84 10000 2.57 30 17:18 22.03.2022
4642 Clouds 22 1016 87 10000 0.89 140 15:49 22.03.2022
4643 Clouds 22 1016 87 10000 0 0 15:21 22.03.2022
4644 Clouds 22 1016 87 10000 1.54 300 14:45 22.03.2022
4645 Rain 22 1017 87 10000 1.54 300 14:24 22.03.2022
4646 Rain 23 1018 83 10000 2.57 30 12:40 22.03.2022
4647 Clouds 23 1018 81 10000 2.57 300 11:26 22.03.2022
4648 Clouds 23 1018 82 10000 2.57 330 09:52 22.03.2022
4649 Clouds 24 1017 78 10000 2.06 10 07:44 22.03.2022
4650 Clouds 25 1015 72 10000 2.57 50 04:36 22.03.2022
4651 Rain 26 1015 70 10000 4.12 230 02:52 22.03.2022
4652 Clouds 27 1018 58 10000 5.14 220 23:21 21.03.2022
4653 Clouds 27 1018 59 10000 3.6 190 21:47 21.03.2022
4654 Clouds 26 1017 68 10000 0 0 20:45 21.03.2022
4655 Clouds 26 1018 69 10000 0 0 20:24 21.03.2022
4656 Clouds 24 1016 75 10000 2.06 330 19:48 21.03.2022
4657 Clouds 24 1016 79 10000 2.06 330 19:22 21.03.2022
4658 Clouds 21 1015 87 10000 2.57 310 17:36 21.03.2022
4659 Clouds 21 1014 89 10000 1.34 350 16:59 21.03.2022
4660 Clouds 21 1015 86 10000 1.54 350 16:35 21.03.2022
4661 Clouds 21 1015 86 10000 1.54 60 15:45 21.03.2022
4662 Clouds 21 1015 90 10000 0 0 14:47 21.03.2022
4663 Clouds 22 1016 88 10000 2.06 310 13:27 21.03.2022
4664 Clouds 22 1016 87 10000 2.06 340 12:22 21.03.2022
4665 Clouds 23 1016 84 10000 2.06 90 11:34 21.03.2022
4666 Rain 23 1017 88 10000 2.57 230 09:53 21.03.2022
4667 Clouds 23 1015 88 10000 2.24 190 07:53 21.03.2022
4668 Clouds 24 1015 82 10000 2.57 210 06:29 21.03.2022
4669 Clouds 26 1015 69 10000 3.09 0 02:23 21.03.2022
4670 Clouds 27 1016 70 10000 2.68 200 22:57 20.03.2022
4671 Clouds 27 1017 70 10000 3.09 200 22:36 20.03.2022
4672 Clouds 26 1017 73 10000 2.57 0 21:40 20.03.2022
4673 Rain 25 1017 78 10000 2.06 340 20:58 20.03.2022
4674 Rain 25 1017 78 10000 2.06 340 20:36 20.03.2022
4675 Clouds 24 1016 81 10000 1.54 10 19:55 20.03.2022
4676 Clouds 24 1016 83 10000 1.54 10 19:24 20.03.2022
4677 Clouds 21 1017 90 10000 2.06 330 17:49 20.03.2022
4678 Clouds 21 1017 89 10000 2.06 330 17:27 20.03.2022
4679 Clouds 22 1015 87 10000 1.54 340 16:38 20.03.2022
4680 Clouds 22 1016 85 10000 2.06 350 14:50 20.03.2022
4681 Clouds 23 1015 85 10000 2.57 320 13:39 20.03.2022
4682 Clouds 23 1017 82 10000 3.6 70 12:19 20.03.2022
4683 Clouds 24 1017 79 10000 2.68 30 09:59 20.03.2022
4684 Clouds 24 1017 78 10000 3.6 20 08:21 20.03.2022
4685 Clouds 24 1017 73 10000 4.12 50 06:37 20.03.2022
4686 Clouds 27 1015 64 10000 4.12 90 03:18 20.03.2022
4687 Clouds 28 1013 61 10000 8.05 60 00:53 20.03.2022
4688 Clouds 27 1016 59 10000 8.23 60 00:34 20.03.2022
4689 Clouds 26 1015 62 10000 5.14 60 22:31 19.03.2022
4690 Clouds 26 1016 69 10000 7.72 60 21:26 19.03.2022
4691 Clouds 24 1018 76 10000 1.54 40 19:29 19.03.2022
4692 Clouds 23 1018 79 10000 2.57 20 18:38 19.03.2022
4693 Clouds 22 1018 83 10000 2.57 10 17:49 19.03.2022
4694 Clouds 23 1017 81 10000 4.63 60 16:46 19.03.2022
4695 Clouds 23 1017 81 10000 3.6 50 15:29 19.03.2022
4696 Clouds 23 1018 78 10000 5.14 50 13:49 19.03.2022
4697 Clouds 23 1018 75 10000 5.14 80 12:43 19.03.2022
4698 Clouds 23 1019 76 10000 5.14 80 12:20 19.03.2022
4699 Clouds 23 1019 74 10000 6.71 70 11:45 19.03.2022
4700 Clouds 24 1019 71 10000 6.17 80 09:22 19.03.2022
4701 Clouds 26 1016 66 10000 6.71 80 04:53 19.03.2022
4702 Clouds 27 1016 60 10000 5.14 70 02:33 19.03.2022
4703 Clouds 28 1020 56 10000 9.26 70 23:51 18.03.2022
4704 Clouds 27 1015 57 10000 8.75 70 22:48 18.03.2022
4705 Clouds 27 1016 58 10000 8.75 70 22:21 18.03.2022
4706 Clouds 26 1020 63 10000 6.71 50 20:25 18.03.2022
4707 Clouds 25 1019 65 10000 6.71 80 19:24 18.03.2022
4708 Clouds 24 1019 69 10000 5.66 80 18:43 18.03.2022
4709 Clouds 23 1018 74 10000 4.12 70 16:54 18.03.2022
4710 Clouds 23 1018 75 10000 4.12 70 16:23 18.03.2022
4711 Clouds 23 1018 74 10000 6.71 70 14:26 18.03.2022
4712 Clouds 23 1018 75 10000 3.6 60 13:39 18.03.2022
4713 Clouds 23 1018 75 10000 4.63 60 11:35 18.03.2022
4714 Clouds 24 1019 74 10000 4.63 70 10:21 18.03.2022
4715 Clouds 24 1019 73 10000 4.63 60 08:46 18.03.2022
4716 Clouds 24 1018 71 10000 7.72 70 06:45 18.03.2022
4717 Clouds 24 1018 71 10000 7.72 70 06:45 18.03.2022
4718 Clouds 26 1016 68 10000 6.69 30 04:39 18.03.2022
4719 Clouds 27 1018 62 10000 6.71 40 00:55 18.03.2022
4720 Clouds 27 1020 58 10000 6.17 40 23:52 17.03.2022
4721 Clouds 27 1019 61 10000 7.2 50 22:44 17.03.2022
4722 Clouds 27 1019 61 10000 7.2 50 22:18 17.03.2022
4723 Clouds 26 1019 62 10000 5.14 70 21:27 17.03.2022
4724 Clouds 26 1019 63 10000 5.66 80 20:53 17.03.2022
4725 Clouds 26 1019 64 10000 5.66 80 20:19 17.03.2022
4726 Clouds 24 1019 71 10000 4.63 80 19:37 17.03.2022
4727 Clouds 23 1018 75 10000 5.66 70 18:51 17.03.2022
4728 Clouds 23 1018 78 10000 3.6 80 17:28 17.03.2022
4729 Clouds 23 1018 80 10000 4.12 50 16:19 17.03.2022
4730 Clouds 23 1018 80 10000 4.12 50 16:19 17.03.2022
4731 Clouds 23 1018 79 10000 2.06 20 15:42 17.03.2022
4732 Clouds 23 1018 80 10000 3.09 50 14:59 17.03.2022
4733 Clouds 24 1018 78 10000 4.63 70 13:35 17.03.2022
4734 Clouds 24 1019 78 10000 5.66 50 12:44 17.03.2022
4735 Clouds 24 1020 80 10000 3.6 50 11:32 17.03.2022
4736 Clouds 24 1019 80 10000 4.63 70 10:41 17.03.2022
4737 Clouds 24 1019 78 10000 4.12 70 08:46 17.03.2022
4738 Clouds 24 1019 78 10000 4.12 70 08:18 17.03.2022
4739 Clouds 25 1017 81 10000 4.12 90 05:49 17.03.2022
4740 Clouds 26 1015 77 10000 5.14 130 04:24 17.03.2022
4741 Clouds 28 1019 68 10000 6.69 150 00:24 17.03.2022
4742 Clouds 28 1017 69 10000 5.66 130 22:52 16.03.2022
4743 Clouds 28 1016 66 10000 5.66 130 22:33 16.03.2022
4744 Clouds 27 1020 72 10000 4.63 120 21:55 16.03.2022
4745 Clouds 28 1020 68 10000 1.54 0 20:32 16.03.2022
4746 Clouds 25 1018 81 10000 3.09 340 19:22 16.03.2022
4747 Clouds 24 1018 84 10000 2.06 340 18:40 16.03.2022
4748 Clouds 23 1017 87 10000 0 0 17:44 16.03.2022
4749 Clouds 23 1017 87 10000 0 0 17:26 16.03.2022
4750 Clouds 23 1016 87 10000 0.89 58 15:56 16.03.2022
4751 Clouds 23 1016 89 10000 2.57 340 14:31 16.03.2022
4752 Clouds 23 1016 86 10000 1.79 350 13:32 16.03.2022
4753 Clouds 23 1017 91 10000 3.58 66 11:58 16.03.2022
4754 Clouds 23 1016 85 10000 2.06 350 11:21 16.03.2022
4755 Clouds 24 1016 84 10000 0 0 10:28 16.03.2022
4756 Clouds 24 1019 84 10000 2.06 30 09:55 16.03.2022
4757 Clouds 25 1015 74 10000 3.09 230 06:33 16.03.2022
4758 Clouds 28 1017 53 10000 4.63 150 02:29 16.03.2022
4759 Clouds 27 1020 61 10000 4.12 170 22:51 15.03.2022
4760 Clouds 27 1020 62 10000 4.12 170 22:32 15.03.2022
4761 Clouds 25 1020 65 10000 3.09 60 20:36 15.03.2022
4762 Clouds 24 1018 75 10000 3.6 80 18:58 15.03.2022
4763 Clouds 22 1018 80 10000 2.68 320 17:24 15.03.2022
4764 Clouds 21 1017 81 10000 3.09 320 16:32 15.03.2022
4765 Clouds 21 1018 81 10000 2.06 330 15:21 15.03.2022
4766 Clouds 21 1018 82 10000 2.06 320 14:45 15.03.2022
4767 Clouds 22 1018 77 10000 2.57 40 13:55 15.03.2022
4768 Clouds 23 1019 76 10000 3.09 60 12:29 15.03.2022
4769 Clouds 23 1019 76 10000 2.06 60 11:31 15.03.2022
4770 Clouds 23 1019 76 10000 3.6 70 09:46 15.03.2022
4771 Clouds 24 1019 75 10000 3.6 30 08:42 15.03.2022
4772 Clouds 24 1015 72 10000 4.12 40 07:52 15.03.2022
4773 Clouds 24 1015 72 10000 4.12 40 07:32 15.03.2022
4774 Clouds 27 1016 62 10000 6.71 140 03:41 15.03.2022
4775 Clouds 28 1020 51 10000 6.17 40 23:44 14.03.2022
4776 Clouds 27 1020 51 10000 6.17 40 23:23 14.03.2022
4777 Clouds 26 1020 57 10000 7.2 50 22:26 14.03.2022
4778 Clouds 26 1019 61 10000 5.14 60 21:30 14.03.2022
4779 Clouds 26 1020 60 10000 5.14 60 20:41 14.03.2022
4780 Clouds 26 1019 63 10000 5.14 60 20:19 14.03.2022
4781 Clouds 23 1017 74 10000 5.14 70 18:42 14.03.2022
4782 Clouds 21 1016 79 10000 2.57 60 17:54 14.03.2022
4783 Clouds 22 1015 79 10000 4.02 80 16:58 14.03.2022
4784 Clouds 22 1017 74 10000 2.57 50 15:37 14.03.2022
4785 Clouds 23 1017 74 10000 4.12 70 14:40 14.03.2022
4786 Clear 23 1018 75 10000 4.12 70 12:22 14.03.2022
4787 Clouds 22 1019 74 10000 4.63 70 10:51 14.03.2022
4788 Clouds 23 1019 72 10000 5.66 80 09:41 14.03.2022
4789 Clouds 23 1019 72 10000 5.66 80 09:20 14.03.2022
4790 Clouds 24 1019 73 10000 5.66 60 08:55 14.03.2022
4791 Clouds 24 1019 73 10000 4.63 40 07:28 14.03.2022
4792 Clouds 25 1015 69 10000 5.66 40 05:44 14.03.2022
4793 Clouds 28 1017 59 10000 6.71 140 01:52 14.03.2022
4794 Clouds 27 1017 60 10000 6.71 140 01:20 14.03.2022
4795 Clouds 27 1018 63 10000 5.66 120 22:42 13.03.2022
4796 Clouds 26 1020 59 10000 3.6 90 21:28 13.03.2022
4797 Clouds 26 1019 66 10000 4.02 100 20:55 13.03.2022
4798 Clouds 25 1020 65 10000 4.12 100 20:29 13.03.2022
4799 Clouds 24 1019 71 10000 2.57 30 19:49 13.03.2022
4800 Clouds 24 1019 73 10000 2.57 30 19:27 13.03.2022
4801 Clouds 22 1018 78 10000 3.6 90 18:50 13.03.2022
4802 Clouds 22 1018 79 10000 3.6 90 18:30 13.03.2022
4803 Clouds 22 1018 78 10000 2.06 80 17:40 13.03.2022
4804 Clouds 22 1018 78 10000 2.06 80 17:40 13.03.2022
4805 Clouds 23 1018 77 10000 2.06 50 16:49 13.03.2022
4806 Clouds 23 1018 77 10000 2.06 50 16:27 13.03.2022
4807 Clouds 23 1018 77 10000 2.57 80 15:44 13.03.2022
4808 Clouds 22 1018 76 10000 3.6 70 14:50 13.03.2022
4809 Clouds 23 1018 76 10000 3.6 70 14:50 13.03.2022
4810 Clouds 22 1019 81 10000 2.57 40 13:30 13.03.2022
4811 Clouds 23 1020 78 10000 2.06 70 12:37 13.03.2022
4812 Clouds 23 1020 77 10000 3.09 50 11:51 13.03.2022
4813 Clouds 23 1020 78 10000 3.09 50 11:30 13.03.2022
4814 Clouds 24 1020 76 10000 4.63 50 10:46 13.03.2022
4815 Clouds 24 1021 74 10000 3.6 40 09:43 13.03.2022
4816 Clouds 24 1021 74 10000 3.6 40 09:20 13.03.2022
4817 Clouds 24 1020 74 10000 5.14 70 08:39 13.03.2022
4818 Clouds 24 1019 74 10000 4.12 60 07:37 13.03.2022
4819 Clouds 25 1018 68 10000 5.14 50 05:39 13.03.2022
4820 Clouds 27 1016 58 10000 7.72 50 01:48 13.03.2022
4821 Clouds 27 1019 65 10000 7.72 60 23:30 12.03.2022
4822 Clouds 26 1021 63 10000 5.66 50 21:48 12.03.2022
4823 Clouds 25 1021 70 10000 6.17 60 20:27 12.03.2022
4824 Clouds 25 1020 73 10000 6.17 60 19:46 12.03.2022
4825 Clouds 24 1020 74 10000 4.63 60 18:44 12.03.2022
4826 Clouds 23 1020 76 10000 4.63 60 18:19 12.03.2022
4827 Clear 23 1019 76 10000 5.14 60 16:32 12.03.2022
4828 Clouds 23 1020 75 10000 3.6 50 15:52 12.03.2022
4829 Clouds 23 1020 75 10000 3.6 50 15:22 12.03.2022
4830 Clouds 23 1020 75 10000 3.09 60 13:54 12.03.2022
4831 Clouds 23 1019 76 10000 2.68 60 13:54 12.03.2022
4832 Clouds 23 1021 73 10000 5.66 70 12:33 12.03.2022
4833 Clear 23 1020 75 10000 4.92 60 11:55 12.03.2022
4834 Clouds 24 1021 73 10000 5.14 60 11:33 12.03.2022
4835 Clouds 24 1021 73 10000 6.17 60 10:26 12.03.2022
4836 Clouds 24 1021 73 10000 5.14 70 09:43 12.03.2022
4837 Clouds 24 1020 73 10000 6.71 60 07:52 12.03.2022
4838 Clouds 24 1019 73 10000 6.71 50 06:40 12.03.2022
4839 Clouds 28 1021 57 10000 6.69 70 00:31 12.03.2022
4840 Clouds 28 1022 59 10000 5.66 60 23:41 11.03.2022
4841 Clouds 28 1022 62 10000 6.69 80 22:32 11.03.2022
4842 Clouds 27 1022 66 10000 6.69 70 21:24 11.03.2022
4843 Clouds 27 1022 66 10000 6.69 70 21:24 11.03.2022
4844 Clouds 26 1022 68 10000 6.17 70 20:46 11.03.2022
4845 Clouds 26 1022 69 10000 6.17 70 20:26 11.03.2022
4846 Clouds 25 1021 73 10000 4.63 60 19:32 11.03.2022
4847 Clouds 23 1019 82 10000 3.58 60 17:53 11.03.2022
4848 Clouds 23 1020 80 10000 3.6 60 17:24 11.03.2022
4849 Clouds 23 1019 78 10000 4.12 60 15:58 11.03.2022
4850 Clouds 23 1019 78 10000 4.12 60 15:29 11.03.2022
4851 Clouds 24 1019 79 10000 4.12 60 13:28 11.03.2022
4852 Clouds 24 1020 79 10000 3.09 50 12:30 11.03.2022
4853 Clear 24 1019 81 10000 2.24 40 11:57 11.03.2022
4854 Clouds 24 1020 79 10000 4.63 60 10:24 11.03.2022
4855 Clouds 24 1020 78 10000 4.63 50 09:33 11.03.2022
4856 Clouds 24 1019 76 10000 6.17 60 08:27 11.03.2022
4857 Clouds 25 1019 77 10000 6.17 80 07:46 11.03.2022
4858 Clouds 25 1018 74 10000 5.14 70 06:25 11.03.2022
4859 Clouds 26 1017 73 10000 4.12 220 04:24 11.03.2022
4860 Clouds 28 1018 61 10000 5.14 50 00:39 11.03.2022
4861 Clouds 28 1020 66 10000 4.12 170 22:32 10.03.2022
4862 Clouds 27 1018 69 10000 3.6 130 21:52 10.03.2022
4863 Clouds 27 1018 69 10000 3.6 130 21:24 10.03.2022
4864 Clouds 24 1018 81 10000 1.54 350 19:54 10.03.2022
4865 Clouds 23 1017 87 10000 0.45 144 18:56 10.03.2022
4866 Clear 22 1017 90 10000 1.54 330 17:36 10.03.2022
4867 Clear 22 1016 90 10000 2.57 350 16:37 10.03.2022
4868 Clear 22 1016 90 10000 1.54 340 15:26 10.03.2022
4869 Clouds 22 1017 91 10000 2.57 340 13:30 10.03.2022
4870 Clouds 22 1018 89 10000 3.6 80 12:34 10.03.2022
4871 Clouds 22 1018 88 10000 2.57 30 11:22 10.03.2022
4872 Rain 23 1018 84 10000 3.6 80 09:27 10.03.2022
4873 Clouds 23 1017 86 10000 2.57 20 07:43 10.03.2022
4874 Clouds 25 1015 79 10000 4.63 230 04:47 10.03.2022
4875 Clouds 27 1015 75 10000 5.14 160 01:50 10.03.2022
4876 Clouds 27 1016 70 10000 4.63 160 23:28 09.03.2022
4877 Clouds 26 1019 68 10000 1.54 0 21:51 09.03.2022
4878 Clouds 26 1019 70 10000 1.54 0 21:32 09.03.2022
4879 Clouds 23 1018 80 10000 2.57 330 19:50 09.03.2022
4880 Clouds 22 1016 85 10000 0.45 100 18:34 09.03.2022
4881 Clouds 21 1016 88 10000 2.06 330 17:27 09.03.2022
4882 Clear 21 1016 89 10000 2.57 330 16:31 09.03.2022
4883 Clear 20 1017 88 10000 2.06 310 15:19 09.03.2022
4884 Clear 21 1016 85 10000 1.54 20 13:53 09.03.2022
4885 Clear 22 1016 84 10000 3.09 70 12:47 09.03.2022
4886 Clouds 22 1016 82 10000 1.54 20 11:53 09.03.2022
4887 Clouds 22 1016 81 10000 1.54 20 11:35 09.03.2022
4888 Clouds 23 1017 80 10000 0.45 157 09:54 09.03.2022
4889 Clouds 23 1017 81 10000 2.06 40 08:51 09.03.2022
4890 Clouds 23 1016 79 10000 2.06 30 07:27 09.03.2022
4891 Clouds 26 1015 64 10000 5.14 40 02:42 09.03.2022
4892 Clouds 26 1015 65 10000 5.66 30 00:28 09.03.2022
4893 Clouds 26 1019 63 10000 3.6 50 22:47 08.03.2022
4894 Clouds 26 1019 70 10000 4.12 40 21:58 08.03.2022
4895 Clouds 26 1018 69 10000 4.12 40 21:22 08.03.2022
4896 Clouds 24 1017 77 10000 0.89 171 20:24 08.03.2022
4897 Rain 23 1017 83 10000 2.57 20 19:30 08.03.2022
4898 Rain 22 1017 86 10000 0.45 11 18:41 08.03.2022
4899 Clouds 22 1014 83 10000 4.12 70 16:59 08.03.2022
4900 Clouds 22 1015 86 10000 0.89 4 14:58 08.03.2022
4901 Clouds 21 1016 84 10000 5.14 30 13:54 08.03.2022
4902 Clouds 21 1015 84 10000 6.17 50 12:28 08.03.2022
4903 Clouds 22 1016 82 10000 5.14 30 11:43 08.03.2022
4904 Clouds 22 1015 82 10000 6.17 20 10:29 08.03.2022
4905 Clouds 22 1016 85 10000 4.57 33 08:57 08.03.2022
4906 Clouds 23 1013 75 10000 2.57 30 06:31 08.03.2022
4907 Clouds 25 1015 71 10000 3.6 220 03:48 08.03.2022
4908 Clouds 26 1014 55 10000 3.6 170 22:53 07.03.2022
4909 Clouds 26 1018 57 10000 1.54 0 21:45 07.03.2022
4910 Clouds 26 1017 61 10000 1.54 0 21:23 07.03.2022
4911 Clouds 25 1017 68 10000 2.57 330 20:34 07.03.2022
4912 Clouds 23 1016 73 10000 2.06 350 19:50 07.03.2022
4913 Clouds 23 1016 76 10000 2.06 350 19:20 07.03.2022
4914 Clouds 20 1016 84 10000 2.06 320 18:29 07.03.2022
4915 Clear 20 1016 79 10000 1.54 330 17:31 07.03.2022
4916 Clear 20 1015 79 10000 1.54 350 16:43 07.03.2022
4917 Clear 20 1015 79 10000 2.06 350 14:51 07.03.2022
4918 Clouds 20 1018 78 10000 1.54 330 12:34 07.03.2022
4919 Clouds 22 1017 78 10000 3.09 330 11:34 07.03.2022
4920 Clouds 22 1017 76 10000 2.57 340 10:31 07.03.2022
4921 Clouds 23 1016 74 10000 2.57 20 08:34 07.03.2022
4922 Clouds 23 1016 74 10000 2.57 20 08:34 07.03.2022
4923 Clouds 27 1015 55 10000 5.14 190 02:25 07.03.2022
4924 Clouds 27 1016 48 10000 4.63 180 00:20 07.03.2022
4925 Clouds 26 1017 55 10000 4.63 170 23:23 06.03.2022
4926 Clouds 26 1017 54 10000 5.14 160 22:27 06.03.2022
4927 Clouds 26 1018 57 10000 3.6 150 21:24 06.03.2022
4928 Clouds 25 1018 60 10000 2.57 350 20:29 06.03.2022
4929 Clouds 23 1016 69 10000 2.57 340 19:39 06.03.2022
4930 Clouds 21 1016 79 10000 0.45 127 18:49 06.03.2022
4931 Clear 19 1014 84 10000 1.54 350 17:46 06.03.2022
4932 Clear 19 1014 83 10000 1.54 350 17:19 06.03.2022
4933 Clear 18 1016 86 10000 2.57 340 16:28 06.03.2022
4934 Clear 19 1015 82 10000 1.54 340 15:25 06.03.2022
4935 Clear 19 1016 83 10000 1.54 340 14:42 06.03.2022
4936 Clouds 19 1016 81 10000 2.06 330 13:48 06.03.2022
4937 Clouds 20 1014 79 10000 0.45 0 12:39 06.03.2022
4938 Clouds 21 1014 75 10000 0 0 11:39 06.03.2022
4939 Clouds 21 1016 76 10000 2.06 20 10:39 06.03.2022
4940 Clouds 21 1016 77 10000 2.57 40 09:18 06.03.2022
4941 Clouds 22 1014 72 10000 2.57 40 08:27 06.03.2022
4942 Clouds 23 1015 71 10000 3.6 50 07:23 06.03.2022
4943 Clouds 25 1015 59 10000 4.63 140 01:54 06.03.2022
4944 Clouds 25 1014 57 10000 5.14 150 00:34 06.03.2022
4945 Clear 26 1012 58 10000 4.92 180 23:57 05.03.2022
4946 Clouds 26 1015 55 10000 5.14 180 23:18 05.03.2022
4947 Clouds 25 1017 58 10000 3.6 180 22:31 05.03.2022
4948 Clouds 25 1017 58 10000 3.6 180 22:31 05.03.2022
4949 Clouds 25 1017 60 10000 2.06 0 21:25 05.03.2022
4950 Clouds 25 1015 67 10000 2.49 42 19:59 05.03.2022
4951 Clouds 22 1014 80 10000 0.45 120 18:57 05.03.2022
4952 Clouds 20 1014 78 10000 2.06 330 18:36 05.03.2022
4953 Clear 19 1012 83 10000 1.79 320 16:58 05.03.2022
4954 Clear 19 1014 80 10000 1.54 340 15:49 05.03.2022
4955 Clear 20 1013 78 10000 1.34 360 14:53 05.03.2022
4956 Clear 19 1014 80 10000 1.54 360 14:34 05.03.2022
4957 Clear 19 1014 83 10000 2.06 350 13:35 05.03.2022
4958 Clear 21 1014 79 10000 3.09 330 11:55 05.03.2022
4959 Clear 21 1014 79 10000 3.09 330 11:20 05.03.2022
4960 Clouds 21 1014 79 10000 0 0 10:48 05.03.2022
4961 Clouds 22 1013 74 10000 2.57 340 09:28 05.03.2022
4962 Clear 22 1013 71 10000 1.79 360 07:59 05.03.2022
4963 Clouds 23 1012 65 10000 4.12 40 05:47 05.03.2022
4964 Clouds 25 1012 61 10000 5.14 20 04:38 05.03.2022
4965 Clouds 26 1014 53 10000 5.14 20 23:39 04.03.2022
4966 Clouds 25 1014 63 10000 6.17 20 22:44 04.03.2022
4967 Clouds 25 1015 64 10000 6.17 20 22:23 04.03.2022
4968 Clouds 25 1015 67 10000 5.14 20 21:24 04.03.2022
4969 Clouds 23 1015 74 10000 3.09 350 20:28 04.03.2022
4970 Clouds 22 1014 79 10000 0 0 19:36 04.03.2022
4971 Clouds 20 1013 85 10000 1.54 0 18:46 04.03.2022
4972 Clouds 18 1014 88 10000 1.54 0 18:20 04.03.2022
4973 Clear 18 1014 88 10000 1.54 350 17:28 04.03.2022
4974 Clear 19 1014 82 10000 1.54 310 15:31 04.03.2022
4975 Clear 20 1013 84 10000 1.54 290 14:33 04.03.2022
4976 Clear 19 1015 83 10000 3.09 330 13:26 04.03.2022
4977 Clear 21 1014 78 10000 3.09 300 11:54 04.03.2022
4978 Clear 21 1014 76 10000 1.79 330 10:54 04.03.2022
4979 Clear 22 1014 75 10000 2.68 310 09:58 04.03.2022
4980 Clouds 23 1014 70 10000 2.57 310 08:40 04.03.2022
4981 Clouds 22 1013 70 10000 5.66 340 07:38 04.03.2022
4982 Clouds 26 1012 59 10000 6.17 330 04:31 04.03.2022
4983 Clouds 26 1014 64 10000 3.6 240 00:38 04.03.2022
4984 Clouds 26 1016 56 10000 4.63 200 22:28 03.03.2022
4985 Clouds 26 1016 58 10000 1.54 340 21:44 03.03.2022
4986 Clouds 26 1016 60 10000 1.54 340 21:26 03.03.2022
4987 Clouds 23 1013 71 10000 2.06 330 19:55 03.03.2022
4988 Clear 21 1012 79 10000 1.79 340 18:54 03.03.2022
4989 Clouds 21 1013 76 10000 2.06 340 18:24 03.03.2022
4990 Clear 21 1013 77 10000 1.54 250 17:30 03.03.2022
4991 Clouds 21 1013 80 10000 1.54 0 16:24 03.03.2022
4992 Clouds 21 1013 81 10000 2.06 350 15:23 03.03.2022
4993 Clear 20 1014 81 10000 1.54 320 14:43 03.03.2022
4994 Clear 20 1014 81 10000 1.54 320 14:20 03.03.2022
4995 Clear 20 1014 81 10000 1.54 320 14:20 03.03.2022
4996 Clouds 21 1014 83 10000 1.54 330 12:22 03.03.2022
4997 Clouds 22 1014 82 10000 2.57 360 10:48 03.03.2022
4998 Clouds 23 1014 80 10000 2.57 10 09:41 03.03.2022
4999 Clouds 23 1015 81 10000 2.57 360 07:50 03.03.2022
5000 Clouds 24 1014 77 10000 3.09 200 06:37 03.03.2022
5001 Clouds 27 1015 66 10000 5.14 210 02:42 03.03.2022
5002 Clouds 26 1017 66 10000 4.63 210 23:34 02.03.2022
5003 Clouds 26 1018 66 10000 3.6 20 22:52 02.03.2022
5004 Clouds 26 1018 61 10000 3.09 30 21:34 02.03.2022
5005 Clouds 25 1018 71 10000 0 0 20:53 02.03.2022
5006 Clouds 25 1016 71 10000 0 0 20:24 02.03.2022
5007 Clouds 24 1016 74 10000 0 0 19:36 02.03.2022
5008 Clouds 21 1016 80 10000 2.57 320 18:48 02.03.2022
5009 Clouds 20 1016 80 10000 2.57 320 18:18 02.03.2022
5010 Clear 21 1015 81 10000 0 0 17:32 02.03.2022
5011 Clear 20 1015 83 10000 0 0 16:51 02.03.2022
5012 Clouds 21 1015 83 10000 3.09 350 14:48 02.03.2022
5013 Clear 21 1015 84 10000 2.06 340 13:29 02.03.2022
5014 Clear 21 1016 85 10000 1.54 340 12:44 02.03.2022
5015 Clouds 21 1016 85 10000 2.06 350 11:53 02.03.2022
5016 Clouds 22 1016 84 10000 2.06 350 11:24 02.03.2022
5017 Clear 22 1016 82 10000 1.54 60 09:47 02.03.2022
5018 Clear 22 1016 82 10000 1.54 60 09:23 02.03.2022
5019 Clouds 23 1015 79 10000 2.06 20 07:51 02.03.2022
5020 Clouds 23 1014 82 10000 2.64 57 06:54 02.03.2022
5021 Clouds 26 1015 63 10000 4.12 20 02:54 02.03.2022
5022 Clouds 27 1015 59 10000 5.14 180 00:29 02.03.2022
5023 Clouds 26 1018 61 10000 1.54 0 22:48 01.03.2022
5024 Clouds 26 1017 63 10000 1.79 320 22:21 01.03.2022
5025 Clouds 26 1017 66 10000 2.06 320 21:25 01.03.2022
5026 Clouds 24 1018 75 10000 2.57 330 20:32 01.03.2022
5027 Clouds 23 1017 78 10000 1.54 0 19:44 01.03.2022
5028 Clouds 21 1016 87 10000 2.06 340 18:50 01.03.2022
5029 Clouds 21 1016 88 10000 2.06 340 18:21 01.03.2022
5030 Clouds 20 1017 88 10000 2.24 340 17:30 01.03.2022
5031 Clouds 21 1015 87 10000 2.57 340 16:34 01.03.2022
5032 Clouds 21 1015 86 10000 0 0 15:41 01.03.2022
5033 Clouds 21 1015 85 10000 2.06 320 14:40 01.03.2022
5034 Clear 21 1015 88 10000 1.79 280 13:58 01.03.2022
5035 Clouds 21 1015 88 10000 2.06 280 13:25 01.03.2022
5036 Clouds 22 1016 85 10000 2.06 360 12:32 01.03.2022
5037 Clouds 22 1017 83 10000 2.06 350 10:37 01.03.2022
5038 Clouds 23 1017 79 10000 2.57 40 08:45 01.03.2022
5039 Clouds 23 1015 79 10000 2.24 90 07:53 01.03.2022
5040 Clouds 24 1015 78 10000 2.06 170 06:20 01.03.2022
5041 Clouds 26 1014 65 10000 4.63 160 02:44 01.03.2022
5042 Clouds 27 1015 62 10000 4.12 150 00:34 01.03.2022
5043 Clouds 26 1016 66 10000 4.12 170 23:30 28.02.2022
5044 Clouds 25 1016 67 10000 3.09 0 22:18 28.02.2022
5045 Clouds 25 1017 71 10000 3.09 290 21:37 28.02.2022
5046 Clouds 23 1015 79 10000 2.06 10 19:56 28.02.2022
5047 Clouds 23 1015 81 10000 2.06 10 19:36 28.02.2022
5048 Clouds 22 1016 84 10000 3.09 70 18:43 28.02.2022
5049 Clouds 22 1016 85 10000 2.06 310 17:33 28.02.2022
5050 Clouds 22 1015 84 10000 1.34 10 16:33 28.02.2022
5051 Clouds 22 1015 83 10000 1.54 10 15:24 28.02.2022
5052 Clouds 23 1016 83 10000 0 0 14:32 28.02.2022
5053 Clouds 23 1016 83 10000 2.06 350 13:47 28.02.2022
5054 Clouds 23 1016 84 10000 2.06 320 12:47 28.02.2022
5055 Clouds 23 1016 82 10000 0 0 11:57 28.02.2022
5056 Clouds 23 1016 82 10000 2.57 50 10:48 28.02.2022
5057 Clouds 23 1016 82 10000 2.57 50 10:20 28.02.2022
5058 Clouds 23 1017 79 10000 1.54 10 09:33 28.02.2022
5059 Clouds 23 1017 80 10000 2.06 30 08:32 28.02.2022
5060 Clouds 23 1016 78 10000 2.57 30 07:28 28.02.2022
5061 Clouds 25 1015 72 10000 4.12 150 04:55 28.02.2022
5062 Clouds 25 1015 72 10000 4.12 150 04:26 28.02.2022
5063 Clouds 27 1019 67 10000 3.6 180 23:42 27.02.2022
5064 Clouds 26 1020 67 10000 3.6 170 22:34 27.02.2022
5065 Clouds 26 1020 70 10000 3.6 130 21:51 27.02.2022
5066 Clouds 25 1017 79 10000 0.99 78 20:59 27.02.2022
5067 Clouds 24 1018 78 10000 0 0 20:28 27.02.2022
5068 Clouds 23 1018 86 10000 2.06 300 19:58 27.02.2022
5069 Clouds 23 1018 84 10000 2.06 300 19:27 27.02.2022
5070 Clouds 22 1017 88 10000 2.06 20 18:47 27.02.2022
5071 Rain 21 1019 94 10000 2.13 127 17:56 27.02.2022
5072 Clouds 21 1016 89 10000 0 0 16:54 27.02.2022
5073 Clouds 22 1016 89 10000 0 0 16:21 27.02.2022
5074 Clouds 22 1016 89 10000 2.06 360 13:25 27.02.2022
5075 Clouds 22 1017 88 10000 1.54 30 12:32 27.02.2022
5076 Clouds 22 1016 88 10000 1.46 71 10:56 27.02.2022
5077 Clouds 22 1015 80 10000 2.06 330 10:19 27.02.2022
5078 Clouds 23 1015 77 10000 2.06 310 09:49 27.02.2022
5079 Clouds 23 1015 77 10000 2.06 310 09:20 27.02.2022
5080 Clouds 23 1017 75 10000 4.63 70 07:54 27.02.2022
5081 Clouds 25 1014 68 10000 4.63 80 05:38 27.02.2022
5082 Clouds 27 1016 60 10000 5.14 50 02:21 27.02.2022
5083 Clouds 27 1020 60 10000 6.17 60 23:23 26.02.2022
5084 Clouds 25 1015 67 10000 5.81 60 21:58 26.02.2022
5085 Clouds 25 1019 66 10000 1.34 124 20:59 26.02.2022
5086 Clouds 25 1019 66 10000 2.06 0 20:20 26.02.2022
5087 Clouds 24 1019 66 10000 2.57 70 19:49 26.02.2022
5088 Clouds 24 1019 68 10000 2.57 70 19:26 26.02.2022
5089 Clouds 23 1018 73 10000 4.63 50 17:52 26.02.2022
5090 Clouds 23 1018 73 10000 3.09 60 16:52 26.02.2022
5091 Clouds 23 1017 74 10000 3.6 70 15:57 26.02.2022
5092 Clouds 23 1017 75 10000 3.6 70 15:23 26.02.2022
5093 Clouds 22 1017 79 10000 3.58 50 14:55 26.02.2022
5094 Clouds 22 1017 78 10000 3.6 50 14:36 26.02.2022
5095 Clouds 22 1018 82 10000 2.57 80 13:19 26.02.2022
5096 Rain 22 1016 84 10000 4.63 90 12:29 26.02.2022
5097 Clouds 22 1019 86 10000 1.34 128 11:28 26.02.2022
5098 Clouds 22 1019 85 10000 4.63 80 10:49 26.02.2022
5099 Clouds 23 1018 84 10000 4.47 60 08:55 26.02.2022
5100 Clouds 24 1015 74 10000 6.17 40 07:37 26.02.2022
5101 Clouds 27 1018 61 10000 8.23 80 01:27 26.02.2022
5102 Clouds 26 1019 68 10000 4.12 40 22:55 25.02.2022
5103 Clouds 26 1019 70 10000 7.2 70 21:44 25.02.2022
5104 Clouds 25 1019 71 10000 7.2 70 21:25 25.02.2022
5105 Clouds 25 1019 74 10000 3.09 40 20:33 25.02.2022
5106 Clouds 23 1019 79 10000 1.34 124 19:18 25.02.2022
5107 Clouds 22 1018 82 10000 3.09 30 17:29 25.02.2022
5108 Clouds 23 1017 78 10000 1.54 40 16:35 25.02.2022
5109 Clouds 23 1017 76 10000 1.54 40 15:48 25.02.2022
5110 Clouds 23 1017 76 10000 1.54 40 15:22 25.02.2022
5111 Clouds 23 1017 76 10000 2.06 50 14:42 25.02.2022
5112 Clouds 23 1017 76 10000 2.06 50 14:42 25.02.2022
5113 Clouds 22 1016 76 10000 1.79 50 13:36 25.02.2022
5114 Clear 23 1015 79 10000 1.79 50 12:56 25.02.2022
5115 Clear 23 1017 77 10000 2.57 80 11:28 25.02.2022
5116 Clear 23 1016 74 10000 5.14 60 10:40 25.02.2022
5117 Clear 23 1016 74 10000 6.71 80 10:22 25.02.2022
5118 Clear 23 1016 71 10000 6.71 80 09:18 25.02.2022
5119 Clouds 24 1016 69 10000 7.72 70 07:41 25.02.2022
5120 Clouds 25 1015 67 10000 5.14 50 05:49 25.02.2022
5121 Clouds 25 1016 67 10000 7.2 70 04:32 25.02.2022
5122 Clouds 27 1016 58 10000 4.63 150 23:47 24.02.2022
5123 Clouds 26 1020 60 10000 5.14 100 21:56 24.02.2022
5124 Clouds 26 1020 59 10000 5.14 100 21:38 24.02.2022
5125 Clouds 26 1020 61 10000 5.14 100 21:19 24.02.2022
5126 Clouds 24 1016 74 10000 4.63 80 19:38 24.02.2022
5127 Clouds 23 1018 75 10000 5.14 70 18:44 24.02.2022
5128 Clouds 23 1018 75 10000 5.14 70 18:19 24.02.2022
5129 Clouds 23 1017 74 10000 3.6 50 17:34 24.02.2022
5130 Clouds 23 1017 75 10000 1.54 20 16:49 24.02.2022
5131 Clouds 23 1017 75 10000 1.54 20 16:23 24.02.2022
5132 Clouds 23 1017 75 10000 5.14 60 14:54 24.02.2022
5133 Clouds 23 1017 76 10000 5.14 60 14:35 24.02.2022
5134 Clouds 23 1016 76 10000 3.09 60 13:39 24.02.2022
5135 Clouds 23 1016 74 10000 2.06 30 12:50 24.02.2022
5136 Clouds 23 1016 72 10000 5.14 60 10:41 24.02.2022
5137 Clouds 23 1016 72 10000 5.14 60 10:41 24.02.2022
5138 Clouds 23 1016 72 10000 5.14 70 09:18 24.02.2022
5139 Clouds 23 1016 72 10000 4.63 70 08:40 24.02.2022
5140 Clouds 24 1014 70 10000 8.05 80 05:53 24.02.2022
5141 Clouds 26 1015 66 10000 9.83 70 01:56 24.02.2022
5142 Clouds 27 1016 58 10000 7.72 60 23:31 23.02.2022
5143 Clouds 26 1019 63 10000 8.23 60 21:43 23.02.2022
5144 Clouds 25 1019 66 10000 5.14 70 20:31 23.02.2022
5145 Clouds 24 1018 70 10000 4.12 60 19:47 23.02.2022
5146 Clouds 23 1018 72 10000 4.63 50 18:32 23.02.2022
5147 Clouds 23 1018 72 10000 4.63 50 18:32 23.02.2022
5148 Clouds 23 1018 72 10000 5.14 60 17:44 23.02.2022
5149 Clouds 23 1018 72 10000 6.71 60 14:44 23.02.2022
5150 Clouds 23 1018 74 10000 5.14 60 12:45 23.02.2022
5151 Clouds 23 1017 75 10000 5.36 70 11:59 23.02.2022
5152 Clouds 23 1018 72 10000 2.57 70 10:31 23.02.2022
5153 Clouds 23 1018 73 10000 4.12 90 08:59 23.02.2022
5154 Clouds 23 1017 76 10000 3.58 10 08:59 23.02.2022
5155 Clouds 24 1018 74 10000 4.12 90 08:23 23.02.2022
5156 Clouds 25 1016 74 10000 5.66 80 05:49 23.02.2022
5157 Clouds 27 1017 65 10000 5.14 70 00:40 23.02.2022
5158 Clouds 28 1018 65 10000 7.2 60 23:38 22.02.2022
5159 Clouds 27 1018 67 10000 6.71 60 22:32 22.02.2022
5160 Clouds 26 1019 67 10000 6.71 60 21:49 22.02.2022
5161 Clouds 26 1019 67 10000 6.71 60 21:30 22.02.2022
5162 Clouds 26 1019 74 10000 4.63 80 20:55 22.02.2022
5163 Clouds 25 1018 78 10000 4.63 80 20:29 22.02.2022
5164 Clouds 24 1018 83 10000 2.06 40 19:42 22.02.2022
5165 Clouds 23 1018 84 10000 1.34 140 19:19 22.02.2022
5166 Clouds 22 1018 87 10000 2.57 340 17:48 22.02.2022
5167 Clouds 22 1018 87 10000 2.57 340 17:21 22.02.2022
5168 Clouds 22 1017 89 10000 1.54 340 16:37 22.02.2022
5169 Clouds 22 1016 87 10000 0 0 15:40 22.02.2022
5170 Clouds 23 1016 84 10000 2.57 20 14:44 22.02.2022
5171 Clouds 23 1017 83 10000 0.89 92 12:23 22.02.2022
5172 Clouds 23 1015 85 10000 2.57 50 10:50 22.02.2022
5173 Rain 23 1016 86 10000 5.14 20 08:41 22.02.2022
5174 Clouds 23 1014 83 10000 3.6 40 07:26 22.02.2022
5175 Clouds 25 1014 75 10000 5.66 60 04:31 22.02.2022
5176 Clouds 26 1016 70 10000 0 0 01:45 22.02.2022
5177 Clouds 26 1016 70 10000 0 0 01:45 22.02.2022
5178 Clouds 26 1016 70 10000 0 0 01:44 22.02.2022
5179 Clouds 25 1019 70 10000 5.14 30 22:44 21.02.2022
5180 Clouds 25 1017 76 10000 4.63 50 21:33 21.02.2022
5181 Clouds 24 1016 83 10000 4.12 350 20:35 21.02.2022
5182 Rain 22 1016 92 10000 4.12 310 18:46 21.02.2022
5183 Clouds 21 1017 94 10000 3.95 12 16:56 21.02.2022
5184 Clouds 21 1016 86 10000 3.09 330 14:52 21.02.2022
5185 Clouds 21 1016 87 10000 3.09 330 14:21 21.02.2022
5186 Clouds 21 1015 88 10000 2.24 330 12:59 21.02.2022
5187 Clouds 21 1016 86 10000 2.57 330 12:23 21.02.2022
5188 Clouds 22 1017 82 10000 2.06 340 10:51 21.02.2022
5189 Clouds 22 1016 81 10000 1.54 350 09:30 21.02.2022
5190 Clouds 22 1016 81 10000 1.54 350 09:30 21.02.2022
5191 Clouds 25 1014 69 10000 5.14 40 04:52 21.02.2022
5192 Clouds 26 1016 58 10000 3.09 0 23:32 20.02.2022
5193 Clouds 26 1017 61 10000 3.6 20 22:20 20.02.2022
5194 Clouds 26 1017 64 10000 2.06 360 21:42 20.02.2022
5195 Clouds 25 1016 70 10000 3.58 340 20:53 20.02.2022
5196 Clouds 24 1016 72 10000 3.6 340 20:23 20.02.2022
5197 Clouds 22 1015 80 10000 3.6 330 19:30 20.02.2022
5198 Clear 22 1014 83 10000 4.63 330 18:49 20.02.2022
5199 Clear 21 1014 83 10000 4.63 330 18:31 20.02.2022
5200 Clouds 21 1014 84 10000 3.6 330 17:34 20.02.2022
5201 Clouds 21 1014 86 10000 2.57 330 15:31 20.02.2022
5202 Clouds 21 1014 87 10000 3.6 320 14:41 20.02.2022
5203 Clouds 21 1013 86 10000 0.89 1 13:23 20.02.2022
5204 Clouds 22 1013 85 10000 3.09 330 12:20 20.02.2022
5205 Rain 22 1013 86 10000 2.06 330 10:21 20.02.2022
5206 Clouds 22 1012 87 10000 1.79 350 09:53 20.02.2022
5207 Clouds 23 1014 83 10000 2.06 350 06:46 20.02.2022
5208 Clouds 26 1015 67 10000 5.14 200 00:34 20.02.2022
5209 Clouds 26 1016 66 10000 4.12 170 23:42 19.02.2022
5210 Clouds 26 1016 65 10000 3.6 180 22:25 19.02.2022
5211 Clouds 26 1017 68 10000 0 0 21:54 19.02.2022
5212 Clouds 24 1016 77 10000 1.54 0 20:48 19.02.2022
5213 Clouds 22 1015 86 10000 2.06 0 19:41 19.02.2022
5214 Clouds 20 1014 86 10000 2.57 320 18:41 19.02.2022
5215 Clouds 19 1015 89 10000 2.57 320 18:19 19.02.2022
5216 Clouds 20 1014 89 10000 2.06 0 17:33 19.02.2022
5217 Clear 20 1014 92 10000 1.34 350 15:59 19.02.2022
5218 Clear 20 1014 90 10000 1.79 360 14:56 19.02.2022
5219 Clear 20 1014 92 10000 1.79 360 13:58 19.02.2022
5220 Clouds 21 1016 90 10000 1.79 330 11:58 19.02.2022
5221 Clouds 22 1015 86 10000 2.06 330 11:29 19.02.2022
5222 Clouds 22 1015 84 10000 3.6 330 09:27 19.02.2022
5223 Clouds 23 1014 79 10000 0.89 299 06:51 19.02.2022
5224 Clear 27 1015 62 10000 4.02 30 00:55 19.02.2022
5225 Clouds 27 1017 63 10000 4.12 20 22:41 18.02.2022
5226 Clouds 26 1017 67 10000 3.09 70 21:27 18.02.2022
5227 Clouds 24 1016 76 10000 2.06 50 20:25 18.02.2022
5228 Clouds 23 1016 81 10000 0 0 19:51 18.02.2022
5229 Clouds 21 1015 89 10000 2.57 350 18:38 18.02.2022
5230 Clouds 21 1015 89 10000 2.57 350 18:18 18.02.2022
5231 Rain 21 1015 89 10000 0.89 49 17:18 18.02.2022
5232 Rain 22 1015 86 10000 0.89 354 14:31 18.02.2022
5233 Rain 22 1015 86 10000 1.54 50 13:47 18.02.2022
5234 Rain 22 1016 84 10000 2.24 40 12:50 18.02.2022
5235 Clear 23 1015 85 10000 2.24 40 11:57 18.02.2022
5236 Rain 23 1017 81 10000 2.06 50 10:45 18.02.2022
5237 Rain 23 1017 78 10000 3.09 50 08:47 18.02.2022
5238 Clouds 24 1013 75 10000 3.09 30 06:35 18.02.2022
5239 Clouds 25 1013 70 10000 4.12 60 05:34 18.02.2022
5240 Clouds 26 1018 63 10000 5.66 60 22:20 17.02.2022
5241 Clouds 26 1019 65 10000 3.09 50 21:38 17.02.2022
5242 Clouds 25 1019 73 10000 2.06 350 20:43 17.02.2022
5243 Clouds 23 1018 86 10000 1.79 310 19:55 17.02.2022
5244 Clouds 21 1019 89 10000 2.06 310 19:22 17.02.2022
5245 Clouds 20 1017 91 10000 2.06 320 18:29 17.02.2022
5246 Clouds 20 1016 89 10000 1.54 350 17:30 17.02.2022
5247 Clouds 21 1015 92 10000 4.35 49 15:57 17.02.2022
5248 Clouds 20 1017 88 10000 2.57 340 14:29 17.02.2022
5249 Clouds 21 1017 87 10000 2.06 350 13:31 17.02.2022
5250 Clouds 21 1018 86 10000 2.06 340 11:48 17.02.2022
5251 Clear 21 1017 86 10000 1.79 30 09:58 17.02.2022
5252 Rain 22 1016 75 10000 2.57 50 06:44 17.02.2022
5253 Clouds 26 1015 61 10000 5.14 50 23:23 16.02.2022
5254 Clouds 26 1018 62 10000 6.17 30 22:27 16.02.2022
5255 Clouds 23 1018 77 10000 3.6 40 20:21 16.02.2022
5256 Rain 20 1016 90 10000 2.24 350 18:56 16.02.2022
5257 Clouds 19 1017 84 10000 4.12 360 17:56 16.02.2022
5258 Clouds 19 1016 89 10000 1.54 320 16:44 16.02.2022
5259 Clouds 19 1016 90 10000 1.54 300 15:21 16.02.2022
5260 Clouds 20 1016 89 10000 0.89 66 13:38 16.02.2022
5261 Rain 20 1017 84 10000 3.6 70 12:21 16.02.2022
5262 Rain 21 1017 80 10000 5.14 110 11:35 16.02.2022
5263 Rain 22 1017 75 10000 4.63 70 10:34 16.02.2022
5264 Clouds 22 1015 75 10000 5.81 60 08:58 16.02.2022
5265 Clouds 22 1014 74 10000 5.14 90 06:43 16.02.2022
5266 Clouds 25 1014 65 10000 3.09 70 23:46 15.02.2022
5267 Rain 24 1014 68 10000 3.09 360 22:34 15.02.2022
5268 Rain 24 1016 73 10000 2.57 60 21:49 15.02.2022
5269 Clouds 25 1016 72 10000 2.57 60 21:29 15.02.2022
5270 Rain 23 1015 80 10000 2.06 330 20:56 15.02.2022
5271 Rain 21 1015 86 10000 4.32 58 19:59 15.02.2022
5272 Clouds 19 1012 87 10000 3.09 330 19:26 15.02.2022
5273 Clouds 19 1012 82 10000 2.06 310 18:24 15.02.2022
5274 Clouds 19 1013 85 10000 2.57 30 17:52 15.02.2022
5275 Clouds 19 1013 85 10000 2.57 30 17:21 15.02.2022
5276 Clear 19 1014 82 10000 0 0 15:32 15.02.2022
5277 Clear 19 1014 82 10000 2.06 330 13:28 15.02.2022
5278 Clear 20 1014 79 10000 2.24 330 12:53 15.02.2022
5279 Clouds 20 1015 75 10000 3.09 310 11:40 15.02.2022
5280 Clouds 21 1015 76 10000 2.57 330 09:52 15.02.2022
5281 Clouds 21 1013 73 10000 2.24 20 06:59 15.02.2022
5282 Rain 23 1012 66 10000 2.06 20 05:32 15.02.2022
5283 Rain 24 1014 61 10000 5.66 60 23:34 14.02.2022
5284 Clouds 24 1015 62 10000 3.09 60 21:54 14.02.2022
5285 Clouds 23 1014 65 10000 3.6 80 20:40 14.02.2022
5286 Clouds 21 1014 73 10000 5.14 50 19:44 14.02.2022
5287 Clouds 21 1014 76 10000 5.14 50 19:25 14.02.2022
5288 Clouds 19 1013 77 10000 4.63 60 18:23 14.02.2022
5289 Clouds 19 1013 77 10000 4.63 50 17:27 14.02.2022
5290 Clouds 19 1012 78 10000 4.63 50 16:25 14.02.2022
5291 Clouds 19 1012 76 10000 5.14 40 14:39 14.02.2022
5292 Clear 19 1013 76 10000 4.63 20 13:34 14.02.2022
5293 Clouds 20 1013 73 10000 4.63 40 12:55 14.02.2022
5294 Clouds 20 1014 74 10000 4.63 30 11:55 14.02.2022
5295 Clear 19 1013 77 10000 2.68 340 10:58 14.02.2022
5296 Clouds 20 1015 70 10000 4.63 10 08:46 14.02.2022
5297 Clouds 21 1014 66 10000 4.63 20 07:32 14.02.2022
5298 Clear 22 1012 63 10000 5.36 30 05:56 14.02.2022
5299 Clouds 25 1016 60 10000 5.14 50 22:43 13.02.2022
5300 Clouds 25 1016 60 10000 5.14 50 22:25 13.02.2022
5301 Clouds 25 1015 67 10000 5.66 50 21:32 13.02.2022
5302 Clouds 24 1015 72 10000 6.17 50 20:40 13.02.2022
5303 Clouds 22 1015 79 10000 4.12 60 19:45 13.02.2022
5304 Clouds 21 1014 84 10000 4.12 50 18:54 13.02.2022
5305 Clouds 21 1014 85 10000 4.12 50 18:35 13.02.2022
5306 Rain 21 1014 83 10000 4.12 50 16:34 13.02.2022
5307 Rain 21 1014 83 10000 6.69 50 15:25 13.02.2022
5308 Clouds 22 1014 83 10000 5.66 60 14:36 13.02.2022
5309 Clear 21 1015 84 10000 5.66 60 12:51 13.02.2022
5310 Rain 22 1015 82 10000 6.17 50 11:44 13.02.2022
5311 Clouds 22 1016 79 10000 7.2 40 10:34 13.02.2022
5312 Clouds 22 1016 77 10000 3.6 50 09:46 13.02.2022
5313 Clouds 23 1015 74 10000 5.66 40 07:49 13.02.2022
5314 Clouds 27 1014 56 10000 5.66 30 00:35 13.02.2022
5315 Clouds 27 1014 56 10000 5.14 60 23:42 12.02.2022
5316 Clouds 26 1016 58 10000 4.63 40 22:33 12.02.2022
5317 Clouds 26 1016 63 10000 4.12 50 21:30 12.02.2022
5318 Clouds 24 1015 71 10000 5.14 50 20:45 12.02.2022
5319 Clouds 22 1015 82 10000 3.09 60 19:30 12.02.2022
5320 Clouds 21 1014 82 10000 3.09 60 18:53 12.02.2022
5321 Clouds 20 1014 86 10000 1.54 0 18:35 12.02.2022
5322 Clouds 20 1014 83 10000 1.54 300 17:19 12.02.2022
5323 Clouds 20 1014 84 10000 3.09 60 16:29 12.02.2022
5324 Clouds 20 1013 86 10000 3.6 60 15:51 12.02.2022
5325 Clear 20 1013 84 10000 1.54 80 14:31 12.02.2022
5326 Clouds 21 1014 81 10000 2.57 60 13:22 12.02.2022
5327 Clouds 22 1015 78 10000 3.09 60 10:42 12.02.2022
5328 Clear 22 1015 77 10000 3.6 60 09:50 12.02.2022
5329 Clear 22 1015 77 10000 3.6 60 09:26 12.02.2022
5330 Clouds 23 1015 75 10000 4.63 60 08:44 12.02.2022
5331 Clouds 24 1013 69 10000 3.09 60 05:40 12.02.2022
5332 Clouds 25 1012 60 10000 3.09 150 04:30 12.02.2022
5333 Clouds 26 1011 58 10000 5.66 160 02:18 12.02.2022
5334 Clouds 26 1015 60 10000 3.6 180 22:37 11.02.2022
5335 Clouds 26 1015 61 10000 3.6 180 22:18 11.02.2022
5336 Clouds 25 1016 61 10000 3.6 180 22:18 11.02.2022
5337 Clouds 23 1016 71 10000 1.54 350 20:41 11.02.2022
5338 Clouds 22 1014 81 10000 2.06 0 19:47 11.02.2022
5339 Clouds 20 1016 90 10000 2.06 0 19:27 11.02.2022
5340 Clear 20 1013 86 10000 2.24 350 17:59 11.02.2022
5341 Clear 18 1015 88 10000 2.57 350 17:26 11.02.2022
5342 Clear 18 1014 89 10000 1.54 360 16:26 11.02.2022
5343 Clear 19 1014 89 10000 2.06 350 14:44 11.02.2022
5344 Clear 19 1014 88 10000 2.06 350 14:21 11.02.2022
5345 Clear 20 1012 88 10000 1.34 360 13:59 11.02.2022
5346 Clear 19 1015 92 10000 1.54 360 13:39 11.02.2022
5347 Clouds 20 1014 87 10000 2.06 360 11:47 11.02.2022
5348 Clear 21 1014 85 10000 2.06 100 09:59 11.02.2022
5349 Clouds 21 1013 83 10000 3.09 10 08:49 11.02.2022
5350 Clouds 21 1015 85 10000 3.09 10 08:27 11.02.2022
5351 Clouds 22 1014 82 10000 3.6 30 07:18 11.02.2022
5352 Clouds 25 1013 65 10000 4.92 220 02:39 11.02.2022
5353 Clouds 25 1013 63 10000 4.92 220 02:18 11.02.2022
5354 Clouds 26 1015 63 10000 3.6 40 22:53 10.02.2022
5355 Clouds 25 1016 65 10000 2.06 330 21:50 10.02.2022
5356 Clouds 25 1016 66 10000 2.06 340 21:18 10.02.2022
5357 Clouds 24 1016 71 10000 1.54 340 20:38 10.02.2022
5358 Clouds 22 1015 85 10000 0 0 19:26 10.02.2022
5359 Clouds 22 1015 79 10000 1.54 0 18:46 10.02.2022
5360 Clouds 20 1014 85 10000 2.06 270 17:26 10.02.2022
5361 Clouds 20 1015 86 10000 0 0 16:50 10.02.2022
5362 Clouds 21 1014 86 10000 2.06 40 15:51 10.02.2022
5363 Clouds 21 1014 85 10000 2.06 40 15:30 10.02.2022
5364 Clouds 21 1014 86 10000 1.54 10 14:48 10.02.2022
5365 Clouds 21 1014 86 10000 1.54 10 14:48 10.02.2022
5366 Clouds 21 1014 86 10000 1.54 10 14:24 10.02.2022
5367 Clouds 21 1016 82 10000 1.54 10 13:29 10.02.2022
5368 Clouds 21 1016 82 10000 0 0 12:45 10.02.2022
5369 Clouds 22 1016 84 10000 2.57 250 11:33 10.02.2022
5370 Clouds 22 1017 83 10000 2.57 90 10:44 10.02.2022
5371 Clouds 22 1015 86 10000 3.14 55 09:57 10.02.2022
5372 Clouds 22 1017 81 10000 2.06 320 09:23 10.02.2022
5373 Clouds 23 1016 75 10000 1.54 40 07:19 10.02.2022
5374 Clouds 25 1014 67 10000 6.71 150 04:23 10.02.2022
5375 Clouds 26 1014 63 10000 6.17 140 01:48 10.02.2022
5376 Clouds 26 1015 63 10000 5.66 120 00:44 10.02.2022
5377 Clouds 26 1015 64 10000 5.66 120 00:26 10.02.2022
5378 Clouds 26 1016 64 10000 4.92 50 22:58 09.02.2022
5379 Clouds 26 1017 60 10000 5.14 50 22:34 09.02.2022
5380 Clouds 25 1018 63 10000 5.14 70 21:50 09.02.2022
5381 Clouds 25 1018 61 10000 5.14 80 21:28 09.02.2022
5382 Clouds 25 1017 67 10000 3.09 80 20:47 09.02.2022
5383 Clouds 25 1017 67 10000 3.09 80 20:24 09.02.2022
5384 Clouds 23 1017 72 10000 2.57 0 19:44 09.02.2022
5385 Clouds 22 1016 78 10000 2.57 110 18:58 09.02.2022
5386 Clouds 21 1016 82 10000 3.6 90 17:32 09.02.2022
5387 Clouds 21 1015 83 10000 3.6 80 16:26 09.02.2022
5388 Clouds 20 1015 83 10000 3.6 80 15:32 09.02.2022
5389 Clouds 21 1016 80 10000 4.63 80 13:57 09.02.2022
5390 Clouds 22 1016 77 10000 3.09 90 12:25 09.02.2022
5391 Clouds 22 1017 76 10000 4.12 70 10:37 09.02.2022
5392 Clouds 23 1017 76 10000 3.58 80 09:57 09.02.2022
5393 Clouds 23 1017 75 10000 3.6 80 09:22 09.02.2022
5394 Clouds 23 1017 75 10000 4.12 80 08:51 09.02.2022
5395 Clouds 23 1016 74 10000 4.63 70 07:28 09.02.2022
5396 Clouds 24 1015 69 10000 6.17 70 05:29 09.02.2022
5397 Clouds 25 1014 66 10000 7.2 80 03:49 09.02.2022
5398 Clouds 26 1016 63 10000 5.14 60 23:57 08.02.2022
5399 Clouds 26 1017 60 10000 5.14 60 23:19 08.02.2022
5400 Clouds 25 1019 62 10000 5.14 40 22:39 08.02.2022
5401 Clouds 25 1019 62 10000 5.14 40 22:20 08.02.2022
5402 Clouds 25 1018 64 10000 5.66 70 21:22 08.02.2022
5403 Clouds 24 1019 65 10000 4.63 70 20:58 08.02.2022
5404 Clouds 24 1019 65 10000 4.63 70 20:38 08.02.2022
5405 Clouds 23 1018 68 10000 4.63 50 19:28 08.02.2022
5406 Clouds 22 1017 73 10000 3.6 50 18:24 08.02.2022
5407 Clouds 22 1016 73 10000 4.63 60 17:30 08.02.2022
5408 Clouds 22 1016 71 10000 4.12 80 15:47 08.02.2022
5409 Clouds 22 1016 71 10000 4.12 80 15:27 08.02.2022
5410 Clouds 22 1016 72 10000 3.6 90 13:50 08.02.2022
5411 Clouds 23 1017 72 10000 5.14 50 12:24 08.02.2022
5412 Clouds 23 1018 71 10000 6.17 90 10:49 08.02.2022
5413 Clouds 23 1018 69 10000 4.63 60 09:48 08.02.2022
5414 Clouds 23 1017 72 10000 6.17 80 08:39 08.02.2022
5415 Clouds 23 1016 72 10000 6.17 90 06:38 08.02.2022
5416 Clouds 24 1015 72 10000 7.2 50 04:40 08.02.2022
5417 Clouds 24 1015 71 10000 7.2 50 04:22 08.02.2022
5418 Clouds 25 1014 70 10000 4.63 50 03:36 08.02.2022
5419 Clouds 25 1014 70 10000 4.63 50 03:18 08.02.2022
5420 Clear 25 1013 71 10000 7.6 70 02:59 08.02.2022
5421 Clouds 25 1014 64 10000 7.72 70 02:36 08.02.2022
5422 Clouds 25 1014 65 10000 7.72 70 02:18 08.02.2022
5423 Clouds 26 1014 63 10000 6.17 50 01:44 08.02.2022
5424 Clouds 26 1014 62 10000 6.17 50 01:25 08.02.2022
5425 Clouds 26 1015 67 10000 5.36 60 00:55 08.02.2022
5426 Clouds 26 1016 64 10000 6.17 80 00:19 08.02.2022
5427 Clouds 27 1016 62 10000 8.75 80 23:43 07.02.2022
5428 Clouds 27 1016 61 10000 8.75 80 23:18 07.02.2022
5429 Clouds 26 1016 65 10000 8.05 70 22:59 07.02.2022
5430 Clouds 25 1017 63 10000 8.23 70 22:18 07.02.2022
5431 Clouds 25 1018 65 10000 6.71 80 21:49 07.02.2022
5432 Clouds 25 1018 66 10000 6.71 80 21:27 07.02.2022
5433 Clouds 25 1017 67 10000 6.17 60 20:41 07.02.2022
5434 Clouds 24 1017 67 10000 6.17 60 20:18 07.02.2022
5435 Clouds 23 1018 69 10000 7.72 70 19:46 07.02.2022
5436 Clouds 22 1017 74 10000 7.6 50 18:24 07.02.2022
5437 Clouds 22 1016 74 10000 5.66 50 16:53 07.02.2022
5438 Clouds 22 1016 74 10000 5.66 50 16:24 07.02.2022
5439 Clouds 22 1016 72 10000 6.17 70 15:48 07.02.2022
5440 Clouds 22 1016 74 10000 8.23 50 13:39 07.02.2022
5441 Clouds 22 1017 72 10000 8.23 50 13:21 07.02.2022
5442 Clear 23 1017 73 10000 1.34 0 11:58 07.02.2022
5443 Clouds 23 1018 71 10000 1.34 13 11:37 07.02.2022
5444 Clouds 23 1018 70 10000 1.34 97 10:53 07.02.2022
5445 Clouds 23 1018 72 10000 1.79 0 10:32 07.02.2022
5446 Clouds 23 1018 71 10000 1.79 141 09:53 07.02.2022
5447 Clouds 23 1018 70 10000 2.06 80 09:18 07.02.2022
5448 Clouds 23 1018 71 10000 0.45 30 08:43 07.02.2022
5449 Clouds 23 1017 71 10000 1.79 148 07:30 07.02.2022
5450 Clouds 23 1017 69 10000 2.24 161 06:34 07.02.2022
5451 Clouds 25 1015 67 10000 0.45 89 03:49 07.02.2022
5452 Clouds 26 1016 66 10000 1.34 93 00:47 07.02.2022
5453 Clouds 26 1017 68 10000 0.89 102 23:49 06.02.2022
5454 Clouds 26 1017 69 10000 1.79 16 22:55 06.02.2022
5455 Clouds 26 1017 70 10000 1.79 55 22:34 06.02.2022
5456 Clouds 25 1018 71 10000 1.34 109 21:36 06.02.2022
5457 Clouds 24 1018 76 10000 3.58 20 20:56 06.02.2022
5458 Clouds 24 1018 74 10000 0.89 103 20:32 06.02.2022
5459 Clouds 23 1018 78 10000 0.89 147 19:40 06.02.2022
5460 Rain 22 1016 82 10000 0.89 28 18:41 06.02.2022
5461 Clouds 22 1017 82 10000 0.45 90 17:56 06.02.2022
5462 Clouds 22 1017 80 10000 3.09 50 17:21 06.02.2022
5463 Clouds 22 1017 78 10000 0.89 90 16:47 06.02.2022
5464 Clouds 22 1017 78 10000 0.89 117 15:49 06.02.2022
5465 Clouds 22 1017 79 10000 1.34 65 15:26 06.02.2022
5466 Clouds 22 1017 80 10000 1.34 32 14:45 06.02.2022
5467 Clouds 22 1016 81 10000 0.89 94 13:26 06.02.2022
5468 Rain 23 1017 81 10000 0.89 7 12:52 06.02.2022
5469 Clouds 23 1018 77 10000 0.45 103 11:32 06.02.2022
5470 Rain 23 1018 77 10000 5.14 70 10:30 06.02.2022
5471 Clouds 23 1018 74 10000 1.34 0 08:53 06.02.2022
5472 Clouds 23 1017 76 10000 0.89 75 07:51 06.02.2022
5473 Clouds 24 1016 74 10000 3.6 80 05:30 06.02.2022
5474 Clouds 24 1016 74 10000 3.6 80 05:30 06.02.2022
5475 Clouds 24 1016 73 10000 3.6 80 05:30 06.02.2022
5476 Clouds 27 1015 66 10000 5.66 30 02:26 06.02.2022
5477 Clouds 26 1016 66 10000 3.09 330 01:47 06.02.2022
5478 Clouds 27 1018 64 10000 3.6 190 00:26 06.02.2022
5479 Rain 25 1018 74 10000 2.57 50 22:22 05.02.2022
5480 Clouds 24 1016 75 10000 0 0 21:18 05.02.2022
5481 Clouds 24 1016 77 10000 2.57 300 20:24 05.02.2022
5482 Clouds 22 1016 81 10000 3.09 310 19:46 05.02.2022
5483 Clouds 20 1018 88 10000 3.09 350 18:52 05.02.2022
5484 Clouds 19 1018 91 10000 2.57 350 17:39 05.02.2022
5485 Clouds 20 1016 84 10000 2.57 330 16:48 05.02.2022
5486 Clear 20 1017 84 10000 1.54 320 15:34 05.02.2022
5487 Clear 19 1018 82 10000 0 0 14:53 05.02.2022
5488 Clear 21 1018 75 10000 1.54 320 12:47 05.02.2022
5489 Clear 21 1018 74 10000 2.06 330 11:49 05.02.2022
5490 Clear 22 1018 71 10000 1.54 340 10:47 05.02.2022
5491 Clear 21 1018 78 10000 0 0 09:53 05.02.2022
5492 Clear 22 1018 78 10000 0 0 09:29 05.02.2022
5493 Clouds 22 1018 75 10000 2.06 40 07:38 05.02.2022
5494 Clear 22 1017 78 10000 1.34 170 06:56 05.02.2022
5495 Clouds 26 1016 64 10000 4.02 200 03:55 05.02.2022
5496 Clouds 27 1016 57 10000 3.6 200 01:19 05.02.2022
5497 Clouds 27 1017 57 10000 3.6 210 00:42 05.02.2022
5498 Clouds 26 1018 58 10000 2.06 200 23:38 04.02.2022
5499 Clouds 26 1018 59 10000 2.06 200 23:20 04.02.2022
5500 Clouds 25 1019 61 10000 0 0 21:37 04.02.2022
5501 Clouds 25 1019 61 10000 0 0 21:18 04.02.2022
5502 Clear 24 1018 67 10000 0 0 20:46 04.02.2022
5503 Clouds 21 1017 80 10000 1.54 320 19:33 04.02.2022
5504 Clear 19 1016 83 10000 0 0 17:27 04.02.2022
5505 Clear 19 1015 84 10000 2.06 350 15:38 04.02.2022
5506 Clear 19 1016 78 10000 2.06 320 14:51 04.02.2022
5507 Clear 20 1017 79 10000 2.06 360 12:43 04.02.2022
5508 Clear 20 1017 80 10000 1.54 330 11:46 04.02.2022
5509 Clear 20 1017 78 10000 1.54 330 11:18 04.02.2022
5510 Clear 20 1017 76 10000 1.54 320 10:30 04.02.2022
5511 Clouds 21 1016 72 10000 2.06 40 08:33 04.02.2022
5512 Clouds 25 1014 62 10000 4.63 60 04:52 04.02.2022
5513 Clouds 26 1015 51 10000 3.09 10 02:38 04.02.2022
5514 Clouds 26 1016 48 10000 3.09 60 00:18 04.02.2022
5515 Clouds 26 1018 51 10000 4.63 80 22:52 03.02.2022
5516 Clear 25 1018 58 10000 6.71 70 21:59 03.02.2022
5517 Clouds 25 1018 57 10000 6.69 70 21:37 03.02.2022
5518 Clouds 24 1017 60 10000 4.63 50 20:22 03.02.2022
5519 Clouds 23 1017 68 10000 0.89 0 19:49 03.02.2022
5520 Clouds 22 1017 72 10000 0 0 19:20 03.02.2022
5521 Clear 20 1015 80 10000 5.25 60 17:59 03.02.2022
5522 Clouds 20 1016 79 10000 0.45 358 17:19 03.02.2022
5523 Clouds 20 1015 80 10000 0 0 15:34 03.02.2022
5524 Clouds 21 1015 81 10000 1.54 300 14:18 03.02.2022
5525 Clouds 22 1016 76 10000 0.45 38 12:32 03.02.2022
5526 Clouds 23 1016 74 10000 1.54 50 08:56 03.02.2022
5527 Clear 23 1015 74 10000 2.06 10 07:43 03.02.2022
5528 Clouds 26 1015 61 10000 4.12 170 00:49 03.02.2022
5529 Clouds 26 1015 61 10000 4.12 170 00:22 03.02.2022
5530 Clouds 27 1016 60 10000 2.06 40 22:39 02.02.2022
5531 Clouds 26 1017 65 10000 1.54 350 21:51 02.02.2022
5532 Clouds 25 1017 67 10000 1.54 350 21:29 02.02.2022
5533 Clouds 23 1016 74 10000 2.06 290 20:27 02.02.2022
5534 Clouds 23 1016 79 10000 1.54 350 19:46 02.02.2022
5535 Clouds 21 1015 85 10000 1.79 70 18:56 02.02.2022
5536 Clouds 21 1015 84 10000 2.06 70 18:24 02.02.2022
5537 Clouds 21 1015 82 10000 2.57 40 17:20 02.02.2022
5538 Clouds 22 1014 81 10000 3.6 70 16:56 02.02.2022
5539 Clouds 22 1014 80 10000 0.45 123 15:23 02.02.2022
5540 Clouds 22 1015 78 10000 2.06 30 12:30 02.02.2022
5541 Clouds 23 1015 75 10000 0.45 93 11:48 02.02.2022
5542 Clouds 23 1015 75 10000 0.89 162 11:30 02.02.2022
5543 Clouds 23 1015 75 10000 0.89 162 11:30 02.02.2022
5544 Clouds 23 1015 75 10000 4.63 60 08:30 02.02.2022
5545 Clouds 27 1014 61 10000 7.2 70 01:46 02.02.2022
5546 Clouds 26 1016 58 10000 6.17 90 22:29 01.02.2022
5547 Clouds 24 1016 70 10000 4.12 90 20:51 01.02.2022
5548 Clouds 20 1016 84 10000 2.06 0 19:23 01.02.2022
5549 Clouds 19 1016 87 10000 2.06 270 16:56 01.02.2022
5550 Clouds 20 1015 84 10000 2.06 270 16:19 01.02.2022
5551 Clouds 21 1015 83 10000 4.12 90 12:56 01.02.2022
5552 Clouds 21 1016 82 10000 1.54 310 11:51 01.02.2022
5553 Clouds 22 1016 78 10000 2.06 30 08:37 01.02.2022
5554 Clouds 26 1014 63 10000 4.63 210 00:28 01.02.2022
5555 Clouds 25 1016 63 10000 4.12 190 23:36 31.01.2022
5556 Clouds 25 1015 66 10000 3.6 210 22:30 31.01.2022
5557 Clouds 25 1017 65 10000 0 0 21:34 31.01.2022
5558 Clouds 24 1016 71 10000 2.57 0 20:34 31.01.2022
5559 Clouds 22 1016 78 10000 2.06 340 19:46 31.01.2022
5560 Clouds 20 1015 84 10000 0 0 18:31 31.01.2022
5561 Clouds 20 1013 86 10000 1.58 35 17:55 31.01.2022
5562 Clear 19 1013 87 10000 1.34 320 16:58 31.01.2022
5563 Clouds 20 1013 84 10000 2.06 340 15:46 31.01.2022
5564 Clouds 20 1014 81 10000 2.57 330 14:27 31.01.2022
5565 Clouds 21 1014 83 10000 1.79 330 12:55 31.01.2022
5566 Clouds 20 1015 86 10000 0.9 59 11:59 31.01.2022
5567 Clear 21 1016 80 10000 3.09 80 10:54 31.01.2022
5568 Clouds 21 1016 77 10000 1.54 0 10:36 31.01.2022
5569 Clouds 22 1015 76 10000 1.54 300 09:34 31.01.2022
5570 Clouds 22 1015 76 10000 1.54 350 08:52 31.01.2022
5571 Clouds 22 1015 75 10000 1.54 350 08:20 31.01.2022
5572 Clouds 23 1015 73 10000 3.6 40 06:36 31.01.2022
5573 Clouds 24 1014 69 10000 3.6 140 05:20 31.01.2022
5574 Clouds 26 1017 58 10000 5.66 130 23:20 30.01.2022
5575 Clouds 26 1015 56 10000 6.17 140 22:30 30.01.2022
5576 Clouds 26 1015 55 10000 6.17 140 22:30 30.01.2022
5577 Clouds 26 1015 61 10000 6.17 120 21:43 30.01.2022
5578 Clouds 25 1016 60 10000 6.17 120 21:20 30.01.2022
5579 Clouds 25 1017 66 10000 4.12 110 20:50 30.01.2022
5580 Clouds 25 1017 66 10000 4.12 110 20:29 30.01.2022
5581 Clouds 23 1016 70 10000 2.06 0 19:52 30.01.2022
5582 Clouds 21 1015 71 10000 0 0 18:44 30.01.2022
5583 Clouds 21 1015 73 10000 0 0 18:20 30.01.2022
5584 Clouds 21 1015 72 10000 2.57 90 17:28 30.01.2022
5585 Clouds 21 1015 71 10000 0.89 89 16:40 30.01.2022
5586 Clouds 21 1015 71 10000 0.89 114 16:22 30.01.2022
5587 Clear 21 1015 72 10000 0.89 123 15:51 30.01.2022
5588 Clear 21 1015 71 10000 0.89 72 15:32 30.01.2022
5589 Clouds 22 1015 70 10000 0.89 0 14:46 30.01.2022
5590 Clouds 22 1016 73 10000 2.06 340 12:47 30.01.2022
5591 Clouds 22 1018 73 10000 0.89 337 12:25 30.01.2022
5592 Clouds 22 1019 76 10000 0.89 41 10:36 30.01.2022
5593 Clear 22 1019 76 10000 1.79 40 09:56 30.01.2022
5594 Clear 22 1018 74 10000 4.02 80 08:56 30.01.2022
5595 Clear 22 1018 73 10000 0.89 92 07:55 30.01.2022
5596 Clouds 26 1015 61 10000 6.69 130 02:29 30.01.2022
5597 Clouds 27 1016 61 10000 6.69 130 00:41 30.01.2022
5598 Clouds 27 1018 60 10000 0.45 203 23:20 29.01.2022
5599 Clear 26 1019 64 10000 5.83 98 21:58 29.01.2022
5600 Clouds 26 1017 62 10000 6.17 90 21:25 29.01.2022
5601 Clouds 25 1017 64 10000 0.45 144 20:35 29.01.2022
5602 Clouds 24 1019 70 10000 0.45 125 19:35 29.01.2022
5603 Clouds 23 1018 74 10000 0.45 103 18:53 29.01.2022
5604 Clouds 22 1018 75 10000 0.89 82 18:24 29.01.2022
5605 Clouds 22 1017 76 10000 1.34 99 17:35 29.01.2022
5606 Clouds 22 1015 76 10000 0.89 14 16:37 29.01.2022
5607 Clouds 23 1017 73 10000 0.89 102 14:23 29.01.2022
5608 Clouds 23 1018 76 10000 0.89 92 13:45 29.01.2022
5609 Clouds 23 1018 76 10000 1.34 86 13:24 29.01.2022
5610 Clouds 23 1018 79 10000 0.89 73 11:50 29.01.2022
5611 Clouds 23 1018 80 10000 0 0 11:24 29.01.2022
5612 Clouds 23 1018 81 10000 2.68 320 08:57 29.01.2022
5613 Clouds 23 1014 76 10000 2.57 150 06:55 29.01.2022
5614 Clouds 27 1017 62 10000 5.66 150 00:36 29.01.2022
5615 Clouds 26 1019 61 10000 5.14 150 23:52 28.01.2022
5616 Clouds 26 1020 62 10000 5.66 90 22:50 28.01.2022
5617 Clouds 26 1020 65 10000 5.66 90 22:21 28.01.2022
5618 Clouds 25 1016 67 10000 1.54 0 21:36 28.01.2022
5619 Clouds 23 1017 76 10000 2.06 320 20:29 28.01.2022
5620 Clouds 20 1017 90 10000 2.06 300 19:31 28.01.2022
5621 Clouds 20 1017 84 10000 2.06 330 18:43 28.01.2022
5622 Clouds 20 1015 86 10000 1.79 310 16:54 28.01.2022
5623 Clear 19 1016 86 10000 1.54 350 15:20 28.01.2022
5624 Clouds 21 1016 86 10000 0 0 13:50 28.01.2022
5625 Clouds 21 1018 86 10000 1.54 20 12:29 28.01.2022
5626 Clouds 21 1019 83 10000 2.06 340 10:49 28.01.2022
5627 Clouds 22 1018 85 10000 1.54 350 09:49 28.01.2022
5628 Clouds 23 1015 77 10000 1.54 40 07:43 28.01.2022
5629 Clouds 24 1015 74 10000 3.6 70 06:39 28.01.2022
5630 Clouds 26 1014 69 10000 4.12 220 03:53 28.01.2022
5631 Clouds 26 1015 63 10000 0.89 114 02:30 28.01.2022
5632 Clouds 26 1015 65 10000 4.02 160 01:57 28.01.2022
5633 Clouds 26 1017 61 10000 4.12 160 01:30 28.01.2022
5634 Clouds 26 1019 61 10000 2.57 190 22:47 27.01.2022
5635 Clouds 26 1016 62 10000 0 0 21:45 27.01.2022
5636 Clouds 25 1016 64 10000 0 0 21:26 27.01.2022
5637 Clouds 23 1016 71 10000 1.54 330 20:23 27.01.2022
5638 Clouds 19 1016 85 10000 2.06 310 18:23 27.01.2022
5639 Clouds 20 1014 81 10000 2.57 320 17:18 27.01.2022
5640 Clear 20 1015 84 10000 2.06 340 14:24 27.01.2022
5641 Clear 20 1016 85 10000 2.57 350 13:19 27.01.2022
5642 Clear 21 1015 80 10000 2.57 360 12:20 27.01.2022
5643 Clouds 22 1017 76 10000 0.45 120 09:51 27.01.2022
5644 Clouds 22 1017 76 10000 2.06 30 08:40 27.01.2022
5645 Clear 22 1016 81 10000 2.68 40 07:58 27.01.2022
5646 Clouds 26 1014 60 10000 0.45 102 03:34 27.01.2022
5647 Clouds 26 1016 57 10000 5.14 60 00:24 27.01.2022
5648 Clouds 26 1017 60 10000 5.66 110 22:28 26.01.2022
5649 Clouds 25 1018 65 10000 4.63 80 21:44 26.01.2022
5650 Clouds 25 1017 70 10000 4.63 60 20:52 26.01.2022
5651 Clouds 24 1017 71 10000 0.89 107 20:33 26.01.2022
5652 Clouds 23 1017 75 10000 0.89 99 19:49 26.01.2022
5653 Clouds 22 1016 78 10000 0.89 39 18:48 26.01.2022
5654 Clouds 22 1016 78 10000 0.89 110 18:24 26.01.2022
5655 Clouds 22 1015 77 10000 0.89 113 17:33 26.01.2022
5656 Clouds 22 1014 80 10000 1.34 30 16:56 26.01.2022
5657 Clouds 22 1014 81 10000 0.45 102 16:23 26.01.2022
5658 Clouds 22 1015 81 10000 1.34 133 14:40 26.01.2022
5659 Rain 22 1016 85 10000 1.34 100 12:20 26.01.2022
5660 Rain 23 1017 82 10000 0.45 83 10:52 26.01.2022
5661 Rain 23 1017 82 10000 0.45 83 10:52 26.01.2022
5662 Clouds 23 1016 80 10000 0.45 102 09:52 26.01.2022
5663 Clouds 23 1017 79 10000 0.89 93 08:49 26.01.2022
5664 Clouds 23 1016 76 10000 0.45 83 06:42 26.01.2022
5665 Clouds 25 1015 68 10000 5.66 40 00:24 26.01.2022
5666 Clouds 26 1016 66 10000 0.89 140 23:41 25.01.2022
5667 Clouds 26 1016 60 10000 6.17 60 22:48 25.01.2022
5668 Clouds 26 1016 63 10000 6.17 60 22:18 25.01.2022
5669 Clouds 25 1019 68 10000 4.63 50 21:27 25.01.2022
5670 Clouds 24 1018 71 10000 1.79 0 20:45 25.01.2022
5671 Clouds 24 1017 75 10000 0.89 18 19:54 25.01.2022
5672 Clouds 23 1017 76 10000 1.79 52 19:23 25.01.2022
5673 Clouds 22 1017 81 10000 0 0 17:56 25.01.2022
5674 Clouds 21 1017 82 10000 0 0 17:18 25.01.2022
5675 Clouds 21 1017 85 10000 2.57 310 16:34 25.01.2022
5676 Clouds 21 1016 85 10000 0.45 127 15:39 25.01.2022
5677 Rain 21 1017 85 10000 0.89 114 15:18 25.01.2022
5678 Rain 21 1018 84 10000 2.06 320 14:43 25.01.2022
5679 Clouds 22 1018 77 10000 0.89 99 11:52 25.01.2022
5680 Clouds 22 1018 77 10000 1.54 350 09:21 25.01.2022
5681 Clouds 23 1018 71 10000 3.6 20 07:46 25.01.2022
5682 Clouds 23 1017 68 10000 4.63 40 06:54 25.01.2022
5683 Clouds 23 1016 66 10000 5.14 40 05:23 25.01.2022
5684 Clouds 26 1018 53 10000 5.66 30 00:28 25.01.2022
5685 Clouds 26 1019 53 10000 6.17 30 23:36 24.01.2022
5686 Clouds 25 1019 53 10000 6.17 30 23:18 24.01.2022
5687 Clouds 25 1018 56 10000 1.34 152 22:42 24.01.2022
5688 Clear 25 1018 59 10000 1.34 48 21:57 24.01.2022
5689 Clouds 25 1019 57 10000 1.34 113 21:32 24.01.2022
5690 Clouds 24 1018 60 10000 6.17 70 20:34 24.01.2022
5691 Clouds 23 1018 62 10000 1.34 109 19:58 24.01.2022
5692 Clouds 22 1018 63 10000 0.89 110 19:37 24.01.2022
5693 Clouds 21 1018 69 10000 2.06 350 18:37 24.01.2022
5694 Clouds 21 1017 69 10000 0.89 6 17:24 24.01.2022
5695 Clouds 22 1016 69 10000 1.79 10 16:55 24.01.2022
5696 Clear 21 1017 70 10000 0.89 14 16:29 24.01.2022
5697 Clouds 22 1016 72 10000 0.89 99 14:49 24.01.2022
5698 Clouds 22 1017 73 10000 0.89 337 13:38 24.01.2022
5699 Clouds 22 1017 76 10000 0.89 345 12:32 24.01.2022
5700 Clouds 22 1017 76 10000 0.89 148 11:20 24.01.2022
5701 Clouds 22 1018 77 10000 1.79 80 09:49 24.01.2022
5702 Clear 23 1018 78 10000 0.45 32 08:54 24.01.2022
5703 Clouds 23 1018 75 10000 0.45 110 07:19 24.01.2022
5704 Clouds 27 1016 63 10000 6.17 60 01:31 24.01.2022
5705 Clouds 27 1017 62 10000 5.14 50 00:45 24.01.2022
5706 Clouds 26 1017 64 10000 0.89 107 00:26 24.01.2022
5707 Clouds 26 1019 68 10000 5.14 50 22:43 23.01.2022
5708 Clouds 26 1018 70 10000 0.89 69 21:50 23.01.2022
5709 Clouds 25 1019 72 10000 1.34 103 21:26 23.01.2022
5710 Clouds 25 1018 73 10000 0.89 124 20:48 23.01.2022
5711 Clouds 24 1018 75 10000 0.89 39 19:54 23.01.2022
5712 Clouds 22 1018 80 10000 0.45 90 18:52 23.01.2022
5713 Clouds 22 1017 78 10000 0.89 79 17:50 23.01.2022
5714 Clouds 21 1017 82 10000 0.45 106 16:48 23.01.2022
5715 Clear 22 1017 77 10000 1.34 102 15:18 23.01.2022
5716 Clear 22 1017 76 10000 1.34 89 14:31 23.01.2022
5717 Clear 22 1017 76 10000 1.34 89 14:31 23.01.2022
5718 Clear 22 1017 80 10000 0.89 138 13:22 23.01.2022
5719 Clouds 22 1017 77 10000 0.89 96 12:36 23.01.2022
5720 Clouds 22 1017 79 10000 0.89 118 12:18 23.01.2022
5721 Clouds 22 1018 77 10000 1.34 110 11:23 23.01.2022
5722 Clouds 23 1018 76 10000 0.45 39 10:28 23.01.2022
5723 Clouds 23 1017 74 10000 0.89 83 09:52 23.01.2022
5724 Clouds 23 1016 77 10000 1.34 13 08:59 23.01.2022
5725 Clouds 24 1015 76 10000 0.45 357 05:58 23.01.2022
5726 Clouds 26 1015 65 10000 4.92 90 01:53 23.01.2022
5727 Clouds 27 1015 64 10000 0.89 151 01:33 23.01.2022
5728 Clouds 27 1017 64 10000 5.66 60 00:23 23.01.2022
5729 Clouds 26 1016 66 10000 1.34 76 23:57 22.01.2022
5730 Clouds 26 1018 62 10000 5.14 70 22:46 22.01.2022
5731 Clouds 26 1018 68 10000 1.54 50 21:38 22.01.2022
5732 Clouds 25 1017 73 10000 0.89 145 20:23 22.01.2022
5733 Clouds 23 1017 82 10000 2.06 330 19:21 22.01.2022
5734 Clouds 21 1016 87 10000 0.45 128 18:25 22.01.2022
5735 Clouds 21 1016 87 10000 0.45 111 17:41 22.01.2022
5736 Clear 22 1015 82 10000 1.79 320 16:56 22.01.2022
5737 Clouds 22 1015 83 10000 2.57 50 15:53 22.01.2022
5738 Clouds 22 1015 83 10000 0.45 145 15:32 22.01.2022
5739 Clouds 22 1016 83 10000 0 0 13:51 22.01.2022
5740 Clouds 22 1015 83 10000 0.45 65 12:53 22.01.2022
5741 Clouds 22 1016 82 10000 1.54 0 12:29 22.01.2022
5742 Clouds 22 1016 81 10000 0.89 350 11:44 22.01.2022
5743 Clouds 22 1017 82 10000 0.45 78 10:29 22.01.2022
5744 Clear 23 1016 81 10000 4.53 66 09:59 22.01.2022
5745 Clouds 23 1016 80 10000 0.45 103 08:53 22.01.2022
5746 Clouds 23 1017 78 10000 0.45 79 07:39 22.01.2022
5747 Clouds 25 1015 73 10000 0.45 176 04:53 22.01.2022
5748 Clouds 28 1016 58 10000 4.63 350 01:49 22.01.2022
5749 Clouds 26 1018 65 10000 3.6 180 23:45 21.01.2022
5750 Clouds 27 1018 62 10000 0 0 22:36 21.01.2022
5751 Clouds 23 1018 82 10000 1.54 320 20:32 21.01.2022
5752 Clouds 20 1017 85 10000 2.06 10 18:40 21.01.2022
5753 Clear 20 1016 88 10000 0 0 17:41 21.01.2022
5754 Clear 21 1015 87 10000 1.54 10 15:44 21.01.2022
5755 Clouds 21 1017 87 10000 0 0 13:51 21.01.2022
5756 Clouds 21 1017 87 10000 0 0 13:51 21.01.2022
5757 Clouds 22 1017 83 10000 2.06 350 12:39 21.01.2022
5758 Clouds 22 1017 87 10000 2.06 290 11:28 21.01.2022
5759 Clouds 22 1017 84 10000 0 0 10:20 21.01.2022
5760 Clouds 23 1016 82 10000 1.54 250 08:25 21.01.2022
5761 Clouds 24 1012 83 10000 2.24 230 06:57 21.01.2022
5762 Clouds 26 1014 71 10000 4.12 160 23:40 20.01.2022
5763 Clouds 25 1014 71 10000 3.09 160 22:44 20.01.2022
5764 Clouds 25 1016 74 10000 0.45 192 21:47 20.01.2022
5765 Clouds 25 1016 76 10000 1.54 360 20:56 20.01.2022
5766 Clouds 22 1015 84 10000 1.54 0 19:20 20.01.2022
5767 Clear 21 1015 84 10000 2.57 350 18:51 20.01.2022
5768 Clear 20 1014 89 10000 1.54 350 17:30 20.01.2022
5769 Clouds 20 1014 86 10000 1.54 350 15:44 20.01.2022
5770 Clouds 20 1014 85 10000 1.54 350 15:22 20.01.2022
5771 Clouds 21 1014 87 10000 1.54 320 13:41 20.01.2022
5772 Clouds 21 1013 89 10000 2.06 350 12:35 20.01.2022
5773 Clouds 22 1013 88 10000 1.34 360 11:57 20.01.2022
5774 Clouds 22 1015 85 10000 0 0 10:40 20.01.2022
5775 Clouds 22 1010 84 10000 0 0 09:40 20.01.2022
5776 Clouds 22 1010 84 10000 1.54 30 08:32 20.01.2022
5777 Clouds 25 1012 76 10000 3.09 210 05:32 20.01.2022
5778 Clouds 27 1015 61 10000 4.12 150 23:35 19.01.2022
5779 Clouds 26 1015 65 10000 2.57 180 22:32 19.01.2022
5780 Clouds 26 1016 67 10000 1.54 0 21:24 19.01.2022
5781 Clouds 25 1015 70 10000 1.54 20 20:50 19.01.2022
5782 Clear 24 1013 79 10000 0.89 140 19:54 19.01.2022
5783 Clouds 21 1014 77 10000 0 0 18:40 19.01.2022
5784 Clouds 21 1014 84 10000 2.06 340 17:45 19.01.2022
5785 Clouds 20 1013 86 10000 1.54 340 16:48 19.01.2022
5786 Clouds 21 1013 86 10000 2.06 320 14:42 19.01.2022
5787 Clear 21 1014 82 10000 2.06 350 12:43 19.01.2022
5788 Clear 21 1014 81 10000 2.06 350 11:41 19.01.2022
5789 Clear 22 1014 81 10000 1.54 340 10:23 19.01.2022
5790 Clear 22 1014 77 10000 1.54 320 09:34 19.01.2022
5791 Clear 23 1012 78 10000 1.54 130 06:45 19.01.2022
5792 Clouds 26 1012 66 10000 3.6 170 02:38 19.01.2022
5793 Clouds 26 1013 63 10000 3.6 190 23:19 18.01.2022
5794 Clouds 25 1013 69 10000 2.57 160 22:19 18.01.2022
5795 Clear 25 1012 75 10000 1.34 360 20:58 18.01.2022
5796 Clear 24 1013 78 10000 1.54 180 19:54 18.01.2022
5797 Clear 23 1013 78 10000 0 0 19:36 18.01.2022
5798 Clear 21 1013 84 10000 0 0 18:51 18.01.2022
5799 Clear 20 1011 89 10000 1.79 360 17:58 18.01.2022
5800 Clear 20 1012 89 10000 1.54 350 16:40 18.01.2022
5801 Clear 20 1011 85 10000 0 0 15:41 18.01.2022
5802 Clear 21 1012 86 10000 0 0 15:21 18.01.2022
5803 Clear 20 1015 82 10000 2.06 360 12:33 18.01.2022
5804 Clouds 21 1014 81 10000 2.06 350 10:47 18.01.2022
5805 Clear 22 1012 80 10000 1.54 30 08:49 18.01.2022
5806 Clear 22 1013 79 10000 1.54 140 07:49 18.01.2022
5807 Clouds 26 1011 65 10000 3.6 140 02:33 18.01.2022
5808 Clouds 26 1015 70 10000 4.12 160 23:38 17.01.2022
5809 Clouds 25 1016 70 10000 3.6 120 22:26 17.01.2022
5810 Clouds 25 1015 72 10000 0 0 21:33 17.01.2022
5811 Clear 23 1013 84 10000 0 0 19:57 17.01.2022
5812 Clouds 20 1014 86 10000 2.06 350 18:30 17.01.2022
5813 Clear 20 1012 84 10000 0 0 17:25 17.01.2022
5814 Clear 20 1012 84 10000 2.06 350 16:35 17.01.2022
5815 Clear 20 1012 87 10000 0 0 15:18 17.01.2022
5816 Clear 20 1012 86 10000 2.06 350 14:43 17.01.2022
5817 Clear 20 1013 82 10000 1.54 340 13:20 17.01.2022
5818 Clouds 21 1013 84 10000 1.29 82 12:55 17.01.2022
5819 Clear 21 1014 79 10000 1.54 360 11:48 17.01.2022
5820 Clear 22 1014 80 10000 0 0 10:21 17.01.2022
5821 Clear 22 1014 79 10000 1.54 10 09:33 17.01.2022
5822 Clouds 23 1013 77 10000 0 0 07:22 17.01.2022
5823 Clouds 26 1013 60 10000 2.68 180 02:54 17.01.2022
5824 Clear 26 1014 56 10000 3.58 170 00:55 17.01.2022
5825 Clear 26 1017 65 10000 0.53 115 22:18 16.01.2022
5826 Clouds 23 1015 76 10000 1.54 20 20:34 16.01.2022
5827 Clouds 21 1014 84 10000 1.54 340 18:51 16.01.2022
5828 Clouds 19 1014 90 10000 2.06 350 17:57 16.01.2022
5829 Clear 21 1012 84 10000 1.62 32 16:59 16.01.2022
5830 Clouds 18 1015 90 10000 2.57 320 16:20 16.01.2022
5831 Clear 20 1014 85 10000 2.06 300 14:30 16.01.2022
5832 Clear 20 1014 87 10000 0 0 13:34 16.01.2022
5833 Clouds 20 1016 88 10000 0 0 12:27 16.01.2022
5834 Clouds 21 1017 86 10000 2.06 320 11:38 16.01.2022
5835 Clouds 21 1017 85 10000 1.54 10 10:46 16.01.2022
5836 Clear 22 1015 85 10000 1.79 320 09:59 16.01.2022
5837 Clouds 22 1015 84 10000 2.06 320 09:38 16.01.2022
5838 Clouds 22 1015 84 10000 2.06 320 09:20 16.01.2022
5839 Clouds 22 1015 83 10000 2.57 20 07:21 16.01.2022
5840 Clouds 25 1015 70 10000 4.12 210 00:36 16.01.2022
5841 Clear 25 1016 67 10000 2.24 180 22:55 15.01.2022
5842 Clouds 24 1017 71 10000 1.54 120 21:22 15.01.2022
5843 Clouds 23 1016 80 10000 1.54 360 20:45 15.01.2022
5844 Clouds 23 1016 79 10000 1.54 360 20:22 15.01.2022
5845 Clear 20 1015 90 10000 2.57 10 19:27 15.01.2022
5846 Clear 20 1014 92 10000 0 0 18:20 15.01.2022
5847 Clouds 20 1014 92 10000 0 0 16:49 15.01.2022
5848 Clouds 20 1014 92 10000 0 0 16:49 15.01.2022
5849 Clouds 20 1016 93 10000 0 0 14:38 15.01.2022
5850 Clouds 20 1016 94 10000 1.54 300 12:52 15.01.2022
5851 Clouds 21 1015 91 10000 1.54 10 11:32 15.01.2022
5852 Clouds 21 1015 94 10000 1.54 330 09:46 15.01.2022
5853 Rain 24 1014 78 10000 0.45 172 04:46 15.01.2022
5854 Clouds 26 1016 67 10000 4.63 160 23:21 14.01.2022
5855 Clouds 25 1018 76 10000 0 0 21:18 14.01.2022
5856 Clouds 23 1018 82 10000 2.06 340 20:25 14.01.2022
5857 Clouds 21 1018 87 10000 0 0 19:50 14.01.2022
5858 Clouds 20 1018 90 10000 1.54 310 18:38 14.01.2022
5859 Clouds 20 1017 89 10000 1.54 360 17:21 14.01.2022
5860 Clouds 20 1015 90 10000 2.06 330 16:40 14.01.2022
5861 Clouds 20 1015 90 10000 2.06 360 15:30 14.01.2022
5862 Clouds 21 1015 87 10000 1.54 330 14:25 14.01.2022
5863 Clouds 21 1015 87 10000 2.06 320 12:47 14.01.2022
5864 Clouds 21 1015 87 10000 2.57 340 11:51 14.01.2022
5865 Clouds 21 1018 84 10000 1.54 350 10:24 14.01.2022
5866 Clouds 22 1018 81 10000 1.54 30 08:52 14.01.2022
5867 Clouds 22 1014 80 10000 2.06 30 07:29 14.01.2022
5868 Clouds 26 1016 66 10000 3.6 170 01:43 14.01.2022
5869 Clouds 26 1016 63 10000 2.57 170 23:40 13.01.2022
5870 Clouds 25 1018 71 10000 0 0 21:46 13.01.2022
5871 Clouds 25 1018 71 10000 0 0 21:27 13.01.2022
5872 Clouds 21 1017 85 10000 2.57 330 19:44 13.01.2022
5873 Clouds 20 1018 91 10000 2.57 330 19:23 13.01.2022
5874 Clouds 20 1017 84 10000 1.54 350 18:33 13.01.2022
5875 Mist 19 1016 88 10000 0 0 16:43 13.01.2022
5876 Clouds 20 1017 90 10000 0 0 15:38 13.01.2022
5877 Clouds 20 1015 90 10000 2.57 350 14:50 13.01.2022
5878 Clouds 20 1015 90 10000 2.57 350 14:50 13.01.2022
5879 Clouds 21 1018 87 10000 2.06 340 12:54 13.01.2022
5880 Clouds 21 1019 84 10000 3.09 80 10:29 13.01.2022
5881 Clouds 22 1019 84 10000 3.09 110 09:22 13.01.2022
5882 Rain 22 1019 81 10000 0 0 08:28 13.01.2022
5883 Clouds 23 1019 82 10000 1.54 360 07:25 13.01.2022
5884 Clouds 23 1019 83 10000 2.57 60 06:41 13.01.2022
5885 Rain 23 1018 80 2414 0 0 05:20 13.01.2022
5886 Clouds 25 1017 75 10000 4.12 220 03:24 13.01.2022
5887 Clouds 25 1018 78 10000 4.63 70 00:56 13.01.2022
5888 Clouds 26 1018 70 10000 4.12 140 23:50 12.01.2022
5889 Clouds 26 1018 67 10000 4.12 140 23:30 12.01.2022
5890 Clouds 25 1020 72 10000 0 0 21:58 12.01.2022
5891 Clouds 25 1020 73 10000 0 0 21:23 12.01.2022
5892 Clouds 24 1020 77 10000 1.79 330 20:57 12.01.2022
5893 Rain 21 1019 87 8047 2.68 340 19:57 12.01.2022
5894 Clouds 20 1019 85 10000 1.54 310 18:43 12.01.2022
5895 Clear 19 1017 88 10000 2.06 340 17:51 12.01.2022
5896 Clear 19 1018 86 10000 1.54 330 16:39 12.01.2022
5897 Clear 20 1018 84 10000 0 0 14:49 12.01.2022
5898 Clear 20 1019 81 10000 1.54 320 13:34 12.01.2022
5899 Clouds 21 1019 78 10000 3.09 60 12:34 12.01.2022
5900 Clouds 22 1020 72 10000 2.57 90 08:45 12.01.2022
5901 Clouds 22 1019 67 10000 4.63 50 07:52 12.01.2022
5902 Clouds 22 1019 67 10000 4.63 50 07:32 12.01.2022
5903 Clouds 25 1018 58 10000 5.66 30 01:26 12.01.2022
5904 Clouds 26 1019 55 10000 4.63 40 23:25 11.01.2022
5905 Clouds 26 1020 57 10000 4.12 360 22:24 11.01.2022
5906 Clouds 25 1020 61 10000 3.09 360 21:25 11.01.2022
5907 Clouds 23 1020 67 10000 2.57 340 20:33 11.01.2022
5908 Clouds 20 1019 80 10000 3.09 360 18:48 11.01.2022
5909 Clouds 19 1019 87 10000 2.57 360 17:42 11.01.2022
5910 Clouds 19 1019 87 10000 2.57 360 16:38 11.01.2022
5911 Clouds 20 1019 89 10000 5.24 359 15:59 11.01.2022
5912 Clouds 20 1018 86 10000 2.57 320 14:43 11.01.2022
5913 Clear 20 1018 85 10000 1.34 330 13:58 11.01.2022
5914 Clouds 20 1018 83 10000 1.54 330 13:39 11.01.2022
5915 Clouds 20 1018 83 10000 1.54 330 13:21 11.01.2022
5916 Clouds 20 1019 82 10000 0 0 12:22 11.01.2022
5917 Clouds 21 1019 82 10000 2.57 40 10:24 11.01.2022
5918 Clouds 24 1018 77 10000 4.12 240 07:35 11.01.2022
5919 Clouds 26 1016 73 10000 3.6 190 00:43 11.01.2022
5920 Clouds 26 1016 72 10000 3.6 190 00:21 11.01.2022
5921 Clouds 26 1016 66 10000 3.6 220 23:28 10.01.2022
5922 Clouds 25 1017 72 10000 2.06 190 22:19 10.01.2022
5923 Clouds 25 1016 74 10000 1.79 190 21:54 10.01.2022
5924 Clouds 24 1016 74 10000 2.06 190 21:31 10.01.2022
5925 Clear 25 1016 73 10000 3.49 234 20:58 10.01.2022
5926 Clouds 24 1016 75 10000 0 0 20:29 10.01.2022
5927 Clouds 21 1016 83 10000 1.54 350 19:45 10.01.2022
5928 Clouds 21 1016 84 10000 1.54 350 19:21 10.01.2022
5929 Clouds 20 1015 86 10000 0 0 18:50 10.01.2022
5930 Clouds 20 1015 87 10000 0 0 17:56 10.01.2022
5931 Clouds 20 1015 88 10000 0 0 16:42 10.01.2022
5932 Clouds 20 1014 88 10000 0 0 15:49 10.01.2022
5933 Clouds 20 1014 87 10000 1.54 360 14:34 10.01.2022
5934 Clouds 20 1015 85 10000 0 0 12:22 10.01.2022
5935 Clouds 21 1015 85 10000 0 0 11:25 10.01.2022
5936 Clouds 21 1015 81 10000 1.54 300 09:53 10.01.2022
5937 Clouds 22 1013 77 10000 2.06 210 08:22 10.01.2022
5938 Clouds 24 1013 70 10000 2.57 210 05:50 10.01.2022
5939 Clouds 26 1013 61 10000 3.09 210 01:33 10.01.2022
5940 Clouds 26 1013 64 10000 2.57 170 00:29 10.01.2022
5941 Clouds 26 1013 60 10000 1.54 0 23:43 09.01.2022
5942 Clouds 25 1014 68 10000 2.06 150 22:40 09.01.2022
5943 Clouds 25 1015 70 10000 1.54 170 21:47 09.01.2022
5944 Clouds 25 1015 71 10000 1.54 170 21:24 09.01.2022
5945 Clouds 25 1015 71 10000 1.54 170 21:24 09.01.2022
5946 Clouds 23 1015 77 10000 0 0 20:53 09.01.2022
5947 Clouds 23 1015 78 10000 0 0 20:34 09.01.2022
5948 Clouds 20 1014 88 10000 2.06 350 19:45 09.01.2022
5949 Clouds 20 1014 90 10000 2.06 350 19:23 09.01.2022
5950 Clouds 19 1014 88 10000 0 0 18:56 09.01.2022
5951 Clouds 19 1014 89 10000 0 0 18:35 09.01.2022
5952 Clouds 19 1013 90 10000 2.06 310 17:45 09.01.2022
5953 Clouds 19 1013 90 10000 2.06 310 17:21 09.01.2022
5954 Clouds 20 1012 88 10000 1.34 350 15:59 09.01.2022
5955 Clouds 20 1013 86 10000 1.54 350 15:36 09.01.2022
5956 Clouds 20 1013 87 10000 2.06 350 14:41 09.01.2022
5957 Clouds 20 1013 87 10000 0 0 13:51 09.01.2022
5958 Clouds 21 1013 85 10000 0 0 13:25 09.01.2022
5959 Clouds 21 1013 85 10000 1.34 10 11:55 09.01.2022
5960 Clouds 21 1014 84 10000 2.57 340 10:53 09.01.2022
5961 Clouds 21 1014 83 10000 0 0 09:50 09.01.2022
5962 Clouds 22 1015 80 10000 2.06 10 08:52 09.01.2022
5963 Clouds 24 1013 75 10000 2.06 170 05:38 09.01.2022
5964 Clouds 26 1012 67 10000 4.63 220 01:24 09.01.2022
5965 Clouds 26 1013 70 10000 4.12 220 00:37 09.01.2022
5966 Clouds 26 1014 66 10000 5.14 220 23:27 08.01.2022
5967 Clouds 26 1015 68 10000 3.6 310 22:30 08.01.2022
5968 Clouds 25 1015 67 10000 2.57 320 21:26 08.01.2022
5969 Clouds 23 1015 76 10000 4.12 340 20:42 08.01.2022
5970 Clouds 23 1015 79 10000 4.12 340 20:21 08.01.2022
5971 Clouds 19 1013 86 10000 1.54 330 18:45 08.01.2022
5972 Clear 18 1013 89 10000 2.06 340 17:22 08.01.2022
5973 Clear 19 1013 89 10000 1.47 327 15:56 08.01.2022
5974 Clear 18 1013 88 10000 0 0 14:46 08.01.2022
5975 Clear 18 1014 87 10000 1.54 340 13:28 08.01.2022
5976 Clouds 20 1015 77 10000 1.54 350 11:28 08.01.2022
5977 Clear 20 1015 82 10000 0 0 10:28 08.01.2022
5978 Clear 21 1015 81 10000 2.06 350 09:48 08.01.2022
5979 Clouds 22 1014 82 10000 0 0 08:22 08.01.2022
5980 Clouds 25 1011 68 10000 3.09 200 03:31 08.01.2022
5981 Clouds 26 1013 72 10000 6.17 220 00:42 08.01.2022
5982 Clouds 26 1014 66 10000 2.06 250 22:49 07.01.2022
5983 Clouds 25 1015 71 10000 3.09 320 21:18 07.01.2022
5984 Clouds 23 1015 80 10000 1.54 340 20:19 07.01.2022
5985 Clouds 21 1014 87 10000 1.54 340 19:23 07.01.2022
5986 Clouds 19 1014 92 10000 1.54 330 18:44 07.01.2022
5987 Clouds 19 1014 93 10000 2.06 330 17:28 07.01.2022
5988 Clouds 19 1014 90 10000 0 0 16:39 07.01.2022
5989 Clear 20 1015 92 10000 1.34 350 13:56 07.01.2022
5990 Clouds 20 1015 91 10000 1.54 350 13:38 07.01.2022
5991 Clouds 20 1015 90 10000 1.54 360 12:49 07.01.2022
5992 Clouds 21 1016 84 10000 1.54 350 09:42 07.01.2022
5993 Rain 25 1013 77 10000 3.09 50 02:56 07.01.2022
5994 Clear 26 1014 73 10000 4.02 220 01:55 07.01.2022
5995 Clouds 26 1014 70 10000 4.12 220 01:28 07.01.2022
5996 Clear 26 1014 72 10000 2.24 200 00:59 07.01.2022
5997 Clouds 26 1015 73 10000 3.09 170 23:53 06.01.2022
5998 Clouds 24 1016 78 10000 3.09 70 21:28 06.01.2022
5999 Clouds 23 1016 83 10000 1.54 320 20:22 06.01.2022
6000 Clouds 21 1016 87 10000 2.06 340 19:45 06.01.2022
6001 Clouds 19 1016 91 10000 2.06 350 18:29 06.01.2022
6002 Clear 19 1016 91 10000 2.06 340 17:40 06.01.2022
6003 Clear 19 1016 91 10000 1.54 340 16:44 06.01.2022
6004 Clear 20 1015 90 10000 2.06 340 15:47 06.01.2022
6005 Clear 20 1015 90 10000 2.06 340 15:26 06.01.2022
6006 Clear 20 1015 92 10000 2.57 320 14:45 06.01.2022
6007 Clear 20 1015 92 10000 2.57 320 14:18 06.01.2022
6008 Clear 21 1016 90 10000 2.06 350 12:50 06.01.2022
6009 Rain 21 1016 89 10000 2.57 340 11:43 06.01.2022
6010 Fog 20 1016 89 10000 2.57 340 11:22 06.01.2022
6011 Clouds 22 1017 84 10000 1.54 340 08:51 06.01.2022
6012 Rain 26 1014 72 10000 4.63 210 01:24 06.01.2022
6013 Clouds 26 1016 72 10000 4.12 210 23:38 05.01.2022
6014 Clouds 25 1016 76 10000 1.79 200 22:57 05.01.2022
6015 Clouds 25 1016 75 10000 2.06 200 22:32 05.01.2022
6016 Clouds 25 1017 74 10000 0 0 21:48 05.01.2022
6017 Clouds 24 1016 79 10000 0 0 20:57 05.01.2022
6018 Clouds 23 1016 81 10000 0 0 20:18 05.01.2022
6019 Clouds 21 1015 91 10000 0 0 18:42 05.01.2022
6020 Rain 21 1015 91 10000 0 0 17:23 05.01.2022
6021 Rain 21 1014 90 10000 1.54 70 16:50 05.01.2022
6022 Rain 21 1014 89 10000 2.06 360 15:26 05.01.2022
6023 Rain 21 1014 90 10000 0 0 13:51 05.01.2022
6024 Clear 21 1014 90 10000 1.34 360 12:59 05.01.2022
6025 Clouds 22 1015 87 10000 3.6 310 10:32 05.01.2022
6026 Clouds 23 1014 81 10000 2.57 220 07:45 05.01.2022
6027 Clouds 22 1013 80 10000 0 0 06:24 05.01.2022
6028 Rain 25 1013 75 10000 4.02 210 00:58 05.01.2022
6029 Clouds 23 1013 90 10000 0 0 23:27 04.01.2022
6030 Rain 23 1014 84 10000 4.63 290 22:42 04.01.2022
6031 Rain 25 1014 81 10000 3.6 160 21:21 04.01.2022
6032 Rain 21 1013 93 10000 2.06 20 19:20 04.01.2022
6033 Rain 21 1013 90 10000 2.57 40 17:44 04.01.2022
6034 Rain 20 1012 94 10000 2.57 40 16:42 04.01.2022
6035 Rain 20 1012 94 10000 2.57 40 16:23 04.01.2022
6036 Rain 19 1011 94 10000 0 0 14:53 04.01.2022
6037 Rain 19 1012 94 10000 0 0 14:34 04.01.2022
6038 Rain 20 1013 90 10000 0 0 13:27 04.01.2022
6039 Rain 20 1013 88 10000 0 0 10:41 04.01.2022
6040 Rain 21 1014 86 10000 0 0 09:20 04.01.2022
6041 Clouds 22 1012 82 10000 0 0 08:25 04.01.2022
6042 Clouds 24 1011 76 10000 0 0 01:51 04.01.2022
6043 Rain 24 1012 83 10000 3.09 110 00:40 04.01.2022
6044 Rain 21 1015 91 8047 3.09 170 22:51 03.01.2022
6045 Mist 21 1015 92 6437 3.6 160 21:42 03.01.2022
6046 Rain 21 1015 93 10000 2.57 160 21:24 03.01.2022
6047 Rain 21 1013 92 10000 0 0 19:47 03.01.2022
6048 Rain 21 1013 88 10000 0 0 18:33 03.01.2022
6049 Rain 20 1012 94 10000 0 0 17:40 03.01.2022
6050 Rain 20 1012 96 10000 3.21 129 16:58 03.01.2022
6051 Rain 20 1011 82 10000 1.62 150 14:55 03.01.2022
6052 Clear 19 1011 94 10000 2.06 0 14:29 03.01.2022
6053 Rain 19 1013 88 10000 2.57 0 12:35 03.01.2022
6054 Rain 19 1013 88 10000 2.06 0 11:33 03.01.2022
6055 Clear 19 1013 88 10000 2.06 0 09:49 03.01.2022
6056 Rain 19 1013 92 10000 0 0 08:46 03.01.2022
6057 Clouds 21 1012 88 10000 2.57 70 06:48 03.01.2022
6058 Rain 19 1013 94 10000 6.69 240 23:47 02.01.2022
6059 Rain 20 1013 93 1609 2.06 170 23:18 02.01.2022
6060 Rain 22 1013 87 10000 0 0 22:42 02.01.2022
6061 Rain 22 1013 91 10000 1.54 280 21:38 02.01.2022
6062 Rain 22 1013 94 10000 2.06 320 20:31 02.01.2022
6063 Rain 21 1012 93 10000 2.57 10 19:52 02.01.2022
6064 Rain 21 1012 93 10000 2.57 10 19:25 02.01.2022
6065 Rain 21 1012 93 10000 2.57 340 18:31 02.01.2022
6066 Rain 21 1011 93 10000 1.54 20 17:43 02.01.2022
6067 Rain 21 1011 93 10000 1.54 20 17:21 02.01.2022
6068 Rain 21 1010 93 10000 2.57 0 16:33 02.01.2022
6069 Rain 21 1011 93 9656 0 0 15:49 02.01.2022
6070 Rain 21 1011 95 10000 3.84 156 13:58 02.01.2022
6071 Rain 20 1012 92 10000 1.54 320 12:34 02.01.2022
6072 Rain 21 1011 89 10000 4.49 150 11:56 02.01.2022
6073 Rain 21 1011 89 10000 4.33 143 10:56 02.01.2022
6074 Rain 19 1012 93 10000 2.06 360 10:22 02.01.2022
6075 Rain 21 1011 89 10000 3.6 80 07:45 02.01.2022
6076 Rain 21 1012 85 10000 5.66 250 02:57 02.01.2022
6077 Rain 22 1012 89 10000 4.63 270 23:54 01.01.2022
6078 Rain 22 1012 88 10000 4.63 270 23:35 01.01.2022
6079 Rain 22 1012 87 6437 7.72 260 22:39 01.01.2022
6080 Rain 22 1011 74 4023 8.23 240 22:18 01.01.2022
6081 Rain 24 1011 74 10000 5.14 170 21:42 01.01.2022
6082 Rain 22 1011 76 10000 7.72 170 20:36 01.01.2022
6083 Rain 22 1010 78 2816 3.6 200 19:45 01.01.2022
6084 Rain 22 1010 78 10000 2.57 100 18:52 01.01.2022
6085 Rain 23 1009 80 10000 5.14 160 17:41 01.01.2022
6086 Rain 23 1008 77 10000 3.6 150 16:35 01.01.2022
6087 Rain 23 1008 80 10000 5.14 160 15:45 01.01.2022
6088 Rain 23 1010 82 10000 6.69 170 14:40 01.01.2022
6089 Rain 22 1010 80 10000 0.45 175 13:42 01.01.2022
6090 Rain 23 1009 81 4023 2.06 0 12:25 01.01.2022
6091 Rain 22 1009 81 10000 3.6 120 11:26 01.01.2022
6092 Rain 21 1009 78 9656 2.57 140 10:58 01.01.2022
6093 Rain 22 1010 80 10000 3.6 110 09:48 01.01.2022
6094 Rain 23 1009 76 10000 0.45 173 08:39 01.01.2022
6095 Rain 24 1009 76 10000 3.6 150 07:57 01.01.2022
6096 Rain 23 1009 78 10000 5.66 140 07:38 01.01.2022
6097 Rain 23 1009 79 10000 5.66 150 06:44 01.01.2022
6098 Rain 22 1007 82 9656 0.89 131 04:40 01.01.2022
6099 Rain 23 1007 80 9656 2.06 170 03:52 01.01.2022
6100 Rain 24 1010 76 10000 6.69 140 23:55 31.12.2021
6101 Rain 24 1010 76 10000 6.69 140 22:25 31.12.2021
6102 Rain 24 1011 79 10000 4.63 150 21:47 31.12.2021
6103 Rain 22 1011 95 10000 2.06 70 19:48 31.12.2021
6104 Rain 22 1011 94 10000 2.06 70 19:28 31.12.2021
6105 Rain 22 1008 80 10000 0 0 17:56 31.12.2021
6106 Rain 22 1010 83 10000 2.57 20 17:26 31.12.2021
6107 Rain 22 1010 82 10000 2.57 340 16:52 31.12.2021
6108 Rain 22 1010 82 10000 2.57 340 16:18 31.12.2021
6109 Rain 22 1008 81 10000 2.06 290 15:45 31.12.2021
6110 Rain 22 1009 81 10000 2.06 290 15:26 31.12.2021
6111 Rain 22 1009 81 10000 2.06 290 15:26 31.12.2021
6112 Rain 22 1009 83 10000 2.06 360 14:39 31.12.2021
6113 Rain 22 1009 84 10000 0 0 13:51 31.12.2021
6114 Rain 22 1010 80 10000 0 0 12:50 31.12.2021
6115 Rain 22 1010 79 10000 0 0 12:20 31.12.2021
6116 Rain 22 1011 81 10000 1.54 300 11:41 31.12.2021
6117 Rain 22 1011 82 10000 2.06 310 10:50 31.12.2021
6118 Rain 22 1011 83 10000 0.89 107 10:28 31.12.2021
6119 Rain 22 1012 80 10000 0.89 109 09:34 31.12.2021
6120 Rain 22 1012 80 10000 4.12 70 08:50 31.12.2021
6121 Rain 22 1012 80 10000 0.45 142 07:53 31.12.2021
6122 Rain 22 1010 80 9656 0.45 56 02:36 31.12.2021
6123 Rain 24 1012 74 10000 1.79 116 23:18 30.12.2021
6124 Rain 24 1013 81 10000 0.89 80 22:27 30.12.2021
6125 Rain 24 1014 81 10000 1.34 144 21:39 30.12.2021
6126 Rain 23 1013 79 10000 0.89 354 20:59 30.12.2021
6127 Rain 23 1013 80 10000 1.79 99 20:38 30.12.2021
6128 Rain 23 1013 77 10000 1.79 176 19:53 30.12.2021
6129 Rain 22 1013 77 10000 1.79 11 19:28 30.12.2021
6130 Rain 22 1012 81 10000 0.89 68 18:26 30.12.2021
6131 Rain 22 1012 80 10000 0.89 76 16:50 30.12.2021
6132 Rain 22 1012 79 10000 0.89 85 15:53 30.12.2021
6133 Rain 22 1012 80 10000 2.24 71 14:54 30.12.2021
6134 Rain 22 1012 78 10000 0.89 124 14:35 30.12.2021
6135 Rain 22 1013 87 10000 1.54 80 13:25 30.12.2021
6136 Clouds 22 1013 80 10000 1.34 58 11:53 30.12.2021
6137 Rain 22 1014 83 10000 2.24 109 10:28 30.12.2021
6138 Rain 22 1015 78 10000 1.34 71 09:44 30.12.2021
6139 Rain 22 1012 81 10000 1.79 109 06:56 30.12.2021
6140 Rain 22 1012 81 8047 2.24 76 04:56 30.12.2021
6141 Rain 24 1012 75 10000 2.24 1 03:40 30.12.2021
6142 Rain 24 1012 76 10000 5.66 60 02:19 30.12.2021
6143 Rain 26 1014 71 10000 0.89 104 23:37 29.12.2021
6144 Clouds 25 1015 69 10000 1.34 123 22:33 29.12.2021
6145 Clouds 25 1014 72 10000 1.79 82 21:55 29.12.2021
6146 Clouds 24 1014 75 10000 1.79 72 20:56 29.12.2021
6147 Clouds 24 1015 74 10000 1.79 79 20:26 29.12.2021
6148 Clouds 23 1014 77 10000 2.24 96 19:31 29.12.2021
6149 Clouds 22 1014 77 10000 2.24 49 18:35 29.12.2021
6150 Rain 22 1013 79 10000 1.79 66 17:41 29.12.2021
6151 Rain 22 1013 78 10000 1.79 100 17:20 29.12.2021
6152 Clouds 22 1013 80 10000 1.79 86 16:19 29.12.2021
6153 Clouds 22 1012 78 10000 1.34 61 14:59 29.12.2021
6154 Clouds 22 1014 77 10000 1.34 123 12:57 29.12.2021
6155 Clouds 22 1014 77 10000 1.34 78 12:32 29.12.2021
6156 Clouds 23 1014 77 10000 1.79 62 11:22 29.12.2021
6157 Clouds 23 1015 73 10000 1.34 27 09:24 29.12.2021
6158 Clouds 23 1015 73 10000 1.79 82 06:59 29.12.2021
6159 Clouds 23 1015 71 10000 1.79 75 06:30 29.12.2021
6160 Rain 23 1015 71 10000 1.79 72 05:52 29.12.2021
6161 Clouds 23 1014 73 10000 1.79 100 04:57 29.12.2021
6162 Clouds 26 1014 62 10000 0.45 25 00:32 29.12.2021
6163 Clouds 25 1015 65 10000 1.34 133 23:57 28.12.2021
6164 Clouds 25 1015 69 10000 1.79 47 22:56 28.12.2021
6165 Clouds 25 1015 67 10000 5.14 60 22:24 28.12.2021
6166 Clouds 24 1015 69 10000 1.79 164 21:54 28.12.2021
6167 Clouds 24 1015 69 10000 1.34 86 21:28 28.12.2021
6168 Clouds 23 1015 75 10000 0.89 109 19:53 28.12.2021
6169 Clouds 23 1014 76 10000 0.45 103 18:53 28.12.2021
6170 Clouds 23 1014 73 10000 2.68 96 18:25 28.12.2021
6171 Clouds 23 1013 73 10000 1.34 11 17:29 28.12.2021
6172 Clouds 23 1012 74 10000 0.89 288 15:53 28.12.2021
6173 Rain 22 1013 73 10000 1.79 66 15:29 28.12.2021
6174 Rain 23 1013 74 10000 0.89 85 14:55 28.12.2021
6175 Clouds 23 1013 73 10000 0.45 109 14:22 28.12.2021
6176 Clouds 23 1012 75 10000 3.58 80 13:58 28.12.2021
6177 Clouds 23 1013 73 10000 3.6 80 13:34 28.12.2021
6178 Clouds 23 1013 73 10000 0.45 78 12:55 28.12.2021
6179 Clouds 23 1013 71 10000 5.14 70 12:19 28.12.2021
6180 Clouds 23 1014 72 10000 0.89 104 09:32 28.12.2021
6181 Clouds 23 1013 72 10000 5.66 60 07:33 28.12.2021
6182 Clouds 25 1011 63 10000 6.69 70 03:31 28.12.2021
6183 Rain 26 1013 63 10000 5.66 120 23:37 27.12.2021
6184 Clouds 26 1013 62 10000 6.69 100 22:20 27.12.2021
6185 Clouds 25 1013 67 10000 6.17 70 21:30 27.12.2021
6186 Clouds 24 1013 70 10000 4.12 70 20:27 27.12.2021
6187 Clouds 23 1013 72 10000 0.89 89 19:47 27.12.2021
6188 Clouds 22 1012 76 10000 0.89 83 18:56 27.12.2021
6189 Clouds 22 1012 73 10000 2.57 60 17:50 27.12.2021
6190 Clouds 22 1012 73 10000 2.57 60 17:27 27.12.2021
6191 Clouds 22 1011 70 10000 1.79 87 15:53 27.12.2021
6192 Clouds 22 1011 72 10000 0.89 97 14:35 27.12.2021
6193 Clouds 22 1011 72 10000 1.79 113 13:59 27.12.2021
6194 Clouds 22 1012 72 10000 1.34 131 12:49 27.12.2021
6195 Clouds 23 1013 70 10000 1.79 82 10:37 27.12.2021
6196 Clouds 23 1013 68 10000 3.6 80 10:18 27.12.2021
6197 Clouds 23 1012 70 10000 1.79 92 08:42 27.12.2021
6198 Clouds 23 1013 70 10000 1.79 92 07:34 27.12.2021
6199 Clouds 24 1011 68 10000 1.34 93 02:29 27.12.2021
6200 Clouds 25 1013 63 10000 5.14 100 00:29 27.12.2021
6201 Clouds 25 1013 61 10000 0.45 193 23:42 26.12.2021
6202 Clouds 25 1013 62 10000 4.63 80 22:49 26.12.2021
6203 Clouds 24 1014 68 10000 5.14 100 21:33 26.12.2021
6204 Clouds 23 1013 75 10000 0.45 147 19:54 26.12.2021
6205 Clouds 21 1013 79 10000 1.34 113 18:29 26.12.2021
6206 Clouds 21 1012 79 10000 0.89 90 17:51 26.12.2021
6207 Clouds 21 1012 80 10000 1.34 107 15:31 26.12.2021
6208 Clouds 21 1012 76 10000 2.24 128 13:43 26.12.2021
6209 Clouds 21 1012 76 10000 2.68 90 13:21 26.12.2021
6210 Clouds 21 1013 74 10000 1.34 109 12:35 26.12.2021
6211 Clouds 21 1013 73 10000 1.79 97 11:18 26.12.2021
6212 Clouds 22 1014 72 10000 1.34 128 09:30 26.12.2021
6213 Clouds 22 1014 72 10000 0.89 111 08:44 26.12.2021
6214 Clouds 22 1014 72 10000 1.34 107 08:23 26.12.2021
6215 Clouds 25 1013 62 10000 6.69 70 01:45 26.12.2021
6216 Clouds 25 1014 62 10000 6.17 80 00:28 26.12.2021
6217 Clouds 25 1015 60 10000 8.75 70 23:35 25.12.2021
6218 Clouds 25 1016 61 10000 6.17 80 22:29 25.12.2021
6219 Clouds 24 1016 64 10000 1.79 80 21:29 25.12.2021
6220 Clouds 21 1016 77 10000 1.79 124 19:46 25.12.2021
6221 Clouds 21 1016 78 10000 2.24 344 19:18 25.12.2021
6222 Clouds 20 1015 75 10000 1.34 102 18:26 25.12.2021
6223 Clouds 21 1014 77 10000 0.89 145 16:49 25.12.2021
6224 Clouds 21 1014 79 10000 0.45 14 15:30 25.12.2021
6225 Rain 21 1015 78 10000 1.34 113 13:47 25.12.2021
6226 Rain 21 1015 79 10000 2.06 80 12:19 25.12.2021
6227 Rain 21 1015 78 10000 0.89 68 10:36 25.12.2021
6228 Rain 21 1017 77 10000 1.79 79 09:48 25.12.2021
6229 Rain 21 1017 79 10000 2.24 83 07:21 25.12.2021
6230 Clouds 25 1015 61 10000 1.34 106 01:34 25.12.2021
6231 Clouds 25 1016 58 10000 0.89 111 00:18 25.12.2021
6232 Clouds 24 1018 66 10000 6.69 70 21:46 24.12.2021
6233 Clouds 22 1018 71 10000 1.79 35 19:26 24.12.2021
6234 Rain 21 1017 74 10000 0.89 0 18:34 24.12.2021
6235 Rain 21 1016 78 10000 2.24 86 16:40 24.12.2021
6236 Rain 20 1016 79 10000 1.79 13 15:49 24.12.2021
6237 Rain 20 1016 78 10000 2.24 75 15:20 24.12.2021
6238 Rain 21 1016 77 10000 1.79 71 14:31 24.12.2021
6239 Clouds 21 1017 78 10000 1.34 123 13:45 24.12.2021
6240 Rain 21 1016 78 10000 0.89 76 12:55 24.12.2021
6241 Rain 21 1017 77 10000 6.69 70 12:35 24.12.2021
6242 Clouds 22 1017 74 10000 0.89 20 11:42 24.12.2021
6243 Clouds 22 1017 75 10000 1.79 80 11:24 24.12.2021
6244 Clouds 22 1018 72 10000 0.89 97 10:33 24.12.2021
6245 Clouds 22 1018 70 10000 0.45 80 08:40 24.12.2021
6246 Clouds 22 1017 72 10000 0.89 80 07:58 24.12.2021
6247 Clouds 22 1017 70 10000 0.89 106 06:44 24.12.2021
6248 Clear 26 1016 54 10000 1.34 90 00:21 24.12.2021
6249 Clouds 25 1017 55 10000 1.34 6 23:39 23.12.2021
6250 Clouds 25 1017 59 10000 1.79 85 22:50 23.12.2021
6251 Clouds 25 1018 60 10000 1.34 109 22:22 23.12.2021
6252 Clouds 24 1018 62 10000 1.34 96 21:39 23.12.2021
6253 Clouds 24 1017 66 10000 2.24 85 20:27 23.12.2021
6254 Clouds 23 1017 70 10000 0.89 66 19:28 23.12.2021
6255 Clouds 22 1016 72 10000 1.34 86 18:18 23.12.2021
6256 Clouds 22 1016 70 10000 2.24 83 17:29 23.12.2021
6257 Clouds 22 1016 68 10000 1.34 154 16:26 23.12.2021
6258 Clouds 22 1016 70 10000 1.79 100 15:33 23.12.2021
6259 Clouds 22 1014 72 10000 2.24 17 14:59 23.12.2021
6260 Clouds 22 1016 71 10000 1.34 86 14:39 23.12.2021
6261 Clouds 22 1016 70 10000 1.34 96 13:25 23.12.2021
6262 Clouds 23 1016 70 10000 0.45 358 11:27 23.12.2021
6263 Clouds 23 1016 69 10000 1.79 10 09:53 23.12.2021
6264 Clouds 23 1016 69 10000 0.89 85 09:33 23.12.2021
6265 Clouds 23 1016 68 10000 1.79 56 08:28 23.12.2021
6266 Clouds 23 1014 66 10000 2.24 99 05:30 23.12.2021
6267 Rain 25 1013 63 10000 10.8 70 00:40 23.12.2021
6268 Rain 25 1014 65 10000 2.24 86 22:51 22.12.2021
6269 Rain 24 1012 72 10000 1.79 20 21:59 22.12.2021
6270 Rain 24 1014 66 10000 0.89 66 21:30 22.12.2021
6271 Rain 23 1013 72 10000 1.79 1 20:59 22.12.2021
6272 Rain 23 1014 69 10000 1.34 65 20:40 22.12.2021
6273 Rain 23 1014 72 10000 1.79 30 19:50 22.12.2021
6274 Rain 22 1012 74 10000 2.24 27 18:55 22.12.2021
6275 Rain 21 1011 73 10000 1.79 80 17:38 22.12.2021
6276 Clouds 22 1010 74 10000 0.89 68 15:56 22.12.2021
6277 Rain 22 1011 71 10000 1.79 63 14:23 22.12.2021
6278 Clouds 22 1012 69 10000 0.89 78 12:53 22.12.2021
6279 Clouds 22 1011 69 10000 0.89 51 11:39 22.12.2021
6280 Clouds 22 1012 70 10000 1.79 27 09:52 22.12.2021
6281 Clouds 22 1011 74 10000 6.17 60 07:56 22.12.2021
6282 Clouds 22 1011 74 10000 2.24 54 05:51 22.12.2021
6283 Clouds 22 1011 72 10000 1.79 76 05:33 22.12.2021
6284 Mist 22 1010 74 10000 1.79 99 04:55 22.12.2021
6285 Mist 23 1010 74 10000 1.79 73 04:35 22.12.2021
6286 Mist 22 1010 73 10000 1.34 0 03:37 22.12.2021
6287 Mist 22 1010 72 10000 2.68 62 03:18 22.12.2021
6288 Rain 23 1012 68 10000 2.24 113 23:47 21.12.2021
6289 Rain 23 1012 71 10000 7.2 80 22:36 21.12.2021
6290 Rain 23 1011 79 9446 1.34 41 21:55 21.12.2021
6291 Rain 23 1013 72 10000 2.24 49 21:31 21.12.2021
6292 Rain 22 1013 72 10000 1.79 61 20:24 21.12.2021
6293 Rain 22 1013 71 10000 1.79 154 19:52 21.12.2021
6294 Rain 22 1013 71 10000 6.17 70 19:31 21.12.2021
6295 Rain 22 1012 73 10000 3.09 50 18:23 21.12.2021
6296 Rain 22 1012 75 10000 6.69 70 17:52 21.12.2021
6297 Rain 22 1011 69 10000 0.89 73 16:47 21.12.2021
6298 Rain 22 1011 73 10000 2.24 82 15:34 21.12.2021
6299 Rain 22 1011 71 10000 2.24 72 13:55 21.12.2021
6300 Rain 22 1011 71 10000 1.79 86 13:36 21.12.2021
6301 Rain 22 1013 70 10000 1.79 56 12:25 21.12.2021
6302 Rain 22 1013 74 10000 1.79 75 10:38 21.12.2021
6303 Rain 22 1013 74 10000 2.24 8 09:41 21.12.2021
6304 Clouds 23 1014 68 10000 4.12 60 08:39 21.12.2021
6305 Rain 22 1012 69 10000 2.68 102 07:35 21.12.2021
6306 Clouds 22 1012 73 10000 1.79 123 06:56 21.12.2021
6307 Clouds 25 1011 64 10000 5.14 60 03:22 21.12.2021
6308 Clouds 26 1012 56 10000 0.89 131 01:18 21.12.2021
6309 Clouds 26 1013 57 10000 0.45 128 23:54 20.12.2021
6310 Clouds 26 1014 62 10000 2.24 121 22:35 20.12.2021
6311 Clouds 25 1015 65 10000 3.13 65 21:48 20.12.2021
6312 Clouds 25 1015 65 10000 3.58 79 21:24 20.12.2021
6313 Clouds 25 1015 66 10000 4.12 40 20:48 20.12.2021
6314 Clouds 23 1014 73 10000 2.24 343 19:55 20.12.2021
6315 Clouds 23 1014 73 10000 1.79 158 19:55 20.12.2021
6316 Clouds 23 1014 73 10000 2.68 32 19:34 20.12.2021
6317 Clouds 23 1014 70 10000 3.13 6 18:55 20.12.2021
6318 Rain 23 1014 69 10000 2.68 94 18:25 20.12.2021
6319 Rain 22 1014 72 10000 1.79 73 17:46 20.12.2021
6320 Clouds 23 1013 71 10000 2.24 65 16:44 20.12.2021
6321 Clouds 23 1013 72 10000 2.24 63 15:52 20.12.2021
6322 Clouds 23 1012 73 10000 1.79 56 14:58 20.12.2021
6323 Clouds 23 1014 70 10000 2.24 89 13:24 20.12.2021
6324 Rain 23 1015 74 10000 1.79 85 11:27 20.12.2021
6325 Rain 23 1016 72 10000 1.34 37 09:51 20.12.2021
6326 Clouds 23 1016 71 10000 1.34 131 09:31 20.12.2021
6327 Clouds 23 1015 78 10000 4.12 60 08:42 20.12.2021
6328 Rain 22 1016 74 10000 1.79 0 07:55 20.12.2021
6329 Rain 22 1016 73 10000 1.79 123 07:30 20.12.2021
6330 Rain 24 1014 65 10000 2.68 44 04:36 20.12.2021
6331 Rain 26 1015 69 10000 1.79 11 00:18 20.12.2021
6332 Rain 25 1017 73 10000 1.34 96 22:53 19.12.2021
6333 Clouds 25 1017 77 10000 1.79 118 21:55 19.12.2021
6334 Clouds 24 1017 77 10000 1.79 76 21:30 19.12.2021
6335 Rain 23 1017 79 10000 2.24 73 20:34 19.12.2021
6336 Clouds 23 1017 80 10000 1.79 96 19:52 19.12.2021
6337 Rain 23 1017 77 10000 1.79 0 19:27 19.12.2021
6338 Clouds 23 1016 76 10000 1.34 83 18:30 19.12.2021
6339 Rain 22 1015 79 10000 1.79 114 17:53 19.12.2021
6340 Rain 22 1015 79 10000 1.34 80 17:20 19.12.2021
6341 Rain 22 1015 78 10000 1.79 80 16:26 19.12.2021
6342 Rain 22 1015 79 10000 2.24 80 15:43 19.12.2021
6343 Rain 22 1016 78 10000 2.24 73 15:20 19.12.2021
6344 Rain 22 1015 77 10000 1.34 25 14:42 19.12.2021
6345 Rain 23 1016 76 10000 1.79 54 13:22 19.12.2021
6346 Rain 23 1016 73 10000 2.24 63 12:42 19.12.2021
6347 Rain 23 1017 74 10000 1.79 133 12:18 19.12.2021
6348 Rain 23 1017 75 10000 2.68 7 11:19 19.12.2021
6349 Rain 23 1017 76 10000 2.68 89 10:25 19.12.2021
6350 Rain 23 1016 78 10000 2.68 71 09:41 19.12.2021
6351 Rain 23 1016 77 10000 1.79 79 08:25 19.12.2021
6352 Rain 25 1015 69 10000 2.68 87 04:45 19.12.2021
6353 Rain 25 1015 69 10000 2.68 87 04:45 19.12.2021
6354 Clouds 27 1015 63 10000 1.79 116 01:22 19.12.2021
6355 Clouds 27 1016 60 10000 1.79 128 00:52 19.12.2021
6356 Clouds 27 1018 65 10000 0.89 114 22:36 18.12.2021
6357 Clouds 26 1018 69 10000 1.34 96 21:57 18.12.2021
6358 Clouds 26 1018 68 10000 4.12 80 21:35 18.12.2021
6359 Clouds 25 1018 76 10000 0.45 133 20:44 18.12.2021
6360 Clouds 24 1017 75 10000 0.89 125 19:59 18.12.2021
6361 Clouds 22 1017 78 10000 0.89 107 19:20 18.12.2021
6362 Clouds 21 1016 82 10000 1.79 61 18:21 18.12.2021
6363 Clouds 21 1016 80 10000 0.89 113 17:48 18.12.2021
6364 Clouds 21 1016 80 10000 0.89 99 16:26 18.12.2021
6365 Clouds 22 1015 80 10000 0.89 79 15:26 18.12.2021
6366 Clouds 21 1016 80 10000 0.89 96 14:32 18.12.2021
6367 Clouds 22 1017 80 10000 0.89 97 13:21 18.12.2021
6368 Clouds 23 1017 78 10000 1.79 90 11:21 18.12.2021
6369 Clouds 23 1017 76 10000 0.45 125 09:39 18.12.2021
6370 Clouds 24 1016 76 10000 0.45 137 08:46 18.12.2021
6371 Clouds 24 1016 76 10000 4.12 80 08:19 18.12.2021
6372 Clouds 26 1013 71 10000 5.14 150 02:51 18.12.2021
6373 Clouds 27 1013 69 10000 6.17 140 00:27 18.12.2021
6374 Clouds 27 1014 69 10000 0.45 96 23:39 17.12.2021
6375 Clouds 26 1016 71 10000 3.6 80 21:56 17.12.2021
6376 Clouds 26 1015 73 10000 1.54 0 20:58 17.12.2021
6377 Clouds 26 1016 73 10000 0 0 20:38 17.12.2021
6378 Clouds 24 1015 77 10000 0 0 19:18 17.12.2021
6379 Clouds 21 1015 80 10000 1.54 350 18:38 17.12.2021
6380 Clouds 22 1014 77 10000 2.57 360 17:26 17.12.2021
6381 Clouds 22 1014 78 10000 0 0 16:44 17.12.2021
6382 Rain 22 1014 77 10000 0 0 16:21 17.12.2021
6383 Rain 23 1014 74 10000 0.45 92 15:20 17.12.2021
6384 Clouds 22 1014 80 10000 2.24 71 14:38 17.12.2021
6385 Clouds 23 1014 76 10000 1.34 0 12:46 17.12.2021
6386 Clouds 23 1014 72 10000 1.34 85 11:27 17.12.2021
6387 Rain 22 1016 72 10000 1.79 0 09:59 17.12.2021
6388 Rain 22 1016 75 10000 1.79 78 08:58 17.12.2021
6389 Rain 23 1016 76 10000 1.79 87 08:29 17.12.2021
6390 Clouds 24 1015 71 10000 3.6 40 05:41 17.12.2021
6391 Clouds 27 1014 67 10000 4.63 90 02:52 17.12.2021
6392 Clouds 27 1017 61 10000 4.63 70 23:20 16.12.2021
6393 Clouds 27 1018 62 10000 4.12 70 22:23 16.12.2021
6394 Clouds 27 1018 62 10000 4.12 70 22:23 16.12.2021
6395 Clouds 26 1017 65 10000 4.12 70 21:47 16.12.2021
6396 Clouds 26 1017 66 10000 0.45 159 21:20 16.12.2021
6397 Clouds 25 1017 71 10000 1.34 73 20:27 16.12.2021
6398 Clouds 23 1017 79 10000 0.89 120 19:35 16.12.2021
6399 Clouds 22 1017 80 10000 0.45 93 18:37 16.12.2021
6400 Clouds 21 1016 80 10000 1.54 330 17:49 16.12.2021
6401 Clouds 22 1015 80 10000 3.09 70 16:55 16.12.2021
6402 Clouds 21 1016 81 10000 0.89 66 16:20 16.12.2021
6403 Clouds 22 1016 79 10000 0.89 65 14:32 16.12.2021
6404 Clouds 22 1017 75 10000 1.54 350 12:34 16.12.2021
6405 Clouds 22 1018 78 10000 3.09 80 11:19 16.12.2021
6406 Clouds 22 1018 78 10000 3.09 80 11:19 16.12.2021
6407 Clouds 23 1018 75 10000 0.89 87 10:45 16.12.2021
6408 Clouds 23 1018 76 10000 4.63 80 09:51 16.12.2021
6409 Clouds 24 1017 73 10000 4.63 50 07:19 16.12.2021
6410 Rain 24 1016 71 10000 0.45 155 06:18 16.12.2021
6411 Clouds 27 1015 65 10000 1.34 96 00:35 16.12.2021
6412 Clouds 27 1016 66 10000 6.69 60 23:20 15.12.2021
6413 Clouds 26 1018 67 10000 3.6 40 22:22 15.12.2021
6414 Clouds 26 1017 72 10000 0.89 109 21:45 15.12.2021
6415 Rain 26 1017 72 10000 3.09 40 21:25 15.12.2021
6416 Clouds 24 1017 76 10000 4.63 50 19:54 15.12.2021
6417 Clouds 23 1017 76 10000 4.63 50 19:19 15.12.2021
6418 Clouds 22 1015 79 10000 0.89 94 18:24 15.12.2021
6419 Clouds 22 1014 80 10000 0 0 17:46 15.12.2021
6420 Clouds 22 1014 79 10000 0 0 17:21 15.12.2021
6421 Clear 21 1015 80 10000 0.89 104 15:49 15.12.2021
6422 Rain 21 1015 81 10000 0 0 15:31 15.12.2021
6423 Rain 22 1014 78 10000 0.45 83 14:59 15.12.2021
6424 Rain 23 1015 76 10000 0 0 13:45 15.12.2021
6425 Clouds 23 1017 73 10000 2.57 40 11:52 15.12.2021
6426 Clouds 23 1017 75 10000 5.66 50 10:22 15.12.2021
6427 Rain 23 1017 77 10000 2.24 18 08:26 15.12.2021
6428 Rain 23 1015 75 10000 1.34 47 05:54 15.12.2021
6429 Clouds 26 1016 70 10000 7.2 50 00:39 15.12.2021
6430 Rain 25 1017 75 10000 0.89 54 23:31 14.12.2021
6431 Rain 25 1018 71 10000 1.34 100 22:44 14.12.2021
6432 Rain 24 1018 72 10000 2.24 68 21:43 14.12.2021
6433 Rain 24 1018 72 10000 2.24 68 21:43 14.12.2021
6434 Rain 24 1018 75 10000 0.89 80 20:22 14.12.2021
6435 Rain 23 1015 75 10000 2.68 90 19:34 14.12.2021
6436 Rain 22 1014 74 10000 2.68 152 18:38 14.12.2021
6437 Rain 22 1016 73 10000 2.68 58 17:56 14.12.2021
6438 Rain 22 1016 73 10000 1.34 59 16:47 14.12.2021
6439 Rain 22 1016 73 10000 1.79 58 16:28 14.12.2021
6440 Rain 22 1016 76 10000 2.24 68 14:32 14.12.2021
6441 Rain 22 1015 67 10000 2.68 113 12:58 14.12.2021
6442 Rain 23 1017 75 10000 7.72 60 11:44 14.12.2021
6443 Rain 22 1017 74 10000 1.79 345 11:20 14.12.2021
6444 Rain 23 1018 74 10000 2.68 117 09:55 14.12.2021
6445 Clear 23 1017 79 10000 1.79 55 08:58 14.12.2021
6446 Clouds 23 1018 78 10000 2.24 69 08:21 14.12.2021
6447 Clouds 23 1017 72 10000 2.68 71 07:23 14.12.2021
6448 Clouds 27 1016 63 10000 9.77 80 23:52 13.12.2021
6449 Clouds 27 1017 62 10000 2.24 96 22:26 13.12.2021
6450 Clouds 26 1018 64 10000 1.34 99 21:39 13.12.2021
6451 Clouds 25 1018 67 10000 1.34 71 20:51 13.12.2021
6452 Clouds 25 1017 67 10000 1.79 337 20:51 13.12.2021
6453 Clouds 25 1017 67 10000 2.24 25 20:21 13.12.2021
6454 Clouds 24 1017 70 10000 2.68 59 19:49 13.12.2021
6455 Clouds 23 1014 69 10000 1.34 59 17:27 13.12.2021
6456 Clouds 23 1016 70 10000 3.6 80 16:32 13.12.2021
6457 Clouds 23 1014 69 10000 1.79 75 15:43 13.12.2021
6458 Clouds 24 1014 70 10000 4.12 40 14:30 13.12.2021
6459 Clouds 24 1016 71 10000 1.79 96 13:36 13.12.2021
6460 Clouds 24 1016 72 10000 1.79 93 12:39 13.12.2021
6461 Clouds 24 1016 73 10000 2.24 87 11:50 13.12.2021
6462 Clouds 23 1016 73 10000 1.79 78 11:29 13.12.2021
6463 Clear 23 1017 74 10000 2.24 87 10:21 13.12.2021
6464 Clouds 23 1016 71 10000 2.24 59 08:43 13.12.2021
6465 Rain 23 1015 71 10000 3.13 89 06:54 13.12.2021
6466 Rain 25 1013 69 10000 2.68 80 04:52 13.12.2021
6467 Clear 26 1015 72 10000 1.79 71 23:55 12.12.2021
6468 Clouds 26 1017 71 10000 1.79 320 21:57 12.12.2021
6469 Clouds 25 1017 71 10000 1.79 140 20:48 12.12.2021
6470 Clouds 23 1017 73 10000 1.79 62 19:34 12.12.2021
6471 Rain 23 1017 74 10000 0.89 109 17:54 12.12.2021
6472 Rain 22 1016 74 10000 1.79 0 16:29 12.12.2021
6473 Clouds 22 1016 73 10000 1.79 58 15:53 12.12.2021
6474 Clouds 23 1016 74 10000 2.24 52 15:28 12.12.2021
6475 Rain 23 1016 73 10000 1.79 96 14:38 12.12.2021
6476 Clouds 23 1017 68 10000 0.89 86 13:43 12.12.2021
6477 Rain 23 1017 74 10000 1.34 75 12:37 12.12.2021
6478 Rain 23 1018 73 10000 4.63 60 11:45 12.12.2021
6479 Rain 23 1018 75 10000 1.34 55 11:25 12.12.2021
6480 Rain 24 1018 76 10000 1.34 100 10:43 12.12.2021
6481 Clouds 24 1018 74 10000 1.34 137 09:45 12.12.2021
6482 Clouds 24 1018 72 10000 8.23 50 08:38 12.12.2021
6483 Clouds 24 1014 73 10000 4.63 70 06:34 12.12.2021
6484 Clouds 24 1016 70 10000 1.34 39 05:27 12.12.2021
6485 Clouds 25 1013 74 10000 0.89 30 03:58 12.12.2021
6486 Clouds 26 1015 69 10000 1.34 99 00:36 12.12.2021
6487 Clouds 27 1017 67 10000 0.89 42 22:24 11.12.2021
6488 Clouds 27 1017 68 10000 1.79 10 21:52 11.12.2021
6489 Clouds 26 1017 69 10000 8.23 50 21:21 11.12.2021
6490 Clouds 24 1016 75 10000 2.24 85 19:37 11.12.2021
6491 Clouds 24 1016 74 10000 1.79 93 18:53 11.12.2021
6492 Clouds 23 1017 74 10000 2.24 0 18:30 11.12.2021
6493 Clouds 23 1016 73 10000 1.79 61 17:37 11.12.2021
6494 Clouds 23 1015 74 10000 0.89 51 15:55 11.12.2021
6495 Clouds 23 1015 74 10000 0.45 86 15:35 11.12.2021
6496 Rain 23 1016 75 10000 1.79 123 13:21 11.12.2021
6497 Rain 22 1013 74 10000 0.89 37 11:55 11.12.2021
6498 Rain 23 1013 70 10000 1.79 92 09:57 11.12.2021
6499 Clouds 23 1015 72 10000 1.79 14 09:34 11.12.2021
6500 Clouds 26 1015 66 10000 0.89 83 02:40 11.12.2021
6501 Rain 26 1015 70 10000 0.89 79 00:42 11.12.2021
6502 Clouds 26 1017 73 10000 0.89 76 23:24 10.12.2021
6503 Rain 25 1016 80 4828 0.89 76 21:57 10.12.2021
6504 Clouds 27 1018 71 10000 0.45 73 21:37 10.12.2021
6505 Clouds 25 1018 71 10000 5.66 60 19:22 10.12.2021
6506 Clouds 24 1017 75 10000 0.89 61 18:39 10.12.2021
6507 Clouds 23 1015 79 10000 1.34 102 16:57 10.12.2021
6508 Clouds 23 1015 76 10000 1.34 59 16:29 10.12.2021
6509 Clouds 23 1016 76 10000 1.79 350 15:41 10.12.2021
6510 Clouds 23 1016 76 10000 0.45 76 15:21 10.12.2021
6511 Clouds 24 1017 75 10000 1.79 69 13:52 10.12.2021
6512 Clouds 24 1016 74 10000 1.34 63 13:26 10.12.2021
6513 Clouds 24 1017 74 10000 0.89 85 12:45 10.12.2021
6514 Clouds 24 1017 72 10000 2.68 69 11:30 10.12.2021
6515 Clouds 24 1015 73 10000 1.34 38 10:38 10.12.2021
6516 Clouds 24 1014 73 10000 3.13 80 08:58 10.12.2021
6517 Clouds 24 1017 70 10000 2.24 103 06:56 10.12.2021
6518 Clouds 27 1016 62 10000 1.34 85 02:48 10.12.2021
6519 Clouds 27 1017 63 10000 1.34 103 00:38 10.12.2021
6520 Clouds 27 1018 62 10000 0.45 58 23:23 09.12.2021
6521 Clouds 27 1019 63 10000 0.89 34 22:28 09.12.2021
6522 Clouds 26 1017 70 10000 6.32 80 21:59 09.12.2021
6523 Clouds 26 1019 69 10000 0.45 23 21:18 09.12.2021
6524 Clouds 25 1019 72 10000 0.45 172 20:28 09.12.2021
6525 Clouds 24 1018 76 10000 2.57 40 19:21 09.12.2021
6526 Clouds 23 1017 75 10000 2.06 80 18:48 09.12.2021
6527 Clouds 23 1017 75 10000 1.34 40 17:56 09.12.2021
6528 Clouds 23 1017 74 10000 0.45 66 17:26 09.12.2021
6529 Clouds 23 1015 74 10000 0 0 16:55 09.12.2021
6530 Clouds 23 1016 74 10000 0.45 76 15:46 09.12.2021
6531 Clouds 23 1016 72 10000 4.12 80 14:48 09.12.2021
6532 Clouds 24 1014 72 10000 1.34 73 13:23 09.12.2021
6533 Clouds 24 1015 70 10000 1.79 99 12:40 09.12.2021
6534 Clouds 24 1017 72 10000 0.45 100 11:24 09.12.2021
6535 Clouds 24 1017 69 10000 2.24 63 09:44 09.12.2021
6536 Clouds 25 1014 70 10000 2.24 76 06:50 09.12.2021
6537 Clouds 25 1014 71 10000 1.34 73 03:41 09.12.2021
6538 Rain 27 1014 76 10000 6.17 140 23:44 08.12.2021
6539 Rain 27 1014 77 10000 6.17 140 23:21 08.12.2021
6540 Clouds 27 1015 75 10000 5.14 140 22:48 08.12.2021
6541 Clouds 26 1015 69 10000 5.14 40 21:42 08.12.2021
6542 Clouds 27 1015 72 10000 5.14 40 21:24 08.12.2021
6543 Clouds 24 1014 85 10000 5.66 80 19:58 08.12.2021
6544 Clouds 24 1014 88 10000 4.12 40 19:34 08.12.2021
6545 Clouds 23 1014 89 10000 3.6 10 18:45 08.12.2021
6546 Clouds 23 1013 93 10000 2.57 30 17:36 08.12.2021
6547 Clouds 23 1013 93 10000 2.57 30 17:36 08.12.2021
6548 Clouds 22 1013 94 10000 2.57 90 15:51 08.12.2021
6549 Rain 23 1013 94 10000 2.57 90 15:28 08.12.2021
6550 Clouds 22 1014 87 10000 1.54 60 14:31 08.12.2021
6551 Clouds 24 1014 90 10000 3.09 100 11:19 08.12.2021
6552 Clouds 24 1014 93 10000 1.54 130 10:31 08.12.2021
6553 Rain 24 1014 91 10000 2.57 110 08:56 08.12.2021
6554 Rain 23 1013 95 10000 2.57 40 07:25 08.12.2021
6555 Clear 23 1011 83 10000 2.57 360 04:24 08.12.2021
6556 Rain 24 1013 84 10000 2.57 20 23:33 07.12.2021
6557 Rain 23 1016 87 10000 3.09 50 21:43 07.12.2021
6558 Rain 23 1016 87 10000 3.09 50 21:23 07.12.2021
6559 Rain 21 1018 92 10000 2.57 360 20:20 07.12.2021
6560 Rain 20 1016 92 10000 3.09 20 18:43 07.12.2021
6561 Rain 21 1015 86 10000 2.57 320 17:48 07.12.2021
6562 Rain 21 1015 86 10000 2.57 320 17:19 07.12.2021
6563 Rain 20 1014 89 10000 6.69 340 16:28 07.12.2021
6564 Rain 20 1015 89 10000 5.14 340 15:23 07.12.2021
6565 Rain 20 1016 86 10000 3.6 310 13:53 07.12.2021
6566 Rain 21 1016 85 10000 6.17 300 12:49 07.12.2021
6567 Rain 20 1016 86 10000 5.66 350 11:27 07.12.2021
6568 Rain 20 1016 85 10000 7.2 340 10:33 07.12.2021
6569 Rain 21 1015 83 10000 5.14 40 07:57 07.12.2021
6570 Rain 22 1011 82 3219 5.14 310 05:59 07.12.2021
6571 Rain 23 1011 80 10000 3.6 20 05:33 07.12.2021
6572 Mist 24 1013 74 10000 2.06 140 23:45 06.12.2021
6573 Rain 23 1014 74 10000 9.77 120 22:44 06.12.2021
6574 Rain 23 1014 74 10000 9.77 120 22:22 06.12.2021
6575 Rain 23 1013 77 10000 1.34 59 21:46 06.12.2021
6576 Rain 22 1013 77 10000 0.45 103 20:33 06.12.2021
6577 Rain 23 1012 72 10000 0.45 94 19:27 06.12.2021
6578 Rain 22 1014 97 10000 6.17 140 18:57 06.12.2021
6579 Rain 24 1014 91 9460 9.71 165 17:56 06.12.2021
6580 Rain 23 1012 90 10000 7.2 160 17:36 06.12.2021
6581 Rain 23 1011 75 10000 0.45 185 16:21 06.12.2021
6582 Rain 23 1010 67 5139 1.79 180 14:54 06.12.2021
6583 Rain 22 1011 78 10000 0.45 171 13:45 06.12.2021
6584 Rain 23 1010 65 8619 0.89 220 13:45 06.12.2021
6585 Rain 23 1010 69 10000 0.89 166 12:39 06.12.2021
6586 Rain 23 1010 73 10000 2.68 144 10:31 06.12.2021
6587 Rain 22 1009 70 10000 6.34 162 07:59 06.12.2021
6588 Rain 21 1006 84 10000 4.63 90 03:52 06.12.2021
6589 Rain 19 1009 93 10000 5.66 120 22:28 05.12.2021
6590 Rain 20 1009 93 10000 2.57 130 21:26 05.12.2021
6591 Rain 21 1008 90 3219 3.6 210 20:58 05.12.2021
6592 Rain 21 1007 80 10000 3.6 140 20:18 05.12.2021
6593 Rain 21 1005 75 10000 4.12 170 19:26 05.12.2021
6594 Rain 21 1005 79 10000 4.12 180 18:37 05.12.2021
6595 Rain 21 1005 80 10000 3.6 190 17:53 05.12.2021
6596 Rain 21 1005 80 10000 3.6 190 17:34 05.12.2021
6597 Rain 20 1004 83 10000 3.6 180 16:38 05.12.2021
6598 Rain 20 1004 83 10000 3.6 180 16:19 05.12.2021
6599 Rain 20 1004 82 10000 4.12 190 14:48 05.12.2021
6600 Rain 20 1004 82 10000 4.12 190 14:30 05.12.2021
6601 Rain 20 1004 83 10000 3.6 190 13:36 05.12.2021
6602 Rain 20 1004 81 10000 4.12 190 12:47 05.12.2021
6603 Rain 20 1004 82 10000 4.12 190 12:27 05.12.2021
6604 Rain 20 1004 80 10000 4.63 190 11:47 05.12.2021
6605 Rain 20 1005 83 10000 5.66 210 10:44 05.12.2021
6606 Rain 19 1004 81 10000 0 0 09:51 05.12.2021
6607 Rain 19 1003 80 10000 1.54 0 06:31 05.12.2021
6608 Rain 22 1002 70 10000 4.12 260 01:38 05.12.2021
6609 Clouds 22 1004 65 10000 0.45 264 23:22 04.12.2021
6610 Clouds 21 1005 68 10000 1.54 360 21:52 04.12.2021
6611 Clouds 19 1005 77 10000 2.57 350 20:47 04.12.2021
6612 Clouds 17 1006 80 10000 1.54 40 19:54 04.12.2021
6613 Clouds 19 1005 72 10000 1.54 120 19:30 04.12.2021
6614 Clouds 19 1004 73 10000 2.13 261 17:58 04.12.2021
6615 Clouds 17 1005 79 10000 0 0 17:36 04.12.2021
6616 Clouds 16 1005 81 10000 1.54 40 16:47 04.12.2021
6617 Clouds 16 1005 80 10000 1.54 40 16:28 04.12.2021
6618 Clouds 18 1005 73 10000 0 0 13:39 04.12.2021
6619 Clouds 19 1007 68 10000 2.06 310 11:44 04.12.2021
6620 Clouds 19 1008 69 10000 2.06 310 11:19 04.12.2021
6621 Clouds 19 1008 65 10000 0.45 247 09:57 04.12.2021
6622 Clouds 20 1007 65 10000 3.09 10 08:38 04.12.2021
6623 Clouds 21 1007 66 10000 6.69 360 05:18 04.12.2021
6624 Clouds 22 1007 63 10000 8.23 360 04:39 04.12.2021
6625 Rain 24 1009 77 10000 8.75 330 23:48 03.12.2021
6626 Rain 25 1010 74 10000 2.06 340 22:54 03.12.2021
6627 Rain 25 1010 79 10000 0.45 165 21:58 03.12.2021
6628 Rain 24 1011 81 10000 5.66 300 21:24 03.12.2021
6629 Rain 24 1011 81 10000 0.45 230 20:42 03.12.2021
6630 Rain 23 1010 74 10000 5.66 330 19:28 03.12.2021
6631 Rain 23 1009 73 10000 3.48 326 18:24 03.12.2021
6632 Rain 23 1009 74 10000 3.59 310 17:31 03.12.2021
6633 Rain 22 1012 79 10000 0 0 13:45 03.12.2021
6634 Rain 22 1013 80 10000 0 0 12:49 03.12.2021
6635 Clouds 22 1013 80 10000 1.54 300 11:23 03.12.2021
6636 Clouds 23 1014 76 10000 1.54 10 09:25 03.12.2021
6637 Rain 23 1014 77 10000 5.14 280 08:20 03.12.2021
6638 Clouds 25 1013 74 10000 2.06 270 06:44 03.12.2021
6639 Clouds 27 1015 66 10000 3.6 160 00:50 03.12.2021
6640 Clouds 28 1015 67 10000 3.6 160 00:21 03.12.2021
6641 Clouds 27 1016 64 10000 4.63 170 23:38 02.12.2021
6642 Clouds 26 1017 73 10000 0 0 21:41 02.12.2021
6643 Clouds 26 1015 74 10000 1.54 100 20:46 02.12.2021
6644 Clouds 26 1015 74 10000 1.54 100 20:26 02.12.2021
6645 Clouds 23 1015 79 10000 1.54 10 19:23 02.12.2021
6646 Clouds 22 1013 81 10000 1.54 30 17:21 02.12.2021
6647 Clouds 22 1013 84 10000 0 0 15:41 02.12.2021
6648 Clear 22 1012 80 10000 0.35 142 14:57 02.12.2021